# Wetter Temperatur Luftdruck Luftfeuchtigkeit Sichtweite Windgeschwindigkeit Windrichtung Zeit
1 Clouds 25 1013 78 10000 2.06 30 09:27 02.10.2022
2 Clouds 26 1012 76 10000 3.6 30 07:30 02.10.2022
3 Clouds 30 1012 63 10000 6.71 70 02:54 02.10.2022
4 Clouds 29 1013 63 10000 4.63 40 00:45 02.10.2022
5 Clouds 30 1013 63 10000 4.63 40 00:20 02.10.2022
6 Clouds 29 1014 63 10000 5.14 40 22:36 01.10.2022
7 Clouds 27 1014 73 10000 3.09 80 20:21 01.10.2022
8 Clouds 24 1013 82 10000 2.06 360 17:55 01.10.2022
9 Clouds 24 1013 78 10000 2.06 350 16:30 01.10.2022
10 Clouds 25 1014 77 10000 3.58 70 14:25 01.10.2022
11 Clear 25 1014 77 10000 4.02 70 12:59 01.10.2022
12 Clouds 25 1015 74 10000 4.12 70 12:30 01.10.2022
13 Clouds 26 1015 73 10000 5.14 70 11:19 01.10.2022
14 Clouds 26 1015 74 10000 3.6 40 10:31 01.10.2022
15 Clouds 26 1015 74 10000 4.12 60 09:27 01.10.2022
16 Clouds 26 1015 74 10000 4.02 60 08:57 01.10.2022
17 Clear 29 1012 68 10000 0.89 130 03:59 01.10.2022
18 Clouds 30 1013 62 10000 6.17 50 03:28 01.10.2022
19 Clouds 30 1015 58 10000 4.63 60 23:47 30.09.2022
20 Clouds 29 1017 62 10000 5.14 100 22:32 30.09.2022
21 Clouds 29 1016 66 10000 5.14 90 21:22 30.09.2022
22 Clouds 28 1016 72 10000 4.12 50 20:43 30.09.2022
23 Clouds 25 1015 82 10000 1.79 68 19:32 30.09.2022
24 Rain 24 1015 86 10000 2.57 320 17:28 30.09.2022
25 Clouds 24 1016 85 10000 2.06 350 15:32 30.09.2022
26 Clouds 25 1016 81 10000 2.06 310 13:29 30.09.2022
27 Clouds 25 1014 78 10000 2.24 80 11:57 30.09.2022
28 Clouds 26 1017 72 10000 5.14 80 10:23 30.09.2022
29 Clouds 26 1016 71 10000 4.63 40 08:22 30.09.2022
30 Clouds 29 1014 62 10000 7.2 40 04:55 30.09.2022
31 Clouds 30 1014 62 10000 6.71 30 02:27 30.09.2022
32 Clouds 29 1018 59 10000 6.17 60 22:24 29.09.2022
33 Clouds 28 1018 60 10000 5.14 50 21:26 29.09.2022
34 Clouds 27 1017 68 10000 5.66 60 20:31 29.09.2022
35 Clouds 24 1016 76 10000 2.57 360 18:32 29.09.2022
36 Clouds 25 1016 73 10000 3.58 60 16:56 29.09.2022
37 Clouds 25 1016 72 10000 3.6 60 16:26 29.09.2022
38 Clouds 25 1016 71 10000 5.66 60 15:35 29.09.2022
39 Clouds 25 1016 71 10000 4.63 50 14:24 29.09.2022
40 Clouds 26 1016 71 10000 5.14 60 09:21 29.09.2022
41 Clouds 28 1015 59 10000 5.66 30 05:42 29.09.2022
42 Clouds 30 1015 51 10000 5.14 70 02:44 29.09.2022
43 Clouds 29 1018 56 10000 4.63 60 23:32 28.09.2022
44 Clouds 29 1016 56 10000 5.66 80 22:25 28.09.2022
45 Clouds 28 1017 60 10000 5.14 40 21:28 28.09.2022
46 Clouds 27 1017 64 10000 6.17 60 20:18 28.09.2022
47 Clouds 24 1015 76 10000 4.12 80 17:42 28.09.2022
48 Clouds 25 1015 71 10000 3.6 50 14:50 28.09.2022
49 Clouds 25 1016 72 10000 4.12 60 12:40 28.09.2022
50 Clouds 25 1016 73 10000 4.63 70 10:24 28.09.2022
51 Clouds 26 1015 70 10000 5.14 60 08:25 28.09.2022
52 Clouds 27 1015 67 10000 5.66 60 06:42 28.09.2022
53 Clouds 29 1014 60 10000 5.14 50 01:51 28.09.2022
54 Clouds 30 1016 55 10000 6.69 70 01:30 28.09.2022
55 Clouds 29 1014 60 10000 6.17 70 22:54 27.09.2022
56 Clouds 28 1016 64 10000 5.66 70 21:24 27.09.2022
57 Clouds 27 1016 69 10000 4.12 60 20:37 27.09.2022
58 Clouds 26 1016 73 10000 3.09 80 19:47 27.09.2022
59 Clouds 25 1016 76 10000 3.6 60 18:25 27.09.2022
60 Clouds 24 1015 79 10000 2.06 350 17:42 27.09.2022
61 Clouds 25 1016 75 10000 3.09 80 15:27 27.09.2022
62 Clouds 25 1016 74 10000 3.09 80 14:33 27.09.2022
63 Clouds 25 1016 76 10000 5.14 80 12:40 27.09.2022
64 Clouds 26 1016 73 10000 4.47 50 10:53 27.09.2022
65 Clouds 26 1016 71 10000 5.14 50 08:46 27.09.2022
66 Clouds 28 1014 62 10000 6.17 50 05:49 27.09.2022
67 Clouds 29 1016 62 10000 6.71 160 01:43 27.09.2022
68 Clouds 29 1017 64 10000 6.71 140 00:32 27.09.2022
69 Clouds 30 1016 58 10000 3.6 90 23:25 26.09.2022
70 Clouds 28 1016 66 10000 4.12 130 21:44 26.09.2022
71 Clouds 26 1016 75 10000 3.6 80 20:26 26.09.2022
72 Clouds 24 1016 85 10000 2.57 90 19:21 26.09.2022
73 Clouds 23 1016 87 10000 3.09 90 18:30 26.09.2022
74 Clouds 23 1015 87 10000 3.09 90 15:49 26.09.2022
75 Clouds 24 1016 86 10000 2.57 330 13:25 26.09.2022
76 Clouds 24 1017 86 10000 3.09 120 11:28 26.09.2022
77 Clouds 25 1017 87 10000 3.09 90 10:36 26.09.2022
78 Clouds 25 1017 87 10000 3.09 90 10:18 26.09.2022
79 Clouds 25 1017 86 10000 3.09 80 09:52 26.09.2022
80 Clouds 25 1017 86 10000 3.09 80 09:22 26.09.2022
81 Rain 27 1014 78 10000 3.6 150 05:50 26.09.2022
82 Rain 28 1013 72 10000 5.66 60 02:35 26.09.2022
83 Clouds 29 1016 69 10000 5.14 180 23:25 25.09.2022
84 Clouds 28 1015 71 10000 3.6 80 21:48 25.09.2022
85 Clouds 28 1015 71 10000 3.6 80 21:25 25.09.2022
86 Clouds 27 1015 75 10000 4.63 70 20:36 25.09.2022
87 Clouds 24 1014 88 10000 1.34 350 18:57 25.09.2022
88 Clouds 24 1014 87 10000 1.54 350 18:26 25.09.2022
89 Clouds 24 1014 87 10000 2.06 80 17:24 25.09.2022
90 Rain 24 1014 85 10000 2.06 340 16:21 25.09.2022
91 Rain 25 1014 84 10000 3.6 90 14:54 25.09.2022
92 Rain 25 1015 83 10000 3.6 90 14:19 25.09.2022
93 Clouds 25 1015 80 10000 4.12 80 11:34 25.09.2022
94 Clouds 26 1015 79 10000 5.14 80 09:44 25.09.2022
95 Clouds 27 1014 76 10000 3.6 90 07:43 25.09.2022
96 Clouds 27 1011 73 10000 6.17 130 05:25 25.09.2022
97 Clouds 29 1016 66 10000 5.66 120 23:37 24.09.2022
98 Clouds 28 1015 71 10000 4.12 120 21:20 24.09.2022
99 Clouds 27 1015 76 10000 1.54 10 20:32 24.09.2022
100 Clouds 24 1014 87 10000 2.06 10 19:20 24.09.2022
101 Clouds 24 1013 86 10000 2.57 80 16:56 24.09.2022
102 Clouds 25 1013 87 10000 3.09 90 15:29 24.09.2022
103 Clouds 24 1013 84 10000 4.12 90 14:37 24.09.2022
104 Rain 25 1012 84 10000 4.12 90 13:22 24.09.2022
105 Rain 26 1014 80 10000 4.63 80 12:23 24.09.2022
106 Clouds 26 1013 82 10000 1.34 70 09:59 24.09.2022
107 Clouds 26 1014 79 10000 4.12 90 08:58 24.09.2022
108 Rain 27 1013 74 10000 3.6 80 07:41 24.09.2022
109 Clouds 28 1010 70 10000 5.14 150 04:53 24.09.2022
110 Clouds 28 1012 73 10000 5.14 150 04:19 24.09.2022
111 Clouds 29 1014 69 10000 4.12 160 22:54 23.09.2022
112 Clouds 27 1014 72 10000 4.63 80 21:33 23.09.2022
113 Clouds 27 1012 75 10000 3.19 153 20:57 23.09.2022
114 Clouds 26 1013 77 10000 1.54 60 20:37 23.09.2022
115 Clouds 23 1013 92 10000 2.57 340 19:19 23.09.2022
116 Clouds 24 1012 87 10000 1.54 280 15:31 23.09.2022
117 Clear 24 1014 83 10000 0 0 12:39 23.09.2022
118 Clouds 25 1013 79 10000 4.63 90 09:36 23.09.2022
119 Clouds 27 1012 73 10000 6.71 70 06:51 23.09.2022
120 Clouds 29 1011 66 10000 6.71 130 00:42 23.09.2022
121 Clouds 29 1012 65 10000 3.6 100 23:23 22.09.2022
122 Clouds 29 1014 64 10000 4.12 100 22:27 22.09.2022
123 Clouds 28 1014 67 10000 3.09 100 21:19 22.09.2022
124 Clouds 26 1012 76 10000 3.09 90 19:58 22.09.2022
125 Clouds 23 1012 86 10000 1.54 360 17:38 22.09.2022
126 Rain 25 1013 80 10000 2.06 90 13:20 22.09.2022
127 Clouds 26 1013 75 10000 4.12 70 10:37 22.09.2022
128 Clear 26 1012 76 10000 4.02 30 08:58 22.09.2022
129 Clouds 27 1013 67 10000 3.6 30 07:27 22.09.2022
130 Clouds 29 1011 64 10000 6.17 60 04:36 22.09.2022
131 Clouds 30 1015 60 10000 6.71 60 23:32 21.09.2022
132 Clouds 28 1016 70 10000 4.63 70 21:51 21.09.2022
133 Rain 27 1015 73 10000 5.66 70 20:40 21.09.2022
134 Clouds 25 1014 78 10000 4.63 90 17:51 21.09.2022
135 Clouds 25 1013 79 10000 4.47 50 16:55 21.09.2022
136 Clouds 25 1015 78 10000 3.09 10 14:46 21.09.2022
137 Clouds 25 1015 79 10000 4.47 70 12:58 21.09.2022
138 Rain 25 1015 78 10000 5.14 70 11:30 21.09.2022
139 Rain 26 1016 77 10000 5.66 80 10:33 21.09.2022
140 Clouds 26 1015 74 10000 5.66 60 09:24 21.09.2022
141 Clouds 26 1011 77 10000 4.47 40 07:57 21.09.2022
142 Clouds 30 1014 62 10000 6.17 60 02:49 21.09.2022
143 Clouds 30 1014 60 10000 6.17 60 02:28 21.09.2022
144 Clouds 30 1015 56 10000 7.2 50 00:44 21.09.2022
145 Clouds 29 1015 61 10000 7.72 60 23:18 20.09.2022
146 Clouds 28 1014 64 10000 6.71 50 20:52 20.09.2022
147 Clouds 26 1014 73 10000 6.71 60 19:37 20.09.2022
148 Clouds 25 1013 71 10000 4.63 30 16:28 20.09.2022
149 Clouds 25 1014 70 10000 5.66 80 14:51 20.09.2022
150 Clouds 25 1015 70 10000 3.6 90 13:48 20.09.2022
151 Clouds 26 1014 69 10000 6.17 60 10:33 20.09.2022
152 Clouds 26 1013 69 10000 6.17 60 08:28 20.09.2022
153 Clouds 27 1013 65 10000 7.72 70 05:48 20.09.2022
154 Clouds 27 1013 65 10000 6.17 60 04:27 20.09.2022
155 Rain 28 1012 68 10000 5.81 60 22:59 19.09.2022
156 Clouds 29 1014 59 10000 6.17 60 22:18 19.09.2022
157 Clouds 27 1015 65 10000 5.14 80 20:51 19.09.2022
158 Clouds 27 1015 67 10000 5.14 80 20:31 19.09.2022
159 Clouds 25 1013 73 10000 4.12 40 17:46 19.09.2022
160 Clouds 25 1014 74 10000 4.63 50 15:37 19.09.2022
161 Clouds 25 1015 73 10000 4.12 70 13:33 19.09.2022
162 Clouds 26 1015 72 10000 5.66 60 11:28 19.09.2022
163 Clouds 26 1015 71 10000 7.2 60 08:51 19.09.2022
164 Clouds 27 1015 71 10000 5.66 60 07:25 19.09.2022
165 Rain 28 1015 73 10000 7.2 140 01:55 19.09.2022
166 Clouds 29 1016 67 10000 7.72 80 23:22 18.09.2022
167 Clouds 27 1016 76 10000 4.12 50 21:44 18.09.2022
168 Clouds 26 1016 79 10000 5.14 100 20:25 18.09.2022
169 Clouds 24 1014 85 10000 4.12 80 18:18 18.09.2022
170 Rain 24 1014 85 10000 3.6 90 17:37 18.09.2022
171 Clouds 25 1014 82 10000 2.57 110 15:44 18.09.2022
172 Clouds 25 1015 81 10000 3.6 90 13:50 18.09.2022
173 Clouds 26 1015 76 10000 4.12 90 12:35 18.09.2022
174 Clouds 25 1015 78 10000 4.63 70 10:55 18.09.2022
175 Clouds 29 1014 66 10000 4.12 40 03:42 18.09.2022
176 Clouds 30 1016 58 10000 7.72 130 01:24 18.09.2022
177 Clouds 29 1016 65 10000 3.09 60 00:23 18.09.2022
178 Clouds 28 1016 69 10000 3.09 50 21:39 17.09.2022
179 Clouds 24 1016 89 10000 2.06 340 19:42 17.09.2022
180 Clouds 23 1014 88 10000 0.89 54 18:57 17.09.2022
181 Clouds 24 1014 89 10000 1.34 360 15:58 17.09.2022
182 Clouds 24 1015 85 10000 3.09 320 13:56 17.09.2022
183 Clouds 25 1016 85 10000 0 0 10:56 17.09.2022
184 Clouds 25 1016 87 10000 0.45 44 08:34 17.09.2022
185 Rain 24 1014 91 10000 2.06 30 06:24 17.09.2022
186 Clouds 29 1016 67 10000 4.02 180 23:59 16.09.2022
187 Clouds 28 1016 70 10000 3.6 180 22:52 16.09.2022
188 Clouds 27 1015 74 10000 1.34 340 20:59 16.09.2022
189 Clouds 25 1015 83 10000 1.54 0 19:50 16.09.2022
190 Clouds 24 1014 86 10000 2.06 360 16:30 16.09.2022
191 Clear 24 1014 89 10000 1.25 64 14:58 16.09.2022
192 Clouds 24 1015 83 10000 2.06 10 13:43 16.09.2022
193 Clouds 25 1016 79 10000 2.57 80 10:50 16.09.2022
194 Clouds 26 1015 76 10000 3.6 70 08:19 16.09.2022
195 Clouds 27 1014 72 10000 4.63 50 06:48 16.09.2022
196 Clouds 27 1014 72 10000 4.63 50 06:25 16.09.2022
197 Rain 27 1014 72 10000 4.63 50 02:37 16.09.2022
198 Clouds 29 1017 65 10000 4.12 170 22:43 15.09.2022
199 Clouds 27 1016 73 10000 2.57 0 20:48 15.09.2022
200 Clouds 24 1015 83 10000 1.54 320 19:46 15.09.2022
201 Clouds 24 1014 85 10000 2.06 360 18:29 15.09.2022
202 Clouds 23 1014 82 10000 1.54 340 17:31 15.09.2022
203 Clouds 24 1014 82 10000 1.54 90 15:50 15.09.2022
204 Clouds 24 1015 81 10000 2.06 310 13:19 15.09.2022
205 Clouds 25 1016 76 10000 2.06 40 11:48 15.09.2022
206 Clouds 25 1015 75 10000 1.54 10 09:46 15.09.2022
207 Clouds 26 1015 68 10000 3.09 50 07:45 15.09.2022
208 Clouds 29 1013 56 10000 6.17 70 03:48 15.09.2022
209 Clouds 30 1016 58 10000 6.71 80 23:30 14.09.2022
210 Clouds 27 1015 68 10000 6.17 70 20:47 14.09.2022
211 Clouds 25 1014 75 10000 3.6 40 19:33 14.09.2022
212 Clouds 24 1014 78 10000 4.63 70 18:26 14.09.2022
213 Clouds 25 1014 77 10000 2.57 80 16:37 14.09.2022
214 Clouds 25 1014 78 10000 3.09 40 15:27 14.09.2022
215 Clouds 25 1015 77 10000 2.06 70 12:57 14.09.2022
216 Clouds 25 1015 73 10000 3.09 70 10:40 14.09.2022
217 Clouds 26 1015 69 10000 5.66 70 08:41 14.09.2022
218 Clouds 27 1014 67 10000 6.71 70 06:50 14.09.2022
219 Clouds 27 1014 67 10000 6.71 70 06:30 14.09.2022
220 Clouds 27 1014 67 10000 6.71 70 06:30 14.09.2022
221 Clouds 29 1014 62 10000 6.71 60 02:58 14.09.2022
222 Rain 29 1016 62 10000 8.23 80 01:39 14.09.2022
223 Rain 29 1016 61 10000 8.23 80 01:19 14.09.2022
224 Clouds 28 1016 70 10000 6.17 60 23:55 13.09.2022
225 Rain 29 1017 65 10000 6.69 40 23:37 13.09.2022
226 Rain 29 1017 64 10000 6.69 40 23:19 13.09.2022
227 Clouds 29 1017 64 10000 6.17 80 22:29 13.09.2022
228 Clouds 28 1017 65 10000 4.63 60 21:39 13.09.2022
229 Clouds 24 1015 81 10000 1.34 40 18:59 13.09.2022
230 Clouds 25 1015 79 10000 3.6 70 16:42 13.09.2022
231 Rain 25 1016 80 10000 5.14 70 15:31 13.09.2022
232 Clouds 25 1018 74 10000 4.12 50 13:40 13.09.2022
233 Clouds 25 1019 78 10000 5.66 80 10:30 13.09.2022
234 Clouds 27 1017 71 10000 4.63 60 07:56 13.09.2022
235 Clouds 30 1016 58 10000 6.71 40 02:22 13.09.2022
236 Clouds 29 1018 66 10000 5.66 70 23:22 12.09.2022
237 Clouds 28 1018 72 10000 5.14 60 22:40 12.09.2022
238 Clouds 28 1018 73 10000 3.6 50 21:21 12.09.2022
239 Clouds 24 1016 89 10000 2.24 360 19:58 12.09.2022
240 Rain 23 1017 87 10000 3.09 100 18:22 12.09.2022
241 Clouds 24 1016 84 10000 3.09 70 15:50 12.09.2022
242 Clouds 25 1017 80 10000 3.09 80 12:30 12.09.2022
243 Clouds 25 1017 79 10000 5.66 70 10:30 12.09.2022
244 Clouds 26 1016 73 10000 2.57 40 07:33 12.09.2022
245 Clouds 29 1014 65 10000 6.17 310 04:35 12.09.2022
246 Clouds 30 1016 63 10000 2.06 0 01:53 12.09.2022
247 Clouds 29 1016 66 10000 3.09 150 22:46 11.09.2022
248 Clouds 28 1017 68 10000 2.57 0 21:25 11.09.2022
249 Clouds 26 1016 75 10000 1.54 30 20:43 11.09.2022
250 Clouds 24 1015 85 10000 2.57 80 19:27 11.09.2022
251 Clouds 23 1013 88 10000 1.79 340 18:58 11.09.2022
252 Clouds 23 1013 87 10000 1.54 80 17:26 11.09.2022
253 Clouds 24 1013 85 10000 2.06 320 15:46 11.09.2022
254 Clouds 24 1014 85 10000 2.06 90 13:19 11.09.2022
255 Clouds 25 1014 81 10000 1.54 60 10:51 11.09.2022
256 Clouds 26 1012 76 10000 3.09 70 07:49 11.09.2022
257 Clouds 27 1011 71 10000 5.66 30 05:19 11.09.2022
258 Clouds 29 1012 63 10000 4.12 100 23:50 10.09.2022
259 Clouds 28 1013 68 10000 4.12 80 22:21 10.09.2022
260 Rain 25 1012 83 10000 3.6 60 20:24 10.09.2022
261 Rain 24 1012 86 10000 3.09 60 19:43 10.09.2022
262 Clouds 24 1012 87 10000 3.09 60 19:24 10.09.2022
263 Rain 24 1011 86 10000 3.09 80 17:19 10.09.2022
264 Clouds 25 1011 83 10000 3.6 90 15:35 10.09.2022
265 Rain 25 1012 83 10000 4.12 60 13:36 10.09.2022
266 Clouds 25 1012 82 10000 3.6 30 12:29 10.09.2022
267 Clouds 26 1013 79 10000 3.6 70 10:28 10.09.2022
268 Clouds 26 1011 78 10000 5.14 60 08:41 10.09.2022
269 Clouds 26 1011 79 10000 5.14 60 08:20 10.09.2022
270 Rain 27 1011 75 10000 6.17 30 03:43 10.09.2022
271 Rain 27 1012 80 10000 7.6 60 23:36 09.09.2022
272 Rain 26 1013 83 10000 7.72 60 22:31 09.09.2022
273 Clouds 25 1013 85 10000 2.57 20 20:49 09.09.2022
274 Rain 23 1012 90 10000 2.57 10 19:52 09.09.2022
275 Rain 23 1011 94 10000 2.24 40 19:22 09.09.2022
276 Rain 23 1012 93 10000 2.06 310 16:52 09.09.2022
277 Rain 23 1013 93 10000 0.89 37 14:42 09.09.2022
278 Clouds 24 1013 86 10000 2.06 50 13:18 09.09.2022
279 Rain 25 1014 79 10000 6.17 60 10:37 09.09.2022
280 Clouds 26 1013 69 10000 4.63 60 07:24 09.09.2022
281 Clouds 26 1013 69 10000 4.63 60 07:24 09.09.2022
282 Clouds 26 1013 69 10000 4.63 60 07:24 09.09.2022
283 Clouds 30 1013 57 10000 6.71 50 03:30 09.09.2022
284 Clouds 28 1017 67 10000 6.17 20 22:19 08.09.2022
285 Rain 28 1015 67 10000 6.17 50 21:47 08.09.2022
286 Clouds 26 1015 72 10000 5.66 40 20:46 08.09.2022
287 Clouds 26 1015 74 10000 5.14 50 20:24 08.09.2022
288 Clouds 24 1014 82 10000 4.12 60 18:34 08.09.2022
289 Clouds 25 1014 75 10000 6.17 60 16:47 08.09.2022
290 Clouds 25 1015 71 10000 4.12 60 14:42 08.09.2022
291 Clouds 25 1015 71 10000 5.14 70 13:27 08.09.2022
292 Clouds 25 1016 73 10000 4.63 80 12:33 08.09.2022
293 Clouds 26 1015 74 10000 5.14 60 10:58 08.09.2022
294 Clouds 26 1015 74 10000 5.14 60 10:58 08.09.2022
295 Clear 26 1016 74 10000 4.63 60 08:59 08.09.2022
296 Clouds 27 1015 66 10000 6.71 70 06:43 08.09.2022
297 Clouds 30 1015 60 10000 9.77 60 02:37 08.09.2022
298 Clouds 30 1015 60 10000 9.77 60 02:19 08.09.2022
299 Haze 30 1015 59 10000 6.71 40 01:38 08.09.2022
300 Clouds 29 1015 65 10000 7.6 50 22:55 07.09.2022
301 Clouds 28 1016 68 10000 6.71 40 21:43 07.09.2022
302 Clouds 27 1016 71 10000 5.36 80 20:56 07.09.2022
303 Clouds 26 1015 75 10000 7.15 60 19:53 07.09.2022
304 Clouds 26 1014 77 10000 6.17 50 18:37 07.09.2022
305 Clouds 26 1015 76 10000 5.66 70 14:45 07.09.2022
306 Clouds 26 1015 78 10000 7.2 80 10:49 07.09.2022
307 Clouds 27 1016 72 10000 5.66 60 09:39 07.09.2022
308 Clouds 27 1015 71 10000 7.72 60 07:35 07.09.2022
309 Clouds 29 1014 64 10000 8.75 60 03:33 07.09.2022
310 Clouds 30 1014 63 10000 8.23 80 23:38 06.09.2022
311 Clouds 28 1016 70 10000 6.71 70 21:42 06.09.2022
312 Clouds 28 1016 70 10000 6.71 70 21:21 06.09.2022
313 Clouds 26 1014 77 10000 4.12 50 18:49 06.09.2022
314 Clouds 26 1014 77 10000 4.12 50 18:22 06.09.2022
315 Clouds 25 1014 81 10000 6.17 60 17:22 06.09.2022
316 Clouds 25 1014 79 10000 5.14 80 16:37 06.09.2022
317 Clouds 25 1014 79 10000 6.17 70 15:22 06.09.2022
318 Clouds 26 1015 81 10000 2.57 30 13:45 06.09.2022
319 Clouds 26 1015 81 10000 2.57 30 13:23 06.09.2022
320 Clouds 26 1015 82 10000 2.68 40 11:57 06.09.2022
321 Clouds 26 1016 81 10000 4.12 50 10:41 06.09.2022
322 Clouds 26 1015 77 10000 6.69 50 08:50 06.09.2022
323 Clouds 26 1014 78 10000 6.17 30 07:37 06.09.2022
324 Clouds 29 1013 66 10000 5.66 60 02:43 06.09.2022
325 Clouds 29 1016 60 10000 7.2 60 23:22 05.09.2022
326 Clouds 28 1016 63 10000 6.17 60 21:52 05.09.2022
327 Clouds 27 1016 68 10000 5.14 60 20:32 05.09.2022
328 Clouds 25 1016 76 10000 4.12 80 19:18 05.09.2022
329 Clouds 24 1015 79 10000 4.12 40 18:44 05.09.2022
330 Clouds 24 1015 78 10000 4.12 40 18:21 05.09.2022
331 Clouds 25 1015 76 10000 3.6 80 16:27 05.09.2022
332 Clouds 25 1015 75 10000 6.17 50 15:46 05.09.2022
333 Clouds 25 1016 74 10000 4.63 60 13:25 05.09.2022
334 Clouds 25 1016 74 10000 5.66 60 12:26 05.09.2022
335 Clouds 25 1016 74 10000 4.63 60 09:19 05.09.2022
336 Clouds 27 1015 66 10000 5.14 40 06:40 05.09.2022
337 Clouds 30 1015 65 10000 7.72 90 01:56 05.09.2022
338 Clouds 29 1017 69 10000 7.2 70 22:44 04.09.2022
339 Clouds 29 1017 71 10000 7.2 70 22:25 04.09.2022
340 Clouds 27 1016 81 10000 3.6 60 20:43 04.09.2022
341 Clouds 25 1016 91 10000 1.79 70 19:20 04.09.2022
342 Rain 24 1015 93 9656 3.6 80 17:43 04.09.2022
343 Rain 24 1015 92 10000 1.79 85 16:28 04.09.2022
344 Clouds 25 1016 84 10000 1.54 20 14:27 04.09.2022
345 Clouds 25 1016 82 10000 2.68 30 12:57 04.09.2022
346 Clouds 25 1017 79 10000 5.14 70 11:37 04.09.2022
347 Clouds 26 1014 75 10000 5.14 50 09:39 04.09.2022
348 Clouds 27 1015 74 10000 6.17 50 06:40 04.09.2022
349 Clouds 28 1014 72 10000 4.63 50 03:30 04.09.2022
350 Rain 28 1017 74 10000 4.63 90 23:33 03.09.2022
351 Rain 26 1017 86 4828 3.6 50 22:18 03.09.2022
352 Clouds 26 1017 84 10000 3.6 60 21:22 03.09.2022
353 Clouds 26 1017 84 10000 3.6 60 21:22 03.09.2022
354 Clouds 24 1016 94 10000 2.57 30 18:49 03.09.2022
355 Clouds 24 1015 94 10000 1.54 340 17:22 03.09.2022
356 Clouds 24 1015 94 10000 1.54 340 17:22 03.09.2022
357 Clouds 24 1014 91 10000 1.34 30 15:54 03.09.2022
358 Rain 24 1015 94 10000 1.54 30 14:42 03.09.2022
359 Rain 24 1014 88 10000 2.57 50 13:50 03.09.2022
360 Clouds 25 1016 79 10000 6.69 50 11:34 03.09.2022
361 Clouds 26 1015 73 10000 5.66 50 09:37 03.09.2022
362 Clouds 26 1014 76 10000 5.66 50 07:54 03.09.2022
363 Clouds 28 1012 68 10000 4.12 50 04:55 03.09.2022
364 Clouds 30 1013 57 10000 5.66 40 02:49 03.09.2022
365 Clouds 29 1015 59 10000 6.17 40 23:46 02.09.2022
366 Clouds 27 1015 72 10000 6.17 60 22:23 02.09.2022
367 Clouds 24 1015 86 10000 1.54 0 20:42 02.09.2022
368 Clouds 24 1015 87 10000 1.54 0 20:18 02.09.2022
369 Rain 23 1015 94 10000 2.06 10 18:51 02.09.2022
370 Rain 23 1014 92 10000 2.06 10 18:25 02.09.2022
371 Rain 23 1014 89 10000 2.06 360 17:25 02.09.2022
372 Clouds 23 1014 86 10000 2.57 30 16:31 02.09.2022
373 Clouds 25 1015 79 10000 5.14 60 13:42 02.09.2022
374 Clouds 26 1014 74 10000 4.47 30 10:57 02.09.2022
375 Clouds 26 1015 70 10000 6.69 70 09:45 02.09.2022
376 Clouds 26 1014 70 10000 5.14 70 08:46 02.09.2022
377 Clouds 27 1014 63 10000 6.17 60 06:46 02.09.2022
378 Clouds 27 1014 61 10000 6.17 60 06:21 02.09.2022
379 Clouds 30 1016 50 10000 6.17 50 00:20 02.09.2022
380 Rain 27 1016 62 10000 5.81 60 21:56 01.09.2022
381 Rain 27 1016 60 10000 6.17 60 21:37 01.09.2022
382 Rain 27 1016 61 10000 6.17 60 21:18 01.09.2022
383 Rain 24 1016 73 10000 4.12 60 19:32 01.09.2022
384 Clouds 24 1015 76 10000 4.12 40 18:18 01.09.2022
385 Clouds 24 1015 76 10000 3.09 60 16:51 01.09.2022
386 Clouds 24 1016 74 10000 4.12 70 14:51 01.09.2022
387 Clouds 25 1016 72 10000 3.6 80 13:21 01.09.2022
388 Clouds 25 1017 72 10000 3.09 80 12:42 01.09.2022
389 Clouds 25 1017 70 10000 3.6 70 11:50 01.09.2022
390 Clouds 25 1017 70 10000 3.6 70 11:19 01.09.2022
391 Clouds 25 1016 70 10000 6.17 80 09:20 01.09.2022
392 Clouds 27 1016 62 10000 7.72 70 06:31 01.09.2022
393 Clouds 30 1015 57 10000 7.2 50 02:33 01.09.2022
394 Clouds 30 1016 54 10000 7.72 50 01:29 01.09.2022
395 Clouds 29 1017 61 10000 5.14 60 22:22 31.08.2022
396 Clouds 26 1016 74 10000 2.06 320 20:27 31.08.2022
397 Clouds 23 1016 87 10000 1.54 360 18:19 31.08.2022
398 Rain 23 1016 88 10000 2.57 360 16:32 31.08.2022
399 Rain 23 1015 84 10000 2.24 340 14:58 31.08.2022
400 Clouds 24 1016 79 10000 2.57 320 12:30 31.08.2022
401 Clouds 25 1017 76 10000 2.57 80 11:38 31.08.2022
402 Clouds 25 1016 75 10000 2.57 30 09:25 31.08.2022
403 Clouds 28 1016 64 10000 5.66 60 06:35 31.08.2022
404 Clouds 30 1014 56 10000 4.63 70 01:25 31.08.2022
405 Clouds 28 1016 68 10000 5.14 60 21:49 30.08.2022
406 Clouds 28 1015 70 10000 5.14 70 20:59 30.08.2022
407 Clouds 24 1014 84 10000 3.09 20 18:52 30.08.2022
408 Clouds 24 1014 82 10000 2.57 80 15:43 30.08.2022
409 Clouds 25 1014 81 10000 2.57 80 13:25 30.08.2022
410 Clouds 25 1015 78 10000 4.63 50 11:22 30.08.2022
411 Clouds 25 1014 80 10000 4.02 60 10:57 30.08.2022
412 Clouds 26 1014 74 10000 4.12 70 07:50 30.08.2022
413 Clouds 29 1012 66 10000 6.17 50 02:55 30.08.2022
414 Clouds 29 1014 62 10000 6.17 80 23:22 29.08.2022
415 Clouds 28 1015 64 10000 4.63 30 22:28 29.08.2022
416 Clouds 28 1015 66 10000 5.14 80 21:26 29.08.2022
417 Clouds 25 1014 78 10000 2.57 80 19:54 29.08.2022
418 Clouds 24 1014 79 10000 3.09 60 17:54 29.08.2022
419 Clouds 24 1014 77 10000 3.09 60 17:25 29.08.2022
420 Clouds 24 1014 79 10000 3.09 90 16:40 29.08.2022
421 Clouds 25 1014 76 10000 5.66 70 14:47 29.08.2022
422 Clouds 25 1015 74 10000 4.63 70 13:21 29.08.2022
423 Clouds 25 1015 75 10000 3.6 80 11:20 29.08.2022
424 Clouds 25 1014 74 10000 4.63 70 09:48 29.08.2022
425 Clouds 25 1014 73 10000 2.57 100 08:29 29.08.2022
426 Clouds 28 1012 60 10000 6.69 70 04:57 29.08.2022
427 Clouds 29 1015 57 10000 6.17 80 00:20 29.08.2022
428 Clouds 28 1015 62 10000 5.14 70 22:37 28.08.2022
429 Clouds 27 1015 65 10000 6.71 60 21:43 28.08.2022
430 Clouds 26 1016 73 10000 5.14 70 20:54 28.08.2022
431 Clouds 24 1016 78 10000 3.09 30 19:23 28.08.2022
432 Rain 23 1016 84 10000 3.09 30 18:20 28.08.2022
433 Clouds 24 1015 80 10000 5.14 80 16:57 28.08.2022
434 Clouds 24 1016 78 10000 4.12 90 15:55 28.08.2022
435 Clouds 24 1016 81 10000 4.12 70 14:21 28.08.2022
436 Rain 25 1017 75 10000 5.66 60 12:32 28.08.2022
437 Clouds 25 1017 72 10000 6.71 40 10:42 28.08.2022
438 Clouds 26 1017 68 10000 5.66 50 09:41 28.08.2022
439 Clouds 26 1017 71 10000 6.17 50 08:36 28.08.2022
440 Clouds 26 1016 68 10000 4.63 20 07:41 28.08.2022
441 Clouds 30 1015 53 10000 8.75 40 01:31 28.08.2022
442 Clouds 30 1017 55 10000 8.23 50 00:22 28.08.2022
443 Clouds 29 1017 63 10000 7.72 80 22:32 27.08.2022
444 Clouds 28 1016 63 10000 8.75 60 21:24 27.08.2022
445 Clouds 26 1016 72 10000 6.17 60 19:39 27.08.2022
446 Clouds 25 1015 72 10000 5.66 60 16:42 27.08.2022
447 Clouds 25 1016 74 10000 6.69 60 15:39 27.08.2022
448 Clouds 26 1017 77 10000 7.72 70 14:35 27.08.2022
449 Clouds 26 1017 78 10000 6.17 70 12:22 27.08.2022
450 Clouds 26 1017 76 10000 6.17 80 10:33 27.08.2022
451 Clouds 26 1015 76 10000 5.14 80 09:40 27.08.2022
452 Clouds 27 1014 73 10000 7.2 50 06:55 27.08.2022
453 Clouds 30 1015 62 10000 7.2 80 02:31 27.08.2022
454 Clouds 30 1015 60 10000 6.71 40 23:51 26.08.2022
455 Clear 28 1016 70 10000 0.89 161 21:59 26.08.2022
456 Clouds 27 1016 74 10000 3.6 80 20:23 26.08.2022
457 Clouds 24 1015 84 10000 2.06 90 18:59 26.08.2022
458 Clouds 25 1015 81 10000 3.6 90 16:42 26.08.2022
459 Clouds 25 1015 80 10000 4.12 90 15:26 26.08.2022
460 Clouds 25 1016 78 10000 4.12 60 13:26 26.08.2022
461 Clouds 25 1016 76 10000 3.6 70 12:34 26.08.2022
462 Clouds 26 1016 76 10000 4.63 60 11:22 26.08.2022
463 Clouds 26 1016 75 10000 4.12 80 09:53 26.08.2022
464 Clouds 27 1013 75 10000 3.09 90 04:56 26.08.2022
465 Clouds 29 1015 65 10000 4.92 170 00:55 26.08.2022
466 Clouds 29 1016 65 10000 4.63 140 22:45 25.08.2022
467 Clouds 27 1015 74 10000 3.09 60 20:59 25.08.2022
468 Clouds 25 1015 82 10000 2.06 310 19:47 25.08.2022
469 Clouds 23 1014 83 10000 1.54 0 18:36 25.08.2022
470 Clear 23 1014 83 10000 2.06 360 17:32 25.08.2022
471 Clear 23 1015 87 10000 1.54 20 16:45 25.08.2022
472 Clear 24 1015 84 10000 1.54 30 15:37 25.08.2022
473 Clouds 24 1015 83 10000 2.06 120 13:59 25.08.2022
474 Clouds 26 1016 77 10000 4.12 50 11:25 25.08.2022
475 Clouds 26 1017 76 10000 2.57 80 10:44 25.08.2022
476 Clouds 26 1015 78 10000 4.12 30 07:35 25.08.2022
477 Clouds 28 1014 72 10000 6.69 150 03:44 25.08.2022
478 Clouds 29 1015 66 10000 5.66 150 23:37 24.08.2022
479 Clouds 29 1015 67 10000 4.12 100 22:56 24.08.2022
480 Clouds 28 1015 69 10000 4.63 120 21:55 24.08.2022
481 Clouds 28 1015 70 10000 4.63 120 21:28 24.08.2022
482 Clouds 25 1014 81 10000 2.06 340 19:56 24.08.2022
483 Clear 24 1013 89 10000 1.34 320 16:58 24.08.2022
484 Clear 24 1013 88 10000 2.52 72 15:54 24.08.2022
485 Clear 24 1014 88 10000 2.06 0 15:18 24.08.2022
486 Clouds 24 1015 87 10000 0 0 12:51 24.08.2022
487 Clouds 25 1015 86 10000 2.06 20 11:18 24.08.2022
488 Clouds 26 1014 81 10000 2.57 130 08:45 24.08.2022
489 Clouds 27 1014 77 10000 3.6 170 06:23 24.08.2022
490 Clouds 28 1014 70 10000 4.12 170 00:53 24.08.2022
491 Rain 26 1015 88 10000 2.57 360 22:38 23.08.2022
492 Rain 25 1014 91 10000 3.09 210 21:55 23.08.2022
493 Rain 24 1014 96 10000 2.06 250 20:43 23.08.2022
494 Rain 23 1013 95 4023 4.12 260 18:58 23.08.2022
495 Rain 23 1013 95 4023 3.6 260 17:56 23.08.2022
496 Rain 23 1013 92 10000 2.06 340 17:21 23.08.2022
497 Clouds 23 1014 90 10000 1.54 20 15:54 23.08.2022
498 Clouds 24 1015 88 10000 3.6 30 13:54 23.08.2022
499 Clouds 24 1016 84 10000 4.02 30 12:46 23.08.2022
500 Clear 24 1014 89 10000 0.89 107 10:57 23.08.2022
501 Clouds 25 1016 83 10000 3.09 50 10:32 23.08.2022
502 Rain 25 1015 82 10000 5.14 110 08:55 23.08.2022
503 Clouds 26 1015 74 10000 4.63 80 08:22 23.08.2022
504 Clouds 26 1014 72 10000 3.6 30 07:52 23.08.2022
505 Clouds 26 1014 71 10000 3.6 30 07:22 23.08.2022
506 Clouds 27 1014 70 10000 5.14 50 06:22 23.08.2022
507 Clouds 29 1015 60 10000 5.66 40 01:43 23.08.2022
508 Clouds 29 1016 56 10000 7.72 40 00:26 23.08.2022
509 Clouds 29 1016 60 10000 7.2 50 23:30 22.08.2022
510 Clouds 29 1017 61 10000 6.17 40 22:19 22.08.2022
511 Clouds 25 1016 71 10000 5.66 70 19:51 22.08.2022
512 Clouds 25 1016 74 10000 5.66 70 19:30 22.08.2022
513 Clouds 24 1015 78 10000 6.69 60 18:36 22.08.2022
514 Clouds 25 1015 76 10000 4.63 70 15:45 22.08.2022
515 Clouds 25 1016 74 10000 3.6 80 14:46 22.08.2022
516 Clouds 26 1017 71 10000 6.69 70 11:20 22.08.2022
517 Clouds 26 1017 71 10000 6.17 70 09:20 22.08.2022
518 Clouds 28 1015 62 10000 7.2 40 04:45 22.08.2022
519 Clouds 29 1017 57 10000 7.72 60 00:54 22.08.2022
520 Clouds 30 1018 56 10000 7.72 60 00:35 22.08.2022
521 Clouds 29 1018 60 10000 7.72 50 22:56 21.08.2022
522 Clouds 28 1018 63 10000 6.17 40 21:45 21.08.2022
523 Clear 27 1016 69 10000 0.89 106 20:58 21.08.2022
524 Clouds 25 1017 74 10000 6.69 60 19:28 21.08.2022
525 Clouds 24 1017 76 10000 8.23 60 18:28 21.08.2022
526 Clouds 25 1016 74 10000 5.14 50 16:29 21.08.2022
527 Clouds 25 1016 77 10000 4.63 60 15:46 21.08.2022
528 Clouds 24 1017 78 10000 2.57 50 14:35 21.08.2022
529 Clouds 25 1017 76 10000 4.12 60 13:43 21.08.2022
530 Clouds 25 1018 74 10000 4.12 70 12:37 21.08.2022
531 Clouds 26 1017 74 10000 5.66 60 09:32 21.08.2022
532 Clouds 26 1017 70 10000 6.17 60 08:56 21.08.2022
533 Clouds 26 1017 70 10000 6.17 60 08:38 21.08.2022
534 Clouds 27 1017 70 10000 6.71 50 07:28 21.08.2022
535 Clouds 29 1015 61 10000 6.17 50 04:18 21.08.2022
536 Clouds 30 1017 57 10000 8.23 70 00:31 21.08.2022
537 Clouds 29 1017 63 10000 5.81 90 22:59 20.08.2022
538 Clouds 28 1017 64 10000 4.63 80 21:43 20.08.2022
539 Clouds 27 1017 69 10000 5.66 70 20:44 20.08.2022
540 Clouds 25 1017 75 10000 4.63 70 19:41 20.08.2022
541 Clouds 25 1017 75 10000 5.14 70 18:33 20.08.2022
542 Clouds 25 1017 77 10000 4.63 50 17:52 20.08.2022
543 Clouds 25 1017 76 10000 4.63 50 17:18 20.08.2022
544 Clouds 25 1017 76 10000 5.66 70 15:37 20.08.2022
545 Clouds 26 1018 77 10000 4.12 60 13:27 20.08.2022
546 Clouds 26 1018 74 10000 6.17 60 11:52 20.08.2022
547 Clouds 26 1017 74 10000 5.66 70 09:43 20.08.2022
548 Clouds 26 1017 75 10000 5.66 50 08:34 20.08.2022
549 Clouds 27 1015 72 10000 6.71 60 05:55 20.08.2022
550 Clouds 30 1016 58 10000 8.23 60 01:46 20.08.2022
551 Clouds 30 1016 57 10000 8.75 80 00:35 20.08.2022
552 Clouds 30 1015 60 10000 7.72 70 23:19 19.08.2022
553 Clouds 29 1017 63 10000 6.17 120 22:33 19.08.2022
554 Clouds 27 1016 71 10000 4.63 90 20:20 19.08.2022
555 Clouds 25 1015 80 10000 4.12 70 17:35 19.08.2022
556 Clouds 25 1015 79 10000 5.14 50 15:19 19.08.2022
557 Clouds 26 1016 78 10000 5.66 60 13:21 19.08.2022
558 Clouds 26 1016 79 10000 5.66 60 10:53 19.08.2022
559 Clouds 26 1016 80 10000 5.66 60 10:21 19.08.2022
560 Clouds 28 1014 73 10000 8.23 80 06:27 19.08.2022
561 Clouds 30 1016 66 10000 5.66 90 00:57 19.08.2022
562 Clouds 30 1016 65 10000 5.66 90 00:28 19.08.2022
563 Clouds 30 1016 61 10000 6.17 90 23:38 18.08.2022
564 Clouds 29 1017 65 10000 4.12 90 22:49 18.08.2022
565 Clouds 28 1016 70 10000 4.92 70 21:55 18.08.2022
566 Clouds 29 1016 70 10000 5.14 70 21:26 18.08.2022
567 Clouds 26 1015 81 10000 3.09 80 19:56 18.08.2022
568 Clouds 26 1015 81 10000 3.09 80 19:26 18.08.2022
569 Clouds 25 1014 84 10000 4.12 80 17:50 18.08.2022
570 Clouds 25 1014 84 10000 3.6 80 16:55 18.08.2022
571 Clouds 25 1014 83 10000 3.09 70 14:42 18.08.2022
572 Clouds 25 1014 82 10000 4.92 70 14:19 18.08.2022
573 Clouds 25 1015 81 10000 3.09 30 12:55 18.08.2022
574 Clouds 25 1015 81 10000 4.63 70 11:31 18.08.2022
575 Clouds 26 1014 79 10000 5.14 70 09:43 18.08.2022
576 Clouds 26 1014 75 10000 3.6 70 08:37 18.08.2022
577 Clouds 27 1013 74 10000 5.36 40 07:18 18.08.2022
578 Clouds 30 1012 66 10000 5.66 60 03:23 18.08.2022
579 Clouds 29 1015 67 10000 4.63 60 23:18 17.08.2022
580 Clouds 28 1015 70 10000 3.6 100 21:28 17.08.2022
581 Clear 26 1013 81 10000 1.34 330 19:59 17.08.2022
582 Clear 24 1013 89 10000 1.34 320 18:58 17.08.2022
583 Clear 23 1014 89 10000 1.54 10 17:28 17.08.2022
584 Clear 24 1013 88 10000 1.54 340 16:21 17.08.2022
585 Clouds 24 1013 88 10000 2.06 340 15:18 17.08.2022
586 Clouds 25 1015 83 10000 3.6 120 12:52 17.08.2022
587 Clouds 25 1015 82 10000 2.57 110 11:36 17.08.2022
588 Clouds 26 1014 81 10000 3.09 90 09:30 17.08.2022
589 Clouds 26 1013 77 10000 2.06 180 07:36 17.08.2022
590 Clouds 29 1014 68 10000 4.63 30 02:21 17.08.2022
591 Clouds 29 1016 62 10000 4.12 170 23:45 16.08.2022
592 Clouds 28 1016 68 10000 2.06 0 21:52 16.08.2022
593 Clouds 26 1015 78 10000 0 0 20:26 16.08.2022
594 Clouds 23 1014 87 10000 2.06 340 19:40 16.08.2022
595 Clouds 23 1014 87 10000 2.57 320 18:18 16.08.2022
596 Clouds 23 1014 85 10000 2.57 340 17:28 16.08.2022
597 Clouds 23 1014 86 10000 2.57 360 15:46 16.08.2022
598 Rain 23 1014 83 10000 3.09 160 14:55 16.08.2022
599 Rain 23 1014 83 10000 3.09 160 14:36 16.08.2022
600 Clouds 24 1016 80 10000 1.54 70 12:40 16.08.2022
601 Clouds 25 1016 75 10000 2.57 90 10:29 16.08.2022
602 Clouds 25 1016 75 10000 2.57 70 09:29 16.08.2022
603 Clouds 25 1015 72 10000 4.12 70 08:26 16.08.2022
604 Clouds 26 1015 70 10000 5.66 40 07:20 16.08.2022
605 Clouds 30 1017 60 10000 6.17 40 01:20 16.08.2022
606 Clouds 29 1018 59 10000 4.63 90 22:26 15.08.2022
607 Clouds 28 1017 65 10000 3.6 90 21:51 15.08.2022
608 Clouds 27 1017 67 10000 3.6 40 20:35 15.08.2022
609 Clouds 26 1015 73 10000 0.45 138 19:59 15.08.2022
610 Clouds 24 1016 80 10000 1.54 260 18:20 15.08.2022
611 Clouds 24 1015 77 10000 2.57 40 16:26 15.08.2022
612 Clouds 24 1016 77 10000 3.09 40 15:55 15.08.2022
613 Clouds 25 1017 74 10000 3.6 100 13:54 15.08.2022
614 Clouds 26 1018 70 10000 5.66 60 11:25 15.08.2022
615 Clouds 26 1016 71 10000 4.12 60 09:42 15.08.2022
616 Clouds 26 1016 69 10000 6.71 70 07:44 15.08.2022
617 Clouds 29 1015 59 10000 6.71 70 04:34 15.08.2022
618 Clouds 29 1017 58 10000 7.2 50 00:33 15.08.2022
619 Rain 28 1017 64 10000 7.72 60 22:30 14.08.2022
620 Clouds 28 1017 60 10000 6.71 50 21:37 14.08.2022
621 Clouds 26 1016 71 10000 4.63 60 19:47 14.08.2022
622 Clouds 24 1016 75 10000 5.66 60 18:53 14.08.2022
623 Clouds 24 1016 76 10000 5.66 60 18:18 14.08.2022
624 Clouds 24 1016 74 10000 4.63 60 16:50 14.08.2022
625 Clouds 25 1016 74 10000 4.63 60 15:48 14.08.2022
626 Clouds 25 1016 74 10000 4.92 60 14:19 14.08.2022
627 Clouds 25 1016 72 10000 5.14 60 13:49 14.08.2022
628 Clouds 25 1016 72 10000 5.14 60 13:18 14.08.2022
629 Clouds 26 1017 71 10000 5.66 60 11:50 14.08.2022
630 Clouds 26 1017 71 10000 5.66 60 10:27 14.08.2022
631 Clouds 26 1016 73 10000 5.66 60 08:45 14.08.2022
632 Clouds 27 1015 68 10000 7.2 60 06:21 14.08.2022
633 Clouds 29 1015 61 10000 5.66 50 02:46 14.08.2022
634 Clouds 29 1016 62 10000 6.71 50 23:36 13.08.2022
635 Clouds 29 1015 61 10000 7.72 50 22:28 13.08.2022
636 Clouds 27 1016 72 10000 4.63 70 20:58 13.08.2022
637 Clouds 26 1016 71 10000 3.6 70 20:19 13.08.2022
638 Clouds 24 1016 77 10000 2.57 90 19:20 13.08.2022
639 Clouds 24 1015 79 10000 3.09 70 17:36 13.08.2022
640 Clouds 24 1016 78 10000 3.09 0 15:18 13.08.2022
641 Clouds 24 1016 78 10000 4.12 80 14:24 13.08.2022
642 Clouds 25 1016 75 10000 3.6 80 13:37 13.08.2022
643 Clouds 25 1017 74 10000 3.6 70 11:49 13.08.2022
644 Clouds 25 1016 73 10000 5.66 50 09:43 13.08.2022
645 Clouds 26 1015 71 10000 8.23 70 07:50 13.08.2022
646 Clouds 29 1016 58 10000 5.66 50 02:33 13.08.2022
647 Clouds 29 1017 60 10000 8.23 80 23:45 12.08.2022
648 Clouds 28 1017 64 10000 7.2 70 21:40 12.08.2022
649 Clouds 25 1017 71 10000 3.6 70 19:51 12.08.2022
650 Clouds 25 1017 72 10000 3.6 70 19:26 12.08.2022
651 Clouds 24 1017 76 10000 3.09 80 18:34 12.08.2022
652 Clouds 24 1017 75 10000 3.09 90 16:28 12.08.2022
653 Clouds 25 1017 76 10000 4.12 70 15:23 12.08.2022
654 Clouds 25 1018 75 10000 3.6 80 13:56 12.08.2022
655 Clouds 25 1019 74 10000 4.12 50 12:51 12.08.2022
656 Clouds 25 1018 74 10000 6.17 60 09:28 12.08.2022
657 Clouds 26 1017 72 10000 7.72 70 07:47 12.08.2022
658 Clouds 27 1017 68 10000 6.69 70 06:25 12.08.2022
659 Clouds 29 1018 63 10000 8.23 70 01:22 12.08.2022
660 Clouds 29 1017 65 10000 7.72 60 00:20 12.08.2022
661 Clouds 29 1017 67 10000 6.71 50 23:29 11.08.2022
662 Clouds 28 1020 70 10000 7.2 70 21:57 11.08.2022
663 Clouds 27 1019 70 10000 7.2 60 21:34 11.08.2022
664 Clouds 27 1019 72 10000 7.2 70 20:31 11.08.2022
665 Clouds 26 1016 75 10000 8.05 70 19:41 11.08.2022
666 Clouds 26 1016 76 10000 8.05 70 19:21 11.08.2022
667 Clouds 25 1018 77 10000 6.71 60 17:23 11.08.2022
668 Clouds 25 1016 77 10000 9.26 70 15:51 11.08.2022
669 Clouds 25 1016 77 10000 7.2 60 14:46 11.08.2022
670 Clouds 26 1016 76 10000 8.94 80 11:59 11.08.2022
671 Clouds 26 1018 74 10000 6.69 60 09:22 11.08.2022
672 Clouds 27 1016 72 10000 7.72 70 06:58 11.08.2022
673 Clouds 29 1016 65 10000 7.2 40 03:23 11.08.2022
674 Clouds 30 1017 60 10000 7.15 50 00:19 11.08.2022
675 Clouds 28 1018 68 10000 8.23 60 21:56 10.08.2022
676 Clouds 28 1018 69 10000 8.23 60 21:19 10.08.2022
677 Clouds 27 1015 74 10000 8.75 60 20:36 10.08.2022
678 Clouds 26 1018 76 10000 10.29 70 18:53 10.08.2022
679 Clouds 26 1016 76 10000 10.29 70 18:53 10.08.2022
680 Clouds 26 1016 74 10000 5.66 70 17:28 10.08.2022
681 Clouds 26 1017 77 10000 5.14 80 14:57 10.08.2022
682 Clouds 25 1017 77 10000 5.14 70 13:34 10.08.2022
683 Clouds 26 1018 74 10000 8.75 70 10:51 10.08.2022
684 Clouds 26 1017 75 10000 7.2 60 08:42 10.08.2022
685 Clouds 26 1015 74 10000 5.14 60 07:36 10.08.2022
686 Clouds 27 1015 68 10000 9.26 70 05:46 10.08.2022
687 Clouds 29 1016 71 10000 10.8 60 02:22 10.08.2022
688 Clouds 29 1017 69 10000 8.23 60 23:33 09.08.2022
689 Clouds 28 1017 69 10000 8.23 60 22:47 09.08.2022
690 Clouds 28 1017 73 10000 7.72 70 21:33 09.08.2022
691 Clouds 26 1017 78 10000 6.69 70 19:33 09.08.2022
692 Clouds 25 1016 79 10000 5.66 70 17:53 09.08.2022
693 Clouds 25 1016 78 10000 5.66 70 17:26 09.08.2022
694 Clouds 25 1016 77 10000 5.81 70 16:30 09.08.2022
695 Clouds 25 1016 75 10000 6.17 70 15:26 09.08.2022
696 Clouds 25 1017 78 10000 5.66 70 12:20 09.08.2022
697 Clouds 26 1016 75 10000 6.71 70 08:54 09.08.2022
698 Clouds 26 1015 75 10000 6.71 70 07:59 09.08.2022
699 Clouds 26 1015 76 10000 6.69 70 06:55 09.08.2022
700 Clear 29 1013 63 10000 6.71 70 01:57 09.08.2022
701 Clouds 29 1017 62 10000 7.72 60 23:26 08.08.2022
702 Clouds 29 1017 61 10000 5.66 70 22:45 08.08.2022
703 Clouds 28 1017 64 10000 6.17 80 21:47 08.08.2022
704 Clouds 27 1016 66 10000 5.14 60 20:43 08.08.2022
705 Clouds 25 1016 72 10000 4.63 50 19:39 08.08.2022
706 Clouds 24 1016 75 10000 4.47 60 18:18 08.08.2022
707 Clouds 24 1015 75 10000 4.12 60 15:54 08.08.2022
708 Clouds 24 1015 75 10000 4.12 60 15:36 08.08.2022
709 Clouds 25 1016 77 10000 5.66 60 12:30 08.08.2022
710 Clouds 26 1017 75 10000 6.17 60 10:33 08.08.2022
711 Clouds 26 1015 72 10000 8.75 70 07:59 08.08.2022
712 Clouds 29 1014 62 10000 5.66 60 03:45 08.08.2022
713 Clouds 29 1015 59 10000 5.66 110 23:28 07.08.2022
714 Clouds 28 1016 69 10000 6.69 50 21:41 07.08.2022
715 Clouds 27 1015 75 10000 4.63 100 20:55 07.08.2022
716 Clouds 26 1016 75 10000 5.66 60 20:18 07.08.2022
717 Clouds 26 1015 77 10000 4.63 60 19:51 07.08.2022
718 Clouds 25 1015 79 10000 3.6 50 18:49 07.08.2022
719 Clouds 25 1014 80 10000 4.12 60 17:22 07.08.2022
720 Clouds 25 1014 78 10000 5.66 60 16:51 07.08.2022
721 Clouds 25 1014 80 10000 5.14 70 15:26 07.08.2022
722 Clouds 25 1015 78 10000 6.17 70 13:47 07.08.2022
723 Clouds 25 1015 78 10000 6.71 60 12:38 07.08.2022
724 Clouds 26 1015 78 10000 4.12 70 10:42 07.08.2022
725 Clouds 26 1015 78 10000 3.09 50 09:35 07.08.2022
726 Clouds 29 1012 66 10000 5.14 180 04:33 07.08.2022
727 Clouds 30 1014 63 10000 6.71 150 01:58 07.08.2022
728 Clouds 29 1016 68 10000 5.66 80 22:30 06.08.2022
729 Clouds 28 1016 74 10000 3.09 90 21:43 06.08.2022
730 Clouds 26 1014 80 10000 2.06 350 19:42 06.08.2022
731 Clouds 24 1014 86 10000 2.06 330 18:33 06.08.2022
732 Clouds 24 1013 86 10000 1.54 330 17:44 06.08.2022
733 Clouds 24 1013 85 10000 3.09 330 15:21 06.08.2022
734 Clouds 24 1013 84 10000 3.09 60 13:50 06.08.2022
735 Clouds 25 1015 83 10000 1.54 20 12:21 06.08.2022
736 Clouds 25 1015 81 10000 1.54 20 10:37 06.08.2022
737 Clouds 25 1014 80 10000 3.09 20 09:23 06.08.2022
738 Clouds 28 1012 69 10000 4.63 180 03:56 06.08.2022
739 Clouds 29 1015 67 10000 5.66 140 00:27 06.08.2022
740 Clouds 27 1015 77 10000 2.57 170 22:34 05.08.2022
741 Clouds 26 1014 77 10000 2.57 290 20:30 05.08.2022
742 Clouds 23 1014 89 10000 1.54 360 18:53 05.08.2022
743 Clouds 23 1014 89 10000 1.54 360 18:35 05.08.2022
744 Clouds 23 1013 90 10000 4.12 20 16:51 05.08.2022
745 Clear 23 1013 89 10000 2.57 70 15:23 05.08.2022
746 Rain 23 1013 88 10000 2.06 60 14:34 05.08.2022
747 Clouds 23 1014 86 10000 3.6 60 13:26 05.08.2022
748 Rain 24 1014 84 10000 2.57 60 12:45 05.08.2022
749 Clouds 24 1014 82 10000 3.6 50 10:59 05.08.2022
750 Clouds 25 1014 77 10000 4.12 50 08:45 05.08.2022
751 Clouds 26 1013 76 10000 3.6 60 07:28 05.08.2022
752 Clouds 28 1015 64 10000 7.2 140 01:52 05.08.2022
753 Clouds 27 1015 63 10000 3.6 100 22:40 04.08.2022
754 Clouds 27 1015 69 10000 3.09 0 21:27 04.08.2022
755 Clouds 26 1014 75 10000 3.09 60 20:45 04.08.2022
756 Clouds 24 1013 84 10000 0 0 19:58 04.08.2022
757 Clouds 23 1013 87 10000 2.06 340 18:52 04.08.2022
758 Clouds 23 1013 87 10000 2.06 340 18:32 04.08.2022
759 Clear 23 1013 85 10000 3.6 60 14:45 04.08.2022
760 Clouds 23 1013 84 10000 0 0 13:22 04.08.2022
761 Clouds 24 1014 81 10000 2.57 40 11:37 04.08.2022
762 Clouds 24 1012 80 10000 6.71 70 07:56 04.08.2022
763 Clouds 25 1013 77 10000 6.71 70 07:31 04.08.2022
764 Clouds 29 1013 60 10000 7.72 60 02:42 04.08.2022
765 Clouds 28 1014 63 10000 6.17 30 23:52 03.08.2022
766 Clouds 28 1014 62 10000 6.17 30 23:33 03.08.2022
767 Clouds 27 1014 67 10000 5.66 70 21:26 03.08.2022
768 Clouds 25 1014 73 10000 2.57 60 20:19 03.08.2022
769 Clouds 23 1014 86 10000 2.06 340 18:40 03.08.2022
770 Clouds 23 1014 85 10000 1.54 10 16:27 03.08.2022
771 Clear 23 1013 88 10000 2.68 10 15:53 03.08.2022
772 Clouds 24 1015 77 10000 3.6 70 13:32 03.08.2022
773 Clouds 25 1016 73 10000 5.14 60 09:55 03.08.2022
774 Clouds 26 1014 68 10000 8.75 40 06:46 03.08.2022
775 Clouds 28 1014 64 10000 7.2 30 04:22 03.08.2022
776 Clouds 29 1015 54 10000 6.17 40 02:35 03.08.2022
777 Clouds 28 1016 63 10000 5.66 60 23:54 02.08.2022
778 Clouds 27 1016 67 10000 5.14 50 21:59 02.08.2022
779 Clouds 27 1017 67 10000 5.14 50 21:40 02.08.2022
780 Clouds 25 1017 74 10000 5.66 70 20:20 02.08.2022
781 Clouds 24 1015 75 10000 5.66 60 16:49 02.08.2022
782 Rain 24 1015 76 10000 5.14 70 13:40 02.08.2022
783 Rain 24 1014 79 10000 2.57 30 10:34 02.08.2022
784 Clouds 25 1017 68 10000 7.2 50 08:29 02.08.2022
785 Clouds 25 1016 67 10000 7.72 50 07:50 02.08.2022
786 Clouds 28 1015 62 10000 7.72 60 04:56 02.08.2022
787 Clouds 28 1015 59 10000 8.75 70 02:20 02.08.2022
788 Clouds 28 1018 60 10000 9.26 70 23:23 01.08.2022
789 Clouds 27 1018 66 10000 7.72 60 21:37 01.08.2022
790 Clouds 24 1018 75 10000 6.69 50 19:45 01.08.2022
791 Rain 24 1017 77 10000 6.69 50 18:53 01.08.2022
792 Clouds 24 1017 79 10000 1.54 20 16:55 01.08.2022
793 Clouds 24 1017 79 10000 1.54 20 16:33 01.08.2022
794 Rain 23 1017 85 10000 3.6 60 15:34 01.08.2022
795 Clouds 23 1017 87 10000 4.12 50 14:44 01.08.2022
796 Rain 23 1017 83 9656 5.14 70 13:29 01.08.2022
797 Clouds 25 1019 72 10000 10.29 60 10:48 01.08.2022
798 Clouds 25 1017 69 10000 7.72 50 08:53 01.08.2022
799 Clouds 27 1017 67 10000 9.26 60 06:51 01.08.2022
800 Clouds 28 1017 63 10000 7.72 30 04:31 01.08.2022
801 Clouds 28 1017 56 10000 7.15 50 00:58 01.08.2022
802 Clouds 28 1019 59 10000 8.75 60 22:44 31.07.2022
803 Clouds 28 1019 60 10000 8.75 60 22:18 31.07.2022
804 Clouds 26 1019 71 10000 6.69 70 20:21 31.07.2022
805 Clouds 25 1019 74 10000 6.17 60 18:38 31.07.2022
806 Clouds 25 1018 75 10000 5.66 60 16:22 31.07.2022
807 Clouds 25 1018 76 10000 6.17 60 14:33 31.07.2022
808 Clouds 25 1019 74 10000 7.72 80 12:55 31.07.2022
809 Clouds 26 1019 78 10000 6.17 50 10:53 31.07.2022
810 Clouds 26 1016 76 10000 5.66 60 08:29 31.07.2022
811 Clouds 28 1017 70 10000 7.72 80 04:46 31.07.2022
812 Clouds 29 1017 66 10000 5.66 60 00:56 31.07.2022
813 Clouds 28 1018 66 10000 6.71 60 22:20 30.07.2022
814 Clouds 28 1018 69 10000 7.2 70 21:50 30.07.2022
815 Clouds 27 1018 73 10000 6.71 60 21:20 30.07.2022
816 Clouds 27 1017 74 10000 6.71 70 20:24 30.07.2022
817 Clouds 26 1017 79 10000 5.14 60 19:27 30.07.2022
818 Clouds 25 1016 81 10000 4.12 50 17:48 30.07.2022
819 Clouds 25 1016 79 10000 4.63 60 16:21 30.07.2022
820 Clear 25 1016 79 10000 5.14 70 15:27 30.07.2022
821 Clouds 25 1017 79 10000 5.66 80 13:21 30.07.2022
822 Clouds 25 1018 80 10000 3.6 60 12:21 30.07.2022
823 Clouds 25 1018 79 10000 5.66 60 10:44 30.07.2022
824 Clouds 25 1017 79 10000 2.68 50 09:59 30.07.2022
825 Clouds 25 1017 75 10000 4.63 60 08:44 30.07.2022
826 Rain 28 1016 67 10000 4.12 50 05:29 30.07.2022
827 Clouds 29 1016 63 10000 6.17 150 02:31 30.07.2022
828 Clouds 28 1018 62 10000 2.57 0 22:54 29.07.2022
829 Clouds 27 1017 64 10000 4.12 70 21:30 29.07.2022
830 Clouds 27 1017 66 10000 2.06 60 20:50 29.07.2022
831 Clouds 25 1016 74 10000 2.57 100 19:29 29.07.2022
832 Clouds 23 1016 83 10000 2.57 0 16:43 29.07.2022
833 Clouds 24 1017 77 10000 2.57 80 13:46 29.07.2022
834 Clouds 24 1017 74 10000 3.09 90 11:34 29.07.2022
835 Clouds 25 1016 72 10000 5.66 60 08:51 29.07.2022
836 Clouds 25 1016 71 10000 5.66 60 08:21 29.07.2022
837 Clouds 28 1016 61 10000 7.2 140 03:55 29.07.2022
838 Clouds 28 1015 57 10000 5.14 90 23:30 28.07.2022
839 Clouds 27 1017 63 10000 5.14 80 21:31 28.07.2022
840 Clouds 27 1016 67 10000 3.09 110 20:50 28.07.2022
841 Clouds 26 1016 71 10000 3.09 70 19:58 28.07.2022
842 Clouds 25 1016 74 10000 3.09 70 19:26 28.07.2022
843 Clouds 23 1015 79 10000 3.09 80 17:45 28.07.2022
844 Clouds 23 1015 80 10000 2.06 30 17:20 28.07.2022
845 Clear 23 1015 80 10000 0 0 16:40 28.07.2022
846 Clouds 24 1016 77 10000 2.06 70 13:56 28.07.2022
847 Clouds 24 1017 76 10000 2.57 40 12:33 28.07.2022
848 Clouds 26 1015 69 10000 6.71 60 07:33 28.07.2022
849 Clouds 27 1015 64 10000 6.69 50 05:37 28.07.2022
850 Clouds 28 1015 64 10000 6.69 50 05:18 28.07.2022
851 Clouds 29 1017 58 10000 7.72 80 23:19 27.07.2022
852 Clouds 28 1018 62 10000 6.71 70 21:30 27.07.2022
853 Clouds 26 1017 70 10000 5.14 60 19:46 27.07.2022
854 Clouds 24 1016 76 10000 3.09 80 18:49 27.07.2022
855 Clouds 24 1016 74 10000 5.66 80 16:31 27.07.2022
856 Clouds 24 1016 74 10000 6.71 60 15:41 27.07.2022
857 Clouds 24 1016 74 10000 5.66 60 14:41 27.07.2022
858 Clouds 25 1017 73 10000 5.14 60 13:29 27.07.2022
859 Clouds 25 1017 72 10000 4.63 50 09:27 27.07.2022
860 Clouds 25 1015 71 10000 8.23 80 07:40 27.07.2022
861 Clouds 28 1014 69 10000 9.26 50 02:52 27.07.2022
862 Clouds 27 1018 71 10000 7.2 70 22:47 26.07.2022
863 Clouds 26 1017 77 10000 6.71 40 21:25 26.07.2022
864 Clouds 26 1017 72 10000 5.14 60 20:47 26.07.2022
865 Clouds 24 1017 79 10000 3.09 70 18:46 26.07.2022
866 Clouds 24 1017 79 10000 3.09 70 18:20 26.07.2022
867 Clouds 25 1017 77 10000 5.14 70 16:46 26.07.2022
868 Clouds 24 1017 77 10000 5.66 80 15:42 26.07.2022
869 Clouds 25 1018 77 10000 6.17 70 13:47 26.07.2022
870 Clouds 25 1019 74 10000 5.14 70 11:40 26.07.2022
871 Clouds 25 1018 75 10000 7.2 80 09:32 26.07.2022
872 Rain 26 1017 75 10000 9.77 70 07:31 26.07.2022
873 Clouds 29 1018 59 10000 7.2 40 01:21 26.07.2022
874 Clouds 29 1016 58 10000 5.66 60 23:33 25.07.2022
875 Clouds 28 1019 63 10000 7.2 60 22:27 25.07.2022
876 Clouds 27 1019 66 10000 6.69 50 21:43 25.07.2022
877 Clouds 26 1019 72 10000 5.66 50 20:42 25.07.2022
878 Rain 24 1018 79 10000 3.09 0 19:50 25.07.2022
879 Rain 23 1018 84 10000 3.09 20 18:21 25.07.2022
880 Clouds 23 1017 81 10000 4.63 50 17:31 25.07.2022
881 Clouds 24 1017 77 10000 4.12 80 15:30 25.07.2022
882 Clouds 24 1018 75 10000 5.14 80 12:29 25.07.2022
883 Clouds 25 1018 73 10000 5.14 60 10:32 25.07.2022
884 Clouds 26 1015 65 10000 8.23 80 06:32 25.07.2022
885 Clouds 28 1016 58 10000 6.71 60 23:55 24.07.2022
886 Clouds 28 1016 61 10000 6.71 60 23:18 24.07.2022
887 Clouds 28 1016 60 10000 7.2 60 22:34 24.07.2022
888 Clouds 27 1018 65 10000 7.2 70 21:25 24.07.2022
889 Clouds 27 1018 64 10000 6.17 50 20:51 24.07.2022
890 Clouds 26 1018 65 10000 6.17 50 20:27 24.07.2022
891 Clouds 24 1017 75 10000 4.92 40 18:56 24.07.2022
892 Clouds 24 1017 77 10000 4.63 80 16:32 24.07.2022
893 Clouds 24 1017 75 10000 5.66 60 15:50 24.07.2022
894 Clouds 24 1017 74 10000 3.6 60 14:38 24.07.2022
895 Clouds 24 1018 74 10000 5.66 60 12:55 24.07.2022
896 Clouds 25 1019 72 10000 4.63 60 11:40 24.07.2022
897 Clouds 25 1019 72 10000 4.63 60 11:18 24.07.2022
898 Rain 25 1017 75 10000 5.66 80 08:49 24.07.2022
899 Clouds 25 1017 71 10000 8.23 80 07:52 24.07.2022
900 Clouds 27 1016 68 10000 6.69 70 06:18 24.07.2022
901 Clouds 29 1017 59 10000 8.23 70 01:50 24.07.2022
902 Clouds 28 1018 64 10000 7.2 60 22:25 23.07.2022
903 Clouds 26 1018 69 10000 6.17 60 20:31 23.07.2022
904 Clouds 24 1017 75 10000 4.63 90 18:51 23.07.2022
905 Clouds 24 1017 77 10000 4.63 50 17:41 23.07.2022
906 Clouds 24 1017 75 10000 5.81 60 17:23 23.07.2022
907 Rain 24 1017 75 10000 5.14 60 15:32 23.07.2022
908 Rain 24 1014 79 10000 8.49 60 14:59 23.07.2022
909 Clouds 24 1015 75 10000 8.75 60 14:30 23.07.2022
910 Clouds 24 1018 76 10000 4.63 80 13:39 23.07.2022
911 Clouds 25 1019 75 10000 6.17 80 11:18 23.07.2022
912 Clouds 25 1018 75 10000 5.66 50 10:22 23.07.2022
913 Clouds 25 1017 72 10000 6.71 50 08:50 23.07.2022
914 Clouds 28 1016 65 10000 7.2 70 03:40 23.07.2022
915 Clouds 29 1017 63 10000 6.17 60 01:33 23.07.2022
916 Clouds 28 1017 68 10000 5.14 60 22:56 22.07.2022
917 Clouds 26 1018 75 10000 5.66 60 20:57 22.07.2022
918 Clouds 25 1018 74 10000 4.12 60 19:46 22.07.2022
919 Clear 24 1016 81 10000 1.34 21 18:28 22.07.2022
920 Clouds 24 1017 78 10000 5.66 80 17:28 22.07.2022
921 Clouds 24 1017 76 10000 4.47 70 14:55 22.07.2022
922 Clouds 25 1018 75 10000 6.71 60 11:36 22.07.2022
923 Clouds 25 1017 75 10000 5.14 80 09:26 22.07.2022
924 Clouds 25 1017 74 10000 6.71 80 08:37 22.07.2022
925 Clear 26 1015 74 10000 7.6 80 06:59 22.07.2022
926 Clouds 28 1016 66 10000 10.29 70 02:25 22.07.2022
927 Clouds 27 1018 66 10000 7.2 80 22:43 21.07.2022
928 Clouds 26 1018 72 10000 7.2 70 21:33 21.07.2022
929 Rain 23 1017 87 10000 4.12 100 19:27 21.07.2022
930 Clouds 24 1016 83 10000 5.66 70 17:41 21.07.2022
931 Clouds 24 1017 82 10000 5.66 70 17:19 21.07.2022
932 Clouds 24 1015 80 10000 5.14 90 14:55 21.07.2022
933 Clouds 24 1016 79 10000 5.14 90 14:31 21.07.2022
934 Haze 24 1017 79 10000 6.71 60 12:28 21.07.2022
935 Clouds 25 1015 77 10000 6.17 60 11:19 21.07.2022
936 Clouds 25 1018 74 10000 6.17 70 09:33 21.07.2022
937 Clouds 25 1017 71 10000 6.17 60 08:50 21.07.2022
938 Clouds 26 1016 69 10000 6.71 70 07:42 21.07.2022
939 Clouds 27 1016 65 10000 7.72 60 04:46 21.07.2022
940 Rain 28 1017 66 10000 8.23 60 00:35 21.07.2022
941 Rain 26 1015 70 10000 6.17 50 22:21 20.07.2022
942 Clouds 26 1017 70 10000 6.71 50 20:54 20.07.2022
943 Clouds 24 1017 74 10000 5.14 70 19:50 20.07.2022
944 Clouds 24 1017 75 10000 5.14 70 19:24 20.07.2022
945 Clouds 24 1016 75 10000 4.12 50 18:33 20.07.2022
946 Clear 24 1015 77 10000 5.36 60 17:55 20.07.2022
947 Clouds 24 1016 76 10000 5.14 60 16:42 20.07.2022
948 Clouds 24 1016 78 10000 5.14 80 15:31 20.07.2022
949 Clouds 24 1015 77 10000 4.47 40 13:57 20.07.2022
950 Rain 25 1018 77 10000 6.17 50 11:32 20.07.2022
951 Clouds 25 1016 74 10000 6.17 60 08:46 20.07.2022
952 Clouds 27 1016 69 10000 6.17 60 03:25 20.07.2022
953 Clouds 29 1017 59 10000 9.26 40 00:48 20.07.2022
954 Clouds 28 1017 59 10000 8.75 60 23:41 19.07.2022
955 Clouds 28 1018 62 10000 7.2 50 22:31 19.07.2022
956 Clouds 27 1018 64 10000 6.69 60 21:23 19.07.2022
957 Clouds 26 1018 68 10000 5.66 70 20:27 19.07.2022
958 Clouds 24 1017 73 10000 5.14 60 18:43 19.07.2022
959 Clear 24 1016 77 10000 3.58 60 17:57 19.07.2022
960 Clouds 24 1017 74 10000 6.17 40 16:31 19.07.2022
961 Clouds 24 1018 75 10000 4.63 70 14:36 19.07.2022
962 Clouds 25 1018 72 10000 6.71 50 11:38 19.07.2022
963 Clouds 25 1018 72 10000 6.17 60 10:31 19.07.2022
964 Clouds 25 1017 74 10000 5.66 60 08:48 19.07.2022
965 Clouds 25 1017 73 10000 5.66 60 08:22 19.07.2022
966 Clouds 26 1017 71 10000 5.66 70 07:18 19.07.2022
967 Rain 26 1016 72 10000 9.26 70 05:26 19.07.2022
968 Clouds 27 1016 71 10000 8.23 60 04:46 19.07.2022
969 Rain 27 1018 75 10000 9.26 50 00:34 19.07.2022
970 Rain 27 1018 78 10000 7.72 30 23:22 18.07.2022
971 Haze 25 1018 85 6437 5.66 60 22:56 18.07.2022
972 Clouds 26 1018 79 10000 5.66 60 21:53 18.07.2022
973 Rain 25 1018 83 10000 7.2 60 20:50 18.07.2022
974 Clouds 25 1018 84 10000 5.66 50 19:25 18.07.2022
975 Clouds 24 1018 85 10000 5.66 50 17:22 18.07.2022
976 Clouds 25 1018 76 10000 6.71 60 15:46 18.07.2022
977 Clouds 26 1018 74 10000 7.2 50 14:24 18.07.2022
978 Clouds 25 1018 75 10000 6.71 70 12:38 18.07.2022
979 Clouds 26 1019 73 10000 7.2 60 10:37 18.07.2022
980 Clouds 26 1017 76 10000 6.71 50 08:51 18.07.2022
981 Clouds 26 1015 80 10000 0.45 127 06:58 18.07.2022
982 Mist 28 1016 79 10000 9.26 60 00:36 18.07.2022
983 Clouds 27 1017 69 10000 11.32 60 22:34 17.07.2022
984 Clouds 28 1017 72 10000 6.69 60 21:47 17.07.2022
985 Clouds 26 1016 78 10000 4.63 80 20:55 17.07.2022
986 Clouds 26 1017 75 10000 5.81 50 20:36 17.07.2022
987 Clouds 25 1017 77 10000 6.17 50 19:28 17.07.2022
988 Clouds 25 1015 77 10000 6.69 80 18:26 17.07.2022
989 Clouds 25 1016 78 10000 6.17 70 17:38 17.07.2022
990 Clouds 25 1016 80 10000 6.17 80 16:50 17.07.2022
991 Clouds 25 1016 80 10000 6.17 80 16:25 17.07.2022
992 Clouds 25 1016 84 10000 7.2 60 14:32 17.07.2022
993 Clouds 25 1016 82 10000 7.2 60 13:28 17.07.2022
994 Clouds 25 1017 87 10000 7.2 80 10:59 17.07.2022
995 Clouds 26 1015 82 10000 7.72 70 08:44 17.07.2022
996 Clouds 27 1016 75 10000 9.77 60 03:40 17.07.2022
997 Mist 28 1016 75 10000 6.71 50 01:47 17.07.2022
998 Clouds 28 1017 70 10000 7.72 80 23:19 16.07.2022
999 Clouds 27 1016 67 10000 6.17 60 21:21 16.07.2022
1000 Clouds 26 1018 73 10000 5.14 70 19:25 16.07.2022
1001 Clouds 25 1015 79 10000 2.68 60 17:56 16.07.2022
1002 Clouds 25 1015 76 10000 5.14 70 16:27 16.07.2022
1003 Clouds 25 1017 79 10000 8.75 70 13:47 16.07.2022
1004 Clouds 25 1018 76 10000 7.72 60 10:40 16.07.2022
1005 Clouds 25 1015 77 10000 7.72 70 09:30 16.07.2022
1006 Clouds 26 1017 74 10000 7.72 80 08:42 16.07.2022
1007 Clouds 26 1015 73 10000 7.2 70 07:51 16.07.2022
1008 Clouds 28 1017 67 10000 7.72 70 03:40 16.07.2022
1009 Clouds 28 1017 68 10000 5.36 40 01:59 16.07.2022
1010 Rain 26 1018 74 10000 8.23 70 23:21 15.07.2022
1011 Rain 25 1019 79 10000 6.17 50 22:38 15.07.2022
1012 Rain 26 1019 78 10000 5.14 50 21:18 15.07.2022
1013 Clouds 25 1018 78 10000 6.17 40 19:51 15.07.2022
1014 Clouds 24 1017 80 10000 4.63 60 18:32 15.07.2022
1015 Clouds 24 1017 80 10000 4.12 70 17:33 15.07.2022
1016 Clouds 25 1018 78 10000 4.63 70 14:45 15.07.2022
1017 Clouds 25 1018 76 10000 6.17 80 12:48 15.07.2022
1018 Rain 25 1018 78 10000 6.17 60 10:53 15.07.2022
1019 Clouds 25 1018 80 10000 6.17 40 08:42 15.07.2022
1020 Clouds 26 1015 77 10000 9.5 60 05:55 15.07.2022
1021 Clouds 28 1019 72 10000 7.2 70 00:52 15.07.2022
1022 Clouds 27 1019 75 10000 6.17 50 23:35 14.07.2022
1023 Rain 26 1019 82 10000 6.17 70 22:42 14.07.2022
1024 Rain 26 1018 83 10000 5.14 60 21:42 14.07.2022
1025 Rain 25 1018 84 10000 5.14 60 21:24 14.07.2022
1026 Rain 25 1016 85 10000 7.2 50 20:43 14.07.2022
1027 Rain 25 1016 85 10000 7.2 50 20:43 14.07.2022
1028 Rain 25 1016 85 10000 7.2 50 20:19 14.07.2022
1029 Rain 24 1017 85 10000 5.14 70 18:38 14.07.2022
1030 Rain 25 1016 82 10000 6.71 60 16:21 14.07.2022
1031 Clouds 25 1017 82 10000 6.17 70 15:26 14.07.2022
1032 Clouds 25 1018 80 10000 6.71 60 13:52 14.07.2022
1033 Clouds 25 1018 81 10000 7.2 70 12:39 14.07.2022
1034 Clouds 25 1018 79 10000 8.23 90 11:28 14.07.2022
1035 Clouds 25 1017 80 10000 6.71 70 10:59 14.07.2022
1036 Clouds 25 1018 78 10000 5.66 50 09:29 14.07.2022
1037 Clouds 27 1016 77 10000 6.71 60 05:18 14.07.2022
1038 Rain 27 1017 78 10000 9.26 70 01:22 14.07.2022
1039 Rain 27 1018 76 10000 10.29 70 00:52 14.07.2022
1040 Rain 27 1018 73 10000 6.71 60 22:32 13.07.2022
1041 Rain 27 1018 74 10000 5.66 80 21:51 13.07.2022
1042 Clouds 25 1018 77 10000 6.17 70 20:44 13.07.2022
1043 Clouds 24 1017 81 10000 5.14 60 18:48 13.07.2022
1044 Clouds 24 1017 79 10000 5.14 60 17:34 13.07.2022
1045 Clouds 24 1017 83 10000 6.17 60 16:19 13.07.2022
1046 Clouds 24 1017 83 10000 6.17 70 14:54 13.07.2022
1047 Rain 24 1016 90 10000 0.89 25 11:56 13.07.2022
1048 Clouds 24 1018 86 10000 7.2 70 10:45 13.07.2022
1049 Rain 24 1017 86 10000 7.72 70 09:56 13.07.2022
1050 Clouds 24 1017 86 10000 7.2 70 09:20 13.07.2022
1051 Rain 26 1016 77 10000 7.2 30 05:29 13.07.2022
1052 Rain 27 1017 72 10000 8.75 70 01:22 13.07.2022
1053 Clouds 28 1018 65 10000 5.66 40 23:35 12.07.2022
1054 Clouds 27 1018 70 10000 4.12 40 21:53 12.07.2022
1055 Clouds 25 1014 76 10000 5.66 70 20:58 12.07.2022
1056 Clouds 25 1016 75 10000 5.66 70 20:37 12.07.2022
1057 Clouds 23 1016 81 10000 2.68 70 18:56 12.07.2022
1058 Clouds 23 1016 78 10000 6.17 80 17:38 12.07.2022
1059 Clouds 24 1016 76 10000 5.14 80 15:42 12.07.2022
1060 Clouds 24 1016 79 10000 5.14 90 13:55 12.07.2022
1061 Rain 24 1018 77 10000 5.14 70 12:19 12.07.2022
1062 Rain 24 1018 74 10000 6.71 40 10:51 12.07.2022
1063 Rain 25 1015 74 10000 6.71 50 09:22 12.07.2022
1064 Clouds 25 1017 72 10000 6.17 70 08:18 12.07.2022
1065 Clouds 25 1015 73 10000 8.49 70 05:57 12.07.2022
1066 Clouds 26 1016 71 10000 8.75 70 05:39 12.07.2022
1067 Clouds 28 1017 65 10000 7.72 60 01:56 12.07.2022
1068 Clouds 26 1018 72 10000 8.05 100 22:59 11.07.2022
1069 Clouds 26 1019 71 10000 6.69 70 21:45 11.07.2022
1070 Mist 25 1018 76 10000 6.17 50 20:33 11.07.2022
1071 Clouds 24 1018 80 10000 6.17 70 19:33 11.07.2022
1072 Clouds 24 1018 78 10000 5.66 60 18:32 11.07.2022
1073 Clouds 24 1017 77 10000 3.6 80 17:36 11.07.2022
1074 Clouds 24 1017 77 10000 5.66 60 15:46 11.07.2022
1075 Clouds 24 1018 74 10000 7.2 60 13:39 11.07.2022
1076 Clouds 25 1019 73 10000 8.75 70 11:39 11.07.2022
1077 Clouds 25 1019 73 10000 8.23 60 10:18 11.07.2022
1078 Clouds 25 1019 74 10000 7.72 60 09:41 11.07.2022
1079 Clouds 25 1019 73 10000 8.23 70 08:33 11.07.2022
1080 Clouds 27 1018 68 10000 7.2 60 04:34 11.07.2022
1081 Clouds 28 1019 66 10000 8.75 60 00:20 11.07.2022
1082 Clouds 28 1020 64 10000 7.72 70 22:56 10.07.2022
1083 Clouds 27 1020 65 10000 8.23 60 21:41 10.07.2022
1084 Clouds 26 1019 71 10000 5.66 60 20:47 10.07.2022
1085 Clouds 25 1019 75 10000 5.66 80 19:50 10.07.2022
1086 Haze 24 1019 79 10000 6.69 70 18:48 10.07.2022
1087 Clouds 24 1018 79 10000 5.66 70 17:37 10.07.2022
1088 Clouds 24 1018 79 10000 5.66 70 16:45 10.07.2022
1089 Clouds 24 1018 76 10000 5.14 70 15:25 10.07.2022
1090 Clouds 24 1018 77 10000 6.17 70 14:21 10.07.2022
1091 Clouds 25 1020 78 10000 5.66 70 12:27 10.07.2022
1092 Clouds 25 1019 80 10000 5.81 70 09:58 10.07.2022
1093 Clouds 25 1019 77 10000 6.71 90 08:44 10.07.2022
1094 Clouds 26 1018 73 10000 9.26 80 07:30 10.07.2022
1095 Clouds 28 1018 68 10000 8.75 70 01:33 10.07.2022
1096 Clouds 27 1019 73 10000 7.72 60 22:43 09.07.2022
1097 Clouds 27 1019 73 10000 7.72 60 22:24 09.07.2022
1098 Rain 25 1019 78 10000 5.66 70 20:46 09.07.2022
1099 Clouds 24 1017 82 10000 5.66 70 18:37 09.07.2022
1100 Rain 24 1017 84 10000 4.63 60 17:45 09.07.2022
1101 Clouds 24 1017 84 10000 5.66 60 16:44 09.07.2022
1102 Rain 24 1017 88 10000 4.12 70 15:40 09.07.2022
1103 Rain 24 1017 87 10000 5.66 80 14:28 09.07.2022
1104 Clouds 24 1017 88 10000 5.66 70 13:49 09.07.2022
1105 Rain 24 1018 84 10000 5.66 80 12:45 09.07.2022
1106 Clouds 24 1018 83 10000 4.63 50 11:22 09.07.2022
1107 Clouds 24 1018 84 10000 5.66 60 10:22 09.07.2022
1108 Clouds 25 1015 79 10000 8.23 60 07:45 09.07.2022
1109 Rain 25 1015 83 10000 5.81 70 04:58 09.07.2022
1110 Clouds 26 1017 78 10000 6.17 50 02:33 09.07.2022
1111 Clouds 26 1017 73 10000 7.2 60 22:54 08.07.2022
1112 Clouds 25 1017 77 10000 6.17 90 21:43 08.07.2022
1113 Rain 25 1017 79 10000 7.2 70 20:40 08.07.2022
1114 Rain 24 1017 83 10000 6.17 70 19:52 08.07.2022
1115 Rain 23 1016 85 10000 4.63 40 18:24 08.07.2022
1116 Rain 23 1015 83 10000 5.14 60 16:40 08.07.2022
1117 Clouds 24 1016 79 10000 3.09 50 14:51 08.07.2022
1118 Clouds 24 1017 77 10000 4.12 60 13:29 08.07.2022
1119 Clouds 24 1017 75 10000 5.14 60 11:42 08.07.2022
1120 Clouds 25 1015 76 10000 5.66 50 10:28 08.07.2022
1121 Rain 24 1016 84 10000 7.2 80 08:27 08.07.2022
1122 Clouds 25 1015 77 10000 8.75 40 06:49 08.07.2022
1123 Clouds 28 1015 66 10000 7.72 40 01:23 08.07.2022
1124 Rain 27 1014 73 10000 5.81 50 22:57 07.07.2022
1125 Rain 27 1015 70 10000 6.17 50 22:27 07.07.2022
1126 Rain 24 1017 87 10000 5.66 70 20:22 07.07.2022
1127 Rain 22 1014 90 10000 0 0 18:20 07.07.2022
1128 Clouds 23 1015 85 10000 4.12 80 16:46 07.07.2022
1129 Clouds 23 1015 86 10000 2.06 70 14:32 07.07.2022
1130 Clouds 23 1015 87 10000 3.58 40 12:53 07.07.2022
1131 Clouds 23 1016 85 10000 3.6 40 12:23 07.07.2022
1132 Rain 23 1017 88 10000 4.12 40 11:35 07.07.2022
1133 Clouds 24 1017 83 10000 4.12 30 10:47 07.07.2022
1134 Rain 24 1017 83 10000 4.12 30 10:29 07.07.2022
1135 Rain 24 1016 82 10000 6.71 60 09:52 07.07.2022
1136 Clouds 26 1016 72 10000 7.2 50 06:32 07.07.2022
1137 Clouds 27 1017 64 10000 7.15 60 00:31 07.07.2022
1138 Clouds 27 1017 66 10000 7.15 60 23:36 06.07.2022
1139 Clouds 27 1017 64 10000 7.15 60 23:18 06.07.2022
1140 Clouds 27 1018 63 10000 7.2 60 22:52 06.07.2022
1141 Clouds 27 1018 64 10000 7.2 60 22:33 06.07.2022
1142 Clouds 27 1018 64 10000 7.2 60 22:33 06.07.2022
1143 Clouds 26 1015 67 10000 5.14 60 20:30 06.07.2022
1144 Clouds 25 1018 70 10000 4.63 60 19:32 06.07.2022
1145 Clouds 24 1018 79 10000 5.66 60 17:21 06.07.2022
1146 Clouds 24 1017 77 10000 5.36 50 15:58 06.07.2022
1147 Clouds 24 1019 74 10000 5.81 70 12:57 06.07.2022
1148 Clouds 24 1019 72 10000 6.71 40 12:21 06.07.2022
1149 Clouds 25 1019 73 10000 7.2 50 10:55 06.07.2022
1150 Clouds 25 1018 74 10000 6.17 50 09:27 06.07.2022
1151 Clouds 25 1018 74 10000 6.17 50 09:27 06.07.2022
1152 Clouds 25 1018 71 10000 9.26 50 07:44 06.07.2022
1153 Clouds 25 1018 71 10000 9.26 50 07:44 06.07.2022
1154 Clouds 26 1017 71 10000 7.72 60 06:44 06.07.2022
1155 Rain 26 1019 78 10000 7.72 80 00:24 06.07.2022
1156 Rain 25 1019 83 10000 7.2 50 22:43 05.07.2022
1157 Rain 24 1019 85 10000 5.66 60 20:49 05.07.2022
1158 Rain 23 1019 86 10000 5.66 60 20:21 05.07.2022
1159 Rain 23 1019 86 10000 4.63 50 19:37 05.07.2022
1160 Rain 23 1017 86 10000 5.14 70 17:50 05.07.2022
1161 Rain 23 1017 84 10000 5.14 70 17:19 05.07.2022
1162 Rain 23 1018 83 10000 6.17 80 16:25 05.07.2022
1163 Clouds 24 1018 80 10000 6.17 40 14:54 05.07.2022
1164 Clouds 24 1018 76 10000 6.69 60 13:34 05.07.2022
1165 Clouds 25 1016 74 10000 7.2 50 12:22 05.07.2022
1166 Clouds 25 1019 72 10000 6.71 50 10:45 05.07.2022
1167 Clouds 25 1018 74 10000 6.69 70 09:52 05.07.2022
1168 Clouds 25 1018 72 10000 5.66 70 08:21 05.07.2022
1169 Rain 26 1017 71 10000 10.29 70 06:48 05.07.2022
1170 Clouds 26 1015 67 10000 9.77 70 04:35 05.07.2022
1171 Clouds 26 1018 71 10000 9.26 70 01:25 05.07.2022
1172 Haze 27 1019 74 10000 9.26 70 23:37 04.07.2022
1173 Rain 26 1019 78 10000 7.15 70 22:55 04.07.2022
1174 Clouds 24 1019 84 10000 5.81 60 21:56 04.07.2022
1175 Rain 24 1018 84 10000 5.36 60 20:56 04.07.2022
1176 Rain 24 1019 84 10000 5.66 60 20:35 04.07.2022
1177 Clouds 24 1018 85 10000 6.71 70 19:56 04.07.2022
1178 Clouds 24 1019 82 10000 6.71 70 19:37 04.07.2022
1179 Rain 24 1018 81 10000 7.72 60 18:34 04.07.2022
1180 Clouds 24 1017 82 10000 4.63 60 16:42 04.07.2022
1181 Clouds 24 1018 80 10000 8.75 80 15:34 04.07.2022
1182 Clouds 24 1015 78 10000 5.66 60 13:41 04.07.2022
1183 Clouds 24 1018 78 10000 7.72 80 12:38 04.07.2022
1184 Clouds 24 1018 79 10000 10.29 80 10:39 04.07.2022
1185 Clouds 24 1018 79 10000 10.29 80 10:18 04.07.2022
1186 Clouds 25 1017 76 10000 7.2 50 08:31 04.07.2022
1187 Clouds 26 1016 72 10000 8.75 50 05:36 04.07.2022
1188 Rain 27 1018 70 10000 6.69 60 00:43 04.07.2022
1189 Haze 26 1018 76 10000 7.2 60 23:27 03.07.2022
1190 Clouds 25 1017 75 10000 6.71 50 21:58 03.07.2022
1191 Clouds 25 1018 77 10000 4.63 40 20:41 03.07.2022
1192 Clouds 24 1018 80 10000 4.63 70 19:42 03.07.2022
1193 Clouds 24 1019 79 10000 4.63 70 19:23 03.07.2022
1194 Rain 23 1017 81 10000 4.63 50 17:45 03.07.2022
1195 Rain 23 1017 84 10000 3.6 70 16:54 03.07.2022
1196 Rain 23 1017 89 10000 4.63 50 15:24 03.07.2022
1197 Rain 23 1017 91 6437 4.47 60 14:32 03.07.2022
1198 Rain 24 1018 84 10000 6.17 70 13:48 03.07.2022
1199 Clouds 25 1018 76 10000 7.72 60 12:35 03.07.2022
1200 Clouds 25 1018 74 10000 7.2 70 11:29 03.07.2022
1201 Clouds 25 1018 72 10000 7.2 80 10:39 03.07.2022
1202 Clouds 25 1017 75 10000 8.05 70 09:55 03.07.2022
1203 Clouds 26 1017 71 10000 6.17 60 07:35 03.07.2022
1204 Clouds 28 1016 63 10000 8.75 60 04:22 03.07.2022
1205 Clouds 28 1017 59 10000 9.26 70 00:22 03.07.2022
1206 Clouds 27 1018 64 10000 8.23 60 22:34 02.07.2022
1207 Clouds 27 1016 64 10000 5.66 80 21:28 02.07.2022
1208 Clouds 26 1018 68 10000 7.2 70 19:52 02.07.2022
1209 Clouds 26 1018 68 10000 7.2 70 19:20 02.07.2022
1210 Clouds 25 1018 73 10000 7.2 70 17:42 02.07.2022
1211 Clouds 25 1017 76 10000 7.15 70 16:53 02.07.2022
1212 Clouds 25 1017 74 10000 5.66 70 14:52 02.07.2022
1213 Clouds 25 1019 73 10000 9.26 60 12:22 02.07.2022
1214 Clouds 25 1019 74 10000 5.66 80 11:27 02.07.2022
1215 Clouds 25 1019 74 10000 7.2 50 10:43 02.07.2022
1216 Clouds 25 1018 73 10000 7.72 80 09:25 02.07.2022
1217 Clouds 26 1018 73 10000 7.15 70 08:20 02.07.2022
1218 Clouds 26 1018 73 10000 7.2 70 07:48 02.07.2022
1219 Clouds 28 1018 67 10000 7.72 60 02:50 02.07.2022
1220 Clouds 28 1018 70 10000 9.39 60 23:59 01.07.2022
1221 Clouds 28 1019 70 10000 9.77 70 22:41 01.07.2022
1222 Clouds 27 1019 72 10000 7.72 50 21:48 01.07.2022
1223 Clouds 27 1019 72 10000 7.72 50 21:28 01.07.2022
1224 Rain 27 1019 74 10000 8.75 80 20:43 01.07.2022
1225 Rain 25 1019 81 10000 5.66 60 19:47 01.07.2022
1226 Clouds 24 1016 88 10000 1.79 0 17:53 01.07.2022
1227 Clouds 25 1018 82 10000 8.23 80 16:22 01.07.2022
1228 Clouds 25 1017 79 10000 5.14 70 13:55 01.07.2022
1229 Clouds 25 1017 79 10000 7.2 60 12:41 01.07.2022
1230 Clouds 25 1019 77 10000 7.6 70 10:20 01.07.2022
1231 Clouds 25 1019 77 10000 7.6 70 10:20 01.07.2022
1232 Clouds 25 1019 76 10000 7.72 70 09:43 01.07.2022
1233 Clouds 27 1018 72 10000 9.26 70 04:49 01.07.2022
1234 Clouds 28 1019 63 10000 9.26 60 00:26 01.07.2022
1235 Clouds 27 1017 71 10000 6.69 70 22:59 30.06.2022
1236 Clouds 28 1019 65 10000 7.2 60 22:41 30.06.2022
1237 Clouds 28 1019 65 10000 7.2 60 22:22 30.06.2022
1238 Clouds 27 1019 68 10000 6.17 60 21:41 30.06.2022
1239 Clouds 26 1019 72 10000 6.17 70 20:30 30.06.2022
1240 Clouds 25 1018 75 10000 6.17 60 19:54 30.06.2022
1241 Clouds 25 1018 78 10000 6.17 60 19:24 30.06.2022
1242 Clouds 24 1018 81 10000 4.12 50 18:42 30.06.2022
1243 Clouds 24 1017 82 10000 5.14 80 17:44 30.06.2022
1244 Rain 24 1017 83 10000 3.6 80 16:55 30.06.2022
1245 Clouds 24 1017 82 10000 4.63 70 15:39 30.06.2022
1246 Clouds 24 1018 82 10000 5.66 70 13:34 30.06.2022
1247 Clouds 24 1015 80 10000 4.12 60 12:35 30.06.2022
1248 Clouds 24 1016 80 10000 5.14 70 11:37 30.06.2022
1249 Rain 23 1017 85 10000 1.34 109 09:55 30.06.2022
1250 Rain 24 1015 80 10000 7.15 40 09:34 30.06.2022
1251 Rain 25 1015 75 10000 7.2 40 08:18 30.06.2022
1252 Clouds 25 1017 72 10000 7.2 50 07:18 30.06.2022
1253 Rain 26 1018 69 10000 7.2 60 01:42 30.06.2022
1254 Clouds 27 1019 64 10000 7.72 60 23:34 29.06.2022
1255 Clouds 27 1019 65 10000 9.77 70 22:40 29.06.2022
1256 Clouds 27 1019 66 10000 7.2 70 21:39 29.06.2022
1257 Clouds 26 1019 70 10000 6.69 40 20:34 29.06.2022
1258 Clouds 25 1018 74 10000 5.14 50 19:39 29.06.2022
1259 Rain 23 1017 78 10000 5.14 80 17:45 29.06.2022
1260 Clouds 24 1017 73 10000 5.66 70 16:43 29.06.2022
1261 Clouds 24 1017 75 10000 4.63 100 15:26 29.06.2022
1262 Clouds 24 1018 74 10000 5.14 60 12:47 29.06.2022
1263 Clouds 24 1016 74 10000 6.71 70 11:32 29.06.2022
1264 Clouds 25 1015 69 10000 6.17 60 09:33 29.06.2022
1265 Clouds 25 1015 70 10000 8.23 70 08:26 29.06.2022
1266 Clouds 27 1014 63 10000 7.2 70 05:19 29.06.2022
1267 Clouds 28 1017 61 10000 10.29 50 01:48 29.06.2022
1268 Clouds 28 1017 61 10000 7.2 60 00:37 29.06.2022
1269 Clouds 27 1017 68 10000 6.17 70 22:56 28.06.2022
1270 Clouds 27 1018 63 10000 9.26 60 22:34 28.06.2022
1271 Clouds 27 1018 64 10000 6.69 50 21:55 28.06.2022
1272 Clouds 27 1018 66 10000 6.69 50 21:33 28.06.2022
1273 Clouds 26 1018 70 10000 5.66 90 20:50 28.06.2022
1274 Clouds 24 1017 76 10000 5.14 60 19:34 28.06.2022
1275 Rain 23 1017 79 10000 6.17 80 18:53 28.06.2022
1276 Clouds 23 1017 78 10000 4.12 60 17:42 28.06.2022
1277 Clouds 23 1017 76 10000 3.6 70 16:21 28.06.2022
1278 Clouds 23 1017 75 10000 5.66 60 15:42 28.06.2022
1279 Clouds 24 1017 75 10000 5.66 50 14:21 28.06.2022
1280 Clouds 24 1017 75 10000 3.6 40 13:54 28.06.2022
1281 Clouds 24 1017 75 10000 2.68 30 12:57 28.06.2022
1282 Clouds 25 1018 71 10000 5.14 80 11:18 28.06.2022
1283 Clouds 25 1018 70 10000 4.63 70 09:30 28.06.2022
1284 Clouds 25 1016 74 10000 6.17 70 08:44 28.06.2022
1285 Clouds 25 1016 71 10000 6.69 60 07:42 28.06.2022
1286 Clouds 25 1016 72 10000 6.69 60 07:19 28.06.2022
1287 Clouds 28 1016 61 10000 8.23 60 01:32 28.06.2022
1288 Clouds 28 1015 60 10000 6.71 60 23:41 27.06.2022
1289 Clouds 28 1016 59 10000 8.75 80 22:52 27.06.2022
1290 Clouds 27 1016 65 10000 6.17 70 21:38 27.06.2022
1291 Clouds 26 1016 68 10000 4.63 70 20:53 27.06.2022
1292 Clouds 24 1016 75 10000 4.63 80 19:36 27.06.2022
1293 Clouds 22 1016 82 10000 3.6 90 18:26 27.06.2022
1294 Clouds 22 1015 80 10000 2.06 90 16:27 27.06.2022
1295 Clouds 23 1016 79 10000 2.57 90 15:23 27.06.2022
1296 Clouds 23 1016 77 10000 2.57 80 13:37 27.06.2022
1297 Clouds 24 1016 77 10000 3.6 90 12:56 27.06.2022
1298 Clouds 24 1017 74 10000 4.12 100 10:34 27.06.2022
1299 Clouds 25 1017 72 10000 3.6 40 09:20 27.06.2022
1300 Clouds 25 1016 70 10000 5.66 50 08:29 27.06.2022
1301 Clouds 26 1015 65 10000 5.66 60 06:38 27.06.2022
1302 Clouds 28 1015 56 10000 6.69 110 03:24 27.06.2022
1303 Clouds 28 1016 54 10000 5.66 70 00:56 27.06.2022
1304 Clouds 27 1016 59 10000 5.66 50 22:18 26.06.2022
1305 Clouds 26 1016 63 10000 5.66 80 20:44 26.06.2022
1306 Clouds 24 1016 72 10000 3.09 80 19:40 26.06.2022
1307 Clouds 22 1015 79 10000 2.57 80 18:31 26.06.2022
1308 Clouds 23 1014 75 10000 3.09 30 16:45 26.06.2022
1309 Clouds 23 1015 79 10000 1.54 40 14:42 26.06.2022
1310 Clouds 23 1014 78 10000 3.09 70 13:38 26.06.2022
1311 Clouds 23 1014 78 10000 3.09 70 13:18 26.06.2022
1312 Clouds 24 1016 74 10000 4.63 70 11:26 26.06.2022
1313 Clouds 24 1016 75 10000 6.71 80 10:26 26.06.2022
1314 Clouds 25 1016 71 10000 5.14 60 09:22 26.06.2022
1315 Clouds 25 1015 71 10000 7.2 70 07:41 26.06.2022
1316 Clear 28 1014 61 10000 4.63 30 01:53 26.06.2022
1317 Clouds 28 1015 62 10000 6.17 40 00:20 26.06.2022
1318 Clouds 28 1015 60 10000 6.71 30 23:41 25.06.2022
1319 Clouds 28 1015 64 10000 5.14 50 22:57 25.06.2022
1320 Clouds 27 1016 65 10000 6.17 70 22:27 25.06.2022
1321 Clouds 27 1015 62 10000 5.14 70 21:40 25.06.2022
1322 Clouds 27 1015 64 10000 5.14 70 21:18 25.06.2022
1323 Clouds 26 1015 68 10000 3.6 60 20:25 25.06.2022
1324 Clouds 23 1014 80 10000 3.09 60 19:19 25.06.2022
1325 Clouds 22 1014 81 10000 2.06 20 17:28 25.06.2022
1326 Clouds 22 1014 81 10000 2.57 90 16:44 25.06.2022
1327 Clouds 22 1013 81 10000 2.57 70 14:59 25.06.2022
1328 Clear 23 1014 81 10000 2.24 20 12:57 25.06.2022
1329 Clouds 23 1015 79 10000 4.12 50 12:37 25.06.2022
1330 Rain 23 1015 79 10000 6.17 40 10:30 25.06.2022
1331 Clouds 24 1014 75 10000 4.63 60 08:56 25.06.2022
1332 Clouds 25 1015 71 10000 4.63 60 08:29 25.06.2022
1333 Clouds 26 1014 69 10000 4.47 30 06:53 25.06.2022
1334 Clouds 28 1014 58 10000 5.66 50 03:26 25.06.2022
1335 Clouds 27 1015 63 10000 5.66 30 00:21 25.06.2022
1336 Clouds 26 1017 73 10000 2.57 0 22:31 24.06.2022
1337 Rain 23 1016 84 4828 3.09 40 21:29 24.06.2022
1338 Rain 23 1016 86 10000 6.69 10 20:25 24.06.2022
1339 Clouds 23 1015 85 10000 9.26 40 19:43 24.06.2022
1340 Rain 23 1015 82 10000 3.6 60 19:18 24.06.2022
1341 Rain 23 1015 85 10000 3.6 60 18:46 24.06.2022
1342 Clouds 23 1015 83 10000 4.12 60 18:28 24.06.2022
1343 Clouds 23 1015 80 10000 2.57 350 16:48 24.06.2022
1344 Clear 23 1015 80 10000 4.63 50 14:58 24.06.2022
1345 Clouds 24 1015 78 10000 4.63 50 14:24 24.06.2022
1346 Clouds 23 1016 77 10000 4.63 60 13:46 24.06.2022
1347 Clouds 24 1016 75 10000 3.6 70 11:42 24.06.2022
1348 Clouds 25 1017 72 10000 4.63 60 10:39 24.06.2022
1349 Clouds 25 1016 72 10000 4.63 70 09:42 24.06.2022
1350 Clouds 25 1015 71 10000 4.63 60 08:54 24.06.2022
1351 Clouds 25 1015 70 10000 4.63 60 08:19 24.06.2022
1352 Clouds 26 1014 65 10000 5.66 40 06:44 24.06.2022
1353 Clouds 26 1014 64 10000 5.66 40 06:25 24.06.2022
1354 Clouds 27 1014 63 10000 6.17 30 04:50 24.06.2022
1355 Clouds 27 1015 61 10000 6.17 40 23:32 23.06.2022
1356 Clouds 27 1015 63 10000 6.17 60 22:43 23.06.2022
1357 Clouds 25 1016 72 10000 6.17 70 20:59 23.06.2022
1358 Clouds 25 1016 69 10000 6.17 70 20:36 23.06.2022
1359 Clouds 24 1016 73 10000 5.14 70 19:48 23.06.2022
1360 Rain 24 1016 76 10000 6.69 60 18:26 23.06.2022
1361 Clouds 23 1015 77 10000 5.14 70 17:34 23.06.2022
1362 Clouds 23 1015 78 10000 3.6 70 16:26 23.06.2022
1363 Rain 23 1015 80 10000 4.63 70 15:26 23.06.2022
1364 Clouds 23 1016 77 10000 6.17 70 14:18 23.06.2022
1365 Clouds 24 1017 75 10000 4.63 80 11:33 23.06.2022
1366 Clouds 24 1018 75 10000 5.14 70 10:40 23.06.2022
1367 Clouds 24 1016 73 10000 7.15 60 09:19 23.06.2022
1368 Clouds 27 1016 65 10000 7.2 60 03:51 23.06.2022
1369 Clouds 28 1017 58 10000 8.75 30 00:27 23.06.2022
1370 Clouds 28 1017 60 10000 5.14 50 23:43 22.06.2022
1371 Clouds 28 1018 63 10000 5.66 50 22:50 22.06.2022
1372 Clouds 27 1018 66 10000 5.14 60 21:27 22.06.2022
1373 Clouds 26 1018 70 10000 3.6 70 20:45 22.06.2022
1374 Clouds 25 1017 74 10000 4.12 70 19:58 22.06.2022
1375 Clouds 24 1017 79 10000 3.09 70 18:50 22.06.2022
1376 Clouds 24 1016 80 10000 3.6 60 17:29 22.06.2022
1377 Clouds 24 1016 79 10000 5.66 90 16:33 22.06.2022
1378 Rain 24 1017 80 10000 3.09 90 15:27 22.06.2022
1379 Clear 24 1017 80 10000 3.6 30 14:21 22.06.2022
1380 Clouds 24 1017 79 10000 3.6 60 13:42 22.06.2022
1381 Clouds 24 1017 80 10000 4.02 80 13:23 22.06.2022
1382 Clouds 24 1018 80 10000 5.66 80 11:50 22.06.2022
1383 Clouds 24 1018 80 10000 5.66 80 11:50 22.06.2022
1384 Clouds 24 1018 80 10000 5.66 80 11:50 22.06.2022
1385 Clouds 24 1015 83 10000 5.14 60 10:57 22.06.2022
1386 Clouds 24 1017 82 10000 5.14 60 10:19 22.06.2022
1387 Rain 24 1016 80 10000 6.17 70 08:37 22.06.2022
1388 Clouds 27 1015 69 10000 7.2 30 05:38 22.06.2022
1389 Clouds 28 1016 65 10000 6.17 60 01:39 22.06.2022
1390 Clouds 28 1016 65 10000 6.69 50 00:29 22.06.2022
1391 Clouds 28 1017 63 10000 5.66 70 22:19 21.06.2022
1392 Clouds 25 1017 72 10000 4.63 70 19:56 21.06.2022
1393 Clouds 24 1017 78 10000 2.57 30 18:36 21.06.2022
1394 Clear 24 1017 78 10000 2.06 40 17:39 21.06.2022
1395 Clouds 24 1016 79 10000 4.12 70 14:22 21.06.2022
1396 Clouds 24 1018 75 10000 4.63 60 11:49 21.06.2022
1397 Clouds 25 1017 75 10000 4.12 60 10:18 21.06.2022
1398 Clouds 25 1016 76 10000 5.14 50 08:48 21.06.2022
1399 Rain 25 1016 78 10000 3.6 100 07:23 21.06.2022
1400 Clouds 29 1016 63 10000 5.66 70 01:43 21.06.2022
1401 Clouds 29 1017 58 10000 7.72 60 23:25 20.06.2022
1402 Clouds 27 1016 66 10000 5.81 60 21:55 20.06.2022
1403 Rain 26 1017 70 10000 5.14 50 20:53 20.06.2022
1404 Clouds 24 1016 77 10000 4.12 70 19:40 20.06.2022
1405 Clouds 24 1016 78 10000 3.6 70 18:48 20.06.2022
1406 Clouds 24 1016 78 10000 3.6 70 18:20 20.06.2022
1407 Clouds 24 1016 77 10000 4.63 80 17:35 20.06.2022
1408 Clouds 23 1015 78 10000 4.92 70 15:57 20.06.2022
1409 Clouds 24 1016 75 10000 5.14 80 12:56 20.06.2022
1410 Clouds 25 1017 72 10000 6.17 80 11:18 20.06.2022
1411 Clouds 25 1016 72 10000 6.17 60 09:41 20.06.2022
1412 Clouds 25 1015 72 10000 5.66 60 08:44 20.06.2022
1413 Clouds 26 1015 66 10000 7.2 60 06:37 20.06.2022
1414 Clouds 28 1015 64 10000 7.2 60 02:56 20.06.2022
1415 Clouds 28 1016 62 10000 6.69 60 00:32 20.06.2022
1416 Clouds 28 1016 62 10000 6.69 60 23:18 19.06.2022
1417 Clouds 27 1016 63 10000 4.92 80 21:59 19.06.2022
1418 Clouds 27 1016 62 10000 5.14 80 21:40 19.06.2022
1419 Clouds 27 1016 64 10000 5.14 80 20:44 19.06.2022
1420 Clouds 25 1016 69 10000 4.12 70 19:48 19.06.2022
1421 Clouds 25 1016 72 10000 4.12 70 19:20 19.06.2022
1422 Clouds 24 1015 74 10000 5.14 60 18:30 19.06.2022
1423 Clouds 24 1015 77 10000 5.66 60 17:22 19.06.2022
1424 Clouds 24 1015 75 10000 4.63 60 16:36 19.06.2022
1425 Clouds 24 1016 75 10000 5.66 70 15:43 19.06.2022
1426 Clouds 24 1016 76 10000 5.14 60 15:24 19.06.2022
1427 Clouds 24 1015 75 10000 4.63 70 14:20 19.06.2022
1428 Clouds 24 1015 74 10000 6.17 80 13:37 19.06.2022
1429 Clear 25 1017 73 10000 5.14 80 11:40 19.06.2022
1430 Clouds 25 1016 71 10000 5.14 60 10:47 19.06.2022
1431 Clouds 25 1015 72 10000 6.17 60 08:54 19.06.2022
1432 Clouds 25 1015 72 10000 6.17 60 08:22 19.06.2022
1433 Clouds 25 1013 75 10000 6.09 75 05:59 19.06.2022
1434 Clouds 27 1014 69 10000 5.66 60 02:59 19.06.2022
1435 Clouds 28 1015 61 10000 8.23 60 00:26 19.06.2022
1436 Clouds 28 1015 61 10000 7.72 80 23:36 18.06.2022
1437 Clouds 28 1015 63 10000 9.39 60 22:55 18.06.2022
1438 Clouds 27 1016 66 10000 8.23 80 21:52 18.06.2022
1439 Clouds 26 1015 69 10000 6.17 70 20:49 18.06.2022
1440 Clouds 26 1015 69 10000 6.17 70 20:49 18.06.2022
1441 Clouds 25 1016 73 10000 5.14 90 19:40 18.06.2022
1442 Clouds 24 1016 77 10000 5.14 70 18:54 18.06.2022
1443 Clear 24 1015 75 10000 5.66 60 17:43 18.06.2022
1444 Clear 24 1015 75 10000 5.66 60 17:22 18.06.2022
1445 Clouds 24 1015 75 10000 3.6 50 15:37 18.06.2022
1446 Clouds 23 1016 79 10000 4.12 90 14:48 18.06.2022
1447 Clouds 24 1016 78 10000 3.6 100 13:42 18.06.2022
1448 Clear 24 1016 81 10000 3.58 60 11:58 18.06.2022
1449 Clear 24 1016 82 10000 4.47 80 10:56 18.06.2022
1450 Clear 24 1016 82 10000 4.47 80 10:56 18.06.2022
1451 Clouds 25 1016 77 10000 5.14 50 09:28 18.06.2022
1452 Clouds 25 1016 76 10000 4.63 50 08:32 18.06.2022
1453 Clouds 25 1016 74 10000 9.26 70 07:20 18.06.2022
1454 Clouds 28 1015 61 10000 10.29 80 03:47 18.06.2022
1455 Clouds 28 1016 62 10000 8.23 70 01:26 18.06.2022
1456 Clouds 29 1017 60 10000 7.72 80 00:49 18.06.2022
1457 Clouds 28 1016 61 10000 7.15 60 23:59 17.06.2022
1458 Clouds 28 1017 62 10000 7.2 60 23:24 17.06.2022
1459 Clouds 27 1017 65 10000 6.71 60 21:27 17.06.2022
1460 Clouds 26 1017 70 10000 5.66 70 20:24 17.06.2022
1461 Clouds 24 1017 77 10000 4.63 80 18:52 17.06.2022
1462 Clouds 24 1016 79 10000 5.66 60 17:46 17.06.2022
1463 Clouds 24 1016 79 10000 4.63 60 16:43 17.06.2022
1464 Clouds 24 1016 79 10000 4.63 60 16:18 17.06.2022
1465 Clouds 23 1016 81 10000 5.14 60 15:34 17.06.2022
1466 Clouds 23 1016 83 10000 2.57 30 14:20 17.06.2022
1467 Clouds 23 1017 82 10000 3.6 50 13:46 17.06.2022
1468 Clouds 23 1017 81 10000 3.6 50 13:24 17.06.2022
1469 Clouds 23 1017 82 10000 2.68 60 11:58 17.06.2022
1470 Clouds 24 1018 79 10000 3.09 60 11:36 17.06.2022
1471 Clouds 24 1015 76 10000 5.66 70 10:52 17.06.2022
1472 Clouds 25 1016 77 10000 5.14 70 08:30 17.06.2022
1473 Clouds 25 1016 75 10000 7.2 70 07:48 17.06.2022
1474 Clouds 26 1015 72 10000 8.75 60 06:22 17.06.2022
1475 Clouds 28 1016 67 10000 6.71 60 03:19 17.06.2022
1476 Clouds 27 1017 69 10000 5.66 70 00:43 17.06.2022
1477 Rain 26 1017 77 10000 5.66 60 22:45 16.06.2022
1478 Clouds 27 1018 75 10000 5.66 60 22:26 16.06.2022
1479 Rain 25 1017 82 10000 6.17 80 21:19 16.06.2022
1480 Clouds 25 1017 79 10000 4.92 60 20:50 16.06.2022
1481 Clouds 24 1016 84 10000 4.92 60 19:58 16.06.2022
1482 Clouds 23 1016 82 10000 7.35 64 18:44 16.06.2022
1483 Clouds 23 1016 82 10000 3.6 60 17:44 16.06.2022
1484 Clouds 23 1016 82 10000 3.6 60 17:20 16.06.2022
1485 Clouds 23 1016 80 10000 5.14 40 15:44 16.06.2022
1486 Clouds 23 1016 82 10000 5.14 40 15:20 16.06.2022
1487 Clouds 23 1017 84 10000 3.6 40 13:49 16.06.2022
1488 Clouds 24 1017 83 10000 4.47 50 12:38 16.06.2022
1489 Clouds 23 1017 85 10000 4.63 50 11:55 16.06.2022
1490 Clouds 24 1017 84 10000 4.63 50 11:19 16.06.2022
1491 Clouds 24 1017 82 10000 5.66 70 10:34 16.06.2022
1492 Clouds 24 1017 86 10000 5.14 60 09:26 16.06.2022
1493 Clouds 24 1016 83 10000 4.63 50 08:46 16.06.2022
1494 Clouds 25 1017 79 10000 6.71 70 07:29 16.06.2022
1495 Clouds 26 1016 77 10000 4.63 20 05:43 16.06.2022
1496 Rain 26 1016 78 10000 5.14 90 03:23 16.06.2022
1497 Clouds 28 1017 64 10000 7.72 10 01:51 16.06.2022
1498 Clouds 28 1017 65 10000 7.72 10 01:22 16.06.2022
1499 Clouds 28 1017 69 10000 8.49 70 23:56 15.06.2022
1500 Clouds 28 1017 69 10000 8.49 70 23:56 15.06.2022
1501 Clouds 28 1018 68 10000 5.66 30 22:47 15.06.2022
1502 Rain 26 1018 77 10000 5.14 50 21:29 15.06.2022
1503 Clouds 25 1018 79 10000 2.68 80 20:57 15.06.2022
1504 Rain 26 1018 76 10000 3.09 80 20:35 15.06.2022
1505 Rain 24 1018 84 10000 1.54 0 19:49 15.06.2022
1506 Clouds 23 1017 85 10000 2.06 50 18:30 15.06.2022
1507 Clouds 23 1017 85 10000 1.54 50 17:42 15.06.2022
1508 Clouds 23 1017 85 10000 0 0 16:20 15.06.2022
1509 Clouds 24 1018 80 10000 2.57 360 14:33 15.06.2022
1510 Clouds 24 1017 78 10000 2.06 320 13:20 15.06.2022
1511 Clouds 24 1018 77 10000 3.09 10 12:33 15.06.2022
1512 Rain 24 1018 75 10000 4.12 50 10:53 15.06.2022
1513 Clouds 24 1018 74 10000 4.12 50 10:20 15.06.2022
1514 Clouds 24 1017 75 10000 4.92 50 08:57 15.06.2022
1515 Clouds 25 1017 70 10000 5.66 50 07:21 15.06.2022
1516 Clouds 26 1017 66 10000 7.72 30 05:24 15.06.2022
1517 Clouds 28 1018 62 10000 7.72 70 02:31 15.06.2022
1518 Clouds 28 1019 65 10000 7.72 70 01:33 15.06.2022
1519 Rain 26 1019 76 10000 9.77 70 23:55 14.06.2022
1520 Rain 26 1019 74 10000 9.77 70 23:37 14.06.2022
1521 Rain 25 1019 76 10000 7.2 50 22:33 14.06.2022
1522 Clouds 25 1019 75 10000 8.23 70 21:42 14.06.2022
1523 Clouds 26 1020 66 10000 6.71 70 20:57 14.06.2022
1524 Clouds 25 1019 68 10000 6.71 70 20:34 14.06.2022
1525 Clouds 25 1018 70 10000 6.17 60 19:25 14.06.2022
1526 Clouds 24 1019 72 10000 4.63 60 18:25 14.06.2022
1527 Clouds 24 1018 73 10000 5.66 70 16:49 14.06.2022
1528 Clouds 24 1019 73 10000 5.14 70 15:50 14.06.2022
1529 Clouds 24 1019 74 10000 5.14 70 15:31 14.06.2022
1530 Clouds 24 1018 75 10000 8.23 60 14:46 14.06.2022
1531 Clouds 24 1019 75 10000 8.23 60 13:46 14.06.2022
1532 Clouds 24 1019 73 10000 6.17 70 12:48 14.06.2022
1533 Clouds 24 1019 74 10000 7.72 70 11:46 14.06.2022
1534 Clouds 25 1019 73 10000 7.2 60 10:49 14.06.2022
1535 Clouds 25 1019 74 10000 7.2 60 10:25 14.06.2022
1536 Clouds 25 1019 74 10000 7.2 60 10:25 14.06.2022
1537 Clouds 25 1018 76 10000 7.72 50 08:49 14.06.2022
1538 Clouds 25 1018 75 10000 6.71 50 07:50 14.06.2022
1539 Clouds 26 1017 74 10000 10.28 70 05:56 14.06.2022
1540 Clouds 27 1017 65 10000 9.26 50 03:20 14.06.2022
1541 Clouds 28 1018 66 10000 10.29 70 01:31 14.06.2022
1542 Clouds 28 1019 62 10000 8.75 70 23:48 13.06.2022
1543 Clouds 27 1019 66 10000 8.23 70 22:26 13.06.2022
1544 Clouds 26 1019 69 10000 6.71 60 21:54 13.06.2022
1545 Clouds 26 1019 67 10000 6.69 50 20:42 13.06.2022
1546 Clouds 26 1019 72 10000 5.14 50 19:35 13.06.2022
1547 Clouds 24 1018 77 10000 5.66 80 18:31 13.06.2022
1548 Clouds 24 1018 78 10000 4.63 70 17:48 13.06.2022
1549 Clouds 24 1018 76 10000 4.63 60 16:53 13.06.2022
1550 Clouds 24 1017 78 10000 4.12 50 15:40 13.06.2022
1551 Clouds 24 1018 79 10000 4.63 70 14:47 13.06.2022
1552 Clouds 24 1017 79 10000 4.63 70 14:47 13.06.2022
1553 Clouds 24 1017 84 10000 5.14 60 13:55 13.06.2022
1554 Clouds 24 1017 85 10000 0.89 72 12:59 13.06.2022
1555 Clouds 25 1019 81 10000 6.71 60 11:37 13.06.2022
1556 Clouds 25 1019 79 10000 8.23 60 10:27 13.06.2022
1557 Clouds 25 1019 77 10000 7.72 50 09:42 13.06.2022
1558 Clouds 25 1018 75 10000 9.26 70 08:24 13.06.2022
1559 Clouds 26 1017 71 10000 8.75 70 06:34 13.06.2022
1560 Clouds 28 1017 69 10000 8.75 70 03:45 13.06.2022
1561 Clouds 29 1018 63 10000 7.72 80 01:38 13.06.2022
1562 Clouds 28 1018 64 10000 9.77 50 00:48 13.06.2022
1563 Clouds 28 1020 64 10000 8.23 60 23:31 12.06.2022
1564 Clouds 27 1019 66 10000 7.2 60 22:23 12.06.2022
1565 Clouds 27 1019 65 10000 6.69 60 21:39 12.06.2022
1566 Clouds 26 1018 67 10000 6.17 60 20:39 12.06.2022
1567 Clouds 25 1018 73 10000 6.17 70 19:38 12.06.2022
1568 Clouds 24 1018 77 10000 6.17 80 18:43 12.06.2022
1569 Clouds 24 1017 78 10000 6.17 60 16:42 12.06.2022
1570 Clouds 24 1017 77 10000 5.14 50 15:30 12.06.2022
1571 Clouds 24 1018 79 10000 5.14 80 14:32 12.06.2022
1572 Clouds 24 1017 79 10000 7.2 80 13:55 12.06.2022
1573 Clouds 24 1017 80 10000 7.72 80 12:58 12.06.2022
1574 Clouds 25 1019 75 10000 6.69 70 11:47 12.06.2022
1575 Clouds 25 1018 75 10000 6.69 80 10:45 12.06.2022
1576 Clouds 25 1018 74 10000 6.71 60 09:25 12.06.2022
1577 Clouds 25 1017 72 10000 6.17 60 08:48 12.06.2022
1578 Clouds 26 1016 69 10000 7.72 50 07:39 12.06.2022
1579 Clear 27 1016 66 10000 8.75 50 05:38 12.06.2022
1580 Clouds 28 1016 62 10000 9.77 70 03:38 12.06.2022
1581 Clouds 29 1016 58 10000 7.2 30 01:43 12.06.2022
1582 Clear 28 1015 62 10000 9.88 67 00:58 12.06.2022
1583 Clouds 29 1017 58 10000 9.26 70 00:25 12.06.2022
1584 Clouds 28 1017 60 10000 6.69 40 23:48 11.06.2022
1585 Clouds 28 1017 60 10000 6.71 40 23:48 11.06.2022
1586 Clouds 28 1018 62 10000 6.71 50 22:39 11.06.2022
1587 Clouds 28 1018 63 10000 6.71 50 22:18 11.06.2022
1588 Rain 26 1017 67 10000 6.17 70 20:50 11.06.2022
1589 Rain 26 1017 68 10000 6.17 70 20:21 11.06.2022
1590 Clouds 24 1017 74 10000 5.66 80 19:26 11.06.2022
1591 Clouds 24 1016 76 10000 6.17 70 18:34 11.06.2022
1592 Clouds 24 1016 77 10000 4.63 70 17:51 11.06.2022
1593 Clouds 24 1016 76 10000 5.66 70 17:28 11.06.2022
1594 Clouds 24 1016 77 10000 4.63 60 16:57 11.06.2022
1595 Clouds 24 1016 77 10000 4.63 60 16:30 11.06.2022
1596 Clouds 24 1016 76 10000 5.66 60 15:43 11.06.2022
1597 Clouds 24 1016 76 10000 5.66 60 15:43 11.06.2022
1598 Clear 24 1016 80 10000 4.63 70 13:53 11.06.2022
1599 Clouds 24 1017 77 10000 4.47 60 12:57 11.06.2022
1600 Clouds 24 1017 74 10000 5.14 70 10:55 11.06.2022
1601 Clouds 24 1017 74 10000 5.14 70 10:19 11.06.2022
1602 Clouds 25 1018 71 10000 5.14 40 09:19 11.06.2022
1603 Clouds 25 1016 71 10000 5.14 60 07:43 11.06.2022
1604 Clouds 26 1015 68 10000 7.2 40 06:30 11.06.2022
1605 Clouds 27 1015 64 10000 6.17 50 04:49 11.06.2022
1606 Clouds 28 1016 61 10000 6.71 50 01:53 11.06.2022
1607 Clouds 28 1016 61 10000 6.69 50 01:33 11.06.2022
1608 Clouds 28 1015 68 10000 7.2 60 00:20 11.06.2022
1609 Clouds 28 1017 59 10000 5.14 70 22:32 10.06.2022
1610 Clouds 27 1016 59 10000 6.17 50 21:52 10.06.2022
1611 Clouds 26 1016 62 10000 5.66 50 20:42 10.06.2022
1612 Clouds 26 1016 63 10000 5.66 50 20:22 10.06.2022
1613 Clouds 24 1016 69 10000 3.6 50 19:38 10.06.2022
1614 Clouds 24 1016 70 10000 3.6 50 19:18 10.06.2022
1615 Clouds 24 1016 70 10000 3.6 50 19:18 10.06.2022
1616 Clouds 24 1016 70 10000 3.6 50 19:18 10.06.2022
1617 Clouds 23 1015 72 10000 4.12 60 18:18 10.06.2022
1618 Clouds 23 1015 73 10000 3.6 50 17:35 10.06.2022
1619 Clouds 23 1015 75 10000 3.09 50 16:51 10.06.2022
1620 Clouds 23 1015 73 10000 5.66 70 15:45 10.06.2022
1621 Clouds 24 1016 72 10000 5.66 70 14:57 10.06.2022
1622 Clouds 24 1016 73 10000 4.63 70 13:36 10.06.2022
1623 Clouds 24 1017 75 10000 4.12 90 12:21 10.06.2022
1624 Clouds 24 1017 74 10000 5.14 70 11:30 10.06.2022
1625 Clouds 24 1017 74 10000 6.17 70 10:36 10.06.2022
1626 Clouds 24 1016 73 10000 5.66 70 09:37 10.06.2022
1627 Clouds 24 1016 76 10000 7.15 70 07:58 10.06.2022
1628 Clouds 26 1015 69 10000 5.66 70 06:50 10.06.2022
1629 Clouds 26 1015 69 10000 5.66 70 06:31 10.06.2022
1630 Clouds 27 1014 65 10000 6.17 60 05:34 10.06.2022
1631 Clouds 28 1015 59 10000 6.69 60 02:50 10.06.2022
1632 Clouds 29 1015 57 10000 6.69 40 01:37 10.06.2022
1633 Clear 27 1017 60 10000 4.02 190 23:58 09.06.2022
1634 Clouds 28 1017 58 10000 5.14 50 22:47 09.06.2022
1635 Clouds 27 1017 59 10000 3.6 120 21:46 09.06.2022
1636 Clouds 27 1017 61 10000 3.6 120 21:28 09.06.2022
1637 Clouds 26 1017 62 10000 2.57 80 20:40 09.06.2022
1638 Clouds 24 1016 70 10000 2.06 320 19:51 09.06.2022
1639 Clouds 22 1016 82 10000 2.57 350 18:41 09.06.2022
1640 Clouds 22 1016 81 10000 2.57 340 17:55 09.06.2022
1641 Clouds 22 1016 81 10000 3.09 80 16:28 09.06.2022
1642 Clouds 22 1015 80 10000 2.57 340 15:40 09.06.2022
1643 Clouds 23 1016 77 10000 3.6 70 14:33 09.06.2022
1644 Clouds 23 1016 74 10000 3.6 110 13:44 09.06.2022
1645 Clouds 23 1016 73 10000 3.6 110 13:20 09.06.2022
1646 Clouds 24 1017 74 10000 4.63 70 11:43 09.06.2022
1647 Clouds 24 1017 73 10000 4.12 80 10:34 09.06.2022
1648 Clouds 25 1017 71 10000 5.66 70 09:38 09.06.2022
1649 Clouds 25 1017 71 10000 5.66 70 09:20 09.06.2022
1650 Clouds 25 1015 70 10000 4.12 40 07:29 09.06.2022
1651 Clouds 28 1015 61 10000 5.66 70 04:30 09.06.2022
1652 Clouds 28 1017 58 10000 6.17 70 00:35 09.06.2022
1653 Clouds 28 1017 55 10000 5.14 60 23:18 08.06.2022
1654 Clouds 28 1016 57 10000 6.17 70 22:43 08.06.2022
1655 Clouds 28 1016 57 10000 6.17 70 22:23 08.06.2022
1656 Clouds 27 1016 60 10000 6.17 60 21:33 08.06.2022
1657 Clouds 26 1017 66 10000 5.14 70 20:25 08.06.2022
1658 Clouds 25 1016 71 10000 4.12 50 19:42 08.06.2022
1659 Clouds 23 1016 77 10000 4.12 90 18:48 08.06.2022
1660 Clouds 24 1016 78 10000 4.12 60 17:41 08.06.2022
1661 Clouds 23 1016 79 10000 3.6 80 15:54 08.06.2022
1662 Clouds 23 1016 78 10000 4.63 80 14:44 08.06.2022
1663 Clouds 23 1017 79 10000 2.57 80 12:55 08.06.2022
1664 Clouds 23 1017 77 10000 2.57 30 12:55 08.06.2022
1665 Clouds 23 1017 77 10000 2.57 30 12:55 08.06.2022
1666 Clouds 23 1017 79 10000 2.57 80 12:55 08.06.2022
1667 Clouds 23 1017 79 10000 2.57 80 12:55 08.06.2022
1668 Clouds 24 1017 76 10000 3.6 80 11:36 08.06.2022
1669 Clouds 24 1018 74 10000 5.14 70 10:51 08.06.2022
1670 Clouds 24 1017 73 10000 5.14 50 09:28 08.06.2022
1671 Clouds 25 1017 71 10000 5.66 70 08:54 08.06.2022
1672 Clouds 26 1016 70 10000 6.17 60 07:21 08.06.2022
1673 Clouds 27 1016 62 10000 6.17 70 04:47 08.06.2022
1674 Clouds 28 1016 62 10000 6.17 80 01:25 08.06.2022
1675 Clouds 28 1017 60 10000 6.69 30 23:32 07.06.2022
1676 Clouds 28 1017 62 10000 5.66 50 22:54 07.06.2022
1677 Clouds 28 1017 63 10000 5.66 50 22:34 07.06.2022
1678 Clouds 27 1017 66 10000 4.63 70 21:39 07.06.2022
1679 Clouds 26 1017 69 10000 4.63 70 21:20 07.06.2022
1680 Clouds 26 1017 68 10000 2.57 90 20:40 07.06.2022
1681 Clouds 25 1017 71 10000 3.09 0 19:51 07.06.2022
1682 Clouds 24 1016 77 10000 3.09 80 18:25 07.06.2022
1683 Clouds 24 1016 77 10000 4.12 90 17:31 07.06.2022
1684 Clouds 24 1016 78 10000 3.6 90 16:44 07.06.2022
1685 Clouds 24 1015 80 10000 3.6 90 15:58 07.06.2022
1686 Clouds 24 1016 77 10000 3.6 90 15:30 07.06.2022
1687 Clouds 24 1016 77 10000 3.6 60 14:56 07.06.2022
1688 Clouds 24 1016 77 10000 3.6 60 14:38 07.06.2022
1689 Clear 24 1016 76 10000 4.12 60 13:33 07.06.2022
1690 Clouds 24 1016 77 10000 2.57 90 12:54 07.06.2022
1691 Clouds 24 1017 75 10000 3.6 50 11:51 07.06.2022
1692 Clouds 24 1017 74 10000 4.12 60 10:48 07.06.2022
1693 Clouds 25 1016 74 10000 5.81 70 08:53 07.06.2022
1694 Clouds 26 1016 71 10000 6.17 60 07:47 07.06.2022
1695 Clouds 26 1015 69 10000 6.69 50 06:39 07.06.2022
1696 Clouds 28 1014 67 10000 6.69 50 04:39 07.06.2022
1697 Clouds 29 1016 63 10000 6.69 60 01:27 07.06.2022
1698 Clouds 28 1017 66 10000 4.63 50 23:53 06.06.2022
1699 Clouds 28 1017 65 10000 4.12 210 22:54 06.06.2022
1700 Clouds 28 1017 65 10000 4.12 210 22:29 06.06.2022
1701 Clouds 26 1017 71 10000 4.12 40 20:47 06.06.2022
1702 Clouds 24 1016 82 10000 1.54 310 19:28 06.06.2022
1703 Clouds 22 1016 86 10000 1.54 350 18:49 06.06.2022
1704 Clouds 22 1016 88 10000 1.54 350 18:21 06.06.2022
1705 Clouds 22 1016 87 10000 2.57 350 17:24 06.06.2022
1706 Clouds 22 1016 85 10000 0 0 16:18 06.06.2022
1707 Clouds 22 1016 83 10000 2.06 100 15:23 06.06.2022
1708 Clouds 23 1016 83 10000 2.57 80 14:29 06.06.2022
1709 Clouds 23 1016 82 10000 2.57 340 13:21 06.06.2022
1710 Clouds 23 1017 80 10000 2.57 90 12:35 06.06.2022
1711 Clouds 24 1017 78 10000 3.09 50 11:50 06.06.2022
1712 Clouds 24 1017 79 10000 3.6 70 10:21 06.06.2022
1713 Clouds 24 1016 78 10000 4.63 60 09:23 06.06.2022
1714 Clouds 24 1016 77 10000 4.12 80 08:31 06.06.2022
1715 Clouds 25 1015 75 10000 4.63 70 07:24 06.06.2022
1716 Clouds 27 1014 68 10000 4.12 70 04:42 06.06.2022
1717 Clouds 28 1015 64 10000 4.63 100 02:27 06.06.2022
1718 Clouds 28 1016 60 10000 4.12 60 00:57 06.06.2022
1719 Clouds 28 1016 62 10000 4.12 60 00:57 06.06.2022
1720 Clouds 28 1016 59 10000 4.12 60 00:35 06.06.2022
1721 Rain 28 1017 59 10000 4.12 40 23:25 05.06.2022
1722 Clouds 27 1017 60 10000 4.12 50 22:33 05.06.2022
1723 Clouds 25 1016 66 10000 2.06 70 20:34 05.06.2022
1724 Clouds 23 1016 73 10000 2.57 50 19:26 05.06.2022
1725 Clouds 22 1015 77 10000 2.06 50 18:20 05.06.2022
1726 Clouds 21 1015 80 10000 3.6 50 17:39 05.06.2022
1727 Clouds 21 1015 80 10000 3.6 50 17:21 05.06.2022
1728 Clouds 21 1015 81 10000 3.09 60 16:47 05.06.2022
1729 Clouds 22 1015 80 10000 3.09 70 15:41 05.06.2022
1730 Clouds 22 1016 75 10000 1.54 0 14:21 05.06.2022
1731 Clouds 22 1017 77 10000 3.09 60 12:23 05.06.2022
1732 Clouds 23 1017 75 10000 2.06 70 10:51 05.06.2022
1733 Clouds 23 1017 75 10000 1.54 10 10:24 05.06.2022
1734 Clouds 23 1016 74 10000 4.12 50 09:44 05.06.2022
1735 Clouds 24 1016 71 10000 4.63 50 08:25 05.06.2022
1736 Clouds 26 1015 62 10000 4.63 50 06:47 05.06.2022
1737 Clouds 27 1015 58 10000 4.63 70 05:20 05.06.2022
1738 Clouds 28 1015 53 10000 3.6 60 02:57 05.06.2022
1739 Clouds 28 1015 51 10000 5.14 130 01:24 05.06.2022
1740 Clouds 28 1016 51 10000 5.14 130 01:24 05.06.2022
1741 Clouds 27 1016 55 10000 3.6 40 23:36 04.06.2022
1742 Clouds 26 1016 59 10000 4.12 60 21:30 04.06.2022
1743 Clouds 24 1016 72 10000 3.6 110 19:36 04.06.2022
1744 Clouds 22 1015 77 10000 4.12 90 17:21 04.06.2022
1745 Clouds 22 1015 79 10000 2.06 100 16:20 04.06.2022
1746 Clouds 22 1015 78 10000 2.06 80 15:45 04.06.2022
1747 Clouds 23 1016 77 10000 3.09 60 14:18 04.06.2022
1748 Clouds 23 1017 73 10000 3.09 70 11:43 04.06.2022
1749 Clouds 24 1017 73 10000 4.12 60 10:55 04.06.2022
1750 Clouds 23 1016 76 10000 4.47 50 09:59 04.06.2022
1751 Clouds 24 1017 72 10000 4.63 50 09:38 04.06.2022
1752 Clouds 24 1016 73 10000 6.71 40 08:39 04.06.2022
1753 Clear 25 1015 71 10000 5.81 50 07:00 04.06.2022
1754 Clouds 27 1015 63 10000 5.66 50 04:29 04.06.2022
1755 Clouds 27 1017 62 10000 5.66 50 00:24 04.06.2022
1756 Clouds 28 1016 62 10000 6.17 50 23:19 03.06.2022
1757 Clouds 27 1016 65 10000 3.6 50 21:54 03.06.2022
1758 Clouds 25 1016 69 10000 3.6 60 20:40 03.06.2022
1759 Clouds 24 1016 75 10000 3.09 60 19:49 03.06.2022
1760 Clouds 21 1014 87 10000 3.72 54 16:59 03.06.2022
1761 Clouds 22 1015 84 10000 1.79 350 15:57 03.06.2022
1762 Clouds 23 1015 78 10000 3.09 70 14:47 03.06.2022
1763 Rain 23 1016 79 10000 3.09 80 12:26 03.06.2022
1764 Clouds 24 1016 77 10000 4.47 40 09:58 03.06.2022
1765 Clouds 24 1017 73 10000 4.63 40 09:29 03.06.2022
1766 Clouds 25 1016 75 10000 5.66 60 07:50 03.06.2022
1767 Clouds 25 1015 77 10000 5.66 60 07:19 03.06.2022
1768 Clouds 25 1015 74 10000 4.63 30 06:29 03.06.2022
1769 Clouds 26 1015 67 10000 5.66 60 04:35 03.06.2022
1770 Clouds 27 1016 71 10000 6.69 50 00:21 03.06.2022
1771 Clouds 27 1017 70 10000 4.63 50 22:34 02.06.2022
1772 Clouds 25 1016 80 10000 4.63 60 20:57 02.06.2022
1773 Rain 24 1016 84 10000 2.24 360 19:58 02.06.2022
1774 Clouds 24 1016 79 10000 4.12 70 19:39 02.06.2022
1775 Clouds 23 1016 79 10000 3.6 60 18:51 02.06.2022
1776 Clear 23 1015 79 10000 3.6 60 16:30 02.06.2022
1777 Clouds 23 1015 77 10000 3.6 60 15:47 02.06.2022
1778 Clouds 23 1016 77 10000 4.12 70 13:31 02.06.2022
1779 Clouds 24 1016 76 10000 6.69 70 12:49 02.06.2022
1780 Clouds 24 1017 77 10000 6.17 60 10:48 02.06.2022
1781 Clouds 24 1017 75 10000 6.71 60 09:30 02.06.2022
1782 Clouds 24 1016 75 10000 6.17 60 08:45 02.06.2022
1783 Clouds 24 1016 75 10000 6.17 60 08:23 02.06.2022
1784 Clouds 26 1015 68 10000 6.17 60 06:21 02.06.2022
1785 Clouds 28 1015 60 10000 6.17 70 03:50 02.06.2022
1786 Clouds 28 1015 62 10000 6.71 60 00:55 02.06.2022
1787 Clouds 27 1016 69 10000 5.14 80 22:58 01.06.2022
1788 Clouds 27 1017 66 10000 6.69 50 22:18 01.06.2022
1789 Clouds 26 1017 70 10000 4.12 80 21:24 01.06.2022
1790 Clouds 25 1016 75 10000 5.14 60 20:38 01.06.2022
1791 Clouds 24 1016 81 10000 3.09 50 19:52 01.06.2022
1792 Clouds 23 1016 89 10000 2.06 20 18:37 01.06.2022
1793 Clouds 23 1014 90 10000 4.16 85 16:58 01.06.2022
1794 Clouds 23 1014 86 10000 2.57 40 15:43 01.06.2022
1795 Clouds 23 1014 84 10000 2.57 50 14:49 01.06.2022
1796 Clouds 23 1015 81 10000 4.12 50 13:23 01.06.2022
1797 Clouds 24 1016 80 10000 5.66 70 10:48 01.06.2022
1798 Clouds 24 1016 77 10000 6.71 50 09:29 01.06.2022
1799 Clouds 24 1015 77 10000 5.66 60 08:18 01.06.2022
1800 Clouds 25 1015 74 10000 7.72 50 07:20 01.06.2022
1801 Clouds 27 1014 63 10000 7.2 70 03:55 01.06.2022
1802 Clouds 28 1015 64 10000 6.71 40 23:47 31.05.2022
1803 Clouds 28 1015 63 10000 3.09 90 22:41 31.05.2022
1804 Clouds 27 1015 66 10000 5.14 70 22:22 31.05.2022
1805 Clouds 27 1015 67 10000 3.6 80 21:23 31.05.2022
1806 Clouds 26 1015 72 10000 4.63 70 20:43 31.05.2022
1807 Clouds 24 1015 77 10000 4.63 50 19:31 31.05.2022
1808 Clouds 23 1014 80 10000 3.6 80 18:26 31.05.2022
1809 Rain 23 1014 81 10000 5.14 80 17:37 31.05.2022
1810 Clouds 23 1014 81 10000 4.12 80 15:45 31.05.2022
1811 Clouds 23 1014 81 10000 5.14 80 15:22 31.05.2022
1812 Clouds 23 1016 79 10000 3.09 70 12:41 31.05.2022
1813 Clouds 23 1016 79 10000 3.09 70 12:18 31.05.2022
1814 Clouds 24 1016 78 10000 3.6 60 10:22 31.05.2022
1815 Clouds 25 1014 72 10000 7.2 70 07:43 31.05.2022
1816 Clouds 26 1013 66 10000 7.72 60 05:38 31.05.2022
1817 Clouds 28 1014 61 10000 7.2 30 03:41 31.05.2022
1818 Clouds 27 1016 60 10000 6.17 60 23:45 30.05.2022
1819 Clouds 28 1015 61 10000 6.17 60 23:23 30.05.2022
1820 Clouds 27 1016 63 10000 5.66 60 22:33 30.05.2022
1821 Clouds 26 1016 67 10000 5.14 60 21:40 30.05.2022
1822 Clouds 25 1016 73 10000 5.14 70 20:43 30.05.2022
1823 Clouds 23 1016 81 10000 4.63 60 19:40 30.05.2022
1824 Clouds 22 1014 87 10000 2.57 330 17:48 30.05.2022
1825 Clouds 21 1014 87 10000 2.57 330 17:20 30.05.2022
1826 Clouds 21 1014 87 10000 0 0 15:51 30.05.2022
1827 Clouds 22 1015 85 10000 1.54 50 13:21 30.05.2022
1828 Clear 23 1016 81 10000 3.09 30 11:30 30.05.2022
1829 Clouds 24 1015 81 10000 4.63 80 09:41 30.05.2022
1830 Clouds 24 1014 82 10000 2.06 350 07:29 30.05.2022
1831 Rain 24 1014 83 10000 3.09 320 05:54 30.05.2022
1832 Clouds 26 1015 77 10000 3.09 90 03:22 30.05.2022
1833 Clouds 26 1015 78 10000 4.12 160 23:57 29.05.2022
1834 Rain 25 1016 78 10000 3.09 130 22:40 29.05.2022
1835 Clouds 25 1016 82 10000 0 0 21:44 29.05.2022
1836 Clouds 23 1016 89 10000 2.06 350 20:18 29.05.2022
1837 Clouds 22 1016 92 10000 1.54 120 19:28 29.05.2022
1838 Rain 22 1015 91 10000 3.09 30 17:56 29.05.2022
1839 Clouds 23 1014 91 10000 2.26 74 15:59 29.05.2022
1840 Clouds 23 1015 90 10000 0 0 15:40 29.05.2022
1841 Clouds 23 1016 87 10000 1.54 20 14:44 29.05.2022
1842 Clouds 24 1017 83 10000 4.12 80 12:21 29.05.2022
1843 Clouds 24 1017 81 10000 3.6 80 10:56 29.05.2022
1844 Clouds 24 1016 78 10000 5.14 60 09:54 29.05.2022
1845 Clouds 25 1015 75 10000 6.17 50 07:42 29.05.2022
1846 Clouds 26 1015 72 10000 6.17 60 04:51 29.05.2022
1847 Clouds 26 1015 73 10000 6.17 60 04:31 29.05.2022
1848 Clouds 27 1016 69 10000 5.66 60 00:48 29.05.2022
1849 Clouds 28 1017 67 10000 7.2 80 23:42 28.05.2022
1850 Clouds 27 1017 66 10000 6.17 80 22:56 28.05.2022
1851 Clouds 26 1017 70 10000 4.63 70 21:45 28.05.2022
1852 Clouds 25 1017 79 10000 4.12 70 20:40 28.05.2022
1853 Clouds 23 1017 82 10000 3.09 60 19:19 28.05.2022
1854 Clouds 23 1016 84 10000 2.57 110 18:19 28.05.2022
1855 Clouds 23 1016 85 10000 3.09 70 16:57 28.05.2022
1856 Clouds 23 1016 82 10000 3.09 110 15:45 28.05.2022
1857 Clouds 23 1016 82 10000 3.09 110 15:19 28.05.2022
1858 Clouds 23 1017 82 10000 3.09 50 13:26 28.05.2022
1859 Rain 23 1017 83 10000 4.63 80 12:41 28.05.2022
1860 Clouds 23 1017 81 10000 4.63 70 11:28 28.05.2022
1861 Clouds 23 1017 80 10000 5.14 80 10:32 28.05.2022
1862 Clouds 23 1017 79 10000 4.12 60 09:39 28.05.2022
1863 Clouds 23 1015 81 10000 4.12 80 07:53 28.05.2022
1864 Clouds 24 1015 77 10000 6.69 70 06:32 28.05.2022
1865 Clouds 26 1015 64 10000 4.63 20 04:21 28.05.2022
1866 Clouds 27 1015 58 10000 4.63 70 00:50 28.05.2022
1867 Clouds 27 1016 55 10000 4.63 60 23:53 27.05.2022
1868 Clouds 27 1016 49 10000 4.63 70 22:24 27.05.2022
1869 Clear 26 1015 56 10000 4.64 90 20:59 27.05.2022
1870 Clouds 26 1016 58 10000 4.63 50 20:40 27.05.2022
1871 Clouds 25 1015 62 10000 5.14 70 19:56 27.05.2022
1872 Clouds 24 1016 63 10000 5.14 70 19:34 27.05.2022
1873 Clouds 23 1014 69 10000 4.63 80 18:37 27.05.2022
1874 Clouds 23 1014 74 10000 3.6 80 16:42 27.05.2022
1875 Clouds 23 1013 73 10000 4.12 80 15:46 27.05.2022
1876 Clear 23 1014 73 10000 4.12 50 14:45 27.05.2022
1877 Clear 23 1014 73 10000 4.12 80 13:35 27.05.2022
1878 Clouds 23 1015 71 10000 5.14 60 11:43 27.05.2022
1879 Clouds 23 1015 70 10000 5.14 60 11:25 27.05.2022
1880 Clouds 23 1015 70 10000 6.17 70 10:35 27.05.2022
1881 Clouds 24 1015 68 10000 5.14 60 09:42 27.05.2022
1882 Clouds 24 1016 65 10000 3.6 70 08:24 27.05.2022
1883 Clouds 26 1015 59 10000 6.17 50 06:45 27.05.2022
1884 Clouds 28 1013 47 10000 5.66 50 02:53 27.05.2022
1885 Clouds 28 1015 50 10000 5.66 60 00:53 27.05.2022
1886 Clouds 27 1015 51 10000 5.66 60 22:47 26.05.2022
1887 Clouds 26 1015 54 10000 5.14 60 21:43 26.05.2022
1888 Clouds 25 1014 63 10000 4.92 50 20:59 26.05.2022
1889 Clouds 24 1015 64 10000 4.63 70 19:27 26.05.2022
1890 Clouds 23 1014 63 10000 5.14 70 18:21 26.05.2022
1891 Clouds 23 1013 66 10000 4.63 90 16:56 26.05.2022
1892 Clouds 22 1014 65 10000 4.12 80 15:46 26.05.2022
1893 Clouds 23 1014 66 10000 5.14 70 14:48 26.05.2022
1894 Clouds 23 1015 69 10000 5.66 90 13:23 26.05.2022
1895 Clouds 23 1016 69 10000 4.63 70 11:36 26.05.2022
1896 Clouds 23 1015 69 10000 5.14 70 10:24 26.05.2022
1897 Clouds 24 1016 68 10000 5.14 90 09:35 26.05.2022
1898 Clouds 24 1015 66 10000 5.66 60 08:37 26.05.2022
1899 Clouds 26 1014 53 10000 8.23 40 05:22 26.05.2022
1900 Clouds 27 1015 58 10000 6.71 60 00:57 26.05.2022
1901 Clouds 27 1016 57 10000 6.71 60 23:40 25.05.2022
1902 Clouds 27 1016 61 10000 5.66 50 22:22 25.05.2022
1903 Clouds 26 1016 63 10000 5.14 70 21:33 25.05.2022
1904 Clouds 25 1016 67 10000 5.14 80 20:37 25.05.2022
1905 Clouds 23 1015 76 10000 4.12 70 19:29 25.05.2022
1906 Clouds 22 1015 83 10000 2.57 80 17:43 25.05.2022
1907 Clouds 22 1014 83 10000 3.6 80 16:38 25.05.2022
1908 Clouds 22 1015 82 10000 3.6 80 15:54 25.05.2022
1909 Clouds 22 1015 83 10000 3.09 80 14:54 25.05.2022
1910 Clouds 22 1015 83 10000 3.09 80 14:33 25.05.2022
1911 Clouds 22 1016 81 10000 3.09 80 13:54 25.05.2022
1912 Clouds 22 1014 86 10000 5.71 62 12:39 25.05.2022
1913 Clouds 23 1016 71 10000 4.63 60 10:49 25.05.2022
1914 Clouds 23 1016 70 10000 4.63 60 10:18 25.05.2022
1915 Clouds 24 1015 73 10000 4.02 50 08:37 25.05.2022
1916 Clouds 24 1013 72 10000 5.76 62 07:23 25.05.2022
1917 Clouds 27 1014 60 10000 6.17 30 04:22 25.05.2022
1918 Clouds 28 1017 57 10000 6.17 50 00:19 25.05.2022
1919 Clouds 27 1017 59 10000 5.66 70 23:43 24.05.2022
1920 Clouds 27 1018 59 10000 4.12 50 22:32 24.05.2022
1921 Clouds 27 1018 61 10000 5.14 60 21:40 24.05.2022
1922 Clouds 26 1018 62 10000 5.14 60 21:21 24.05.2022
1923 Clouds 24 1017 73 10000 4.12 80 19:48 24.05.2022
1924 Clouds 23 1017 79 10000 3.09 80 18:56 24.05.2022
1925 Clouds 22 1016 81 10000 4.63 80 16:53 24.05.2022
1926 Clouds 22 1016 81 10000 4.63 80 16:23 24.05.2022
1927 Clouds 23 1017 80 10000 3.6 90 14:58 24.05.2022
1928 Clouds 23 1017 80 10000 3.6 90 14:21 24.05.2022
1929 Clouds 23 1018 77 10000 3.09 100 12:50 24.05.2022
1930 Clouds 24 1018 77 10000 5.14 70 11:33 24.05.2022
1931 Clouds 24 1018 77 10000 5.14 80 09:45 24.05.2022
1932 Clouds 24 1018 78 10000 5.14 60 08:50 24.05.2022
1933 Clouds 25 1017 72 10000 5.66 70 06:57 24.05.2022
1934 Clouds 26 1017 70 10000 5.14 60 04:20 24.05.2022
1935 Clouds 27 1016 68 10000 4.12 70 01:55 24.05.2022
1936 Clouds 28 1018 61 10000 6.69 70 01:36 24.05.2022
1937 Clouds 28 1019 57 10000 4.12 50 23:31 23.05.2022
1938 Clouds 27 1019 64 10000 3.6 80 21:56 23.05.2022
1939 Clouds 27 1020 61 10000 6.17 50 21:29 23.05.2022
1940 Clouds 25 1020 68 10000 4.12 70 20:35 23.05.2022
1941 Clouds 24 1019 73 10000 5.14 60 19:33 23.05.2022
1942 Clear 23 1016 76 10000 4.02 60 18:59 23.05.2022
1943 Clouds 23 1017 75 10000 4.12 60 18:31 23.05.2022
1944 Clouds 23 1017 76 10000 4.63 70 17:24 23.05.2022
1945 Clouds 23 1018 72 10000 4.12 50 15:31 23.05.2022
1946 Clouds 24 1020 73 10000 4.63 80 13:22 23.05.2022
1947 Clouds 24 1018 75 10000 5.36 70 11:33 23.05.2022
1948 Clouds 24 1018 75 10000 5.66 70 10:31 23.05.2022
1949 Clouds 24 1020 75 10000 6.69 80 09:39 23.05.2022
1950 Clouds 24 1019 75 10000 5.14 70 08:32 23.05.2022
1951 Clouds 25 1018 71 10000 6.69 70 06:46 23.05.2022
1952 Clouds 26 1018 67 10000 7.2 50 05:39 23.05.2022
1953 Clouds 27 1018 65 10000 7.72 60 02:34 23.05.2022
1954 Clouds 27 1018 65 10000 6.17 60 01:42 23.05.2022
1955 Clouds 27 1019 65 10000 7.2 60 00:38 23.05.2022
1956 Clouds 27 1017 63 10000 5.14 70 22:42 22.05.2022
1957 Clouds 26 1019 68 10000 5.14 70 21:55 22.05.2022
1958 Clouds 26 1019 68 10000 5.14 70 21:36 22.05.2022
1959 Clouds 26 1020 69 10000 5.66 60 20:32 22.05.2022
1960 Clouds 25 1019 73 10000 4.63 60 19:57 22.05.2022
1961 Clouds 24 1018 77 10000 4.02 60 18:56 22.05.2022
1962 Clouds 24 1018 76 10000 4.12 60 18:25 22.05.2022
1963 Clouds 23 1018 77 10000 4.12 80 17:37 22.05.2022
1964 Clouds 23 1018 78 10000 4.12 70 16:39 22.05.2022
1965 Clouds 23 1018 77 10000 6.17 60 14:53 22.05.2022
1966 Clouds 23 1017 79 10000 4.63 90 13:54 22.05.2022
1967 Clouds 24 1019 73 10000 6.69 70 12:52 22.05.2022
1968 Clouds 24 1017 73 10000 6.71 70 12:52 22.05.2022
1969 Clouds 25 1020 71 10000 4.63 50 11:52 22.05.2022
1970 Clouds 25 1020 70 10000 7.2 70 10:24 22.05.2022
1971 Clouds 25 1019 72 10000 4.63 60 09:18 22.05.2022
1972 Clouds 26 1017 69 10000 7.2 70 07:22 22.05.2022
1973 Clouds 26 1017 68 10000 7.2 60 06:24 22.05.2022
1974 Clouds 29 1016 60 10000 6.69 50 02:33 22.05.2022
1975 Clouds 28 1016 64 10000 6.17 150 00:44 22.05.2022
1976 Clouds 28 1018 69 10000 6.71 150 23:55 21.05.2022
1977 Clouds 28 1018 70 10000 6.71 150 23:21 21.05.2022
1978 Clouds 27 1019 75 10000 3.6 180 21:45 21.05.2022
1979 Clouds 27 1019 79 10000 3.6 180 21:25 21.05.2022
1980 Clouds 26 1017 83 10000 0 0 20:25 21.05.2022
1981 Clouds 24 1018 90 10000 0 0 19:37 21.05.2022
1982 Clouds 24 1016 91 10000 0 0 17:57 21.05.2022
1983 Clouds 23 1014 92 10000 3.11 64 16:53 21.05.2022
1984 Clouds 23 1016 95 10000 2.06 360 14:38 21.05.2022
1985 Clouds 23 1015 93 10000 1.54 350 13:53 21.05.2022
1986 Clouds 23 1017 93 10000 2.57 340 12:57 21.05.2022
1987 Clouds 24 1016 93 10000 2.57 340 12:37 21.05.2022
1988 Rain 24 1017 92 10000 3.09 340 10:44 21.05.2022
1989 Clouds 24 1017 92 10000 4.12 330 09:48 21.05.2022
1990 Clouds 24 1015 94 10000 0.97 121 08:58 21.05.2022
1991 Clouds 25 1016 88 10000 2.06 170 08:33 21.05.2022
1992 Clouds 27 1014 82 10000 3.58 170 04:33 21.05.2022
1993 Clouds 27 1016 80 10000 3.6 190 00:38 21.05.2022
1994 Clouds 26 1017 82 10000 4.12 280 22:59 20.05.2022
1995 Clouds 26 1018 86 10000 4.12 280 22:24 20.05.2022
1996 Rain 25 1017 90 10000 2.06 20 21:47 20.05.2022
1997 Rain 24 1017 96 10000 2.57 360 20:57 20.05.2022
1998 Rain 23 1017 97 10000 2.57 360 20:25 20.05.2022
1999 Rain 23 1017 94 10000 0 0 19:26 20.05.2022
2000 Rain 23 1017 94 9656 1.54 360 18:46 20.05.2022
2001 Clouds 24 1015 87 10000 1.54 20 17:24 20.05.2022
2002 Clouds 25 1016 83 10000 0 0 16:19 20.05.2022
2003 Clouds 25 1016 82 10000 2.57 210 15:47 20.05.2022
2004 Clouds 25 1016 82 10000 2.57 190 14:30 20.05.2022
2005 Clear 25 1016 81 10000 3.6 190 13:55 20.05.2022
2006 Clouds 26 1017 79 10000 2.06 180 11:34 20.05.2022
2007 Clouds 26 1017 78 10000 2.06 120 10:19 20.05.2022
2008 Clouds 26 1016 78 10000 2.57 150 08:45 20.05.2022
2009 Clouds 26 1016 76 10000 3.6 160 07:18 20.05.2022
2010 Clouds 26 1016 76 10000 4.12 150 06:32 20.05.2022
2011 Clouds 28 1016 72 10000 5.66 220 04:42 20.05.2022
2012 Clouds 28 1017 69 10000 5.66 220 00:48 20.05.2022
2013 Clouds 27 1017 74 10000 4.12 190 22:47 19.05.2022
2014 Clouds 27 1017 73 10000 4.12 190 22:19 19.05.2022
2015 Clouds 27 1017 76 10000 5.14 200 21:42 19.05.2022
2016 Clouds 27 1017 76 10000 5.14 200 21:22 19.05.2022
2017 Clouds 26 1016 79 10000 5.66 210 20:32 19.05.2022
2018 Rain 25 1015 85 10000 3.6 200 19:40 19.05.2022
2019 Clouds 25 1015 85 10000 4.12 200 18:19 19.05.2022
2020 Clouds 24 1014 82 10000 6.17 190 16:32 19.05.2022
2021 Clouds 24 1014 82 10000 3.6 190 14:52 19.05.2022
2022 Clouds 24 1014 82 10000 3.6 190 14:23 19.05.2022
2023 Clouds 24 1015 84 10000 5.14 200 12:35 19.05.2022
2024 Rain 23 1016 85 10000 6.17 180 11:25 19.05.2022
2025 Rain 21 1017 85 10000 4.12 110 09:19 19.05.2022
2026 Rain 22 1018 88 9656 4.63 280 07:48 19.05.2022
2027 Clouds 25 1016 78 10000 4.12 180 04:50 19.05.2022
2028 Rain 26 1016 76 10000 5.66 160 01:58 19.05.2022
2029 Clouds 26 1016 76 10000 5.81 170 23:55 18.05.2022
2030 Clouds 26 1016 76 10000 5.66 170 22:46 18.05.2022
2031 Clouds 25 1015 79 10000 5.66 170 21:47 18.05.2022
2032 Clouds 25 1015 80 10000 5.66 170 21:26 18.05.2022
2033 Clouds 25 1016 80 10000 4.63 170 20:24 18.05.2022
2034 Clouds 25 1015 81 10000 4.63 160 19:39 18.05.2022
2035 Clouds 24 1014 82 10000 5.14 150 18:21 18.05.2022
2036 Clouds 24 1014 83 10000 6.17 160 17:41 18.05.2022
2037 Clouds 24 1014 83 10000 6.17 160 17:23 18.05.2022
2038 Rain 24 1015 81 10000 5.14 160 16:23 18.05.2022
2039 Rain 24 1015 80 8047 4.47 180 15:39 18.05.2022
2040 Clouds 24 1015 80 10000 5.66 160 14:34 18.05.2022
2041 Clouds 24 1016 83 10000 4.63 160 13:22 18.05.2022
2042 Clouds 24 1016 83 10000 5.14 160 12:40 18.05.2022
2043 Clouds 24 1017 82 10000 4.12 160 11:34 18.05.2022
2044 Clouds 24 1017 81 10000 4.12 160 10:52 18.05.2022
2045 Rain 25 1017 76 10000 3.6 200 08:53 18.05.2022
2046 Clouds 25 1016 73 10000 4.12 160 07:29 18.05.2022
2047 Clouds 27 1015 68 10000 3.6 160 05:21 18.05.2022
2048 Clouds 27 1017 65 10000 4.12 150 00:52 18.05.2022
2049 Clouds 28 1017 63 10000 4.12 150 00:20 18.05.2022
2050 Clouds 26 1017 67 10000 4.63 110 21:36 17.05.2022
2051 Clouds 26 1017 70 10000 3.6 130 21:18 17.05.2022
2052 Clouds 23 1017 78 10000 1.54 20 19:49 17.05.2022
2053 Clouds 22 1017 82 10000 1.54 20 19:26 17.05.2022
2054 Clouds 20 1016 91 10000 2.57 360 17:49 17.05.2022
2055 Clouds 20 1015 90 10000 1.12 155 16:58 17.05.2022
2056 Clouds 21 1016 89 10000 1.54 310 16:29 17.05.2022
2057 Clouds 21 1017 88 10000 0 0 15:18 17.05.2022
2058 Clear 21 1017 88 10000 1.54 40 14:29 17.05.2022
2059 Clouds 21 1017 91 10000 1.54 350 13:31 17.05.2022
2060 Clouds 22 1018 87 10000 2.57 330 10:51 17.05.2022
2061 Clouds 23 1015 86 10000 3.09 80 08:55 17.05.2022
2062 Rain 23 1017 85 10000 2.57 0 07:59 17.05.2022
2063 Rain 24 1016 79 10000 2.57 0 06:36 17.05.2022
2064 Clouds 26 1017 67 10000 4.12 90 02:27 17.05.2022
2065 Rain 25 1018 74 10000 4.63 100 00:28 17.05.2022
2066 Rain 24 1017 80 10000 5.14 90 22:41 16.05.2022
2067 Rain 24 1018 81 10000 3.6 170 21:33 16.05.2022
2068 Clouds 23 1018 83 10000 3.09 0 20:44 16.05.2022
2069 Clouds 23 1018 84 10000 3.09 70 19:22 16.05.2022
2070 Clouds 21 1016 87 10000 1.34 30 17:58 16.05.2022
2071 Clouds 23 1017 84 10000 4.12 80 15:42 16.05.2022
2072 Clouds 23 1018 79 10000 2.57 70 13:48 16.05.2022
2073 Clouds 23 1018 79 10000 3.6 80 12:46 16.05.2022
2074 Clouds 23 1018 76 10000 4.12 90 10:52 16.05.2022
2075 Clouds 23 1017 78 10000 4.12 80 08:55 16.05.2022
2076 Clouds 24 1016 77 10000 5.14 90 06:33 16.05.2022
2077 Clouds 24 1016 77 10000 5.14 90 06:33 16.05.2022
2078 Clouds 26 1017 67 10000 5.66 110 02:33 16.05.2022
2079 Clouds 27 1017 62 10000 4.63 80 22:52 15.05.2022
2080 Clouds 27 1018 56 10000 4.63 80 22:28 15.05.2022
2081 Clouds 26 1018 64 10000 5.14 100 21:38 15.05.2022
2082 Clouds 25 1018 70 10000 2.24 80 20:53 15.05.2022
2083 Clouds 23 1016 79 10000 2.68 70 18:53 15.05.2022
2084 Clouds 23 1016 78 10000 4.63 90 17:45 15.05.2022
2085 Clouds 23 1016 80 10000 5.14 80 15:26 15.05.2022
2086 Clouds 23 1016 79 10000 5.14 80 13:47 15.05.2022
2087 Clouds 23 1017 78 10000 3.6 70 12:21 15.05.2022
2088 Clouds 23 1018 79 10000 3.6 90 11:27 15.05.2022
2089 Clouds 23 1017 80 10000 4.92 60 09:57 15.05.2022
2090 Clouds 24 1016 70 10000 7.2 70 07:25 15.05.2022
2091 Clouds 25 1015 66 10000 6.17 40 06:56 15.05.2022
2092 Clouds 27 1016 57 10000 6.17 60 03:40 15.05.2022
2093 Clouds 27 1017 57 10000 6.69 60 00:42 15.05.2022
2094 Clouds 28 1018 54 10000 7.2 60 23:38 14.05.2022
2095 Clouds 27 1018 52 10000 6.71 80 22:39 14.05.2022
2096 Clouds 26 1018 62 10000 8.05 60 21:26 14.05.2022
2097 Clouds 25 1018 69 10000 8.23 60 20:28 14.05.2022
2098 Clouds 23 1017 77 10000 4.63 60 19:21 14.05.2022
2099 Clouds 23 1016 79 10000 4.47 60 18:59 14.05.2022
2100 Rain 22 1016 82 10000 5.14 80 17:53 14.05.2022
2101 Rain 22 1016 82 10000 5.14 70 16:23 14.05.2022
2102 Clouds 23 1017 80 10000 4.12 70 14:40 14.05.2022
2103 Clouds 23 1017 80 10000 4.12 70 14:22 14.05.2022
2104 Clouds 23 1018 78 10000 5.14 70 11:48 14.05.2022
2105 Clouds 23 1016 74 10000 5.14 70 10:45 14.05.2022
2106 Clouds 24 1016 73 10000 5.14 70 10:19 14.05.2022
2107 Clouds 23 1017 74 10000 5.66 70 09:25 14.05.2022
2108 Clouds 24 1016 75 10000 4.63 60 07:34 14.05.2022
2109 Clouds 26 1015 63 10000 6.71 50 04:43 14.05.2022
2110 Clouds 27 1019 62 10000 6.17 50 00:43 14.05.2022
2111 Clouds 27 1018 63 10000 5.14 60 23:28 13.05.2022
2112 Clouds 27 1018 60 10000 6.71 60 22:55 13.05.2022
2113 Clouds 27 1019 61 10000 6.69 60 22:21 13.05.2022
2114 Clouds 26 1017 66 10000 4.92 90 20:59 13.05.2022
2115 Clouds 25 1018 66 10000 5.14 90 20:38 13.05.2022
2116 Clouds 25 1018 66 10000 5.14 90 20:20 13.05.2022
2117 Rain 23 1017 76 10000 5.14 80 19:18 13.05.2022
2118 Rain 22 1017 78 10000 5.14 70 17:42 13.05.2022
2119 Rain 22 1017 78 10000 5.14 70 17:22 13.05.2022
2120 Clouds 23 1016 74 10000 5.14 80 15:46 13.05.2022
2121 Clouds 24 1017 72 10000 5.14 80 14:39 13.05.2022
2122 Clouds 24 1018 72 10000 5.66 70 12:53 13.05.2022
2123 Clouds 24 1019 74 10000 5.66 80 11:54 13.05.2022
2124 Clouds 24 1018 75 10000 6.17 80 09:55 13.05.2022
2125 Clouds 24 1018 73 10000 6.17 80 09:26 13.05.2022
2126 Clouds 24 1017 71 10000 9.26 90 07:51 13.05.2022
2127 Clouds 25 1016 72 10000 8.75 50 06:50 13.05.2022
2128 Clouds 25 1015 73 10000 6.69 80 04:54 13.05.2022
2129 Clouds 28 1017 59 10000 9.77 50 00:57 13.05.2022
2130 Clouds 27 1018 60 10000 6.71 80 22:49 12.05.2022
2131 Clouds 27 1018 62 10000 6.69 80 22:30 12.05.2022
2132 Clouds 25 1018 69 10000 5.66 60 20:49 12.05.2022
2133 Clouds 24 1017 71 10000 5.14 70 19:26 12.05.2022
2134 Clouds 23 1017 75 10000 5.66 60 18:25 12.05.2022
2135 Clouds 23 1016 76 10000 4.12 80 16:39 12.05.2022
2136 Clear 23 1017 76 10000 4.12 100 14:52 12.05.2022
2137 Clouds 23 1017 75 10000 6.17 80 13:48 12.05.2022
2138 Clouds 24 1019 73 10000 4.63 50 11:31 12.05.2022
2139 Clouds 24 1018 73 10000 5.14 80 10:32 12.05.2022
2140 Clouds 24 1017 74 10000 6.71 70 08:52 12.05.2022
2141 Clouds 24 1017 74 10000 6.71 70 08:52 12.05.2022
2142 Clouds 24 1017 74 10000 6.71 70 08:52 12.05.2022
2143 Clouds 24 1017 74 10000 6.71 70 08:52 12.05.2022
2144 Clouds 24 1017 74 10000 6.71 70 08:52 12.05.2022
2145 Clouds 24 1016 76 10000 8.05 70 07:58 12.05.2022
2146 Clouds 24 1016 73 10000 7.2 90 06:58 12.05.2022
2147 Clouds 27 1015 59 10000 8.23 70 03:46 12.05.2022
2148 Clouds 27 1016 63 10000 7.72 40 00:50 12.05.2022
2149 Clouds 27 1016 66 10000 5.36 100 22:59 11.05.2022
2150 Clouds 26 1017 64 10000 6.69 90 22:18 11.05.2022
2151 Clouds 26 1017 68 10000 6.17 70 21:24 11.05.2022
2152 Clouds 26 1017 68 10000 6.17 70 21:24 11.05.2022
2153 Clouds 23 1017 77 10000 4.63 80 19:57 11.05.2022
2154 Clouds 23 1016 80 10000 5.14 60 17:27 11.05.2022
2155 Clouds 22 1016 81 10000 4.12 50 16:19 11.05.2022
2156 Clouds 23 1017 78 10000 3.09 60 14:45 11.05.2022
2157 Clouds 23 1015 77 10000 3.09 60 14:24 11.05.2022
2158 Clouds 23 1017 74 10000 4.63 70 12:23 11.05.2022
2159 Rain 23 1018 74 10000 4.63 90 11:47 11.05.2022
2160 Clouds 24 1018 73 10000 5.66 50 09:29 11.05.2022
2161 Clouds 25 1015 67 10000 7.72 60 06:27 11.05.2022
2162 Clouds 27 1016 65 10000 7.2 70 01:29 11.05.2022
2163 Clouds 26 1017 62 10000 7.72 50 22:56 10.05.2022
2164 Clouds 26 1017 60 10000 7.72 50 22:21 10.05.2022
2165 Clouds 26 1018 61 10000 7.2 40 21:21 10.05.2022
2166 Clouds 25 1018 72 10000 5.14 70 20:21 10.05.2022
2167 Clouds 23 1016 78 10000 5.14 80 18:36 10.05.2022
2168 Clouds 23 1016 79 10000 5.14 80 17:37 10.05.2022
2169 Clouds 23 1015 83 10000 3.58 40 15:56 10.05.2022
2170 Rain 22 1017 87 10000 7.2 80 12:51 10.05.2022
2171 Haze 22 1017 87 10000 5.66 90 11:53 10.05.2022
2172 Rain 22 1017 87 10000 7.2 80 11:28 10.05.2022
2173 Rain 22 1017 87 10000 6.71 70 10:55 10.05.2022
2174 Clouds 23 1017 86 10000 6.71 50 09:28 10.05.2022
2175 Clouds 24 1016 80 10000 6.71 70 07:51 10.05.2022
2176 Clouds 26 1015 68 10000 7.72 60 05:43 10.05.2022
2177 Clouds 27 1016 60 10000 6.69 50 01:37 10.05.2022
2178 Clouds 27 1018 57 10000 7.2 60 23:42 09.05.2022
2179 Clouds 27 1018 58 10000 7.2 60 23:42 09.05.2022
2180 Clouds 27 1018 58 10000 5.66 80 22:30 09.05.2022
2181 Clouds 26 1018 64 10000 6.17 90 21:25 09.05.2022
2182 Clouds 24 1018 75 10000 5.14 50 19:52 09.05.2022
2183 Clouds 23 1016 82 10000 5.36 60 17:59 09.05.2022
2184 Clouds 23 1017 77 10000 4.63 50 16:55 09.05.2022
2185 Clouds 23 1016 77 10000 5.14 80 15:54 09.05.2022
2186 Clouds 24 1018 72 10000 5.14 60 15:34 09.05.2022
2187 Clouds 23 1017 75 10000 5.14 80 14:33 09.05.2022
2188 Clouds 23 1018 75 10000 5.14 50 13:51 09.05.2022
2189 Clouds 23 1019 74 10000 6.17 70 12:30 09.05.2022
2190 Rain 24 1019 74 10000 7.2 60 11:43 09.05.2022
2191 Clouds 24 1019 75 10000 6.17 70 10:45 09.05.2022
2192 Clouds 24 1018 74 10000 6.71 60 09:39 09.05.2022
2193 Clouds 24 1017 76 10000 6.69 80 07:56 09.05.2022
2194 Clouds 26 1017 68 10000 6.17 60 04:33 09.05.2022
2195 Clouds 26 1017 68 10000 6.17 60 04:33 09.05.2022
2196 Clouds 26 1017 68 10000 6.17 60 04:33 09.05.2022
2197 Clouds 27 1019 67 10000 7.2 60 00:21 09.05.2022
2198 Clouds 27 1019 68 10000 6.69 90 22:57 08.05.2022
2199 Clouds 26 1019 68 10000 4.63 100 22:22 08.05.2022
2200 Clouds 25 1019 72 10000 7.72 60 20:37 08.05.2022
2201 Clouds 24 1019 76 10000 5.66 60 19:53 08.05.2022
2202 Clouds 23 1018 78 10000 5.14 70 18:59 08.05.2022
2203 Clouds 23 1018 78 10000 5.14 70 18:24 08.05.2022
2204 Clouds 23 1018 75 10000 4.63 70 16:59 08.05.2022
2205 Clouds 23 1018 75 10000 5.14 80 15:41 08.05.2022
2206 Clouds 23 1018 74 10000 4.63 50 15:20 08.05.2022
2207 Clouds 23 1018 74 10000 4.63 50 15:20 08.05.2022
2208 Clouds 23 1019 76 10000 6.17 60 12:39 08.05.2022
2209 Clouds 24 1021 73 10000 6.71 50 10:32 08.05.2022
2210 Clouds 23 1019 76 10000 7.6 60 09:59 08.05.2022
2211 Clouds 24 1021 72 10000 7.72 60 09:31 08.05.2022
2212 Rain 24 1016 71 10000 7.2 70 07:31 08.05.2022
2213 Clouds 27 1019 66 10000 8.23 60 03:55 08.05.2022
2214 Clouds 27 1019 64 10000 8.23 70 02:51 08.05.2022
2215 Rain 26 1021 65 10000 7.2 60 00:28 08.05.2022
2216 Clouds 26 1021 66 10000 7.2 80 23:51 07.05.2022
2217 Clouds 26 1017 67 10000 7.2 60 22:48 07.05.2022
2218 Clouds 24 1022 73 10000 5.66 80 21:59 07.05.2022
2219 Clouds 24 1022 70 10000 5.14 50 21:34 07.05.2022
2220 Clouds 24 1022 74 10000 5.14 70 20:34 07.05.2022
2221 Rain 24 1021 75 10000 5.36 90 19:57 07.05.2022
2222 Clouds 23 1019 74 10000 10.29 70 17:43 07.05.2022
2223 Rain 23 1019 78 10000 7.2 80 15:47 07.05.2022
2224 Clouds 23 1019 79 10000 6.69 70 13:58 07.05.2022
2225 Clouds 24 1017 77 10000 7.2 70 10:46 07.05.2022
2226 Clouds 23 1019 76 10000 6.69 70 09:19 07.05.2022
2227 Clouds 24 1019 72 10000 7.72 60 07:51 07.05.2022
2228 Clouds 24 1019 71 10000 7.2 50 06:43 07.05.2022
2229 Clouds 25 1019 70 10000 9.77 80 04:56 07.05.2022
2230 Clouds 25 1019 71 10000 8.23 60 01:24 07.05.2022
2231 Clouds 26 1017 69 10000 8.75 60 23:37 06.05.2022
2232 Rain 24 1017 75 10000 7.72 70 22:27 06.05.2022
2233 Rain 24 1017 74 10000 7.72 60 21:43 06.05.2022
2234 Clouds 24 1017 75 10000 7.72 40 20:33 06.05.2022
2235 Rain 23 1019 82 10000 5.66 80 19:29 06.05.2022
2236 Rain 23 1019 82 10000 5.66 80 19:29 06.05.2022
2237 Rain 23 1018 81 10000 6.17 70 18:57 06.05.2022
2238 Clouds 23 1018 76 10000 5.14 50 17:38 06.05.2022
2239 Clouds 23 1018 79 10000 6.17 60 16:23 06.05.2022
2240 Clouds 23 1017 79 10000 5.66 60 15:39 06.05.2022
2241 Clouds 23 1018 79 10000 7.72 70 14:33 06.05.2022
2242 Clouds 23 1019 79 10000 8.05 70 12:53 06.05.2022
2243 Clouds 24 1020 76 10000 8.23 70 12:31 06.05.2022
2244 Clouds 24 1020 76 10000 7.72 80 11:38 06.05.2022
2245 Clouds 24 1019 78 10000 6.69 60 09:49 06.05.2022
2246 Clouds 23 1019 78 10000 6.69 60 09:19 06.05.2022
2247 Rain 23 1018 87 10000 5.66 60 07:57 06.05.2022
2248 Clouds 24 1017 75 10000 7.72 50 06:29 06.05.2022
2249 Clouds 26 1017 72 10000 6.69 60 04:32 06.05.2022
2250 Clouds 26 1018 69 10000 7.72 60 02:40 06.05.2022
2251 Clouds 27 1019 66 10000 9.26 70 23:34 05.05.2022
2252 Clouds 25 1019 72 10000 7.72 60 21:52 05.05.2022
2253 Clouds 23 1018 79 10000 6.71 70 20:48 05.05.2022
2254 Clouds 23 1018 80 10000 5.66 90 19:42 05.05.2022
2255 Rain 22 1017 80 10000 5.14 50 16:51 05.05.2022
2256 Rain 23 1017 78 10000 5.14 30 15:48 05.05.2022
2257 Clouds 23 1018 79 10000 4.63 30 14:34 05.05.2022
2258 Clouds 23 1019 79 10000 5.14 60 13:18 05.05.2022
2259 Clouds 23 1021 79 10000 5.14 60 11:48 05.05.2022
2260 Clouds 24 1021 77 10000 4.12 70 10:28 05.05.2022
2261 Clouds 24 1020 74 10000 5.66 50 09:32 05.05.2022
2262 Clouds 24 1018 71 10000 7.2 60 06:49 05.05.2022
2263 Clouds 27 1018 64 10000 8.75 60 02:30 05.05.2022
2264 Clouds 27 1018 67 10000 9.26 60 01:47 05.05.2022
2265 Clouds 27 1018 67 10000 9.26 60 01:19 05.05.2022
2266 Clouds 26 1019 69 10000 6.69 50 23:27 04.05.2022
2267 Clouds 25 1019 73 10000 7.2 70 22:23 04.05.2022
2268 Clouds 25 1019 77 10000 6.17 40 21:46 04.05.2022
2269 Clouds 24 1019 78 10000 6.17 40 21:22 04.05.2022
2270 Rain 23 1019 83 10000 6.69 80 20:20 04.05.2022
2271 Rain 23 1019 84 10000 3.09 60 19:44 04.05.2022
2272 Clouds 22 1018 82 10000 6.69 60 18:44 04.05.2022
2273 Clouds 22 1018 83 10000 6.69 60 18:20 04.05.2022
2274 Clouds 21 1018 89 10000 7.2 50 17:22 04.05.2022
2275 Clouds 22 1018 86 10000 6.69 80 15:34 04.05.2022
2276 Rain 22 1018 85 10000 5.66 90 14:45 04.05.2022
2277 Rain 22 1019 85 10000 5.66 90 14:19 04.05.2022
2278 Rain 21 1017 87 10000 4.63 60 12:50 04.05.2022
2279 Clouds 24 1021 76 10000 6.17 50 11:59 04.05.2022
2280 Clouds 23 1020 78 10000 6.17 80 10:27 04.05.2022
2281 Clouds 23 1019 78 10000 6.69 80 09:21 04.05.2022
2282 Clouds 23 1018 79 10000 4.47 40 07:59 04.05.2022
2283 Clouds 25 1017 74 10000 8.23 40 05:34 04.05.2022
2284 Clouds 26 1018 65 10000 9.77 70 02:37 04.05.2022
2285 Clouds 25 1020 75 10000 6.69 60 23:20 03.05.2022
2286 Rain 23 1020 82 10000 4.63 80 21:53 03.05.2022
2287 Rain 23 1020 85 10000 4.63 80 21:31 03.05.2022
2288 Rain 23 1019 84 10000 6.17 90 20:52 03.05.2022
2289 Clouds 23 1019 86 10000 4.63 50 19:33 03.05.2022
2290 Rain 22 1018 87 10000 4.12 50 18:47 03.05.2022
2291 Rain 22 1018 88 10000 3.09 60 17:22 03.05.2022
2292 Rain 22 1017 84 10000 5.14 60 15:57 03.05.2022
2293 Rain 23 1017 77 10000 6.17 50 14:24 03.05.2022
2294 Clouds 23 1018 77 10000 8.75 60 12:42 03.05.2022
2295 Clouds 23 1020 77 10000 6.69 50 11:39 03.05.2022
2296 Clouds 23 1020 77 10000 7.2 60 10:44 03.05.2022
2297 Clouds 23 1019 80 10000 7.72 70 08:19 03.05.2022
2298 Rain 24 1016 75 10000 7.72 50 06:45 03.05.2022
2299 Clouds 26 1018 75 10000 7.72 60 02:39 03.05.2022
2300 Clouds 25 1019 77 10000 7.72 60 23:19 02.05.2022
2301 Clouds 25 1019 77 10000 7.72 60 22:28 02.05.2022
2302 Rain 24 1019 81 10000 7.2 70 21:37 02.05.2022
2303 Rain 23 1018 85 10000 5.66 60 19:26 02.05.2022
2304 Rain 22 1018 84 10000 4.12 70 18:26 02.05.2022
2305 Clouds 22 1017 87 10000 4.63 70 17:39 02.05.2022
2306 Rain 23 1017 84 10000 3.09 30 16:42 02.05.2022
2307 Clouds 22 1017 88 10000 6.69 50 15:41 02.05.2022
2308 Rain 22 1017 88 10000 6.17 60 14:45 02.05.2022
2309 Rain 22 1018 88 10000 5.14 40 13:42 02.05.2022
2310 Rain 23 1019 86 10000 6.69 60 11:41 02.05.2022
2311 Clouds 24 1016 74 10000 5.66 70 09:42 02.05.2022
2312 Clouds 24 1019 75 10000 5.66 40 08:20 02.05.2022
2313 Clouds 25 1014 69 10000 6.71 90 06:31 02.05.2022
2314 Clouds 26 1018 66 10000 10.29 50 00:46 02.05.2022
2315 Clouds 27 1018 64 10000 10.29 50 00:21 02.05.2022
2316 Clouds 25 1018 70 10000 8.23 70 22:54 01.05.2022
2317 Rain 25 1018 73 10000 7.2 60 21:42 01.05.2022
2318 Clouds 23 1018 78 10000 7.2 70 20:30 01.05.2022
2319 Rain 22 1017 82 10000 7.72 60 19:21 01.05.2022
2320 Rain 22 1018 83 10000 7.2 60 18:52 01.05.2022
2321 Rain 22 1017 81 10000 6.17 70 17:49 01.05.2022
2322 Rain 22 1016 81 10000 8.75 70 16:29 01.05.2022
2323 Rain 23 1016 80 10000 7.2 60 15:46 01.05.2022
2324 Clouds 23 1016 77 10000 7.2 60 14:45 01.05.2022
2325 Clouds 23 1018 83 10000 6.17 60 12:24 01.05.2022
2326 Rain 23 1018 80 10000 6.17 60 10:22 01.05.2022
2327 Rain 23 1015 80 10000 6.69 50 08:49 01.05.2022
2328 Clouds 25 1017 71 10000 7.6 50 06:31 01.05.2022
2329 Clouds 26 1016 72 10000 7.2 60 01:56 01.05.2022
2330 Clouds 25 1015 70 10000 7.72 60 22:18 30.04.2022
2331 Rain 24 1018 73 10000 6.17 60 21:32 30.04.2022
2332 Clouds 24 1018 73 10000 6.17 60 19:53 30.04.2022
2333 Rain 23 1016 78 10000 6.17 70 18:53 30.04.2022
2334 Clouds 23 1016 75 10000 8.75 50 17:26 30.04.2022
2335 Clouds 23 1017 75 10000 6.69 80 15:51 30.04.2022
2336 Clouds 23 1015 79 10000 6.69 80 14:58 30.04.2022
2337 Rain 23 1017 76 10000 6.69 70 13:41 30.04.2022
2338 Clouds 23 1017 75 10000 6.69 90 11:41 30.04.2022
2339 Clouds 23 1017 77 10000 6.69 70 10:56 30.04.2022
2340 Clouds 23 1016 78 10000 6.71 50 09:54 30.04.2022
2341 Rain 24 1015 75 10000 7.2 70 07:36 30.04.2022
2342 Rain 26 1013 67 10000 9.26 70 03:53 30.04.2022
2343 Clouds 27 1013 64 10000 5.66 70 23:55 29.04.2022
2344 Rain 26 1014 67 10000 7.72 50 22:37 29.04.2022
2345 Clouds 26 1015 66 10000 6.69 60 21:55 29.04.2022
2346 Clouds 26 1015 67 10000 6.69 60 21:21 29.04.2022
2347 Clouds 24 1014 75 10000 4.63 70 19:55 29.04.2022
2348 Clouds 23 1015 76 10000 4.12 70 19:26 29.04.2022
2349 Clouds 23 1014 77 10000 4.12 60 17:34 29.04.2022
2350 Clouds 23 1014 76 10000 5.14 60 16:30 29.04.2022
2351 Clouds 23 1014 75 10000 4.63 60 14:34 29.04.2022
2352 Clouds 23 1015 74 10000 4.63 60 13:27 29.04.2022
2353 Clouds 23 1015 74 10000 4.12 50 12:33 29.04.2022
2354 Clouds 24 1016 74 10000 5.66 80 09:52 29.04.2022
2355 Clouds 24 1013 75 10000 6.71 70 07:52 29.04.2022
2356 Clouds 24 1013 77 10000 6.69 70 07:24 29.04.2022
2357 Clouds 26 1012 67 10000 6.69 80 05:57 29.04.2022
2358 Clouds 28 1014 60 10000 6.17 80 00:51 29.04.2022
2359 Clouds 28 1014 61 10000 8.23 60 23:49 28.04.2022
2360 Clouds 27 1016 62 10000 5.66 90 22:45 28.04.2022
2361 Clouds 27 1014 65 10000 4.12 80 21:55 28.04.2022
2362 Clouds 27 1015 64 10000 4.12 80 21:29 28.04.2022
2363 Clouds 25 1015 71 10000 5.66 60 20:37 28.04.2022
2364 Clouds 24 1014 75 10000 5.14 70 19:46 28.04.2022
2365 Clouds 24 1014 76 10000 5.14 70 19:23 28.04.2022
2366 Clouds 22 1014 82 10000 5.14 50 18:38 28.04.2022
2367 Clouds 22 1014 83 10000 3.09 80 17:32 28.04.2022
2368 Clouds 22 1014 82 10000 3.6 90 16:49 28.04.2022
2369 Clouds 22 1014 82 10000 3.6 90 16:19 28.04.2022
2370 Clouds 23 1013 80 10000 3.09 90 15:41 28.04.2022
2371 Clouds 22 1014 82 10000 2.57 80 14:38 28.04.2022
2372 Clouds 23 1015 80 10000 3.09 80 13:19 28.04.2022
2373 Clouds 23 1016 80 10000 4.12 80 12:28 28.04.2022
2374 Clouds 23 1016 79 10000 3.6 80 10:47 28.04.2022
2375 Clouds 23 1016 79 10000 3.6 80 10:26 28.04.2022
2376 Clouds 23 1015 82 10000 3.09 70 08:59 28.04.2022
2377 Clouds 24 1015 72 10000 4.63 80 07:37 28.04.2022
2378 Clouds 25 1013 71 10000 6.17 50 06:33 28.04.2022
2379 Clouds 25 1014 71 10000 6.17 60 05:39 28.04.2022
2380 Clouds 25 1014 70 10000 5.14 70 04:40 28.04.2022
2381 Clouds 26 1016 69 10000 5.66 70 00:36 28.04.2022
2382 Clouds 26 1015 72 10000 7.2 60 22:45 27.04.2022
2383 Clouds 25 1016 79 10000 4.63 80 21:56 27.04.2022
2384 Clouds 25 1016 77 10000 7.2 70 21:26 27.04.2022
2385 Drizzle 24 1016 80 10000 4.12 40 20:38 27.04.2022
2386 Rain 23 1016 85 10000 0.45 11 19:38 27.04.2022
2387 Rain 23 1015 83 10000 0.45 72 19:18 27.04.2022
2388 Rain 22 1015 85 10000 4.12 80 18:25 27.04.2022
2389 Clouds 22 1015 85 10000 2.24 30 17:24 27.04.2022
2390 Clouds 22 1015 85 10000 2.06 20 15:22 27.04.2022
2391 Clouds 22 1016 82 10000 4.12 60 12:27 27.04.2022
2392 Clouds 22 1017 82 10000 5.14 60 11:21 27.04.2022
2393 Clouds 23 1017 76 10000 5.14 70 09:45 27.04.2022
2394 Clouds 23 1015 73 10000 3.6 60 07:19 27.04.2022
2395 Clouds 25 1014 67 10000 6.17 40 05:37 27.04.2022
2396 Clouds 27 1016 61 10000 5.14 50 01:35 27.04.2022
2397 Clouds 27 1017 61 10000 9.26 60 00:38 27.04.2022
2398 Clouds 27 1017 61 10000 9.26 60 00:38 27.04.2022
2399 Clouds 26 1017 69 10000 7.2 50 23:40 26.04.2022
2400 Clouds 26 1017 68 10000 7.2 50 23:22 26.04.2022
2401 Clouds 25 1018 70 10000 8.23 60 22:41 26.04.2022
2402 Clouds 24 1018 74 10000 6.17 80 21:37 26.04.2022
2403 Rain 23 1018 78 10000 7.2 70 20:52 26.04.2022
2404 Clouds 23 1018 79 10000 5.14 70 20:30 26.04.2022
2405 Clouds 22 1018 84 10000 3.6 70 19:32 26.04.2022
2406 Rain 21 1017 89 10000 2.06 70 18:45 26.04.2022
2407 Rain 21 1016 88 8047 7.2 70 17:59 26.04.2022
2408 Rain 21 1016 89 8047 6.17 80 16:58 26.04.2022
2409 Clouds 22 1017 82 10000 4.63 90 14:27 26.04.2022
2410 Clouds 23 1018 79 10000 5.66 80 13:33 26.04.2022
2411 Clouds 23 1018 78 10000 5.14 80 11:55 26.04.2022
2412 Clouds 23 1019 74 10000 6.17 60 10:37 26.04.2022
2413 Clouds 24 1019 72 10000 5.14 70 09:25 26.04.2022
2414 Clouds 24 1016 72 10000 7.2 70 07:22 26.04.2022
2415 Clouds 26 1016 65 10000 8.23 60 04:23 26.04.2022
2416 Clouds 26 1018 64 10000 8.75 60 01:25 26.04.2022
2417 Clouds 27 1018 65 10000 7.72 70 00:26 26.04.2022
2418 Clouds 26 1019 66 10000 7.72 60 22:33 25.04.2022
2419 Clouds 26 1019 66 10000 6.71 70 21:40 25.04.2022
2420 Clouds 24 1019 71 10000 7.2 60 20:39 25.04.2022
2421 Clouds 23 1017 75 10000 6.69 90 18:55 25.04.2022
2422 Clouds 23 1016 76 10000 5.14 70 17:52 25.04.2022
2423 Clouds 23 1018 75 10000 5.14 70 16:52 25.04.2022
2424 Clouds 23 1017 75 10000 6.17 60 15:24 25.04.2022
2425 Clouds 23 1017 73 10000 5.66 70 14:34 25.04.2022
2426 Clouds 23 1018 73 10000 6.17 60 13:30 25.04.2022
2427 Clouds 23 1017 73 10000 6.69 90 11:37 25.04.2022
2428 Clouds 24 1020 73 10000 6.17 60 10:20 25.04.2022
2429 Clouds 24 1019 71 10000 5.66 60 08:33 25.04.2022
2430 Clouds 24 1017 69 10000 8.23 60 06:37 25.04.2022
2431 Clouds 26 1015 64 10000 9.26 50 03:44 25.04.2022
2432 Clouds 27 1018 59 10000 6.69 50 00:33 25.04.2022
2433 Clouds 26 1018 61 10000 8.75 60 23:51 24.04.2022
2434 Clouds 25 1017 68 10000 7.72 70 22:41 24.04.2022
2435 Clear 25 1014 69 10000 5.81 50 21:58 24.04.2022
2436 Clouds 25 1019 68 10000 6.69 80 21:24 24.04.2022
2437 Clouds 24 1019 72 10000 6.17 70 20:48 24.04.2022
2438 Clouds 24 1019 73 10000 6.17 70 20:21 24.04.2022
2439 Clouds 23 1017 81 10000 9.4 70 18:59 24.04.2022
2440 Clouds 23 1018 80 10000 6.17 70 18:20 24.04.2022
2441 Clouds 23 1017 78 10000 7.2 80 17:27 24.04.2022
2442 Clouds 23 1016 82 10000 8.39 71 16:58 24.04.2022
2443 Clouds 23 1017 79 10000 8.23 50 16:30 24.04.2022
2444 Clouds 23 1017 79 10000 5.14 60 15:53 24.04.2022
2445 Clouds 23 1017 78 10000 4.12 80 14:55 24.04.2022
2446 Clouds 23 1018 80 10000 4.63 90 13:45 24.04.2022
2447 Clouds 23 1018 81 10000 4.63 90 13:23 24.04.2022
2448 Rain 23 1019 84 10000 6.17 50 11:53 24.04.2022
2449 Clouds 22 1019 88 10000 7.2 60 10:59 24.04.2022
2450 Rain 23 1019 81 10000 7.2 50 09:47 24.04.2022
2451 Clouds 23 1019 80 10000 6.17 70 08:23 24.04.2022
2452 Clouds 25 1018 71 10000 7.72 60 05:46 24.04.2022
2453 Rain 25 1018 72 10000 7.2 60 02:49 24.04.2022
2454 Rain 26 1018 68 10000 8.23 60 00:47 24.04.2022
2455 Clouds 25 1019 73 10000 7.2 60 23:55 23.04.2022
2456 Clouds 25 1019 72 10000 7.2 60 23:25 23.04.2022
2457 Rain 25 1020 72 10000 6.69 70 22:40 23.04.2022
2458 Rain 24 1019 75 10000 5.14 70 21:48 23.04.2022
2459 Rain 24 1019 74 10000 5.14 70 21:29 23.04.2022
2460 Clouds 23 1018 79 10000 5.66 80 19:56 23.04.2022
2461 Clouds 23 1019 79 10000 5.66 70 19:20 23.04.2022
2462 Clouds 22 1019 83 10000 3.58 60 18:54 23.04.2022
2463 Clouds 22 1019 84 10000 3.6 60 18:32 23.04.2022
2464 Clouds 22 1019 85 10000 3.6 20 17:47 23.04.2022
2465 Clouds 22 1018 81 10000 5.14 60 16:46 23.04.2022
2466 Clouds 23 1018 78 10000 4.63 70 15:51 23.04.2022
2467 Clouds 24 1019 73 10000 4.63 60 13:31 23.04.2022
2468 Clouds 24 1020 76 10000 7.2 70 11:30 23.04.2022
2469 Clouds 24 1020 76 10000 6.71 60 10:32 23.04.2022
2470 Clouds 24 1019 76 10000 5.66 60 08:18 23.04.2022
2471 Clouds 25 1017 72 10000 5.66 70 03:57 23.04.2022
2472 Clouds 27 1018 65 10000 7.72 60 02:36 23.04.2022
2473 Clouds 27 1020 62 10000 7.72 70 23:34 22.04.2022
2474 Clouds 27 1020 66 10000 7.72 50 22:43 22.04.2022
2475 Clouds 25 1019 74 10000 3.6 80 21:56 22.04.2022
2476 Clouds 25 1019 74 10000 3.6 80 21:56 22.04.2022
2477 Clouds 25 1019 74 10000 3.6 80 21:56 22.04.2022
2478 Clouds 25 1019 74 10000 3.6 80 21:56 22.04.2022
2479 Clouds 25 1019 74 10000 3.6 80 21:56 22.04.2022
2480 Clouds 25 1020 71 10000 5.14 70 21:38 22.04.2022
2481 Clouds 24 1019 77 10000 4.12 40 20:30 22.04.2022
2482 Clouds 23 1019 78 10000 4.63 90 19:24 22.04.2022
2483 Clouds 23 1018 81 10000 4.63 80 18:56 22.04.2022
2484 Clouds 23 1019 79 10000 4.63 80 18:24 22.04.2022
2485 Clouds 23 1017 80 10000 3.6 80 16:53 22.04.2022
2486 Clouds 23 1017 79 10000 5.14 70 15:58 22.04.2022
2487 Clouds 23 1018 77 10000 6.17 90 15:23 22.04.2022
2488 Clouds 23 1017 77 10000 3.6 70 14:37 22.04.2022
2489 Clouds 23 1019 77 10000 6.17 60 13:41 22.04.2022
2490 Haze 23 1019 76 10000 4.63 60 12:35 22.04.2022
2491 Clouds 23 1019 76 10000 5.66 70 11:23 22.04.2022
2492 Clouds 23 1019 80 10000 5.66 70 10:56 22.04.2022
2493 Clouds 23 1019 75 10000 5.66 70 10:32 22.04.2022
2494 Clouds 23 1019 73 10000 7.2 50 09:54 22.04.2022
2495 Clouds 23 1017 76 10000 9.25 73 08:56 22.04.2022
2496 Clouds 23 1018 74 10000 6.69 50 08:29 22.04.2022
2497 Clouds 24 1015 71 10000 8.23 50 05:31 22.04.2022
2498 Clouds 26 1018 66 10000 6.17 70 00:53 22.04.2022
2499 Clouds 26 1016 65 10000 7.72 40 23:29 21.04.2022
2500 Clouds 26 1019 68 10000 6.71 50 22:29 21.04.2022
2501 Clouds 23 1019 79 10000 5.14 70 21:22 21.04.2022
2502 Clouds 23 1018 81 10000 5.66 60 20:27 21.04.2022
2503 Clouds 22 1018 84 10000 4.12 70 18:49 21.04.2022
2504 Clouds 21 1018 85 10000 4.12 70 18:19 21.04.2022
2505 Clouds 21 1018 86 10000 2.57 90 16:53 21.04.2022
2506 Clouds 22 1018 82 10000 3.6 110 15:23 21.04.2022
2507 Clouds 22 1019 83 10000 4.12 60 14:51 21.04.2022
2508 Rain 21 1019 87 10000 4.12 50 13:52 21.04.2022
2509 Rain 21 1020 87 10000 4.12 50 13:19 21.04.2022
2510 Clouds 22 1020 80 10000 4.63 80 11:25 21.04.2022
2511 Clouds 22 1019 79 10000 6.69 60 08:59 21.04.2022
2512 Clouds 23 1020 76 10000 6.17 60 07:55 21.04.2022
2513 Clouds 23 1018 77 10000 7.72 60 06:21 21.04.2022
2514 Rain 26 1018 66 10000 9.26 60 03:35 21.04.2022
2515 Clouds 27 1018 60 10000 8.23 60 02:48 21.04.2022
2516 Clouds 27 1018 61 10000 8.23 60 02:48 21.04.2022
2517 Clouds 27 1018 62 10000 8.23 60 01:50 21.04.2022
2518 Clouds 27 1019 63 10000 6.69 60 23:51 20.04.2022
2519 Clouds 26 1020 65 10000 7.15 50 23:23 20.04.2022
2520 Clouds 26 1020 68 10000 7.2 50 22:51 20.04.2022
2521 Clouds 26 1019 69 10000 7.2 50 22:32 20.04.2022
2522 Rain 25 1020 75 10000 4.63 60 21:33 20.04.2022
2523 Rain 24 1019 74 10000 5.14 60 20:41 20.04.2022
2524 Clouds 23 1019 75 10000 4.63 60 19:53 20.04.2022
2525 Clouds 23 1018 76 10000 4.63 60 19:22 20.04.2022
2526 Clouds 22 1018 78 10000 6.17 50 18:23 20.04.2022
2527 Clouds 22 1017 81 10000 8.01 61 16:56 20.04.2022
2528 Clouds 22 1019 77 10000 3.6 60 16:37 20.04.2022
2529 Clouds 22 1020 78 10000 7.2 60 14:21 20.04.2022
2530 Clouds 23 1021 76 10000 7.2 40 11:52 20.04.2022
2531 Clouds 23 1020 75 10000 7.2 40 11:24 20.04.2022
2532 Clouds 23 1022 71 10000 6.17 40 10:22 20.04.2022
2533 Clouds 23 1021 71 10000 5.66 50 09:25 20.04.2022
2534 Clouds 23 1021 70 10000 5.14 50 08:22 20.04.2022
2535 Rain 23 1020 69 10000 7.72 60 07:37 20.04.2022
2536 Clouds 25 1017 65 10000 8.75 60 03:49 20.04.2022
2537 Rain 26 1020 67 10000 8.23 60 00:23 20.04.2022
2538 Rain 25 1020 71 10000 7.2 70 23:56 19.04.2022
2539 Clouds 25 1018 68 10000 7.72 80 22:27 19.04.2022
2540 Clouds 25 1018 69 10000 4.63 60 21:57 19.04.2022
2541 Clouds 25 1018 67 10000 4.63 60 21:24 19.04.2022
2542 Clouds 24 1018 72 10000 8.75 60 20:46 19.04.2022
2543 Clouds 24 1018 73 10000 8.75 60 20:26 19.04.2022
2544 Clouds 23 1019 79 10000 6.69 60 19:19 19.04.2022
2545 Clouds 23 1019 79 10000 6.69 60 19:19 19.04.2022
2546 Clouds 22 1019 80 10000 3.6 60 17:50 19.04.2022
2547 Clouds 22 1018 81 10000 4.63 70 16:43 19.04.2022
2548 Clouds 22 1018 81 10000 4.63 70 16:23 19.04.2022
2549 Clouds 22 1019 79 10000 6.17 60 14:50 19.04.2022
2550 Clouds 22 1020 77 10000 5.66 60 13:54 19.04.2022
2551 Clouds 23 1020 76 10000 5.14 70 12:50 19.04.2022
2552 Clouds 23 1020 76 10000 5.14 70 12:20 19.04.2022
2553 Clouds 23 1021 74 10000 4.12 50 10:46 19.04.2022
2554 Clouds 23 1021 73 10000 5.14 60 09:22 19.04.2022
2555 Clear 24 1018 72 10000 7.6 40 05:56 19.04.2022
2556 Clouds 26 1018 63 10000 9.77 40 03:37 19.04.2022
2557 Clouds 26 1016 58 10000 7.72 50 00:55 19.04.2022
2558 Clouds 26 1018 55 10000 7.2 50 23:31 18.04.2022
2559 Clouds 25 1021 56 10000 6.69 50 21:30 18.04.2022
2560 Clouds 24 1019 65 10000 6.69 50 20:55 18.04.2022
2561 Clouds 24 1020 64 10000 6.69 50 20:32 18.04.2022
2562 Clouds 22 1019 67 10000 7.72 40 19:51 18.04.2022
2563 Clouds 21 1018 72 10000 3.09 30 18:57 18.04.2022
2564 Clouds 21 1017 75 10000 8.49 49 17:57 18.04.2022
2565 Clouds 22 1017 72 10000 3.09 50 17:34 18.04.2022
2566 Clouds 21 1016 75 10000 9.23 42 16:55 18.04.2022
2567 Clouds 22 1019 68 10000 4.12 40 16:31 18.04.2022
2568 Clouds 22 1019 70 10000 7.2 40 14:51 18.04.2022
2569 Clouds 22 1018 72 10000 3.09 20 13:36 18.04.2022
2570 Clouds 22 1019 76 10000 4.12 70 12:30 18.04.2022
2571 Clouds 22 1020 78 10000 4.12 40 11:34 18.04.2022
2572 Clouds 22 1019 78 10000 2.06 50 10:31 18.04.2022
2573 Clouds 22 1020 80 10000 7.2 60 09:31 18.04.2022
2574 Rain 22 1019 80 10000 6.17 40 07:42 18.04.2022
2575 Clouds 24 1017 76 10000 7.2 60 05:41 18.04.2022
2576 Clouds 26 1018 71 10000 10.29 70 00:47 18.04.2022
2577 Clouds 26 1019 64 10000 6.69 70 22:41 17.04.2022
2578 Clouds 25 1019 69 10000 6.69 70 21:46 17.04.2022
2579 Clouds 25 1019 69 10000 6.69 70 21:24 17.04.2022
2580 Clouds 24 1019 75 10000 5.66 60 20:36 17.04.2022
2581 Clouds 24 1019 74 10000 5.66 60 20:35 17.04.2022
2582 Clouds 23 1018 77 10000 6.17 40 19:28 17.04.2022
2583 Clouds 22 1017 79 10000 5.14 40 17:45 17.04.2022
2584 Clouds 22 1016 83 10000 3.09 20 15:39 17.04.2022
2585 Clouds 22 1015 80 10000 3.58 40 14:54 17.04.2022
2586 Clear 22 1016 79 10000 3.6 40 13:48 17.04.2022
2587 Clouds 23 1017 81 10000 3.6 10 12:58 17.04.2022
2588 Clouds 23 1018 81 10000 3.6 10 12:27 17.04.2022
2589 Clouds 23 1017 77 10000 5.14 60 10:46 17.04.2022
2590 Clouds 23 1017 77 10000 5.14 60 10:28 17.04.2022
2591 Clouds 23 1017 77 10000 5.14 60 10:28 17.04.2022
2592 Clouds 23 1017 77 10000 7.72 80 09:29 17.04.2022
2593 Rain 23 1014 77 10000 7.6 60 08:42 17.04.2022
2594 Clouds 23 1016 77 10000 7.72 60 07:26 17.04.2022
2595 Rain 24 1015 82 10000 7.2 60 03:53 17.04.2022
2596 Rain 24 1017 78 10000 8.23 50 00:55 17.04.2022
2597 Rain 25 1017 77 10000 7.72 60 23:50 16.04.2022
2598 Rain 24 1017 83 10000 6.17 70 22:29 16.04.2022
2599 Rain 24 1017 85 10000 6.17 70 21:31 16.04.2022
2600 Clouds 23 1016 85 10000 3.6 50 20:18 16.04.2022
2601 Clouds 22 1014 90 10000 1.79 137 18:55 16.04.2022
2602 Rain 22 1015 88 10000 2.57 20 17:40 16.04.2022
2603 Rain 22 1015 87 10000 2.06 40 16:34 16.04.2022
2604 Rain 22 1015 87 10000 2.57 40 15:43 16.04.2022
2605 Rain 22 1014 86 9656 4.12 80 14:55 16.04.2022
2606 Rain 23 1015 78 10000 4.63 80 13:58 16.04.2022
2607 Rain 23 1014 78 10000 3.09 50 13:28 16.04.2022
2608 Clouds 23 1016 78 10000 6.17 50 12:20 16.04.2022
2609 Clouds 23 1016 75 10000 5.14 50 10:49 16.04.2022
2610 Clouds 23 1016 74 10000 8.23 60 09:44 16.04.2022
2611 Clouds 23 1014 78 10000 0.89 6 08:57 16.04.2022
2612 Clouds 23 1015 73 10000 5.66 70 07:35 16.04.2022
2613 Clouds 23 1013 77 10000 0.45 39 06:58 16.04.2022
2614 Clouds 26 1014 65 10000 9.26 60 02:33 16.04.2022
2615 Clouds 27 1014 56 10000 7.6 70 00:23 16.04.2022
2616 Clouds 26 1012 60 10000 8.05 60 22:57 15.04.2022
2617 Clouds 26 1015 58 10000 8.23 60 22:31 15.04.2022
2618 Clouds 26 1014 60 10000 5.66 70 21:47 15.04.2022
2619 Clouds 24 1015 65 10000 4.12 70 20:56 15.04.2022
2620 Clouds 23 1014 74 10000 0.45 348 19:59 15.04.2022
2621 Clouds 23 1016 74 10000 3.6 80 19:39 15.04.2022
2622 Clouds 22 1015 71 10000 5.66 80 18:46 15.04.2022
2623 Clouds 23 1015 71 10000 5.66 80 18:46 15.04.2022
2624 Clouds 22 1015 72 10000 5.66 80 18:24 15.04.2022
2625 Clouds 22 1014 72 10000 4.12 40 17:30 15.04.2022
2626 Clouds 22 1015 72 10000 6.17 60 16:26 15.04.2022
2627 Clouds 22 1014 74 10000 4.02 70 15:59 15.04.2022
2628 Clouds 23 1016 72 10000 5.66 60 14:30 15.04.2022
2629 Clouds 23 1015 74 10000 7.2 50 13:23 15.04.2022
2630 Clear 23 1015 73 10000 5.14 60 12:40 15.04.2022
2631 Clouds 23 1012 74 10000 7.6 50 11:54 15.04.2022
2632 Clouds 23 1017 73 10000 5.14 50 10:49 15.04.2022
2633 Clouds 23 1017 74 10000 5.14 50 10:22 15.04.2022
2634 Clouds 24 1017 69 10000 4.63 50 09:24 15.04.2022
2635 Clouds 24 1008 71 10000 5.81 60 08:57 15.04.2022
2636 Clouds 24 1014 67 10000 7.15 50 06:55 15.04.2022
2637 Clouds 25 1014 68 10000 5.81 60 05:56 15.04.2022
2638 Clouds 28 1015 59 10000 9.26 60 01:33 15.04.2022
2639 Clouds 27 1017 59 10000 8.23 70 23:30 14.04.2022
2640 Clouds 26 1017 63 10000 7.72 60 22:46 14.04.2022
2641 Clouds 26 1017 63 10000 7.72 60 22:27 14.04.2022
2642 Clouds 26 1017 65 10000 5.66 40 21:53 14.04.2022
2643 Rain 24 1015 76 10000 6.47 76 19:57 14.04.2022
2644 Rain 23 1016 79 10000 4.12 70 19:22 14.04.2022
2645 Clouds 22 1015 79 10000 3.6 80 17:56 14.04.2022
2646 Clouds 23 1015 79 10000 2.06 40 17:27 14.04.2022
2647 Clouds 22 1015 78 10000 3.09 80 16:32 14.04.2022
2648 Clouds 23 1016 76 10000 2.57 40 14:20 14.04.2022
2649 Clouds 23 1016 74 10000 4.63 60 13:26 14.04.2022
2650 Clouds 23 1017 74 10000 6.17 60 12:38 14.04.2022
2651 Clouds 23 1018 72 10000 6.17 60 12:19 14.04.2022
2652 Clouds 23 1017 74 10000 6.17 80 11:21 14.04.2022
2653 Clouds 23 1018 74 10000 5.66 60 10:36 14.04.2022
2654 Clouds 24 1018 72 10000 5.14 80 09:52 14.04.2022
2655 Clouds 24 1017 72 10000 5.66 100 08:39 14.04.2022
2656 Clouds 25 1015 70 10000 7.2 50 06:24 14.04.2022
2657 Clouds 27 1016 61 10000 8.23 70 01:49 14.04.2022
2658 Clouds 27 1019 59 10000 6.17 90 22:41 13.04.2022
2659 Clouds 26 1017 64 10000 4.63 70 21:44 13.04.2022
2660 Clouds 24 1017 71 10000 5.14 80 20:47 13.04.2022
2661 Clouds 24 1017 73 10000 3.6 50 19:54 13.04.2022
2662 Clouds 23 1016 78 10000 2.06 60 18:43 13.04.2022
2663 Clouds 22 1016 78 10000 3.09 40 17:52 13.04.2022
2664 Clouds 22 1016 78 10000 3.09 40 17:23 13.04.2022
2665 Clouds 22 1015 77 10000 3.6 30 16:18 13.04.2022
2666 Clouds 23 1016 74 10000 3.6 60 15:31 13.04.2022
2667 Clouds 23 1017 77 10000 3.6 60 14:43 13.04.2022
2668 Clouds 23 1018 77 10000 2.68 70 13:57 13.04.2022
2669 Clouds 23 1017 78 10000 3.6 80 12:58 13.04.2022
2670 Clouds 23 1015 76 10000 5.14 60 12:19 13.04.2022
2671 Clouds 24 1018 76 10000 4.63 60 10:41 13.04.2022
2672 Clouds 23 1016 77 10000 5.14 60 08:49 13.04.2022
2673 Clouds 24 1017 75 10000 5.14 60 08:24 13.04.2022
2674 Clouds 25 1013 69 10000 6.71 60 06:50 13.04.2022
2675 Clouds 25 1013 69 10000 6.71 60 06:24 13.04.2022
2676 Clouds 28 1014 57 10000 7.2 70 02:27 13.04.2022
2677 Clouds 28 1017 61 10000 7.72 60 00:20 13.04.2022
2678 Clouds 27 1019 69 10000 7.2 50 22:36 12.04.2022
2679 Clear 25 1016 78 10000 6.98 64 21:56 12.04.2022
2680 Clouds 25 1018 77 10000 3.6 70 20:48 12.04.2022
2681 Clouds 24 1018 78 10000 3.6 70 20:22 12.04.2022
2682 Clouds 23 1017 79 10000 4.12 100 19:40 12.04.2022
2683 Clear 23 1015 83 10000 4.18 55 18:56 12.04.2022
2684 Clouds 23 1017 81 10000 3.6 80 17:39 12.04.2022
2685 Clouds 23 1017 81 10000 3.09 60 16:47 12.04.2022
2686 Clouds 23 1017 80 10000 3.6 70 15:35 12.04.2022
2687 Clear 23 1016 85 10000 5.12 71 14:53 12.04.2022
2688 Clouds 24 1018 79 10000 5.14 80 13:50 12.04.2022
2689 Clouds 24 1018 80 10000 5.14 80 13:25 12.04.2022
2690 Clouds 24 1019 83 10000 3.6 50 12:18 12.04.2022
2691 Clouds 24 1019 81 10000 3.09 50 11:36 12.04.2022
2692 Clouds 23 999 80 10000 4.12 50 09:52 12.04.2022
2693 Clouds 23 1018 79 10000 6.17 60 08:49 12.04.2022
2694 Clouds 24 1017 77 10000 6.17 60 07:20 12.04.2022
2695 Clouds 25 1002 73 10000 10.29 80 05:41 12.04.2022
2696 Clouds 27 1001 62 10000 5.14 50 02:37 12.04.2022
2697 Clouds 27 1018 60 10000 6.17 50 23:24 11.04.2022
2698 Clouds 27 1007 65 10000 6.71 60 22:32 11.04.2022
2699 Clouds 25 1004 70 10000 5.14 60 21:23 11.04.2022
2700 Clouds 25 999 72 10000 5.14 50 20:35 11.04.2022
2701 Clouds 24 998 77 10000 4.92 70 19:59 11.04.2022
2702 Clouds 23 1006 78 10000 5.14 70 19:27 11.04.2022
2703 Clouds 23 1002 79 10000 4.63 60 18:54 11.04.2022
2704 Clouds 22 997 82 10000 2.24 40 17:58 11.04.2022
2705 Clouds 23 1017 79 10000 2.57 40 17:38 11.04.2022
2706 Clouds 23 1003 80 10000 3.6 40 16:33 11.04.2022
2707 Clouds 23 1003 79 10000 5.14 50 14:49 11.04.2022
2708 Clouds 23 998 79 10000 3.6 40 13:34 11.04.2022
2709 Clouds 24 1018 78 10000 4.12 60 12:38 11.04.2022
2710 Clouds 24 1018 77 10000 4.12 60 12:19 11.04.2022
2711 Clouds 23 1005 78 10000 5.66 70 10:36 11.04.2022
2712 Clouds 24 1018 76 10000 4.63 80 09:41 11.04.2022
2713 Clouds 24 1017 74 10000 6.71 70 07:54 11.04.2022
2714 Clouds 26 1002 67 10000 8.23 60 04:18 11.04.2022
2715 Clouds 27 1007 61 10000 8.75 60 23:27 10.04.2022
2716 Clouds 27 1005 62 10000 6.17 90 22:26 10.04.2022
2717 Clouds 26 1005 65 10000 6.71 60 21:43 10.04.2022
2718 Clouds 25 1004 72 10000 4.63 40 20:50 10.04.2022
2719 Clouds 24 1004 75 10000 3.6 50 19:53 10.04.2022
2720 Clouds 24 1017 75 10000 3.6 50 19:30 10.04.2022
2721 Clouds 23 1017 76 10000 3.09 60 18:46 10.04.2022
2722 Clouds 23 1001 80 10000 4.12 90 17:58 10.04.2022
2723 Clouds 23 1016 77 10000 4.12 90 17:58 10.04.2022
2724 Clouds 23 1016 77 10000 4.12 90 17:58 10.04.2022
2725 Clouds 23 997 81 10000 2.68 30 17:58 10.04.2022
2726 Clouds 23 997 81 10000 2.68 30 17:58 10.04.2022
2727 Clouds 23 1016 77 10000 4.12 90 17:39 10.04.2022
2728 Clouds 22 1003 81 10000 3.09 70 16:47 10.04.2022
2729 Clouds 23 1003 80 10000 3.6 50 15:37 10.04.2022
2730 Clouds 23 1004 81 10000 1.54 100 14:34 10.04.2022
2731 Clouds 22 1005 82 10000 3.6 60 12:41 10.04.2022
2732 Clouds 23 1019 80 10000 3.6 60 12:21 10.04.2022
2733 Clouds 23 1019 79 10000 2.06 90 11:29 10.04.2022
2734 Clouds 23 1019 80 10000 2.68 40 10:56 10.04.2022
2735 Rain 23 1019 84 10000 5.58 80 10:00 10.04.2022
2736 Clouds 23 1018 77 10000 3.58 50 09:38 10.04.2022
2737 Clouds 23 1018 79 10000 3.6 50 08:23 10.04.2022
2738 Clouds 24 1013 75 10000 6.69 90 07:35 10.04.2022
2739 Clouds 25 1016 74 10000 5.14 80 05:50 10.04.2022
2740 Clouds 27 1017 65 10000 9.26 70 02:34 10.04.2022
2741 Clouds 28 1018 59 10000 7.2 80 00:29 10.04.2022
2742 Clouds 28 1019 57 10000 7.72 80 23:49 09.04.2022
2743 Clouds 27 1019 65 10000 9.77 70 22:48 09.04.2022
2744 Clouds 26 1019 68 10000 6.17 70 21:35 09.04.2022
2745 Clouds 24 1000 77 10000 4.63 60 20:49 09.04.2022
2746 Clouds 23 1000 78 10000 4.63 60 20:26 09.04.2022
2747 Clouds 23 1005 78 10000 6.17 80 19:42 09.04.2022
2748 Rain 22 994 82 10000 4.92 60 18:59 09.04.2022
2749 Clouds 22 1002 78 10000 5.14 60 18:20 09.04.2022
2750 Clouds 22 1004 78 10000 4.63 60 17:39 09.04.2022
2751 Clouds 22 1003 78 10000 5.66 60 16:52 09.04.2022
2752 Clouds 22 995 80 10000 3.09 0 15:55 09.04.2022
2753 Clouds 22 1003 78 10000 3.09 70 15:30 09.04.2022
2754 Clouds 23 1019 78 10000 3.09 60 14:44 09.04.2022
2755 Clouds 22 999 79 10000 3.09 60 14:22 09.04.2022
2756 Clouds 23 1019 76 10000 5.66 70 13:18 09.04.2022
2757 Clouds 23 1020 77 10000 5.66 70 12:41 09.04.2022
2758 Rain 23 1020 77 10000 5.14 70 11:22 09.04.2022
2759 Clouds 23 1020 76 10000 5.14 60 10:21 09.04.2022
2760 Clouds 23 1013 74 10000 5.14 60 09:37 09.04.2022
2761 Clouds 23 1013 73 10000 7.2 60 08:51 09.04.2022
2762 Clouds 23 1003 74 10000 7.2 80 06:48 09.04.2022
2763 Clouds 25 999 68 10000 7.72 80 01:32 09.04.2022
2764 Clouds 26 1019 66 10000 5.66 60 23:30 08.04.2022
2765 Clouds 24 1019 74 10000 7.14 84 21:58 08.04.2022
2766 Clouds 24 1019 71 10000 6.17 70 20:48 08.04.2022
2767 Clouds 24 1019 72 10000 6.17 70 20:23 08.04.2022
2768 Clouds 23 1016 77 10000 3.09 70 19:18 08.04.2022
2769 Rain 23 1017 78 10000 4.12 80 18:28 08.04.2022
2770 Clouds 23 1017 71 10000 6.17 60 17:45 08.04.2022
2771 Clouds 23 1017 75 10000 6.17 60 17:22 08.04.2022
2772 Clouds 23 1017 76 10000 3.6 60 16:38 08.04.2022
2773 Clouds 23 1017 75 10000 4.12 60 15:56 08.04.2022
2774 Clouds 23 1017 77 10000 4.12 60 15:25 08.04.2022
2775 Clouds 23 1014 73 10000 4.47 60 14:26 08.04.2022
2776 Clouds 23 1014 71 10000 4.63 60 13:44 08.04.2022
2777 Clouds 23 1014 71 10000 4.63 60 13:25 08.04.2022
2778 Clouds 23 1018 69 10000 7.2 80 11:53 08.04.2022
2779 Clouds 24 1013 66 10000 6.69 50 10:32 08.04.2022
2780 Clouds 24 1013 66 10000 6.17 60 09:26 08.04.2022
2781 Clouds 24 1012 67 10000 7.2 70 08:30 08.04.2022
2782 Clouds 25 1016 66 10000 8.23 60 06:47 08.04.2022
2783 Clouds 26 1015 62 10000 8.75 50 04:34 08.04.2022
2784 Clouds 27 1017 55 10000 11.32 60 00:42 08.04.2022
2785 Clouds 27 1017 54 10000 11.32 60 00:18 08.04.2022
2786 Clear 26 1017 60 10000 8.49 90 22:58 07.04.2022
2787 Clouds 26 1017 57 10000 8.75 90 22:37 07.04.2022
2788 Clouds 26 1017 58 10000 8.75 90 22:19 07.04.2022
2789 Clouds 26 1017 59 10000 8.75 60 21:49 07.04.2022
2790 Clear 25 1009 64 10000 7.6 60 20:58 07.04.2022
2791 Clouds 24 1013 65 10000 7.72 60 20:30 07.04.2022
2792 Clouds 23 1016 72 10000 5.14 80 17:57 07.04.2022
2793 Clouds 23 1016 73 10000 4.12 60 17:24 07.04.2022
2794 Clouds 23 1013 73 10000 5.14 60 16:43 07.04.2022
2795 Clouds 23 1013 73 10000 5.14 60 16:18 07.04.2022
2796 Clouds 23 1016 73 10000 5.14 60 14:31 07.04.2022
2797 Clouds 23 1014 73 10000 5.66 70 13:41 07.04.2022
2798 Clouds 23 1014 74 10000 3.6 30 12:40 07.04.2022
2799 Clear 23 1017 73 10000 8.75 70 10:58 07.04.2022
2800 Clouds 23 1017 74 10000 6.17 60 09:36 07.04.2022
2801 Clouds 23 1015 76 10000 5.14 50 08:35 07.04.2022
2802 Clouds 24 1014 78 10000 3.6 50 06:29 07.04.2022
2803 Clouds 26 1014 63 10000 6.17 40 02:43 07.04.2022
2804 Clouds 26 1014 64 10000 8.23 40 01:52 07.04.2022
2805 Clouds 26 1017 66 10000 7.77 65 23:56 06.04.2022
2806 Clouds 25 1015 66 10000 6.17 50 22:46 06.04.2022
2807 Clouds 25 1017 66 10000 6.17 50 22:24 06.04.2022
2808 Clouds 25 1015 71 10000 4.12 50 21:31 06.04.2022
2809 Clouds 23 1015 79 10000 3.6 310 20:27 06.04.2022
2810 Rain 23 1014 82 10000 0.45 0 19:53 06.04.2022
2811 Clouds 21 1014 86 10000 3.09 330 18:50 06.04.2022
2812 Clouds 21 1014 88 10000 3.09 310 17:52 06.04.2022
2813 Clouds 21 1013 87 10000 3.09 310 17:28 06.04.2022
2814 Clouds 21 1015 87 10000 1.54 340 16:35 06.04.2022
2815 Clouds 22 1016 84 10000 0 0 15:47 06.04.2022
2816 Clouds 22 1016 84 10000 2.06 330 14:20 06.04.2022
2817 Clouds 22 1017 82 10000 2.57 10 12:58 06.04.2022
2818 Clouds 22 1017 87 10000 3.84 28 11:54 06.04.2022
2819 Clouds 23 1015 76 10000 4.63 60 10:43 06.04.2022
2820 Clouds 23 1015 76 10000 4.63 60 10:19 06.04.2022
2821 Clouds 23 1014 74 10000 3.6 80 09:26 06.04.2022
2822 Clouds 23 1016 76 10000 1.54 0 08:26 06.04.2022
2823 Clouds 24 1013 70 10000 7.15 50 07:37 06.04.2022
2824 Clouds 26 1015 64 10000 6.69 60 02:19 06.04.2022
2825 Clouds 27 1017 64 10000 6.69 70 23:50 05.04.2022
2826 Clouds 27 1017 65 10000 5.66 90 22:20 05.04.2022
2827 Clouds 24 1018 72 10000 5.66 60 21:18 05.04.2022
2828 Clouds 24 1018 74 10000 5.66 60 21:18 05.04.2022
2829 Clouds 24 1018 72 10000 5.66 60 21:18 05.04.2022
2830 Clouds 24 1018 72 10000 5.66 60 21:18 05.04.2022
2831 Clouds 24 1018 76 10000 3.6 80 20:25 05.04.2022
2832 Clouds 22 1016 82 10000 6.17 70 18:56 05.04.2022
2833 Clouds 22 1016 80 10000 5.66 80 17:31 05.04.2022
2834 Clouds 23 1017 79 10000 5.14 80 16:47 05.04.2022
2835 Clouds 22 1017 84 10000 0 0 15:52 05.04.2022
2836 Clouds 22 1017 84 10000 0 0 15:33 05.04.2022
2837 Clouds 22 1017 84 10000 0 0 15:33 05.04.2022
2838 Clouds 22 1018 81 10000 1.54 40 14:18 05.04.2022
2839 Clouds 22 1011 81 10000 1.34 20 12:55 05.04.2022
2840 Clouds 22 1020 81 10000 5.14 70 11:49 05.04.2022
2841 Clouds 23 1020 80 10000 5.14 70 11:31 05.04.2022
2842 Clouds 23 1016 73 10000 4.63 90 09:42 05.04.2022
2843 Clouds 23 1019 74 10000 3.6 80 08:52 05.04.2022
2844 Clouds 24 1018 68 10000 7.72 70 05:28 05.04.2022
2845 Clouds 26 1020 60 10000 10.29 70 00:39 05.04.2022
2846 Clouds 26 1021 59 10000 7.72 80 22:41 04.04.2022
2847 Clouds 25 1021 67 10000 6.45 90 21:57 04.04.2022
2848 Clouds 25 1020 63 10000 9.77 80 21:21 04.04.2022
2849 Clouds 24 1020 66 10000 7.2 70 20:48 04.04.2022
2850 Clouds 23 1018 72 10000 5.66 70 19:39 04.04.2022
2851 Clouds 23 1017 76 10000 9.6 76 18:59 04.04.2022
2852 Clouds 23 1015 72 10000 4.47 70 17:54 04.04.2022
2853 Clouds 23 1017 72 10000 6.17 70 16:36 04.04.2022
2854 Clouds 23 1016 71 10000 7.2 60 15:34 04.04.2022
2855 Clouds 23 1015 74 10000 5.81 60 14:58 04.04.2022
2856 Clouds 23 1017 71 10000 6.17 60 14:40 04.04.2022
2857 Clouds 23 1019 71 10000 6.17 70 13:21 04.04.2022
2858 Clouds 24 1017 68 10000 7.2 80 11:48 04.04.2022
2859 Clouds 24 1017 70 10000 7.2 80 11:27 04.04.2022
2860 Clouds 24 1019 74 10000 8.23 60 07:46 04.04.2022
2861 Clouds 25 1017 71 10000 9.77 60 03:52 04.04.2022
2862 Clouds 26 1019 65 10000 9.26 50 00:25 04.04.2022
2863 Clouds 26 1018 58 10000 8.23 50 22:33 03.04.2022
2864 Clouds 25 1018 59 10000 8.23 60 21:38 03.04.2022
2865 Clouds 25 1019 66 10000 7.2 90 20:41 03.04.2022
2866 Clouds 23 1017 68 10000 6.17 60 19:45 03.04.2022
2867 Clouds 23 1017 71 10000 5.14 60 18:31 03.04.2022
2868 Clouds 23 1019 73 10000 8.23 60 17:46 03.04.2022
2869 Clouds 23 1019 73 10000 6.17 60 16:50 03.04.2022
2870 Clouds 23 1017 71 10000 6.17 60 16:31 03.04.2022
2871 Clouds 23 1017 72 10000 5.66 60 14:38 03.04.2022
2872 Clouds 23 1020 73 10000 5.66 60 13:46 03.04.2022
2873 Clouds 24 1020 73 10000 7.2 50 12:38 03.04.2022
2874 Clouds 23 1017 76 10000 7.6 60 10:58 03.04.2022
2875 Clouds 23 1020 74 10000 8.23 70 09:36 03.04.2022
2876 Clouds 23 1019 77 10000 8.23 70 07:37 03.04.2022
2877 Rain 26 1018 67 10000 7.72 30 04:19 03.04.2022
2878 Clouds 27 1017 61 10000 9.77 70 00:41 03.04.2022
2879 Clouds 26 1019 63 10000 7.6 50 22:57 02.04.2022
2880 Clouds 26 1014 65 10000 8.49 60 21:57 02.04.2022
2881 Clouds 26 1017 63 10000 8.75 60 21:36 02.04.2022
2882 Clouds 25 1016 65 10000 10.29 70 20:52 02.04.2022
2883 Clouds 24 1016 70 10000 9.77 60 19:32 02.04.2022
2884 Clouds 23 1018 72 10000 7.6 70 18:21 02.04.2022
2885 Clouds 23 1018 73 10000 7.72 70 17:52 02.04.2022
2886 Clouds 23 1018 76 10000 6.17 70 16:23 02.04.2022
2887 Clouds 23 1017 75 10000 7.2 60 15:21 02.04.2022
2888 Clouds 23 1015 76 10000 8.23 60 14:47 02.04.2022
2889 Clouds 23 1016 75 10000 7.2 60 13:35 02.04.2022
2890 Rain 23 1019 75 10000 7.6 60 12:37 02.04.2022
2891 Clouds 23 1019 77 10000 7.72 60 11:23 02.04.2022
2892 Clouds 23 1018 72 10000 5.14 70 08:50 02.04.2022
2893 Clouds 24 1017 74 10000 4.63 40 06:50 02.04.2022
2894 Rain 24 1015 78 10000 8.23 70 03:45 02.04.2022
2895 Clouds 25 1018 77 10000 4.92 30 23:56 01.04.2022
2896 Clouds 26 1019 67 10000 5.14 30 23:22 01.04.2022
2897 Clouds 25 1018 71 10000 7.2 60 21:34 01.04.2022
2898 Clouds 24 1018 73 10000 5.66 40 20:51 01.04.2022
2899 Clouds 24 1017 76 10000 5.66 40 20:25 01.04.2022
2900 Clouds 23 1018 74 10000 5.14 40 19:32 01.04.2022
2901 Clouds 23 1017 76 10000 6.17 70 18:45 01.04.2022
2902 Clouds 22 1017 76 10000 7.2 60 17:46 01.04.2022
2903 Clouds 22 1017 77 10000 5.14 60 16:52 01.04.2022
2904 Clouds 23 1018 76 10000 3.09 40 15:39 01.04.2022
2905 Clouds 23 1018 76 10000 6.17 40 14:20 01.04.2022
2906 Clouds 23 1019 76 10000 5.66 40 13:33 01.04.2022
2907 Clouds 23 1019 79 10000 4.63 50 12:32 01.04.2022
2908 Rain 23 1020 80 10000 4.12 20 11:37 01.04.2022
2909 Clouds 23 1020 81 10000 5.14 30 10:19 01.04.2022
2910 Clouds 23 1018 81 10000 3.6 40 08:47 01.04.2022
2911 Clouds 23 1015 89 10000 2.68 76 06:54 01.04.2022
2912 Rain 25 1016 81 10000 4.12 10 04:49 01.04.2022
2913 Clouds 25 1016 80 10000 4.12 10 04:30 01.04.2022
2914 Rain 26 1014 71 10000 6.71 40 01:56 01.04.2022
2915 Clouds 26 1018 71 10000 8.49 70 22:58 31.03.2022
2916 Clouds 26 1019 70 10000 7.2 70 21:50 31.03.2022
2917 Clouds 25 1020 71 10000 7.2 70 21:31 31.03.2022
2918 Clouds 25 1018 76 10000 4.12 80 20:29 31.03.2022
2919 Clouds 23 1018 83 10000 0.89 31 19:48 31.03.2022
2920 Clouds 22 1018 84 10000 2.06 30 18:43 31.03.2022
2921 Rain 22 1017 86 10000 0.89 3 17:49 31.03.2022
2922 Clear 22 1017 87 10000 1.54 30 16:37 31.03.2022
2923 Mist 22 1017 89 6437 0.89 79 15:37 31.03.2022
2924 Mist 23 1018 89 6437 2.68 40 15:19 31.03.2022
2925 Rain 23 1018 87 10000 3.09 40 14:34 31.03.2022
2926 Rain 24 1020 82 10000 6.17 60 11:34 31.03.2022
2927 Rain 24 1019 81 10000 4.63 60 10:41 31.03.2022
2928 Clouds 24 1019 78 10000 5.66 80 09:44 31.03.2022
2929 Clear 24 1016 81 10000 0.45 133 07:53 31.03.2022
2930 Clouds 27 1016 68 10000 6.69 60 04:42 31.03.2022
2931 Clouds 27 1019 60 10000 7.2 90 23:34 30.03.2022
2932 Clouds 26 1020 64 10000 5.66 80 22:23 30.03.2022
2933 Clouds 26 1019 68 10000 2.06 0 21:33 30.03.2022
2934 Clouds 25 1018 74 10000 2.06 340 20:44 30.03.2022
2935 Rain 23 1017 79 3219 4.12 70 19:57 30.03.2022
2936 Clouds 22 1017 84 10000 2.06 330 18:50 30.03.2022
2937 Clouds 22 1016 85 10000 2.06 340 17:52 30.03.2022
2938 Clouds 22 1016 85 10000 2.06 340 17:52 30.03.2022
2939 Clouds 22 1016 86 10000 2.06 340 17:32 30.03.2022
2940 Clouds 22 1016 85 10000 2.57 340 16:42 30.03.2022
2941 Clouds 22 1016 84 10000 2.57 340 16:19 30.03.2022
2942 Clear 23 1017 83 10000 2.06 360 14:47 30.03.2022
2943 Clouds 23 1018 80 10000 2.57 60 13:26 30.03.2022
2944 Clouds 23 1018 81 10000 2.06 360 12:32 30.03.2022
2945 Clouds 23 1018 80 10000 1.54 30 10:48 30.03.2022
2946 Clouds 23 1017 81 10000 2.68 60 09:58 30.03.2022
2947 Clouds 23 1017 80 10000 2.06 130 08:28 30.03.2022
2948 Clouds 24 1016 77 10000 4.02 140 07:29 30.03.2022
2949 Clouds 26 1015 68 10000 5.14 120 05:40 30.03.2022
2950 Clouds 27 1017 63 10000 6.71 90 02:40 30.03.2022
2951 Clouds 26 1017 66 10000 5.66 50 22:43 29.03.2022
2952 Clouds 25 1017 73 10000 5.14 50 21:52 29.03.2022
2953 Clouds 25 1017 73 10000 5.14 50 21:34 29.03.2022
2954 Clouds 23 1017 83 10000 1.54 350 20:26 29.03.2022
2955 Clouds 22 1017 86 10000 2.06 340 19:34 29.03.2022
2956 Clouds 21 1016 86 10000 2.06 130 18:53 29.03.2022
2957 Clouds 21 1016 90 10000 0 0 17:52 29.03.2022
2958 Clouds 21 1016 91 10000 0 0 17:18 29.03.2022
2959 Clouds 21 1015 88 10000 2.57 20 16:52 29.03.2022
2960 Clouds 21 1015 89 10000 1.54 20 15:29 29.03.2022
2961 Clouds 21 1016 88 10000 2.06 350 14:43 29.03.2022
2962 Clouds 21 1016 88 10000 2.06 350 14:43 29.03.2022
2963 Clouds 22 1016 85 10000 2.06 360 13:34 29.03.2022
2964 Clouds 22 1016 82 10000 1.54 310 12:22 29.03.2022
2965 Clouds 23 1016 82 10000 2.24 90 10:59 29.03.2022
2966 Clouds 22 1015 82 10000 0.45 133 09:58 29.03.2022
2967 Clouds 23 1015 74 10000 3.09 40 08:43 29.03.2022
2968 Clouds 24 1014 68 10000 4.63 40 06:48 29.03.2022
2969 Clouds 26 1014 63 10000 4.12 160 02:27 29.03.2022
2970 Rain 26 1016 62 10000 4.63 60 23:26 28.03.2022
2971 Rain 26 1016 62 10000 4.63 60 23:26 28.03.2022
2972 Rain 26 1016 62 10000 4.63 60 23:26 28.03.2022
2973 Clouds 26 1016 67 10000 1.79 110 22:56 28.03.2022
2974 Clouds 25 1017 67 10000 2.06 110 22:31 28.03.2022
2975 Clouds 25 1017 72 10000 2.06 30 21:38 28.03.2022
2976 Clouds 23 1016 81 10000 2.57 10 20:32 28.03.2022
2977 Clouds 21 1015 89 10000 2.06 350 19:47 28.03.2022
2978 Clouds 20 1015 90 10000 2.06 350 19:29 28.03.2022
2979 Clouds 20 1013 90 10000 2.06 350 18:40 28.03.2022
2980 Clear 20 1013 91 10000 2.06 330 17:40 28.03.2022
2981 Clouds 20 1012 92 10000 2.06 320 16:38 28.03.2022
2982 Clouds 20 1014 90 10000 1.54 350 14:50 28.03.2022
2983 Clouds 20 1014 90 10000 1.54 350 14:22 28.03.2022
2984 Rain 21 1015 88 10000 0 0 12:41 28.03.2022
2985 Rain 21 1015 87 10000 3.09 330 11:38 28.03.2022
2986 Clouds 21 1015 87 10000 2.06 350 09:43 28.03.2022
2987 Clouds 21 1015 86 10000 2.06 350 09:19 28.03.2022
2988 Clouds 22 1014 85 10000 1.54 360 08:23 28.03.2022
2989 Rain 22 1014 82 10000 3.09 50 07:40 28.03.2022
2990 Rain 25 1012 70 10000 4.63 200 04:27 28.03.2022
2991 Rain 25 1017 70 10000 3.09 340 23:43 27.03.2022
2992 Rain 24 1015 76 10000 3.6 320 22:25 27.03.2022
2993 Clouds 23 1015 77 10000 2.06 0 21:42 27.03.2022
2994 Rain 22 1014 84 10000 5.11 72 20:58 27.03.2022
2995 Clouds 22 1015 79 10000 5.66 50 19:49 27.03.2022
2996 Clouds 21 1015 81 10000 2.57 350 19:26 27.03.2022
2997 Clouds 20 1014 84 10000 2.06 360 18:28 27.03.2022
2998 Clouds 20 1014 84 10000 2.57 0 17:40 27.03.2022
2999 Clouds 20 1014 83 10000 2.57 0 17:20 27.03.2022
3000 Clear 22 1014 75 10000 0 0 15:28 27.03.2022
3001 Clear 22 1014 77 10000 2.68 60 13:56 27.03.2022
3002 Clear 22 1016 74 10000 2.06 30 12:38 27.03.2022
3003 Clouds 23 1017 73 10000 2.57 30 11:20 27.03.2022
3004 Clear 23 1013 74 10000 4.92 40 08:53 27.03.2022
3005 Clear 24 1014 73 10000 0.45 1 05:56 27.03.2022
3006 Clouds 26 1014 62 10000 1.34 147 00:57 27.03.2022
3007 Clouds 26 1018 54 10000 6.17 50 23:46 26.03.2022
3008 Clouds 27 1018 55 10000 7.2 50 22:38 26.03.2022
3009 Clouds 26 1019 57 10000 6.17 30 21:38 26.03.2022
3010 Clouds 26 1019 57 10000 6.17 30 21:38 26.03.2022
3011 Clouds 25 1018 61 10000 4.92 20 20:57 26.03.2022
3012 Clouds 24 1019 68 10000 3.09 340 19:21 26.03.2022
3013 Clouds 21 1017 76 10000 2.24 20 17:54 26.03.2022
3014 Clouds 21 1018 76 10000 2.57 20 17:54 26.03.2022
3015 Clouds 21 1018 76 10000 2.57 20 17:33 26.03.2022
3016 Clouds 21 1018 76 10000 2.57 20 17:33 26.03.2022
3017 Clouds 22 1017 75 10000 2.06 10 16:27 26.03.2022
3018 Rain 21 1017 78 10000 4.47 40 14:57 26.03.2022
3019 Rain 21 1018 78 10000 2.68 20 13:53 26.03.2022
3020 Rain 22 1019 76 10000 9.26 30 12:59 26.03.2022
3021 Rain 22 1020 76 10000 9.26 30 11:41 26.03.2022
3022 Rain 22 1020 76 10000 9.26 30 11:41 26.03.2022
3023 Rain 22 1020 79 10000 9.26 40 10:22 26.03.2022
3024 Rain 23 1020 78 10000 2.06 30 08:34 26.03.2022
3025 Clouds 23 1017 75 10000 4.47 30 05:54 26.03.2022
3026 Clouds 25 1017 71 10000 6.17 20 04:23 26.03.2022
3027 Rain 25 1018 76 10000 5.66 20 00:22 26.03.2022
3028 Rain 23 1019 84 10000 5.14 20 21:41 25.03.2022
3029 Rain 22 1019 89 6437 0 0 20:46 25.03.2022
3030 Rain 21 1019 92 10000 2.06 360 19:36 25.03.2022
3031 Rain 22 1019 90 10000 0.89 347 18:47 25.03.2022
3032 Rain 22 1018 87 10000 1.54 360 17:37 25.03.2022
3033 Rain 22 1017 87 10000 2.06 60 16:50 25.03.2022
3034 Rain 22 1017 87 10000 2.06 60 16:18 25.03.2022
3035 Rain 23 1017 80 10000 3.09 10 14:22 25.03.2022
3036 Clouds 23 1020 79 10000 2.06 30 12:33 25.03.2022
3037 Clouds 24 1018 75 10000 4.47 70 09:55 25.03.2022
3038 Clouds 24 1019 72 10000 4.63 70 09:27 25.03.2022
3039 Clear 24 1018 73 10000 4.02 90 07:53 25.03.2022
3040 Clouds 24 1018 72 10000 4.12 90 07:26 25.03.2022
3041 Clouds 25 1018 66 10000 3.09 0 05:23 25.03.2022
3042 Clouds 27 1018 56 10000 9.26 70 00:33 25.03.2022
3043 Clouds 26 1018 64 10000 7.72 70 22:30 24.03.2022
3044 Clouds 25 1019 71 10000 8.23 60 21:35 24.03.2022
3045 Rain 23 1018 80 10000 6.17 60 19:50 24.03.2022
3046 Rain 22 1017 85 10000 5.66 60 18:58 24.03.2022
3047 Clouds 23 1017 82 10000 4.12 60 17:45 24.03.2022
3048 Rain 22 1017 83 10000 4.12 50 16:54 24.03.2022
3049 Rain 22 1017 90 8047 2.57 90 15:19 24.03.2022
3050 Rain 22 1017 88 10000 5.66 70 14:42 24.03.2022
3051 Rain 23 1016 90 10000 1.79 111 13:54 24.03.2022
3052 Rain 23 1018 87 9656 4.63 20 12:39 24.03.2022
3053 Rain 23 1018 86 10000 2.57 50 11:33 24.03.2022
3054 Rain 23 1020 81 10000 7.15 40 09:48 24.03.2022
3055 Rain 23 1019 77 10000 7.2 40 08:40 24.03.2022
3056 Rain 23 1019 77 10000 7.2 40 08:40 24.03.2022
3057 Clouds 24 1017 75 10000 8.23 60 06:19 24.03.2022
3058 Clouds 27 1017 64 10000 7.2 80 01:43 24.03.2022
3059 Clouds 26 1019 65 10000 8.75 60 22:29 23.03.2022
3060 Clouds 26 1018 68 10000 8.23 60 21:25 23.03.2022
3061 Clouds 25 1019 71 10000 7.2 70 20:47 23.03.2022
3062 Clouds 25 1018 75 10000 6.17 60 19:43 23.03.2022
3063 Clouds 25 1018 75 10000 6.17 60 19:43 23.03.2022
3064 Rain 24 1017 75 10000 7.2 60 18:22 23.03.2022
3065 Rain 23 1017 78 10000 7.2 60 17:36 23.03.2022
3066 Clouds 24 1016 76 10000 8.23 50 16:18 23.03.2022
3067 Clouds 24 1017 77 10000 8.23 60 14:50 23.03.2022
3068 Clouds 24 1017 77 10000 6.17 50 13:51 23.03.2022
3069 Clouds 24 1016 77 10000 5.66 60 11:51 23.03.2022
3070 Clouds 24 1019 74 10000 5.36 60 09:21 23.03.2022
3071 Clouds 23 1018 75 10000 8.75 60 06:29 23.03.2022
3072 Clouds 24 1015 81 10000 1.79 78 03:57 23.03.2022
3073 Clouds 27 1019 59 10000 7.2 40 00:29 23.03.2022
3074 Clouds 27 1019 59 10000 7.2 40 00:29 23.03.2022
3075 Clouds 25 1019 70 10000 5.66 60 22:25 22.03.2022
3076 Clouds 25 1019 71 10000 5.14 50 21:29 22.03.2022
3077 Clouds 24 1018 76 10000 5.14 70 20:34 22.03.2022
3078 Clouds 24 1018 78 10000 5.14 60 19:31 22.03.2022
3079 Clouds 22 1016 87 10000 1.79 30 18:54 22.03.2022
3080 Clouds 22 1016 84 10000 2.57 30 17:44 22.03.2022
3081 Clouds 22 1016 84 10000 2.57 30 17:18 22.03.2022
3082 Clouds 22 1016 87 10000 0.89 140 15:49 22.03.2022
3083 Clouds 22 1016 87 10000 0 0 15:21 22.03.2022
3084 Clouds 22 1016 87 10000 1.54 300 14:45 22.03.2022
3085 Rain 22 1017 87 10000 1.54 300 14:24 22.03.2022
3086 Rain 23 1018 83 10000 2.57 30 12:40 22.03.2022
3087 Clouds 23 1018 81 10000 2.57 300 11:26 22.03.2022
3088 Clouds 23 1018 82 10000 2.57 330 09:52 22.03.2022
3089 Clouds 24 1017 78 10000 2.06 10 07:44 22.03.2022
3090 Clouds 25 1015 72 10000 2.57 50 04:36 22.03.2022
3091 Rain 26 1015 70 10000 4.12 230 02:52 22.03.2022
3092 Clouds 27 1018 58 10000 5.14 220 23:21 21.03.2022
3093 Clouds 27 1018 59 10000 3.6 190 21:47 21.03.2022
3094 Clouds 26 1017 68 10000 0 0 20:45 21.03.2022
3095 Clouds 26 1018 69 10000 0 0 20:24 21.03.2022
3096 Clouds 24 1016 75 10000 2.06 330 19:48 21.03.2022
3097 Clouds 24 1016 79 10000 2.06 330 19:22 21.03.2022
3098 Clouds 21 1015 87 10000 2.57 310 17:36 21.03.2022
3099 Clouds 21 1014 89 10000 1.34 350 16:59 21.03.2022
3100 Clouds 21 1015 86 10000 1.54 350 16:35 21.03.2022
3101 Clouds 21 1015 86 10000 1.54 60 15:45 21.03.2022
3102 Clouds 21 1015 90 10000 0 0 14:47 21.03.2022
3103 Clouds 22 1016 88 10000 2.06 310 13:27 21.03.2022
3104 Clouds 22 1016 87 10000 2.06 340 12:22 21.03.2022
3105 Clouds 23 1016 84 10000 2.06 90 11:34 21.03.2022
3106 Rain 23 1017 88 10000 2.57 230 09:53 21.03.2022
3107 Clouds 23 1015 88 10000 2.24 190 07:53 21.03.2022
3108 Clouds 24 1015 82 10000 2.57 210 06:29 21.03.2022
3109 Clouds 26 1015 69 10000 3.09 0 02:23 21.03.2022
3110 Clouds 27 1016 70 10000 2.68 200 22:57 20.03.2022
3111 Clouds 27 1017 70 10000 3.09 200 22:36 20.03.2022
3112 Clouds 26 1017 73 10000 2.57 0 21:40 20.03.2022
3113 Rain 25 1017 78 10000 2.06 340 20:58 20.03.2022
3114 Rain 25 1017 78 10000 2.06 340 20:36 20.03.2022
3115 Clouds 24 1016 81 10000 1.54 10 19:55 20.03.2022
3116 Clouds 24 1016 83 10000 1.54 10 19:24 20.03.2022
3117 Clouds 21 1017 90 10000 2.06 330 17:49 20.03.2022
3118 Clouds 21 1017 89 10000 2.06 330 17:27 20.03.2022
3119 Clouds 22 1015 87 10000 1.54 340 16:38 20.03.2022
3120 Clouds 22 1016 85 10000 2.06 350 14:50 20.03.2022
3121 Clouds 23 1015 85 10000 2.57 320 13:39 20.03.2022
3122 Clouds 23 1017 82 10000 3.6 70 12:19 20.03.2022
3123 Clouds 24 1017 79 10000 2.68 30 09:59 20.03.2022
3124 Clouds 24 1017 78 10000 3.6 20 08:21 20.03.2022
3125 Clouds 24 1017 73 10000 4.12 50 06:37 20.03.2022
3126 Clouds 27 1015 64 10000 4.12 90 03:18 20.03.2022
3127 Clouds 28 1013 61 10000 8.05 60 00:53 20.03.2022
3128 Clouds 27 1016 59 10000 8.23 60 00:34 20.03.2022
3129 Clouds 26 1015 62 10000 5.14 60 22:31 19.03.2022
3130 Clouds 26 1016 69 10000 7.72 60 21:26 19.03.2022
3131 Clouds 24 1018 76 10000 1.54 40 19:29 19.03.2022
3132 Clouds 23 1018 79 10000 2.57 20 18:38 19.03.2022
3133 Clouds 22 1018 83 10000 2.57 10 17:49 19.03.2022
3134 Clouds 23 1017 81 10000 4.63 60 16:46 19.03.2022
3135 Clouds 23 1017 81 10000 3.6 50 15:29 19.03.2022
3136 Clouds 23 1018 78 10000 5.14 50 13:49 19.03.2022
3137 Clouds 23 1018 75 10000 5.14 80 12:43 19.03.2022
3138 Clouds 23 1019 76 10000 5.14 80 12:20 19.03.2022
3139 Clouds 23 1019 74 10000 6.71 70 11:45 19.03.2022
3140 Clouds 24 1019 71 10000 6.17 80 09:22 19.03.2022
3141 Clouds 26 1016 66 10000 6.71 80 04:53 19.03.2022
3142 Clouds 27 1016 60 10000 5.14 70 02:33 19.03.2022
3143 Clouds 28 1020 56 10000 9.26 70 23:51 18.03.2022
3144 Clouds 27 1015 57 10000 8.75 70 22:48 18.03.2022
3145 Clouds 27 1016 58 10000 8.75 70 22:21 18.03.2022
3146 Clouds 26 1020 63 10000 6.71 50 20:25 18.03.2022
3147 Clouds 25 1019 65 10000 6.71 80 19:24 18.03.2022
3148 Clouds 24 1019 69 10000 5.66 80 18:43 18.03.2022
3149 Clouds 23 1018 74 10000 4.12 70 16:54 18.03.2022
3150 Clouds 23 1018 75 10000 4.12 70 16:23 18.03.2022
3151 Clouds 23 1018 74 10000 6.71 70 14:26 18.03.2022
3152 Clouds 23 1018 75 10000 3.6 60 13:39 18.03.2022
3153 Clouds 23 1018 75 10000 4.63 60 11:35 18.03.2022
3154 Clouds 24 1019 74 10000 4.63 70 10:21 18.03.2022
3155 Clouds 24 1019 73 10000 4.63 60 08:46 18.03.2022
3156 Clouds 24 1018 71 10000 7.72 70 06:45 18.03.2022
3157 Clouds 24 1018 71 10000 7.72 70 06:45 18.03.2022
3158 Clouds 26 1016 68 10000 6.69 30 04:39 18.03.2022
3159 Clouds 27 1018 62 10000 6.71 40 00:55 18.03.2022
3160 Clouds 27 1020 58 10000 6.17 40 23:52 17.03.2022
3161 Clouds 27 1019 61 10000 7.2 50 22:44 17.03.2022
3162 Clouds 27 1019 61 10000 7.2 50 22:18 17.03.2022
3163 Clouds 26 1019 62 10000 5.14 70 21:27 17.03.2022
3164 Clouds 26 1019 63 10000 5.66 80 20:53 17.03.2022
3165 Clouds 26 1019 64 10000 5.66 80 20:19 17.03.2022
3166 Clouds 24 1019 71 10000 4.63 80 19:37 17.03.2022
3167 Clouds 23 1018 75 10000 5.66 70 18:51 17.03.2022
3168 Clouds 23 1018 78 10000 3.6 80 17:28 17.03.2022
3169 Clouds 23 1018 80 10000 4.12 50 16:19 17.03.2022
3170 Clouds 23 1018 80 10000 4.12 50 16:19 17.03.2022
3171 Clouds 23 1018 79 10000 2.06 20 15:42 17.03.2022
3172 Clouds 23 1018 80 10000 3.09 50 14:59 17.03.2022
3173 Clouds 24 1018 78 10000 4.63 70 13:35 17.03.2022
3174 Clouds 24 1019 78 10000 5.66 50 12:44 17.03.2022
3175 Clouds 24 1020 80 10000 3.6 50 11:32 17.03.2022
3176 Clouds 24 1019 80 10000 4.63 70 10:41 17.03.2022
3177 Clouds 24 1019 78 10000 4.12 70 08:46 17.03.2022
3178 Clouds 24 1019 78 10000 4.12 70 08:18 17.03.2022
3179 Clouds 25 1017 81 10000 4.12 90 05:49 17.03.2022
3180 Clouds 26 1015 77 10000 5.14 130 04:24 17.03.2022
3181 Clouds 28 1019 68 10000 6.69 150 00:24 17.03.2022
3182 Clouds 28 1017 69 10000 5.66 130 22:52 16.03.2022
3183 Clouds 28 1016 66 10000 5.66 130 22:33 16.03.2022
3184 Clouds 27 1020 72 10000 4.63 120 21:55 16.03.2022
3185 Clouds 28 1020 68 10000 1.54 0 20:32 16.03.2022
3186 Clouds 25 1018 81 10000 3.09 340 19:22 16.03.2022
3187 Clouds 24 1018 84 10000 2.06 340 18:40 16.03.2022
3188 Clouds 23 1017 87 10000 0 0 17:44 16.03.2022
3189 Clouds 23 1017 87 10000 0 0 17:26 16.03.2022
3190 Clouds 23 1016 87 10000 0.89 58 15:56 16.03.2022
3191 Clouds 23 1016 89 10000 2.57 340 14:31 16.03.2022
3192 Clouds 23 1016 86 10000 1.79 350 13:32 16.03.2022
3193 Clouds 23 1017 91 10000 3.58 66 11:58 16.03.2022
3194 Clouds 23 1016 85 10000 2.06 350 11:21 16.03.2022
3195 Clouds 24 1016 84 10000 0 0 10:28 16.03.2022
3196 Clouds 24 1019 84 10000 2.06 30 09:55 16.03.2022
3197 Clouds 25 1015 74 10000 3.09 230 06:33 16.03.2022
3198 Clouds 28 1017 53 10000 4.63 150 02:29 16.03.2022
3199 Clouds 27 1020 61 10000 4.12 170 22:51 15.03.2022
3200 Clouds 27 1020 62 10000 4.12 170 22:32 15.03.2022
3201 Clouds 25 1020 65 10000 3.09 60 20:36 15.03.2022
3202 Clouds 24 1018 75 10000 3.6 80 18:58 15.03.2022
3203 Clouds 22 1018 80 10000 2.68 320 17:24 15.03.2022
3204 Clouds 21 1017 81 10000 3.09 320 16:32 15.03.2022
3205 Clouds 21 1018 81 10000 2.06 330 15:21 15.03.2022
3206 Clouds 21 1018 82 10000 2.06 320 14:45 15.03.2022
3207 Clouds 22 1018 77 10000 2.57 40 13:55 15.03.2022
3208 Clouds 23 1019 76 10000 3.09 60 12:29 15.03.2022
3209 Clouds 23 1019 76 10000 2.06 60 11:31 15.03.2022
3210 Clouds 23 1019 76 10000 3.6 70 09:46 15.03.2022
3211 Clouds 24 1019 75 10000 3.6 30 08:42 15.03.2022
3212 Clouds 24 1015 72 10000 4.12 40 07:52 15.03.2022
3213 Clouds 24 1015 72 10000 4.12 40 07:32 15.03.2022
3214 Clouds 27 1016 62 10000 6.71 140 03:41 15.03.2022
3215 Clouds 28 1020 51 10000 6.17 40 23:44 14.03.2022
3216 Clouds 27 1020 51 10000 6.17 40 23:23 14.03.2022
3217 Clouds 26 1020 57 10000 7.2 50 22:26 14.03.2022
3218 Clouds 26 1019 61 10000 5.14 60 21:30 14.03.2022
3219 Clouds 26 1020 60 10000 5.14 60 20:41 14.03.2022
3220 Clouds 26 1019 63 10000 5.14 60 20:19 14.03.2022
3221 Clouds 23 1017 74 10000 5.14 70 18:42 14.03.2022
3222 Clouds 21 1016 79 10000 2.57 60 17:54 14.03.2022
3223 Clouds 22 1015 79 10000 4.02 80 16:58 14.03.2022
3224 Clouds 22 1017 74 10000 2.57 50 15:37 14.03.2022
3225 Clouds 23 1017 74 10000 4.12 70 14:40 14.03.2022
3226 Clear 23 1018 75 10000 4.12 70 12:22 14.03.2022
3227 Clouds 22 1019 74 10000 4.63 70 10:51 14.03.2022
3228 Clouds 23 1019 72 10000 5.66 80 09:41 14.03.2022
3229 Clouds 23 1019 72 10000 5.66 80 09:20 14.03.2022
3230 Clouds 24 1019 73 10000 5.66 60 08:55 14.03.2022
3231 Clouds 24 1019 73 10000 4.63 40 07:28 14.03.2022
3232 Clouds 25 1015 69 10000 5.66 40 05:44 14.03.2022
3233 Clouds 28 1017 59 10000 6.71 140 01:52 14.03.2022
3234 Clouds 27 1017 60 10000 6.71 140 01:20 14.03.2022
3235 Clouds 27 1018 63 10000 5.66 120 22:42 13.03.2022
3236 Clouds 26 1020 59 10000 3.6 90 21:28 13.03.2022
3237 Clouds 26 1019 66 10000 4.02 100 20:55 13.03.2022
3238 Clouds 25 1020 65 10000 4.12 100 20:29 13.03.2022
3239 Clouds 24 1019 71 10000 2.57 30 19:49 13.03.2022
3240 Clouds 24 1019 73 10000 2.57 30 19:27 13.03.2022
3241 Clouds 22 1018 78 10000 3.6 90 18:50 13.03.2022
3242 Clouds 22 1018 79 10000 3.6 90 18:30 13.03.2022
3243 Clouds 22 1018 78 10000 2.06 80 17:40 13.03.2022
3244 Clouds 22 1018 78 10000 2.06 80 17:40 13.03.2022
3245 Clouds 23 1018 77 10000 2.06 50 16:49 13.03.2022
3246 Clouds 23 1018 77 10000 2.06 50 16:27 13.03.2022
3247 Clouds 23 1018 77 10000 2.57 80 15:44 13.03.2022
3248 Clouds 22 1018 76 10000 3.6 70 14:50 13.03.2022
3249 Clouds 23 1018 76 10000 3.6 70 14:50 13.03.2022
3250 Clouds 22 1019 81 10000 2.57 40 13:30 13.03.2022
3251 Clouds 23 1020 78 10000 2.06 70 12:37 13.03.2022
3252 Clouds 23 1020 77 10000 3.09 50 11:51 13.03.2022
3253 Clouds 23 1020 78 10000 3.09 50 11:30 13.03.2022
3254 Clouds 24 1020 76 10000 4.63 50 10:46 13.03.2022
3255 Clouds 24 1021 74 10000 3.6 40 09:43 13.03.2022
3256 Clouds 24 1021 74 10000 3.6 40 09:20 13.03.2022
3257 Clouds 24 1020 74 10000 5.14 70 08:39 13.03.2022
3258 Clouds 24 1019 74 10000 4.12 60 07:37 13.03.2022
3259 Clouds 25 1018 68 10000 5.14 50 05:39 13.03.2022
3260 Clouds 27 1016 58 10000 7.72 50 01:48 13.03.2022
3261 Clouds 27 1019 65 10000 7.72 60 23:30 12.03.2022
3262 Clouds 26 1021 63 10000 5.66 50 21:48 12.03.2022
3263 Clouds 25 1021 70 10000 6.17 60 20:27 12.03.2022
3264 Clouds 25 1020 73 10000 6.17 60 19:46 12.03.2022
3265 Clouds 24 1020 74 10000 4.63 60 18:44 12.03.2022
3266 Clouds 23 1020 76 10000 4.63 60 18:19 12.03.2022
3267 Clear 23 1019 76 10000 5.14 60 16:32 12.03.2022
3268 Clouds 23 1020 75 10000 3.6 50 15:52 12.03.2022
3269 Clouds 23 1020 75 10000 3.6 50 15:22 12.03.2022
3270 Clouds 23 1020 75 10000 3.09 60 13:54 12.03.2022
3271 Clouds 23 1019 76 10000 2.68 60 13:54 12.03.2022
3272 Clouds 23 1021 73 10000 5.66 70 12:33 12.03.2022
3273 Clear 23 1020 75 10000 4.92 60 11:55 12.03.2022
3274 Clouds 24 1021 73 10000 5.14 60 11:33 12.03.2022
3275 Clouds 24 1021 73 10000 6.17 60 10:26 12.03.2022
3276 Clouds 24 1021 73 10000 5.14 70 09:43 12.03.2022
3277 Clouds 24 1020 73 10000 6.71 60 07:52 12.03.2022
3278 Clouds 24 1019 73 10000 6.71 50 06:40 12.03.2022
3279 Clouds 28 1021 57 10000 6.69 70 00:31 12.03.2022
3280 Clouds 28 1022 59 10000 5.66 60 23:41 11.03.2022
3281 Clouds 28 1022 62 10000 6.69 80 22:32 11.03.2022
3282 Clouds 27 1022 66 10000 6.69 70 21:24 11.03.2022
3283 Clouds 27 1022 66 10000 6.69 70 21:24 11.03.2022
3284 Clouds 26 1022 68 10000 6.17 70 20:46 11.03.2022
3285 Clouds 26 1022 69 10000 6.17 70 20:26 11.03.2022
3286 Clouds 25 1021 73 10000 4.63 60 19:32 11.03.2022
3287 Clouds 23 1019 82 10000 3.58 60 17:53 11.03.2022
3288 Clouds 23 1020 80 10000 3.6 60 17:24 11.03.2022
3289 Clouds 23 1019 78 10000 4.12 60 15:58 11.03.2022
3290 Clouds 23 1019 78 10000 4.12 60 15:29 11.03.2022
3291 Clouds 24 1019 79 10000 4.12 60 13:28 11.03.2022
3292 Clouds 24 1020 79 10000 3.09 50 12:30 11.03.2022
3293 Clear 24 1019 81 10000 2.24 40 11:57 11.03.2022
3294 Clouds 24 1020 79 10000 4.63 60 10:24 11.03.2022
3295 Clouds 24 1020 78 10000 4.63 50 09:33 11.03.2022
3296 Clouds 24 1019 76 10000 6.17 60 08:27 11.03.2022
3297 Clouds 25 1019 77 10000 6.17 80 07:46 11.03.2022
3298 Clouds 25 1018 74 10000 5.14 70 06:25 11.03.2022
3299 Clouds 26 1017 73 10000 4.12 220 04:24 11.03.2022
3300 Clouds 28 1018 61 10000 5.14 50 00:39 11.03.2022
3301 Clouds 28 1020 66 10000 4.12 170 22:32 10.03.2022
3302 Clouds 27 1018 69 10000 3.6 130 21:52 10.03.2022
3303 Clouds 27 1018 69 10000 3.6 130 21:24 10.03.2022
3304 Clouds 24 1018 81 10000 1.54 350 19:54 10.03.2022
3305 Clouds 23 1017 87 10000 0.45 144 18:56 10.03.2022
3306 Clear 22 1017 90 10000 1.54 330 17:36 10.03.2022
3307 Clear 22 1016 90 10000 2.57 350 16:37 10.03.2022
3308 Clear 22 1016 90 10000 1.54 340 15:26 10.03.2022
3309 Clouds 22 1017 91 10000 2.57 340 13:30 10.03.2022
3310 Clouds 22 1018 89 10000 3.6 80 12:34 10.03.2022
3311 Clouds 22 1018 88 10000 2.57 30 11:22 10.03.2022
3312 Rain 23 1018 84 10000 3.6 80 09:27 10.03.2022
3313 Clouds 23 1017 86 10000 2.57 20 07:43 10.03.2022
3314 Clouds 25 1015 79 10000 4.63 230 04:47 10.03.2022
3315 Clouds 27 1015 75 10000 5.14 160 01:50 10.03.2022
3316 Clouds 27 1016 70 10000 4.63 160 23:28 09.03.2022
3317 Clouds 26 1019 68 10000 1.54 0 21:51 09.03.2022
3318 Clouds 26 1019 70 10000 1.54 0 21:32 09.03.2022
3319 Clouds 23 1018 80 10000 2.57 330 19:50 09.03.2022
3320 Clouds 22 1016 85 10000 0.45 100 18:34 09.03.2022
3321 Clouds 21 1016 88 10000 2.06 330 17:27 09.03.2022
3322 Clear 21 1016 89 10000 2.57 330 16:31 09.03.2022
3323 Clear 20 1017 88 10000 2.06 310 15:19 09.03.2022
3324 Clear 21 1016 85 10000 1.54 20 13:53 09.03.2022
3325 Clear 22 1016 84 10000 3.09 70 12:47 09.03.2022
3326 Clouds 22 1016 82 10000 1.54 20 11:53 09.03.2022
3327 Clouds 22 1016 81 10000 1.54 20 11:35 09.03.2022
3328 Clouds 23 1017 80 10000 0.45 157 09:54 09.03.2022
3329 Clouds 23 1017 81 10000 2.06 40 08:51 09.03.2022
3330 Clouds 23 1016 79 10000 2.06 30 07:27 09.03.2022
3331 Clouds 26 1015 64 10000 5.14 40 02:42 09.03.2022
3332 Clouds 26 1015 65 10000 5.66 30 00:28 09.03.2022
3333 Clouds 26 1019 63 10000 3.6 50 22:47 08.03.2022
3334 Clouds 26 1019 70 10000 4.12 40 21:58 08.03.2022
3335 Clouds 26 1018 69 10000 4.12 40 21:22 08.03.2022
3336 Clouds 24 1017 77 10000 0.89 171 20:24 08.03.2022
3337 Rain 23 1017 83 10000 2.57 20 19:30 08.03.2022
3338 Rain 22 1017 86 10000 0.45 11 18:41 08.03.2022
3339 Clouds 22 1014 83 10000 4.12 70 16:59 08.03.2022
3340 Clouds 22 1015 86 10000 0.89 4 14:58 08.03.2022
3341 Clouds 21 1016 84 10000 5.14 30 13:54 08.03.2022
3342 Clouds 21 1015 84 10000 6.17 50 12:28 08.03.2022
3343 Clouds 22 1016 82 10000 5.14 30 11:43 08.03.2022
3344 Clouds 22 1015 82 10000 6.17 20 10:29 08.03.2022
3345 Clouds 22 1016 85 10000 4.57 33 08:57 08.03.2022
3346 Clouds 23 1013 75 10000 2.57 30 06:31 08.03.2022
3347 Clouds 25 1015 71 10000 3.6 220 03:48 08.03.2022
3348 Clouds 26 1014 55 10000 3.6 170 22:53 07.03.2022
3349 Clouds 26 1018 57 10000 1.54 0 21:45 07.03.2022
3350 Clouds 26 1017 61 10000 1.54 0 21:23 07.03.2022
3351 Clouds 25 1017 68 10000 2.57 330 20:34 07.03.2022
3352 Clouds 23 1016 73 10000 2.06 350 19:50 07.03.2022
3353 Clouds 23 1016 76 10000 2.06 350 19:20 07.03.2022
3354 Clouds 20 1016 84 10000 2.06 320 18:29 07.03.2022
3355 Clear 20 1016 79 10000 1.54 330 17:31 07.03.2022
3356 Clear 20 1015 79 10000 1.54 350 16:43 07.03.2022
3357 Clear 20 1015 79 10000 2.06 350 14:51 07.03.2022
3358 Clouds 20 1018 78 10000 1.54 330 12:34 07.03.2022
3359 Clouds 22 1017 78 10000 3.09 330 11:34 07.03.2022
3360 Clouds 22 1017 76 10000 2.57 340 10:31 07.03.2022
3361 Clouds 23 1016 74 10000 2.57 20 08:34 07.03.2022
3362 Clouds 23 1016 74 10000 2.57 20 08:34 07.03.2022
3363 Clouds 27 1015 55 10000 5.14 190 02:25 07.03.2022
3364 Clouds 27 1016 48 10000 4.63 180 00:20 07.03.2022
3365 Clouds 26 1017 55 10000 4.63 170 23:23 06.03.2022
3366 Clouds 26 1017 54 10000 5.14 160 22:27 06.03.2022
3367 Clouds 26 1018 57 10000 3.6 150 21:24 06.03.2022
3368 Clouds 25 1018 60 10000 2.57 350 20:29 06.03.2022
3369 Clouds 23 1016 69 10000 2.57 340 19:39 06.03.2022
3370 Clouds 21 1016 79 10000 0.45 127 18:49 06.03.2022
3371 Clear 19 1014 84 10000 1.54 350 17:46 06.03.2022
3372 Clear 19 1014 83 10000 1.54 350 17:19 06.03.2022
3373 Clear 18 1016 86 10000 2.57 340 16:28 06.03.2022
3374 Clear 19 1015 82 10000 1.54 340 15:25 06.03.2022
3375 Clear 19 1016 83 10000 1.54 340 14:42 06.03.2022
3376 Clouds 19 1016 81 10000 2.06 330 13:48 06.03.2022
3377 Clouds 20 1014 79 10000 0.45 0 12:39 06.03.2022
3378 Clouds 21 1014 75 10000 0 0 11:39 06.03.2022
3379 Clouds 21 1016 76 10000 2.06 20 10:39 06.03.2022
3380 Clouds 21 1016 77 10000 2.57 40 09:18 06.03.2022
3381 Clouds 22 1014 72 10000 2.57 40 08:27 06.03.2022
3382 Clouds 23 1015 71 10000 3.6 50 07:23 06.03.2022
3383 Clouds 25 1015 59 10000 4.63 140 01:54 06.03.2022
3384 Clouds 25 1014 57 10000 5.14 150 00:34 06.03.2022
3385 Clear 26 1012 58 10000 4.92 180 23:57 05.03.2022
3386 Clouds 26 1015 55 10000 5.14 180 23:18 05.03.2022
3387 Clouds 25 1017 58 10000 3.6 180 22:31 05.03.2022
3388 Clouds 25 1017 58 10000 3.6 180 22:31 05.03.2022
3389 Clouds 25 1017 60 10000 2.06 0 21:25 05.03.2022
3390 Clouds 25 1015 67 10000 2.49 42 19:59 05.03.2022
3391 Clouds 22 1014 80 10000 0.45 120 18:57 05.03.2022
3392 Clouds 20 1014 78 10000 2.06 330 18:36 05.03.2022
3393 Clear 19 1012 83 10000 1.79 320 16:58 05.03.2022
3394 Clear 19 1014 80 10000 1.54 340 15:49 05.03.2022
3395 Clear 20 1013 78 10000 1.34 360 14:53 05.03.2022
3396 Clear 19 1014 80 10000 1.54 360 14:34 05.03.2022
3397 Clear 19 1014 83 10000 2.06 350 13:35 05.03.2022
3398 Clear 21 1014 79 10000 3.09 330 11:55 05.03.2022
3399 Clear 21 1014 79 10000 3.09 330 11:20 05.03.2022
3400 Clouds 21 1014 79 10000 0 0 10:48 05.03.2022
3401 Clouds 22 1013 74 10000 2.57 340 09:28 05.03.2022
3402 Clear 22 1013 71 10000 1.79 360 07:59 05.03.2022
3403 Clouds 23 1012 65 10000 4.12 40 05:47 05.03.2022
3404 Clouds 25 1012 61 10000 5.14 20 04:38 05.03.2022
3405 Clouds 26 1014 53 10000 5.14 20 23:39 04.03.2022
3406 Clouds 25 1014 63 10000 6.17 20 22:44 04.03.2022
3407 Clouds 25 1015 64 10000 6.17 20 22:23 04.03.2022
3408 Clouds 25 1015 67 10000 5.14 20 21:24 04.03.2022
3409 Clouds 23 1015 74 10000 3.09 350 20:28 04.03.2022
3410 Clouds 22 1014 79 10000 0 0 19:36 04.03.2022
3411 Clouds 20 1013 85 10000 1.54 0 18:46 04.03.2022
3412 Clouds 18 1014 88 10000 1.54 0 18:20 04.03.2022
3413 Clear 18 1014 88 10000 1.54 350 17:28 04.03.2022
3414 Clear 19 1014 82 10000 1.54 310 15:31 04.03.2022
3415 Clear 20 1013 84 10000 1.54 290 14:33 04.03.2022
3416 Clear 19 1015 83 10000 3.09 330 13:26 04.03.2022
3417 Clear 21 1014 78 10000 3.09 300 11:54 04.03.2022
3418 Clear 21 1014 76 10000 1.79 330 10:54 04.03.2022
3419 Clear 22 1014 75 10000 2.68 310 09:58 04.03.2022
3420 Clouds 23 1014 70 10000 2.57 310 08:40 04.03.2022
3421 Clouds 22 1013 70 10000 5.66 340 07:38 04.03.2022
3422 Clouds 26 1012 59 10000 6.17 330 04:31 04.03.2022
3423 Clouds 26 1014 64 10000 3.6 240 00:38 04.03.2022
3424 Clouds 26 1016 56 10000 4.63 200 22:28 03.03.2022
3425 Clouds 26 1016 58 10000 1.54 340 21:44 03.03.2022
3426 Clouds 26 1016 60 10000 1.54 340 21:26 03.03.2022
3427 Clouds 23 1013 71 10000 2.06 330 19:55 03.03.2022
3428 Clear 21 1012 79 10000 1.79 340 18:54 03.03.2022
3429 Clouds 21 1013 76 10000 2.06 340 18:24 03.03.2022
3430 Clear 21 1013 77 10000 1.54 250 17:30 03.03.2022
3431 Clouds 21 1013 80 10000 1.54 0 16:24 03.03.2022
3432 Clouds 21 1013 81 10000 2.06 350 15:23 03.03.2022
3433 Clear 20 1014 81 10000 1.54 320 14:43 03.03.2022
3434 Clear 20 1014 81 10000 1.54 320 14:20 03.03.2022
3435 Clear 20 1014 81 10000 1.54 320 14:20 03.03.2022
3436 Clouds 21 1014 83 10000 1.54 330 12:22 03.03.2022
3437 Clouds 22 1014 82 10000 2.57 360 10:48 03.03.2022
3438 Clouds 23 1014 80 10000 2.57 10 09:41 03.03.2022
3439 Clouds 23 1015 81 10000 2.57 360 07:50 03.03.2022
3440 Clouds 24 1014 77 10000 3.09 200 06:37 03.03.2022
3441 Clouds 27 1015 66 10000 5.14 210 02:42 03.03.2022
3442 Clouds 26 1017 66 10000 4.63 210 23:34 02.03.2022
3443 Clouds 26 1018 66 10000 3.6 20 22:52 02.03.2022
3444 Clouds 26 1018 61 10000 3.09 30 21:34 02.03.2022
3445 Clouds 25 1018 71 10000 0 0 20:53 02.03.2022
3446 Clouds 25 1016 71 10000 0 0 20:24 02.03.2022
3447 Clouds 24 1016 74 10000 0 0 19:36 02.03.2022
3448 Clouds 21 1016 80 10000 2.57 320 18:48 02.03.2022
3449 Clouds 20 1016 80 10000 2.57 320 18:18 02.03.2022
3450 Clear 21 1015 81 10000 0 0 17:32 02.03.2022
3451 Clear 20 1015 83 10000 0 0 16:51 02.03.2022
3452 Clouds 21 1015 83 10000 3.09 350 14:48 02.03.2022
3453 Clear 21 1015 84 10000 2.06 340 13:29 02.03.2022
3454 Clear 21 1016 85 10000 1.54 340 12:44 02.03.2022
3455 Clouds 21 1016 85 10000 2.06 350 11:53 02.03.2022
3456 Clouds 22 1016 84 10000 2.06 350 11:24 02.03.2022
3457 Clear 22 1016 82 10000 1.54 60 09:47 02.03.2022
3458 Clear 22 1016 82 10000 1.54 60 09:23 02.03.2022
3459 Clouds 23 1015 79 10000 2.06 20 07:51 02.03.2022
3460 Clouds 23 1014 82 10000 2.64 57 06:54 02.03.2022
3461 Clouds 26 1015 63 10000 4.12 20 02:54 02.03.2022
3462 Clouds 27 1015 59 10000 5.14 180 00:29 02.03.2022
3463 Clouds 26 1018 61 10000 1.54 0 22:48 01.03.2022
3464 Clouds 26 1017 63 10000 1.79 320 22:21 01.03.2022
3465 Clouds 26 1017 66 10000 2.06 320 21:25 01.03.2022
3466 Clouds 24 1018 75 10000 2.57 330 20:32 01.03.2022
3467 Clouds 23 1017 78 10000 1.54 0 19:44 01.03.2022
3468 Clouds 21 1016 87 10000 2.06 340 18:50 01.03.2022
3469 Clouds 21 1016 88 10000 2.06 340 18:21 01.03.2022
3470 Clouds 20 1017 88 10000 2.24 340 17:30 01.03.2022
3471 Clouds 21 1015 87 10000 2.57 340 16:34 01.03.2022
3472 Clouds 21 1015 86 10000 0 0 15:41 01.03.2022
3473 Clouds 21 1015 85 10000 2.06 320 14:40 01.03.2022
3474 Clear 21 1015 88 10000 1.79 280 13:58 01.03.2022
3475 Clouds 21 1015 88 10000 2.06 280 13:25 01.03.2022
3476 Clouds 22 1016 85 10000 2.06 360 12:32 01.03.2022
3477 Clouds 22 1017 83 10000 2.06 350 10:37 01.03.2022
3478 Clouds 23 1017 79 10000 2.57 40 08:45 01.03.2022
3479 Clouds 23 1015 79 10000 2.24 90 07:53 01.03.2022
3480 Clouds 24 1015 78 10000 2.06 170 06:20 01.03.2022
3481 Clouds 26 1014 65 10000 4.63 160 02:44 01.03.2022
3482 Clouds 27 1015 62 10000 4.12 150 00:34 01.03.2022
3483 Clouds 26 1016 66 10000 4.12 170 23:30 28.02.2022
3484 Clouds 25 1016 67 10000 3.09 0 22:18 28.02.2022
3485 Clouds 25 1017 71 10000 3.09 290 21:37 28.02.2022
3486 Clouds 23 1015 79 10000 2.06 10 19:56 28.02.2022
3487 Clouds 23 1015 81 10000 2.06 10 19:36 28.02.2022
3488 Clouds 22 1016 84 10000 3.09 70 18:43 28.02.2022
3489 Clouds 22 1016 85 10000 2.06 310 17:33 28.02.2022
3490 Clouds 22 1015 84 10000 1.34 10 16:33 28.02.2022
3491 Clouds 22 1015 83 10000 1.54 10 15:24 28.02.2022
3492 Clouds 23 1016 83 10000 0 0 14:32 28.02.2022
3493 Clouds 23 1016 83 10000 2.06 350 13:47 28.02.2022
3494 Clouds 23 1016 84 10000 2.06 320 12:47 28.02.2022
3495 Clouds 23 1016 82 10000 0 0 11:57 28.02.2022
3496 Clouds 23 1016 82 10000 2.57 50 10:48 28.02.2022
3497 Clouds 23 1016 82 10000 2.57 50 10:20 28.02.2022
3498 Clouds 23 1017 79 10000 1.54 10 09:33 28.02.2022
3499 Clouds 23 1017 80 10000 2.06 30 08:32 28.02.2022
3500 Clouds 23 1016 78 10000 2.57 30 07:28 28.02.2022
3501 Clouds 25 1015 72 10000 4.12 150 04:55 28.02.2022
3502 Clouds 25 1015 72 10000 4.12 150 04:26 28.02.2022
3503 Clouds 27 1019 67 10000 3.6 180 23:42 27.02.2022
3504 Clouds 26 1020 67 10000 3.6 170 22:34 27.02.2022
3505 Clouds 26 1020 70 10000 3.6 130 21:51 27.02.2022
3506 Clouds 25 1017 79 10000 0.99 78 20:59 27.02.2022
3507 Clouds 24 1018 78 10000 0 0 20:28 27.02.2022
3508 Clouds 23 1018 86 10000 2.06 300 19:58 27.02.2022
3509 Clouds 23 1018 84 10000 2.06 300 19:27 27.02.2022
3510 Clouds 22 1017 88 10000 2.06 20 18:47 27.02.2022
3511 Rain 21 1019 94 10000 2.13 127 17:56 27.02.2022
3512 Clouds 21 1016 89 10000 0 0 16:54 27.02.2022
3513 Clouds 22 1016 89 10000 0 0 16:21 27.02.2022
3514 Clouds 22 1016 89 10000 2.06 360 13:25 27.02.2022
3515 Clouds 22 1017 88 10000 1.54 30 12:32 27.02.2022
3516 Clouds 22 1016 88 10000 1.46 71 10:56 27.02.2022
3517 Clouds 22 1015 80 10000 2.06 330 10:19 27.02.2022
3518 Clouds 23 1015 77 10000 2.06 310 09:49 27.02.2022
3519 Clouds 23 1015 77 10000 2.06 310 09:20 27.02.2022
3520 Clouds 23 1017 75 10000 4.63 70 07:54 27.02.2022
3521 Clouds 25 1014 68 10000 4.63 80 05:38 27.02.2022
3522 Clouds 27 1016 60 10000 5.14 50 02:21 27.02.2022
3523 Clouds 27 1020 60 10000 6.17 60 23:23 26.02.2022
3524 Clouds 25 1015 67 10000 5.81 60 21:58 26.02.2022
3525 Clouds 25 1019 66 10000 1.34 124 20:59 26.02.2022
3526 Clouds 25 1019 66 10000 2.06 0 20:20 26.02.2022
3527 Clouds 24 1019 66 10000 2.57 70 19:49 26.02.2022
3528 Clouds 24 1019 68 10000 2.57 70 19:26 26.02.2022
3529 Clouds 23 1018 73 10000 4.63 50 17:52 26.02.2022
3530 Clouds 23 1018 73 10000 3.09 60 16:52 26.02.2022
3531 Clouds 23 1017 74 10000 3.6 70 15:57 26.02.2022
3532 Clouds 23 1017 75 10000 3.6 70 15:23 26.02.2022
3533 Clouds 22 1017 79 10000 3.58 50 14:55 26.02.2022
3534 Clouds 22 1017 78 10000 3.6 50 14:36 26.02.2022
3535 Clouds 22 1018 82 10000 2.57 80 13:19 26.02.2022
3536 Rain 22 1016 84 10000 4.63 90 12:29 26.02.2022
3537 Clouds 22 1019 86 10000 1.34 128 11:28 26.02.2022
3538 Clouds 22 1019 85 10000 4.63 80 10:49 26.02.2022
3539 Clouds 23 1018 84 10000 4.47 60 08:55 26.02.2022
3540 Clouds 24 1015 74 10000 6.17 40 07:37 26.02.2022
3541 Clouds 27 1018 61 10000 8.23 80 01:27 26.02.2022
3542 Clouds 26 1019 68 10000 4.12 40 22:55 25.02.2022
3543 Clouds 26 1019 70 10000 7.2 70 21:44 25.02.2022
3544 Clouds 25 1019 71 10000 7.2 70 21:25 25.02.2022
3545 Clouds 25 1019 74 10000 3.09 40 20:33 25.02.2022
3546 Clouds 23 1019 79 10000 1.34 124 19:18 25.02.2022
3547 Clouds 22 1018 82 10000 3.09 30 17:29 25.02.2022
3548 Clouds 23 1017 78 10000 1.54 40 16:35 25.02.2022
3549 Clouds 23 1017 76 10000 1.54 40 15:48 25.02.2022
3550 Clouds 23 1017 76 10000 1.54 40 15:22 25.02.2022
3551 Clouds 23 1017 76 10000 2.06 50 14:42 25.02.2022
3552 Clouds 23 1017 76 10000 2.06 50 14:42 25.02.2022
3553 Clouds 22 1016 76 10000 1.79 50 13:36 25.02.2022
3554 Clear 23 1015 79 10000 1.79 50 12:56 25.02.2022
3555 Clear 23 1017 77 10000 2.57 80 11:28 25.02.2022
3556 Clear 23 1016 74 10000 5.14 60 10:40 25.02.2022
3557 Clear 23 1016 74 10000 6.71 80 10:22 25.02.2022
3558 Clear 23 1016 71 10000 6.71 80 09:18 25.02.2022
3559 Clouds 24 1016 69 10000 7.72 70 07:41 25.02.2022
3560 Clouds 25 1015 67 10000 5.14 50 05:49 25.02.2022
3561 Clouds 25 1016 67 10000 7.2 70 04:32 25.02.2022
3562 Clouds 27 1016 58 10000 4.63 150 23:47 24.02.2022
3563 Clouds 26 1020 60 10000 5.14 100 21:56 24.02.2022
3564 Clouds 26 1020 59 10000 5.14 100 21:38 24.02.2022
3565 Clouds 26 1020 61 10000 5.14 100 21:19 24.02.2022
3566 Clouds 24 1016 74 10000 4.63 80 19:38 24.02.2022
3567 Clouds 23 1018 75 10000 5.14 70 18:44 24.02.2022
3568 Clouds 23 1018 75 10000 5.14 70 18:19 24.02.2022
3569 Clouds 23 1017 74 10000 3.6 50 17:34 24.02.2022
3570 Clouds 23 1017 75 10000 1.54 20 16:49 24.02.2022
3571 Clouds 23 1017 75 10000 1.54 20 16:23 24.02.2022
3572 Clouds 23 1017 75 10000 5.14 60 14:54 24.02.2022
3573 Clouds 23 1017 76 10000 5.14 60 14:35 24.02.2022
3574 Clouds 23 1016 76 10000 3.09 60 13:39 24.02.2022
3575 Clouds 23 1016 74 10000 2.06 30 12:50 24.02.2022
3576 Clouds 23 1016 72 10000 5.14 60 10:41 24.02.2022
3577 Clouds 23 1016 72 10000 5.14 60 10:41 24.02.2022
3578 Clouds 23 1016 72 10000 5.14 70 09:18 24.02.2022
3579 Clouds 23 1016 72 10000 4.63 70 08:40 24.02.2022
3580 Clouds 24 1014 70 10000 8.05 80 05:53 24.02.2022
3581 Clouds 26 1015 66 10000 9.83 70 01:56 24.02.2022
3582 Clouds 27 1016 58 10000 7.72 60 23:31 23.02.2022
3583 Clouds 26 1019 63 10000 8.23 60 21:43 23.02.2022
3584 Clouds 25 1019 66 10000 5.14 70 20:31 23.02.2022
3585 Clouds 24 1018 70 10000 4.12 60 19:47 23.02.2022
3586 Clouds 23 1018 72 10000 4.63 50 18:32 23.02.2022
3587 Clouds 23 1018 72 10000 4.63 50 18:32 23.02.2022
3588 Clouds 23 1018 72 10000 5.14 60 17:44 23.02.2022
3589 Clouds 23 1018 72 10000 6.71 60 14:44 23.02.2022
3590 Clouds 23 1018 74 10000 5.14 60 12:45 23.02.2022
3591 Clouds 23 1017 75 10000 5.36 70 11:59 23.02.2022
3592 Clouds 23 1018 72 10000 2.57 70 10:31 23.02.2022
3593 Clouds 23 1018 73 10000 4.12 90 08:59 23.02.2022
3594 Clouds 23 1017 76 10000 3.58 10 08:59 23.02.2022
3595 Clouds 24 1018 74 10000 4.12 90 08:23 23.02.2022
3596 Clouds 25 1016 74 10000 5.66 80 05:49 23.02.2022
3597 Clouds 27 1017 65 10000 5.14 70 00:40 23.02.2022
3598 Clouds 28 1018 65 10000 7.2 60 23:38 22.02.2022
3599 Clouds 27 1018 67 10000 6.71 60 22:32 22.02.2022
3600 Clouds 26 1019 67 10000 6.71 60 21:49 22.02.2022
3601 Clouds 26 1019 67 10000 6.71 60 21:30 22.02.2022
3602 Clouds 26 1019 74 10000 4.63 80 20:55 22.02.2022
3603 Clouds 25 1018 78 10000 4.63 80 20:29 22.02.2022
3604 Clouds 24 1018 83 10000 2.06 40 19:42 22.02.2022
3605 Clouds 23 1018 84 10000 1.34 140 19:19 22.02.2022
3606 Clouds 22 1018 87 10000 2.57 340 17:48 22.02.2022
3607 Clouds 22 1018 87 10000 2.57 340 17:21 22.02.2022
3608 Clouds 22 1017 89 10000 1.54 340 16:37 22.02.2022
3609 Clouds 22 1016 87 10000 0 0 15:40 22.02.2022
3610 Clouds 23 1016 84 10000 2.57 20 14:44 22.02.2022
3611 Clouds 23 1017 83 10000 0.89 92 12:23 22.02.2022
3612 Clouds 23 1015 85 10000 2.57 50 10:50 22.02.2022
3613 Rain 23 1016 86 10000 5.14 20 08:41 22.02.2022
3614 Clouds 23 1014 83 10000 3.6 40 07:26 22.02.2022
3615 Clouds 25 1014 75 10000 5.66 60 04:31 22.02.2022
3616 Clouds 26 1016 70 10000 0 0 01:45 22.02.2022
3617 Clouds 26 1016 70 10000 0 0 01:45 22.02.2022
3618 Clouds 26 1016 70 10000 0 0 01:44 22.02.2022
3619 Clouds 25 1019 70 10000 5.14 30 22:44 21.02.2022
3620 Clouds 25 1017 76 10000 4.63 50 21:33 21.02.2022
3621 Clouds 24 1016 83 10000 4.12 350 20:35 21.02.2022
3622 Rain 22 1016 92 10000 4.12 310 18:46 21.02.2022
3623 Clouds 21 1017 94 10000 3.95 12 16:56 21.02.2022
3624 Clouds 21 1016 86 10000 3.09 330 14:52 21.02.2022
3625 Clouds 21 1016 87 10000 3.09 330 14:21 21.02.2022
3626 Clouds 21 1015 88 10000 2.24 330 12:59 21.02.2022
3627 Clouds 21 1016 86 10000 2.57 330 12:23 21.02.2022
3628 Clouds 22 1017 82 10000 2.06 340 10:51 21.02.2022
3629 Clouds 22 1016 81 10000 1.54 350 09:30 21.02.2022
3630 Clouds 22 1016 81 10000 1.54 350 09:30 21.02.2022
3631 Clouds 25 1014 69 10000 5.14 40 04:52 21.02.2022
3632 Clouds 26 1016 58 10000 3.09 0 23:32 20.02.2022
3633 Clouds 26 1017 61 10000 3.6 20 22:20 20.02.2022
3634 Clouds 26 1017 64 10000 2.06 360 21:42 20.02.2022
3635 Clouds 25 1016 70 10000 3.58 340 20:53 20.02.2022
3636 Clouds 24 1016 72 10000 3.6 340 20:23 20.02.2022
3637 Clouds 22 1015 80 10000 3.6 330 19:30 20.02.2022
3638 Clear 22 1014 83 10000 4.63 330 18:49 20.02.2022
3639 Clear 21 1014 83 10000 4.63 330 18:31 20.02.2022
3640 Clouds 21 1014 84 10000 3.6 330 17:34 20.02.2022
3641 Clouds 21 1014 86 10000 2.57 330 15:31 20.02.2022
3642 Clouds 21 1014 87 10000 3.6 320 14:41 20.02.2022
3643 Clouds 21 1013 86 10000 0.89 1 13:23 20.02.2022
3644 Clouds 22 1013 85 10000 3.09 330 12:20 20.02.2022
3645 Rain 22 1013 86 10000 2.06 330 10:21 20.02.2022
3646 Clouds 22 1012 87 10000 1.79 350 09:53 20.02.2022
3647 Clouds 23 1014 83 10000 2.06 350 06:46 20.02.2022
3648 Clouds 26 1015 67 10000 5.14 200 00:34 20.02.2022
3649 Clouds 26 1016 66 10000 4.12 170 23:42 19.02.2022
3650 Clouds 26 1016 65 10000 3.6 180 22:25 19.02.2022
3651 Clouds 26 1017 68 10000 0 0 21:54 19.02.2022
3652 Clouds 24 1016 77 10000 1.54 0 20:48 19.02.2022
3653 Clouds 22 1015 86 10000 2.06 0 19:41 19.02.2022
3654 Clouds 20 1014 86 10000 2.57 320 18:41 19.02.2022
3655 Clouds 19 1015 89 10000 2.57 320 18:19 19.02.2022
3656 Clouds 20 1014 89 10000 2.06 0 17:33 19.02.2022
3657 Clear 20 1014 92 10000 1.34 350 15:59 19.02.2022
3658 Clear 20 1014 90 10000 1.79 360 14:56 19.02.2022
3659 Clear 20 1014 92 10000 1.79 360 13:58 19.02.2022
3660 Clouds 21 1016 90 10000 1.79 330 11:58 19.02.2022
3661 Clouds 22 1015 86 10000 2.06 330 11:29 19.02.2022
3662 Clouds 22 1015 84 10000 3.6 330 09:27 19.02.2022
3663 Clouds 23 1014 79 10000 0.89 299 06:51 19.02.2022
3664 Clear 27 1015 62 10000 4.02 30 00:55 19.02.2022
3665 Clouds 27 1017 63 10000 4.12 20 22:41 18.02.2022
3666 Clouds 26 1017 67 10000 3.09 70 21:27 18.02.2022
3667 Clouds 24 1016 76 10000 2.06 50 20:25 18.02.2022
3668 Clouds 23 1016 81 10000 0 0 19:51 18.02.2022
3669 Clouds 21 1015 89 10000 2.57 350 18:38 18.02.2022
3670 Clouds 21 1015 89 10000 2.57 350 18:18 18.02.2022
3671 Rain 21 1015 89 10000 0.89 49 17:18 18.02.2022
3672 Rain 22 1015 86 10000 0.89 354 14:31 18.02.2022
3673 Rain 22 1015 86 10000 1.54 50 13:47 18.02.2022
3674 Rain 22 1016 84 10000 2.24 40 12:50 18.02.2022
3675 Clear 23 1015 85 10000 2.24 40 11:57 18.02.2022
3676 Rain 23 1017 81 10000 2.06 50 10:45 18.02.2022
3677 Rain 23 1017 78 10000 3.09 50 08:47 18.02.2022
3678 Clouds 24 1013 75 10000 3.09 30 06:35 18.02.2022
3679 Clouds 25 1013 70 10000 4.12 60 05:34 18.02.2022
3680 Clouds 26 1018 63 10000 5.66 60 22:20 17.02.2022
3681 Clouds 26 1019 65 10000 3.09 50 21:38 17.02.2022
3682 Clouds 25 1019 73 10000 2.06 350 20:43 17.02.2022
3683 Clouds 23 1018 86 10000 1.79 310 19:55 17.02.2022
3684 Clouds 21 1019 89 10000 2.06 310 19:22 17.02.2022
3685 Clouds 20 1017 91 10000 2.06 320 18:29 17.02.2022
3686 Clouds 20 1016 89 10000 1.54 350 17:30 17.02.2022
3687 Clouds 21 1015 92 10000 4.35 49 15:57 17.02.2022
3688 Clouds 20 1017 88 10000 2.57 340 14:29 17.02.2022
3689 Clouds 21 1017 87 10000 2.06 350 13:31 17.02.2022
3690 Clouds 21 1018 86 10000 2.06 340 11:48 17.02.2022
3691 Clear 21 1017 86 10000 1.79 30 09:58 17.02.2022
3692 Rain 22 1016 75 10000 2.57 50 06:44 17.02.2022
3693 Clouds 26 1015 61 10000 5.14 50 23:23 16.02.2022
3694 Clouds 26 1018 62 10000 6.17 30 22:27 16.02.2022
3695 Clouds 23 1018 77 10000 3.6 40 20:21 16.02.2022
3696 Rain 20 1016 90 10000 2.24 350 18:56 16.02.2022
3697 Clouds 19 1017 84 10000 4.12 360 17:56 16.02.2022
3698 Clouds 19 1016 89 10000 1.54 320 16:44 16.02.2022
3699 Clouds 19 1016 90 10000 1.54 300 15:21 16.02.2022
3700 Clouds 20 1016 89 10000 0.89 66 13:38 16.02.2022
3701 Rain 20 1017 84 10000 3.6 70 12:21 16.02.2022
3702 Rain 21 1017 80 10000 5.14 110 11:35 16.02.2022
3703 Rain 22 1017 75 10000 4.63 70 10:34 16.02.2022
3704 Clouds 22 1015 75 10000 5.81 60 08:58 16.02.2022
3705 Clouds 22 1014 74 10000 5.14 90 06:43 16.02.2022
3706 Clouds 25 1014 65 10000 3.09 70 23:46 15.02.2022
3707 Rain 24 1014 68 10000 3.09 360 22:34 15.02.2022
3708 Rain 24 1016 73 10000 2.57 60 21:49 15.02.2022
3709 Clouds 25 1016 72 10000 2.57 60 21:29 15.02.2022
3710 Rain 23 1015 80 10000 2.06 330 20:56 15.02.2022
3711 Rain 21 1015 86 10000 4.32 58 19:59 15.02.2022
3712 Clouds 19 1012 87 10000 3.09 330 19:26 15.02.2022
3713 Clouds 19 1012 82 10000 2.06 310 18:24 15.02.2022
3714 Clouds 19 1013 85 10000 2.57 30 17:52 15.02.2022
3715 Clouds 19 1013 85 10000 2.57 30 17:21 15.02.2022
3716 Clear 19 1014 82 10000 0 0 15:32 15.02.2022
3717 Clear 19 1014 82 10000 2.06 330 13:28 15.02.2022
3718 Clear 20 1014 79 10000 2.24 330 12:53 15.02.2022
3719 Clouds 20 1015 75 10000 3.09 310 11:40 15.02.2022
3720 Clouds 21 1015 76 10000 2.57 330 09:52 15.02.2022
3721 Clouds 21 1013 73 10000 2.24 20 06:59 15.02.2022
3722 Rain 23 1012 66 10000 2.06 20 05:32 15.02.2022
3723 Rain 24 1014 61 10000 5.66 60 23:34 14.02.2022
3724 Clouds 24 1015 62 10000 3.09 60 21:54 14.02.2022
3725 Clouds 23 1014 65 10000 3.6 80 20:40 14.02.2022
3726 Clouds 21 1014 73 10000 5.14 50 19:44 14.02.2022
3727 Clouds 21 1014 76 10000 5.14 50 19:25 14.02.2022
3728 Clouds 19 1013 77 10000 4.63 60 18:23 14.02.2022
3729 Clouds 19 1013 77 10000 4.63 50 17:27 14.02.2022
3730 Clouds 19 1012 78 10000 4.63 50 16:25 14.02.2022
3731 Clouds 19 1012 76 10000 5.14 40 14:39 14.02.2022
3732 Clear 19 1013 76 10000 4.63 20 13:34 14.02.2022
3733 Clouds 20 1013 73 10000 4.63 40 12:55 14.02.2022
3734 Clouds 20 1014 74 10000 4.63 30 11:55 14.02.2022
3735 Clear 19 1013 77 10000 2.68 340 10:58 14.02.2022
3736 Clouds 20 1015 70 10000 4.63 10 08:46 14.02.2022
3737 Clouds 21 1014 66 10000 4.63 20 07:32 14.02.2022
3738 Clear 22 1012 63 10000 5.36 30 05:56 14.02.2022
3739 Clouds 25 1016 60 10000 5.14 50 22:43 13.02.2022
3740 Clouds 25 1016 60 10000 5.14 50 22:25 13.02.2022
3741 Clouds 25 1015 67 10000 5.66 50 21:32 13.02.2022
3742 Clouds 24 1015 72 10000 6.17 50 20:40 13.02.2022
3743 Clouds 22 1015 79 10000 4.12 60 19:45 13.02.2022
3744 Clouds 21 1014 84 10000 4.12 50 18:54 13.02.2022
3745 Clouds 21 1014 85 10000 4.12 50 18:35 13.02.2022
3746 Rain 21 1014 83 10000 4.12 50 16:34 13.02.2022
3747 Rain 21 1014 83 10000 6.69 50 15:25 13.02.2022
3748 Clouds 22 1014 83 10000 5.66 60 14:36 13.02.2022
3749 Clear 21 1015 84 10000 5.66 60 12:51 13.02.2022
3750 Rain 22 1015 82 10000 6.17 50 11:44 13.02.2022
3751 Clouds 22 1016 79 10000 7.2 40 10:34 13.02.2022
3752 Clouds 22 1016 77 10000 3.6 50 09:46 13.02.2022
3753 Clouds 23 1015 74 10000 5.66 40 07:49 13.02.2022
3754 Clouds 27 1014 56 10000 5.66 30 00:35 13.02.2022
3755 Clouds 27 1014 56 10000 5.14 60 23:42 12.02.2022
3756 Clouds 26 1016 58 10000 4.63 40 22:33 12.02.2022
3757 Clouds 26 1016 63 10000 4.12 50 21:30 12.02.2022
3758 Clouds 24 1015 71 10000 5.14 50 20:45 12.02.2022
3759 Clouds 22 1015 82 10000 3.09 60 19:30 12.02.2022
3760 Clouds 21 1014 82 10000 3.09 60 18:53 12.02.2022
3761 Clouds 20 1014 86 10000 1.54 0 18:35 12.02.2022
3762 Clouds 20 1014 83 10000 1.54 300 17:19 12.02.2022
3763 Clouds 20 1014 84 10000 3.09 60 16:29 12.02.2022
3764 Clouds 20 1013 86 10000 3.6 60 15:51 12.02.2022
3765 Clear 20 1013 84 10000 1.54 80 14:31 12.02.2022
3766 Clouds 21 1014 81 10000 2.57 60 13:22 12.02.2022
3767 Clouds 22 1015 78 10000 3.09 60 10:42 12.02.2022
3768 Clear 22 1015 77 10000 3.6 60 09:50 12.02.2022
3769 Clear 22 1015 77 10000 3.6 60 09:26 12.02.2022
3770 Clouds 23 1015 75 10000 4.63 60 08:44 12.02.2022
3771 Clouds 24 1013 69 10000 3.09 60 05:40 12.02.2022
3772 Clouds 25 1012 60 10000 3.09 150 04:30 12.02.2022
3773 Clouds 26 1011 58 10000 5.66 160 02:18 12.02.2022
3774 Clouds 26 1015 60 10000 3.6 180 22:37 11.02.2022
3775 Clouds 26 1015 61 10000 3.6 180 22:18 11.02.2022
3776 Clouds 25 1016 61 10000 3.6 180 22:18 11.02.2022
3777 Clouds 23 1016 71 10000 1.54 350 20:41 11.02.2022
3778 Clouds 22 1014 81 10000 2.06 0 19:47 11.02.2022
3779 Clouds 20 1016 90 10000 2.06 0 19:27 11.02.2022
3780 Clear 20 1013 86 10000 2.24 350 17:59 11.02.2022
3781 Clear 18 1015 88 10000 2.57 350 17:26 11.02.2022
3782 Clear 18 1014 89 10000 1.54 360 16:26 11.02.2022
3783 Clear 19 1014 89 10000 2.06 350 14:44 11.02.2022
3784 Clear 19 1014 88 10000 2.06 350 14:21 11.02.2022
3785 Clear 20 1012 88 10000 1.34 360 13:59 11.02.2022
3786 Clear 19 1015 92 10000 1.54 360 13:39 11.02.2022
3787 Clouds 20 1014 87 10000 2.06 360 11:47 11.02.2022
3788 Clear 21 1014 85 10000 2.06 100 09:59 11.02.2022
3789 Clouds 21 1013 83 10000 3.09 10 08:49 11.02.2022
3790 Clouds 21 1015 85 10000 3.09 10 08:27 11.02.2022
3791 Clouds 22 1014 82 10000 3.6 30 07:18 11.02.2022
3792 Clouds 25 1013 65 10000 4.92 220 02:39 11.02.2022
3793 Clouds 25 1013 63 10000 4.92 220 02:18 11.02.2022
3794 Clouds 26 1015 63 10000 3.6 40 22:53 10.02.2022
3795 Clouds 25 1016 65 10000 2.06 330 21:50 10.02.2022
3796 Clouds 25 1016 66 10000 2.06 340 21:18 10.02.2022
3797 Clouds 24 1016 71 10000 1.54 340 20:38 10.02.2022
3798 Clouds 22 1015 85 10000 0 0 19:26 10.02.2022
3799 Clouds 22 1015 79 10000 1.54 0 18:46 10.02.2022
3800 Clouds 20 1014 85 10000 2.06 270 17:26 10.02.2022
3801 Clouds 20 1015 86 10000 0 0 16:50 10.02.2022
3802 Clouds 21 1014 86 10000 2.06 40 15:51 10.02.2022
3803 Clouds 21 1014 85 10000 2.06 40 15:30 10.02.2022
3804 Clouds 21 1014 86 10000 1.54 10 14:48 10.02.2022
3805 Clouds 21 1014 86 10000 1.54 10 14:48 10.02.2022
3806 Clouds 21 1014 86 10000 1.54 10 14:24 10.02.2022
3807 Clouds 21 1016 82 10000 1.54 10 13:29 10.02.2022
3808 Clouds 21 1016 82 10000 0 0 12:45 10.02.2022
3809 Clouds 22 1016 84 10000 2.57 250 11:33 10.02.2022
3810 Clouds 22 1017 83 10000 2.57 90 10:44 10.02.2022
3811 Clouds 22 1015 86 10000 3.14 55 09:57 10.02.2022
3812 Clouds 22 1017 81 10000 2.06 320 09:23 10.02.2022
3813 Clouds 23 1016 75 10000 1.54 40 07:19 10.02.2022
3814 Clouds 25 1014 67 10000 6.71 150 04:23 10.02.2022
3815 Clouds 26 1014 63 10000 6.17 140 01:48 10.02.2022
3816 Clouds 26 1015 63 10000 5.66 120 00:44 10.02.2022
3817 Clouds 26 1015 64 10000 5.66 120 00:26 10.02.2022
3818 Clouds 26 1016 64 10000 4.92 50 22:58 09.02.2022
3819 Clouds 26 1017 60 10000 5.14 50 22:34 09.02.2022
3820 Clouds 25 1018 63 10000 5.14 70 21:50 09.02.2022
3821 Clouds 25 1018 61 10000 5.14 80 21:28 09.02.2022
3822 Clouds 25 1017 67 10000 3.09 80 20:47 09.02.2022
3823 Clouds 25 1017 67 10000 3.09 80 20:24 09.02.2022
3824 Clouds 23 1017 72 10000 2.57 0 19:44 09.02.2022
3825 Clouds 22 1016 78 10000 2.57 110 18:58 09.02.2022
3826 Clouds 21 1016 82 10000 3.6 90 17:32 09.02.2022
3827 Clouds 21 1015 83 10000 3.6 80 16:26 09.02.2022
3828 Clouds 20 1015 83 10000 3.6 80 15:32 09.02.2022
3829 Clouds 21 1016 80 10000 4.63 80 13:57 09.02.2022
3830 Clouds 22 1016 77 10000 3.09 90 12:25 09.02.2022
3831 Clouds 22 1017 76 10000 4.12 70 10:37 09.02.2022
3832 Clouds 23 1017 76 10000 3.58 80 09:57 09.02.2022
3833 Clouds 23 1017 75 10000 3.6 80 09:22 09.02.2022
3834 Clouds 23 1017 75 10000 4.12 80 08:51 09.02.2022
3835 Clouds 23 1016 74 10000 4.63 70 07:28 09.02.2022
3836 Clouds 24 1015 69 10000 6.17 70 05:29 09.02.2022
3837 Clouds 25 1014 66 10000 7.2 80 03:49 09.02.2022
3838 Clouds 26 1016 63 10000 5.14 60 23:57 08.02.2022
3839 Clouds 26 1017 60 10000 5.14 60 23:19 08.02.2022
3840 Clouds 25 1019 62 10000 5.14 40 22:39 08.02.2022
3841 Clouds 25 1019 62 10000 5.14 40 22:20 08.02.2022
3842 Clouds 25 1018 64 10000 5.66 70 21:22 08.02.2022
3843 Clouds 24 1019 65 10000 4.63 70 20:58 08.02.2022
3844 Clouds 24 1019 65 10000 4.63 70 20:38 08.02.2022
3845 Clouds 23 1018 68 10000 4.63 50 19:28 08.02.2022
3846 Clouds 22 1017 73 10000 3.6 50 18:24 08.02.2022
3847 Clouds 22 1016 73 10000 4.63 60 17:30 08.02.2022
3848 Clouds 22 1016 71 10000 4.12 80 15:47 08.02.2022
3849 Clouds 22 1016 71 10000 4.12 80 15:27 08.02.2022
3850 Clouds 22 1016 72 10000 3.6 90 13:50 08.02.2022
3851 Clouds 23 1017 72 10000 5.14 50 12:24 08.02.2022
3852 Clouds 23 1018 71 10000 6.17 90 10:49 08.02.2022
3853 Clouds 23 1018 69 10000 4.63 60 09:48 08.02.2022
3854 Clouds 23 1017 72 10000 6.17 80 08:39 08.02.2022
3855 Clouds 23 1016 72 10000 6.17 90 06:38 08.02.2022
3856 Clouds 24 1015 72 10000 7.2 50 04:40 08.02.2022
3857 Clouds 24 1015 71 10000 7.2 50 04:22 08.02.2022
3858 Clouds 25 1014 70 10000 4.63 50 03:36 08.02.2022
3859 Clouds 25 1014 70 10000 4.63 50 03:18 08.02.2022
3860 Clear 25 1013 71 10000 7.6 70 02:59 08.02.2022
3861 Clouds 25 1014 64 10000 7.72 70 02:36 08.02.2022
3862 Clouds 25 1014 65 10000 7.72 70 02:18 08.02.2022
3863 Clouds 26 1014 63 10000 6.17 50 01:44 08.02.2022
3864 Clouds 26 1014 62 10000 6.17 50 01:25 08.02.2022
3865 Clouds 26 1015 67 10000 5.36 60 00:55 08.02.2022
3866 Clouds 26 1016 64 10000 6.17 80 00:19 08.02.2022
3867 Clouds 27 1016 62 10000 8.75 80 23:43 07.02.2022
3868 Clouds 27 1016 61 10000 8.75 80 23:18 07.02.2022
3869 Clouds 26 1016 65 10000 8.05 70 22:59 07.02.2022
3870 Clouds 25 1017 63 10000 8.23 70 22:18 07.02.2022
3871 Clouds 25 1018 65 10000 6.71 80 21:49 07.02.2022
3872 Clouds 25 1018 66 10000 6.71 80 21:27 07.02.2022
3873 Clouds 25 1017 67 10000 6.17 60 20:41 07.02.2022
3874 Clouds 24 1017 67 10000 6.17 60 20:18 07.02.2022
3875 Clouds 23 1018 69 10000 7.72 70 19:46 07.02.2022
3876 Clouds 22 1017 74 10000 7.6 50 18:24 07.02.2022
3877 Clouds 22 1016 74 10000 5.66 50 16:53 07.02.2022
3878 Clouds 22 1016 74 10000 5.66 50 16:24 07.02.2022
3879 Clouds 22 1016 72 10000 6.17 70 15:48 07.02.2022
3880 Clouds 22 1016 74 10000 8.23 50 13:39 07.02.2022
3881 Clouds 22 1017 72 10000 8.23 50 13:21 07.02.2022
3882 Clear 23 1017 73 10000 1.34 0 11:58 07.02.2022
3883 Clouds 23 1018 71 10000 1.34 13 11:37 07.02.2022
3884 Clouds 23 1018 70 10000 1.34 97 10:53 07.02.2022
3885 Clouds 23 1018 72 10000 1.79 0 10:32 07.02.2022
3886 Clouds 23 1018 71 10000 1.79 141 09:53 07.02.2022
3887 Clouds 23 1018 70 10000 2.06 80 09:18 07.02.2022
3888 Clouds 23 1018 71 10000 0.45 30 08:43 07.02.2022
3889 Clouds 23 1017 71 10000 1.79 148 07:30 07.02.2022
3890 Clouds 23 1017 69 10000 2.24 161 06:34 07.02.2022
3891 Clouds 25 1015 67 10000 0.45 89 03:49 07.02.2022
3892 Clouds 26 1016 66 10000 1.34 93 00:47 07.02.2022
3893 Clouds 26 1017 68 10000 0.89 102 23:49 06.02.2022
3894 Clouds 26 1017 69 10000 1.79 16 22:55 06.02.2022
3895 Clouds 26 1017 70 10000 1.79 55 22:34 06.02.2022
3896 Clouds 25 1018 71 10000 1.34 109 21:36 06.02.2022
3897 Clouds 24 1018 76 10000 3.58 20 20:56 06.02.2022
3898 Clouds 24 1018 74 10000 0.89 103 20:32 06.02.2022
3899 Clouds 23 1018 78 10000 0.89 147 19:40 06.02.2022
3900 Rain 22 1016 82 10000 0.89 28 18:41 06.02.2022
3901 Clouds 22 1017 82 10000 0.45 90 17:56 06.02.2022
3902 Clouds 22 1017 80 10000 3.09 50 17:21 06.02.2022
3903 Clouds 22 1017 78 10000 0.89 90 16:47 06.02.2022
3904 Clouds 22 1017 78 10000 0.89 117 15:49 06.02.2022
3905 Clouds 22 1017 79 10000 1.34 65 15:26 06.02.2022
3906 Clouds 22 1017 80 10000 1.34 32 14:45 06.02.2022
3907 Clouds 22 1016 81 10000 0.89 94 13:26 06.02.2022
3908 Rain 23 1017 81 10000 0.89 7 12:52 06.02.2022
3909 Clouds 23 1018 77 10000 0.45 103 11:32 06.02.2022
3910 Rain 23 1018 77 10000 5.14 70 10:30 06.02.2022
3911 Clouds 23 1018 74 10000 1.34 0 08:53 06.02.2022
3912 Clouds 23 1017 76 10000 0.89 75 07:51 06.02.2022
3913 Clouds 24 1016 74 10000 3.6 80 05:30 06.02.2022
3914 Clouds 24 1016 74 10000 3.6 80 05:30 06.02.2022
3915 Clouds 24 1016 73 10000 3.6 80 05:30 06.02.2022
3916 Clouds 27 1015 66 10000 5.66 30 02:26 06.02.2022
3917 Clouds 26 1016 66 10000 3.09 330 01:47 06.02.2022
3918 Clouds 27 1018 64 10000 3.6 190 00:26 06.02.2022
3919 Rain 25 1018 74 10000 2.57 50 22:22 05.02.2022
3920 Clouds 24 1016 75 10000 0 0 21:18 05.02.2022
3921 Clouds 24 1016 77 10000 2.57 300 20:24 05.02.2022
3922 Clouds 22 1016 81 10000 3.09 310 19:46 05.02.2022
3923 Clouds 20 1018 88 10000 3.09 350 18:52 05.02.2022
3924 Clouds 19 1018 91 10000 2.57 350 17:39 05.02.2022
3925 Clouds 20 1016 84 10000 2.57 330 16:48 05.02.2022
3926 Clear 20 1017 84 10000 1.54 320 15:34 05.02.2022
3927 Clear 19 1018 82 10000 0 0 14:53 05.02.2022
3928 Clear 21 1018 75 10000 1.54 320 12:47 05.02.2022
3929 Clear 21 1018 74 10000 2.06 330 11:49 05.02.2022
3930 Clear 22 1018 71 10000 1.54 340 10:47 05.02.2022
3931 Clear 21 1018 78 10000 0 0 09:53 05.02.2022
3932 Clear 22 1018 78 10000 0 0 09:29 05.02.2022
3933 Clouds 22 1018 75 10000 2.06 40 07:38 05.02.2022
3934 Clear 22 1017 78 10000 1.34 170 06:56 05.02.2022
3935 Clouds 26 1016 64 10000 4.02 200 03:55 05.02.2022
3936 Clouds 27 1016 57 10000 3.6 200 01:19 05.02.2022
3937 Clouds 27 1017 57 10000 3.6 210 00:42 05.02.2022
3938 Clouds 26 1018 58 10000 2.06 200 23:38 04.02.2022
3939 Clouds 26 1018 59 10000 2.06 200 23:20 04.02.2022
3940 Clouds 25 1019 61 10000 0 0 21:37 04.02.2022
3941 Clouds 25 1019 61 10000 0 0 21:18 04.02.2022
3942 Clear 24 1018 67 10000 0 0 20:46 04.02.2022
3943 Clouds 21 1017 80 10000 1.54 320 19:33 04.02.2022
3944 Clear 19 1016 83 10000 0 0 17:27 04.02.2022
3945 Clear 19 1015 84 10000 2.06 350 15:38 04.02.2022
3946 Clear 19 1016 78 10000 2.06 320 14:51 04.02.2022
3947 Clear 20 1017 79 10000 2.06 360 12:43 04.02.2022
3948 Clear 20 1017 80 10000 1.54 330 11:46 04.02.2022
3949 Clear 20 1017 78 10000 1.54 330 11:18 04.02.2022
3950 Clear 20 1017 76 10000 1.54 320 10:30 04.02.2022
3951 Clouds 21 1016 72 10000 2.06 40 08:33 04.02.2022
3952 Clouds 25 1014 62 10000 4.63 60 04:52 04.02.2022
3953 Clouds 26 1015 51 10000 3.09 10 02:38 04.02.2022
3954 Clouds 26 1016 48 10000 3.09 60 00:18 04.02.2022
3955 Clouds 26 1018 51 10000 4.63 80 22:52 03.02.2022
3956 Clear 25 1018 58 10000 6.71 70 21:59 03.02.2022
3957 Clouds 25 1018 57 10000 6.69 70 21:37 03.02.2022
3958 Clouds 24 1017 60 10000 4.63 50 20:22 03.02.2022
3959 Clouds 23 1017 68 10000 0.89 0 19:49 03.02.2022
3960 Clouds 22 1017 72 10000 0 0 19:20 03.02.2022
3961 Clear 20 1015 80 10000 5.25 60 17:59 03.02.2022
3962 Clouds 20 1016 79 10000 0.45 358 17:19 03.02.2022
3963 Clouds 20 1015 80 10000 0 0 15:34 03.02.2022
3964 Clouds 21 1015 81 10000 1.54 300 14:18 03.02.2022
3965 Clouds 22 1016 76 10000 0.45 38 12:32 03.02.2022
3966 Clouds 23 1016 74 10000 1.54 50 08:56 03.02.2022
3967 Clear 23 1015 74 10000 2.06 10 07:43 03.02.2022
3968 Clouds 26 1015 61 10000 4.12 170 00:49 03.02.2022
3969 Clouds 26 1015 61 10000 4.12 170 00:22 03.02.2022
3970 Clouds 27 1016 60 10000 2.06 40 22:39 02.02.2022
3971 Clouds 26 1017 65 10000 1.54 350 21:51 02.02.2022
3972 Clouds 25 1017 67 10000 1.54 350 21:29 02.02.2022
3973 Clouds 23 1016 74 10000 2.06 290 20:27 02.02.2022
3974 Clouds 23 1016 79 10000 1.54 350 19:46 02.02.2022
3975 Clouds 21 1015 85 10000 1.79 70 18:56 02.02.2022
3976 Clouds 21 1015 84 10000 2.06 70 18:24 02.02.2022
3977 Clouds 21 1015 82 10000 2.57 40 17:20 02.02.2022
3978 Clouds 22 1014 81 10000 3.6 70 16:56 02.02.2022
3979 Clouds 22 1014 80 10000 0.45 123 15:23 02.02.2022
3980 Clouds 22 1015 78 10000 2.06 30 12:30 02.02.2022
3981 Clouds 23 1015 75 10000 0.45 93 11:48 02.02.2022
3982 Clouds 23 1015 75 10000 0.89 162 11:30 02.02.2022
3983 Clouds 23 1015 75 10000 0.89 162 11:30 02.02.2022
3984 Clouds 23 1015 75 10000 4.63 60 08:30 02.02.2022
3985 Clouds 27 1014 61 10000 7.2 70 01:46 02.02.2022
3986 Clouds 26 1016 58 10000 6.17 90 22:29 01.02.2022
3987 Clouds 24 1016 70 10000 4.12 90 20:51 01.02.2022
3988 Clouds 20 1016 84 10000 2.06 0 19:23 01.02.2022
3989 Clouds 19 1016 87 10000 2.06 270 16:56 01.02.2022
3990 Clouds 20 1015 84 10000 2.06 270 16:19 01.02.2022
3991 Clouds 21 1015 83 10000 4.12 90 12:56 01.02.2022
3992 Clouds 21 1016 82 10000 1.54 310 11:51 01.02.2022
3993 Clouds 22 1016 78 10000 2.06 30 08:37 01.02.2022
3994 Clouds 26 1014 63 10000 4.63 210 00:28 01.02.2022
3995 Clouds 25 1016 63 10000 4.12 190 23:36 31.01.2022
3996 Clouds 25 1015 66 10000 3.6 210 22:30 31.01.2022
3997 Clouds 25 1017 65 10000 0 0 21:34 31.01.2022
3998 Clouds 24 1016 71 10000 2.57 0 20:34 31.01.2022
3999 Clouds 22 1016 78 10000 2.06 340 19:46 31.01.2022
4000 Clouds 20 1015 84 10000 0 0 18:31 31.01.2022
4001 Clouds 20 1013 86 10000 1.58 35 17:55 31.01.2022
4002 Clear 19 1013 87 10000 1.34 320 16:58 31.01.2022
4003 Clouds 20 1013 84 10000 2.06 340 15:46 31.01.2022
4004 Clouds 20 1014 81 10000 2.57 330 14:27 31.01.2022
4005 Clouds 21 1014 83 10000 1.79 330 12:55 31.01.2022
4006 Clouds 20 1015 86 10000 0.9 59 11:59 31.01.2022
4007 Clear 21 1016 80 10000 3.09 80 10:54 31.01.2022
4008 Clouds 21 1016 77 10000 1.54 0 10:36 31.01.2022
4009 Clouds 22 1015 76 10000 1.54 300 09:34 31.01.2022
4010 Clouds 22 1015 76 10000 1.54 350 08:52 31.01.2022
4011 Clouds 22 1015 75 10000 1.54 350 08:20 31.01.2022
4012 Clouds 23 1015 73 10000 3.6 40 06:36 31.01.2022
4013 Clouds 24 1014 69 10000 3.6 140 05:20 31.01.2022
4014 Clouds 26 1017 58 10000 5.66 130 23:20 30.01.2022
4015 Clouds 26 1015 56 10000 6.17 140 22:30 30.01.2022
4016 Clouds 26 1015 55 10000 6.17 140 22:30 30.01.2022
4017 Clouds 26 1015 61 10000 6.17 120 21:43 30.01.2022
4018 Clouds 25 1016 60 10000 6.17 120 21:20 30.01.2022
4019 Clouds 25 1017 66 10000 4.12 110 20:50 30.01.2022
4020 Clouds 25 1017 66 10000 4.12 110 20:29 30.01.2022
4021 Clouds 23 1016 70 10000 2.06 0 19:52 30.01.2022
4022 Clouds 21 1015 71 10000 0 0 18:44 30.01.2022
4023 Clouds 21 1015 73 10000 0 0 18:20 30.01.2022
4024 Clouds 21 1015 72 10000 2.57 90 17:28 30.01.2022
4025 Clouds 21 1015 71 10000 0.89 89 16:40 30.01.2022
4026 Clouds 21 1015 71 10000 0.89 114 16:22 30.01.2022
4027 Clear 21 1015 72 10000 0.89 123 15:51 30.01.2022
4028 Clear 21 1015 71 10000 0.89 72 15:32 30.01.2022
4029 Clouds 22 1015 70 10000 0.89 0 14:46 30.01.2022
4030 Clouds 22 1016 73 10000 2.06 340 12:47 30.01.2022
4031 Clouds 22 1018 73 10000 0.89 337 12:25 30.01.2022
4032 Clouds 22 1019 76 10000 0.89 41 10:36 30.01.2022
4033 Clear 22 1019 76 10000 1.79 40 09:56 30.01.2022
4034 Clear 22 1018 74 10000 4.02 80 08:56 30.01.2022
4035 Clear 22 1018 73 10000 0.89 92 07:55 30.01.2022
4036 Clouds 26 1015 61 10000 6.69 130 02:29 30.01.2022
4037 Clouds 27 1016 61 10000 6.69 130 00:41 30.01.2022
4038 Clouds 27 1018 60 10000 0.45 203 23:20 29.01.2022
4039 Clear 26 1019 64 10000 5.83 98 21:58 29.01.2022
4040 Clouds 26 1017 62 10000 6.17 90 21:25 29.01.2022
4041 Clouds 25 1017 64 10000 0.45 144 20:35 29.01.2022
4042 Clouds 24 1019 70 10000 0.45 125 19:35 29.01.2022
4043 Clouds 23 1018 74 10000 0.45 103 18:53 29.01.2022
4044 Clouds 22 1018 75 10000 0.89 82 18:24 29.01.2022
4045 Clouds 22 1017 76 10000 1.34 99 17:35 29.01.2022
4046 Clouds 22 1015 76 10000 0.89 14 16:37 29.01.2022
4047 Clouds 23 1017 73 10000 0.89 102 14:23 29.01.2022
4048 Clouds 23 1018 76 10000 0.89 92 13:45 29.01.2022
4049 Clouds 23 1018 76 10000 1.34 86 13:24 29.01.2022
4050 Clouds 23 1018 79 10000 0.89 73 11:50 29.01.2022
4051 Clouds 23 1018 80 10000 0 0 11:24 29.01.2022
4052 Clouds 23 1018 81 10000 2.68 320 08:57 29.01.2022
4053 Clouds 23 1014 76 10000 2.57 150 06:55 29.01.2022
4054 Clouds 27 1017 62 10000 5.66 150 00:36 29.01.2022
4055 Clouds 26 1019 61 10000 5.14 150 23:52 28.01.2022
4056 Clouds 26 1020 62 10000 5.66 90 22:50 28.01.2022
4057 Clouds 26 1020 65 10000 5.66 90 22:21 28.01.2022
4058 Clouds 25 1016 67 10000 1.54 0 21:36 28.01.2022
4059 Clouds 23 1017 76 10000 2.06 320 20:29 28.01.2022
4060 Clouds 20 1017 90 10000 2.06 300 19:31 28.01.2022
4061 Clouds 20 1017 84 10000 2.06 330 18:43 28.01.2022
4062 Clouds 20 1015 86 10000 1.79 310 16:54 28.01.2022
4063 Clear 19 1016 86 10000 1.54 350 15:20 28.01.2022
4064 Clouds 21 1016 86 10000 0 0 13:50 28.01.2022
4065 Clouds 21 1018 86 10000 1.54 20 12:29 28.01.2022
4066 Clouds 21 1019 83 10000 2.06 340 10:49 28.01.2022
4067 Clouds 22 1018 85 10000 1.54 350 09:49 28.01.2022
4068 Clouds 23 1015 77 10000 1.54 40 07:43 28.01.2022
4069 Clouds 24 1015 74 10000 3.6 70 06:39 28.01.2022
4070 Clouds 26 1014 69 10000 4.12 220 03:53 28.01.2022
4071 Clouds 26 1015 63 10000 0.89 114 02:30 28.01.2022
4072 Clouds 26 1015 65 10000 4.02 160 01:57 28.01.2022
4073 Clouds 26 1017 61 10000 4.12 160 01:30 28.01.2022
4074 Clouds 26 1019 61 10000 2.57 190 22:47 27.01.2022
4075 Clouds 26 1016 62 10000 0 0 21:45 27.01.2022
4076 Clouds 25 1016 64 10000 0 0 21:26 27.01.2022
4077 Clouds 23 1016 71 10000 1.54 330 20:23 27.01.2022
4078 Clouds 19 1016 85 10000 2.06 310 18:23 27.01.2022
4079 Clouds 20 1014 81 10000 2.57 320 17:18 27.01.2022
4080 Clear 20 1015 84 10000 2.06 340 14:24 27.01.2022
4081 Clear 20 1016 85 10000 2.57 350 13:19 27.01.2022
4082 Clear 21 1015 80 10000 2.57 360 12:20 27.01.2022
4083 Clouds 22 1017 76 10000 0.45 120 09:51 27.01.2022
4084 Clouds 22 1017 76 10000 2.06 30 08:40 27.01.2022
4085 Clear 22 1016 81 10000 2.68 40 07:58 27.01.2022
4086 Clouds 26 1014 60 10000 0.45 102 03:34 27.01.2022
4087 Clouds 26 1016 57 10000 5.14 60 00:24 27.01.2022
4088 Clouds 26 1017 60 10000 5.66 110 22:28 26.01.2022
4089 Clouds 25 1018 65 10000 4.63 80 21:44 26.01.2022
4090 Clouds 25 1017 70 10000 4.63 60 20:52 26.01.2022
4091 Clouds 24 1017 71 10000 0.89 107 20:33 26.01.2022
4092 Clouds 23 1017 75 10000 0.89 99 19:49 26.01.2022
4093 Clouds 22 1016 78 10000 0.89 39 18:48 26.01.2022
4094 Clouds 22 1016 78 10000 0.89 110 18:24 26.01.2022
4095 Clouds 22 1015 77 10000 0.89 113 17:33 26.01.2022
4096 Clouds 22 1014 80 10000 1.34 30 16:56 26.01.2022
4097 Clouds 22 1014 81 10000 0.45 102 16:23 26.01.2022
4098 Clouds 22 1015 81 10000 1.34 133 14:40 26.01.2022
4099 Rain 22 1016 85 10000 1.34 100 12:20 26.01.2022
4100 Rain 23 1017 82 10000 0.45 83 10:52 26.01.2022
4101 Rain 23 1017 82 10000 0.45 83 10:52 26.01.2022
4102 Clouds 23 1016 80 10000 0.45 102 09:52 26.01.2022
4103 Clouds 23 1017 79 10000 0.89 93 08:49 26.01.2022
4104 Clouds 23 1016 76 10000 0.45 83 06:42 26.01.2022
4105 Clouds 25 1015 68 10000 5.66 40 00:24 26.01.2022
4106 Clouds 26 1016 66 10000 0.89 140 23:41 25.01.2022
4107 Clouds 26 1016 60 10000 6.17 60 22:48 25.01.2022
4108 Clouds 26 1016 63 10000 6.17 60 22:18 25.01.2022
4109 Clouds 25 1019 68 10000 4.63 50 21:27 25.01.2022
4110 Clouds 24 1018 71 10000 1.79 0 20:45 25.01.2022
4111 Clouds 24 1017 75 10000 0.89 18 19:54 25.01.2022
4112 Clouds 23 1017 76 10000 1.79 52 19:23 25.01.2022
4113 Clouds 22 1017 81 10000 0 0 17:56 25.01.2022
4114 Clouds 21 1017 82 10000 0 0 17:18 25.01.2022
4115 Clouds 21 1017 85 10000 2.57 310 16:34 25.01.2022
4116 Clouds 21 1016 85 10000 0.45 127 15:39 25.01.2022
4117 Rain 21 1017 85 10000 0.89 114 15:18 25.01.2022
4118 Rain 21 1018 84 10000 2.06 320 14:43 25.01.2022
4119 Clouds 22 1018 77 10000 0.89 99 11:52 25.01.2022
4120 Clouds 22 1018 77 10000 1.54 350 09:21 25.01.2022
4121 Clouds 23 1018 71 10000 3.6 20 07:46 25.01.2022
4122 Clouds 23 1017 68 10000 4.63 40 06:54 25.01.2022
4123 Clouds 23 1016 66 10000 5.14 40 05:23 25.01.2022
4124 Clouds 26 1018 53 10000 5.66 30 00:28 25.01.2022
4125 Clouds 26 1019 53 10000 6.17 30 23:36 24.01.2022
4126 Clouds 25 1019 53 10000 6.17 30 23:18 24.01.2022
4127 Clouds 25 1018 56 10000 1.34 152 22:42 24.01.2022
4128 Clear 25 1018 59 10000 1.34 48 21:57 24.01.2022
4129 Clouds 25 1019 57 10000 1.34 113 21:32 24.01.2022
4130 Clouds 24 1018 60 10000 6.17 70 20:34 24.01.2022
4131 Clouds 23 1018 62 10000 1.34 109 19:58 24.01.2022
4132 Clouds 22 1018 63 10000 0.89 110 19:37 24.01.2022
4133 Clouds 21 1018 69 10000 2.06 350 18:37 24.01.2022
4134 Clouds 21 1017 69 10000 0.89 6 17:24 24.01.2022
4135 Clouds 22 1016 69 10000 1.79 10 16:55 24.01.2022
4136 Clear 21 1017 70 10000 0.89 14 16:29 24.01.2022
4137 Clouds 22 1016 72 10000 0.89 99 14:49 24.01.2022
4138 Clouds 22 1017 73 10000 0.89 337 13:38 24.01.2022
4139 Clouds 22 1017 76 10000 0.89 345 12:32 24.01.2022
4140 Clouds 22 1017 76 10000 0.89 148 11:20 24.01.2022
4141 Clouds 22 1018 77 10000 1.79 80 09:49 24.01.2022
4142 Clear 23 1018 78 10000 0.45 32 08:54 24.01.2022
4143 Clouds 23 1018 75 10000 0.45 110 07:19 24.01.2022
4144 Clouds 27 1016 63 10000 6.17 60 01:31 24.01.2022
4145 Clouds 27 1017 62 10000 5.14 50 00:45 24.01.2022
4146 Clouds 26 1017 64 10000 0.89 107 00:26 24.01.2022
4147 Clouds 26 1019 68 10000 5.14 50 22:43 23.01.2022
4148 Clouds 26 1018 70 10000 0.89 69 21:50 23.01.2022
4149 Clouds 25 1019 72 10000 1.34 103 21:26 23.01.2022
4150 Clouds 25 1018 73 10000 0.89 124 20:48 23.01.2022
4151 Clouds 24 1018 75 10000 0.89 39 19:54 23.01.2022
4152 Clouds 22 1018 80 10000 0.45 90 18:52 23.01.2022
4153 Clouds 22 1017 78 10000 0.89 79 17:50 23.01.2022
4154 Clouds 21 1017 82 10000 0.45 106 16:48 23.01.2022
4155 Clear 22 1017 77 10000 1.34 102 15:18 23.01.2022
4156 Clear 22 1017 76 10000 1.34 89 14:31 23.01.2022
4157 Clear 22 1017 76 10000 1.34 89 14:31 23.01.2022
4158 Clear 22 1017 80 10000 0.89 138 13:22 23.01.2022
4159 Clouds 22 1017 77 10000 0.89 96 12:36 23.01.2022
4160 Clouds 22 1017 79 10000 0.89 118 12:18 23.01.2022
4161 Clouds 22 1018 77 10000 1.34 110 11:23 23.01.2022
4162 Clouds 23 1018 76 10000 0.45 39 10:28 23.01.2022
4163 Clouds 23 1017 74 10000 0.89 83 09:52 23.01.2022
4164 Clouds 23 1016 77 10000 1.34 13 08:59 23.01.2022
4165 Clouds 24 1015 76 10000 0.45 357 05:58 23.01.2022
4166 Clouds 26 1015 65 10000 4.92 90 01:53 23.01.2022
4167 Clouds 27 1015 64 10000 0.89 151 01:33 23.01.2022
4168 Clouds 27 1017 64 10000 5.66 60 00:23 23.01.2022
4169 Clouds 26 1016 66 10000 1.34 76 23:57 22.01.2022
4170 Clouds 26 1018 62 10000 5.14 70 22:46 22.01.2022
4171 Clouds 26 1018 68 10000 1.54 50 21:38 22.01.2022
4172 Clouds 25 1017 73 10000 0.89 145 20:23 22.01.2022
4173 Clouds 23 1017 82 10000 2.06 330 19:21 22.01.2022
4174 Clouds 21 1016 87 10000 0.45 128 18:25 22.01.2022
4175 Clouds 21 1016 87 10000 0.45 111 17:41 22.01.2022
4176 Clear 22 1015 82 10000 1.79 320 16:56 22.01.2022
4177 Clouds 22 1015 83 10000 2.57 50 15:53 22.01.2022
4178 Clouds 22 1015 83 10000 0.45 145 15:32 22.01.2022
4179 Clouds 22 1016 83 10000 0 0 13:51 22.01.2022
4180 Clouds 22 1015 83 10000 0.45 65 12:53 22.01.2022
4181 Clouds 22 1016 82 10000 1.54 0 12:29 22.01.2022
4182 Clouds 22 1016 81 10000 0.89 350 11:44 22.01.2022
4183 Clouds 22 1017 82 10000 0.45 78 10:29 22.01.2022
4184 Clear 23 1016 81 10000 4.53 66 09:59 22.01.2022
4185 Clouds 23 1016 80 10000 0.45 103 08:53 22.01.2022
4186 Clouds 23 1017 78 10000 0.45 79 07:39 22.01.2022
4187 Clouds 25 1015 73 10000 0.45 176 04:53 22.01.2022
4188 Clouds 28 1016 58 10000 4.63 350 01:49 22.01.2022
4189 Clouds 26 1018 65 10000 3.6 180 23:45 21.01.2022
4190 Clouds 27 1018 62 10000 0 0 22:36 21.01.2022
4191 Clouds 23 1018 82 10000 1.54 320 20:32 21.01.2022
4192 Clouds 20 1017 85 10000 2.06 10 18:40 21.01.2022
4193 Clear 20 1016 88 10000 0 0 17:41 21.01.2022
4194 Clear 21 1015 87 10000 1.54 10 15:44 21.01.2022
4195 Clouds 21 1017 87 10000 0 0 13:51 21.01.2022
4196 Clouds 21 1017 87 10000 0 0 13:51 21.01.2022
4197 Clouds 22 1017 83 10000 2.06 350 12:39 21.01.2022
4198 Clouds 22 1017 87 10000 2.06 290 11:28 21.01.2022
4199 Clouds 22 1017 84 10000 0 0 10:20 21.01.2022
4200 Clouds 23 1016 82 10000 1.54 250 08:25 21.01.2022
4201 Clouds 24 1012 83 10000 2.24 230 06:57 21.01.2022
4202 Clouds 26 1014 71 10000 4.12 160 23:40 20.01.2022
4203 Clouds 25 1014 71 10000 3.09 160 22:44 20.01.2022
4204 Clouds 25 1016 74 10000 0.45 192 21:47 20.01.2022
4205 Clouds 25 1016 76 10000 1.54 360 20:56 20.01.2022
4206 Clouds 22 1015 84 10000 1.54 0 19:20 20.01.2022
4207 Clear 21 1015 84 10000 2.57 350 18:51 20.01.2022
4208 Clear 20 1014 89 10000 1.54 350 17:30 20.01.2022
4209 Clouds 20 1014 86 10000 1.54 350 15:44 20.01.2022
4210 Clouds 20 1014 85 10000 1.54 350 15:22 20.01.2022
4211 Clouds 21 1014 87 10000 1.54 320 13:41 20.01.2022
4212 Clouds 21 1013 89 10000 2.06 350 12:35 20.01.2022
4213 Clouds 22 1013 88 10000 1.34 360 11:57 20.01.2022
4214 Clouds 22 1015 85 10000 0 0 10:40 20.01.2022
4215 Clouds 22 1010 84 10000 0 0 09:40 20.01.2022
4216 Clouds 22 1010 84 10000 1.54 30 08:32 20.01.2022
4217 Clouds 25 1012 76 10000 3.09 210 05:32 20.01.2022
4218 Clouds 27 1015 61 10000 4.12 150 23:35 19.01.2022
4219 Clouds 26 1015 65 10000 2.57 180 22:32 19.01.2022
4220 Clouds 26 1016 67 10000 1.54 0 21:24 19.01.2022
4221 Clouds 25 1015 70 10000 1.54 20 20:50 19.01.2022
4222 Clear 24 1013 79 10000 0.89 140 19:54 19.01.2022
4223 Clouds 21 1014 77 10000 0 0 18:40 19.01.2022
4224 Clouds 21 1014 84 10000 2.06 340 17:45 19.01.2022
4225 Clouds 20 1013 86 10000 1.54 340 16:48 19.01.2022
4226 Clouds 21 1013 86 10000 2.06 320 14:42 19.01.2022
4227 Clear 21 1014 82 10000 2.06 350 12:43 19.01.2022
4228 Clear 21 1014 81 10000 2.06 350 11:41 19.01.2022
4229 Clear 22 1014 81 10000 1.54 340 10:23 19.01.2022
4230 Clear 22 1014 77 10000 1.54 320 09:34 19.01.2022
4231 Clear 23 1012 78 10000 1.54 130 06:45 19.01.2022
4232 Clouds 26 1012 66 10000 3.6 170 02:38 19.01.2022
4233 Clouds 26 1013 63 10000 3.6 190 23:19 18.01.2022
4234 Clouds 25 1013 69 10000 2.57 160 22:19 18.01.2022
4235 Clear 25 1012 75 10000 1.34 360 20:58 18.01.2022
4236 Clear 24 1013 78 10000 1.54 180 19:54 18.01.2022
4237 Clear 23 1013 78 10000 0 0 19:36 18.01.2022
4238 Clear 21 1013 84 10000 0 0 18:51 18.01.2022
4239 Clear 20 1011 89 10000 1.79 360 17:58 18.01.2022
4240 Clear 20 1012 89 10000 1.54 350 16:40 18.01.2022
4241 Clear 20 1011 85 10000 0 0 15:41 18.01.2022
4242 Clear 21 1012 86 10000 0 0 15:21 18.01.2022
4243 Clear 20 1015 82 10000 2.06 360 12:33 18.01.2022
4244 Clouds 21 1014 81 10000 2.06 350 10:47 18.01.2022
4245 Clear 22 1012 80 10000 1.54 30 08:49 18.01.2022
4246 Clear 22 1013 79 10000 1.54 140 07:49 18.01.2022
4247 Clouds 26 1011 65 10000 3.6 140 02:33 18.01.2022
4248 Clouds 26 1015 70 10000 4.12 160 23:38 17.01.2022
4249 Clouds 25 1016 70 10000 3.6 120 22:26 17.01.2022
4250 Clouds 25 1015 72 10000 0 0 21:33 17.01.2022
4251 Clear 23 1013 84 10000 0 0 19:57 17.01.2022
4252 Clouds 20 1014 86 10000 2.06 350 18:30 17.01.2022
4253 Clear 20 1012 84 10000 0 0 17:25 17.01.2022
4254 Clear 20 1012 84 10000 2.06 350 16:35 17.01.2022
4255 Clear 20 1012 87 10000 0 0 15:18 17.01.2022
4256 Clear 20 1012 86 10000 2.06 350 14:43 17.01.2022
4257 Clear 20 1013 82 10000 1.54 340 13:20 17.01.2022
4258 Clouds 21 1013 84 10000 1.29 82 12:55 17.01.2022
4259 Clear 21 1014 79 10000 1.54 360 11:48 17.01.2022
4260 Clear 22 1014 80 10000 0 0 10:21 17.01.2022
4261 Clear 22 1014 79 10000 1.54 10 09:33 17.01.2022
4262 Clouds 23 1013 77 10000 0 0 07:22 17.01.2022
4263 Clouds 26 1013 60 10000 2.68 180 02:54 17.01.2022
4264 Clear 26 1014 56 10000 3.58 170 00:55 17.01.2022
4265 Clear 26 1017 65 10000 0.53 115 22:18 16.01.2022
4266 Clouds 23 1015 76 10000 1.54 20 20:34 16.01.2022
4267 Clouds 21 1014 84 10000 1.54 340 18:51 16.01.2022
4268 Clouds 19 1014 90 10000 2.06 350 17:57 16.01.2022
4269 Clear 21 1012 84 10000 1.62 32 16:59 16.01.2022
4270 Clouds 18 1015 90 10000 2.57 320 16:20 16.01.2022
4271 Clear 20 1014 85 10000 2.06 300 14:30 16.01.2022
4272 Clear 20 1014 87 10000 0 0 13:34 16.01.2022
4273 Clouds 20 1016 88 10000 0 0 12:27 16.01.2022
4274 Clouds 21 1017 86 10000 2.06 320 11:38 16.01.2022
4275 Clouds 21 1017 85 10000 1.54 10 10:46 16.01.2022
4276 Clear 22 1015 85 10000 1.79 320 09:59 16.01.2022
4277 Clouds 22 1015 84 10000 2.06 320 09:38 16.01.2022
4278 Clouds 22 1015 84 10000 2.06 320 09:20 16.01.2022
4279 Clouds 22 1015 83 10000 2.57 20 07:21 16.01.2022
4280 Clouds 25 1015 70 10000 4.12 210 00:36 16.01.2022
4281 Clear 25 1016 67 10000 2.24 180 22:55 15.01.2022
4282 Clouds 24 1017 71 10000 1.54 120 21:22 15.01.2022
4283 Clouds 23 1016 80 10000 1.54 360 20:45 15.01.2022
4284 Clouds 23 1016 79 10000 1.54 360 20:22 15.01.2022
4285 Clear 20 1015 90 10000 2.57 10 19:27 15.01.2022
4286 Clear 20 1014 92 10000 0 0 18:20 15.01.2022
4287 Clouds 20 1014 92 10000 0 0 16:49 15.01.2022
4288 Clouds 20 1014 92 10000 0 0 16:49 15.01.2022
4289 Clouds 20 1016 93 10000 0 0 14:38 15.01.2022
4290 Clouds 20 1016 94 10000 1.54 300 12:52 15.01.2022
4291 Clouds 21 1015 91 10000 1.54 10 11:32 15.01.2022
4292 Clouds 21 1015 94 10000 1.54 330 09:46 15.01.2022
4293 Rain 24 1014 78 10000 0.45 172 04:46 15.01.2022
4294 Clouds 26 1016 67 10000 4.63 160 23:21 14.01.2022
4295 Clouds 25 1018 76 10000 0 0 21:18 14.01.2022
4296 Clouds 23 1018 82 10000 2.06 340 20:25 14.01.2022
4297 Clouds 21 1018 87 10000 0 0 19:50 14.01.2022
4298 Clouds 20 1018 90 10000 1.54 310 18:38 14.01.2022
4299 Clouds 20 1017 89 10000 1.54 360 17:21 14.01.2022
4300 Clouds 20 1015 90 10000 2.06 330 16:40 14.01.2022
4301 Clouds 20 1015 90 10000 2.06 360 15:30 14.01.2022
4302 Clouds 21 1015 87 10000 1.54 330 14:25 14.01.2022
4303 Clouds 21 1015 87 10000 2.06 320 12:47 14.01.2022
4304 Clouds 21 1015 87 10000 2.57 340 11:51 14.01.2022
4305 Clouds 21 1018 84 10000 1.54 350 10:24 14.01.2022
4306 Clouds 22 1018 81 10000 1.54 30 08:52 14.01.2022
4307 Clouds 22 1014 80 10000 2.06 30 07:29 14.01.2022
4308 Clouds 26 1016 66 10000 3.6 170 01:43 14.01.2022
4309 Clouds 26 1016 63 10000 2.57 170 23:40 13.01.2022
4310 Clouds 25 1018 71 10000 0 0 21:46 13.01.2022
4311 Clouds 25 1018 71 10000 0 0 21:27 13.01.2022
4312 Clouds 21 1017 85 10000 2.57 330 19:44 13.01.2022
4313 Clouds 20 1018 91 10000 2.57 330 19:23 13.01.2022
4314 Clouds 20 1017 84 10000 1.54 350 18:33 13.01.2022
4315 Mist 19 1016 88 10000 0 0 16:43 13.01.2022
4316 Clouds 20 1017 90 10000 0 0 15:38 13.01.2022
4317 Clouds 20 1015 90 10000 2.57 350 14:50 13.01.2022
4318 Clouds 20 1015 90 10000 2.57 350 14:50 13.01.2022
4319 Clouds 21 1018 87 10000 2.06 340 12:54 13.01.2022
4320 Clouds 21 1019 84 10000 3.09 80 10:29 13.01.2022
4321 Clouds 22 1019 84 10000 3.09 110 09:22 13.01.2022
4322 Rain 22 1019 81 10000 0 0 08:28 13.01.2022
4323 Clouds 23 1019 82 10000 1.54 360 07:25 13.01.2022
4324 Clouds 23 1019 83 10000 2.57 60 06:41 13.01.2022
4325 Rain 23 1018 80 2414 0 0 05:20 13.01.2022
4326 Clouds 25 1017 75 10000 4.12 220 03:24 13.01.2022
4327 Clouds 25 1018 78 10000 4.63 70 00:56 13.01.2022
4328 Clouds 26 1018 70 10000 4.12 140 23:50 12.01.2022
4329 Clouds 26 1018 67 10000 4.12 140 23:30 12.01.2022
4330 Clouds 25 1020 72 10000 0 0 21:58 12.01.2022
4331 Clouds 25 1020 73 10000 0 0 21:23 12.01.2022
4332 Clouds 24 1020 77 10000 1.79 330 20:57 12.01.2022
4333 Rain 21 1019 87 8047 2.68 340 19:57 12.01.2022
4334 Clouds 20 1019 85 10000 1.54 310 18:43 12.01.2022
4335 Clear 19 1017 88 10000 2.06 340 17:51 12.01.2022
4336 Clear 19 1018 86 10000 1.54 330 16:39 12.01.2022
4337 Clear 20 1018 84 10000 0 0 14:49 12.01.2022
4338 Clear 20 1019 81 10000 1.54 320 13:34 12.01.2022
4339 Clouds 21 1019 78 10000 3.09 60 12:34 12.01.2022
4340 Clouds 22 1020 72 10000 2.57 90 08:45 12.01.2022
4341 Clouds 22 1019 67 10000 4.63 50 07:52 12.01.2022
4342 Clouds 22 1019 67 10000 4.63 50 07:32 12.01.2022
4343 Clouds 25 1018 58 10000 5.66 30 01:26 12.01.2022
4344 Clouds 26 1019 55 10000 4.63 40 23:25 11.01.2022
4345 Clouds 26 1020 57 10000 4.12 360 22:24 11.01.2022
4346 Clouds 25 1020 61 10000 3.09 360 21:25 11.01.2022
4347 Clouds 23 1020 67 10000 2.57 340 20:33 11.01.2022
4348 Clouds 20 1019 80 10000 3.09 360 18:48 11.01.2022
4349 Clouds 19 1019 87 10000 2.57 360 17:42 11.01.2022
4350 Clouds 19 1019 87 10000 2.57 360 16:38 11.01.2022
4351 Clouds 20 1019 89 10000 5.24 359 15:59 11.01.2022
4352 Clouds 20 1018 86 10000 2.57 320 14:43 11.01.2022
4353 Clear 20 1018 85 10000 1.34 330 13:58 11.01.2022
4354 Clouds 20 1018 83 10000 1.54 330 13:39 11.01.2022
4355 Clouds 20 1018 83 10000 1.54 330 13:21 11.01.2022
4356 Clouds 20 1019 82 10000 0 0 12:22 11.01.2022
4357 Clouds 21 1019 82 10000 2.57 40 10:24 11.01.2022
4358 Clouds 24 1018 77 10000 4.12 240 07:35 11.01.2022
4359 Clouds 26 1016 73 10000 3.6 190 00:43 11.01.2022
4360 Clouds 26 1016 72 10000 3.6 190 00:21 11.01.2022
4361 Clouds 26 1016 66 10000 3.6 220 23:28 10.01.2022
4362 Clouds 25 1017 72 10000 2.06 190 22:19 10.01.2022
4363 Clouds 25 1016 74 10000 1.79 190 21:54 10.01.2022
4364 Clouds 24 1016 74 10000 2.06 190 21:31 10.01.2022
4365 Clear 25 1016 73 10000 3.49 234 20:58 10.01.2022
4366 Clouds 24 1016 75 10000 0 0 20:29 10.01.2022
4367 Clouds 21 1016 83 10000 1.54 350 19:45 10.01.2022
4368 Clouds 21 1016 84 10000 1.54 350 19:21 10.01.2022
4369 Clouds 20 1015 86 10000 0 0 18:50 10.01.2022
4370 Clouds 20 1015 87 10000 0 0 17:56 10.01.2022
4371 Clouds 20 1015 88 10000 0 0 16:42 10.01.2022
4372 Clouds 20 1014 88 10000 0 0 15:49 10.01.2022
4373 Clouds 20 1014 87 10000 1.54 360 14:34 10.01.2022
4374 Clouds 20 1015 85 10000 0 0 12:22 10.01.2022
4375 Clouds 21 1015 85 10000 0 0 11:25 10.01.2022
4376 Clouds 21 1015 81 10000 1.54 300 09:53 10.01.2022
4377 Clouds 22 1013 77 10000 2.06 210 08:22 10.01.2022
4378 Clouds 24 1013 70 10000 2.57 210 05:50 10.01.2022
4379 Clouds 26 1013 61 10000 3.09 210 01:33 10.01.2022
4380 Clouds 26 1013 64 10000 2.57 170 00:29 10.01.2022
4381 Clouds 26 1013 60 10000 1.54 0 23:43 09.01.2022
4382 Clouds 25 1014 68 10000 2.06 150 22:40 09.01.2022
4383 Clouds 25 1015 70 10000 1.54 170 21:47 09.01.2022
4384 Clouds 25 1015 71 10000 1.54 170 21:24 09.01.2022
4385 Clouds 25 1015 71 10000 1.54 170 21:24 09.01.2022
4386 Clouds 23 1015 77 10000 0 0 20:53 09.01.2022
4387 Clouds 23 1015 78 10000 0 0 20:34 09.01.2022
4388 Clouds 20 1014 88 10000 2.06 350 19:45 09.01.2022
4389 Clouds 20 1014 90 10000 2.06 350 19:23 09.01.2022
4390 Clouds 19 1014 88 10000 0 0 18:56 09.01.2022
4391 Clouds 19 1014 89 10000 0 0 18:35 09.01.2022
4392 Clouds 19 1013 90 10000 2.06 310 17:45 09.01.2022
4393 Clouds 19 1013 90 10000 2.06 310 17:21 09.01.2022
4394 Clouds 20 1012 88 10000 1.34 350 15:59 09.01.2022
4395 Clouds 20 1013 86 10000 1.54 350 15:36 09.01.2022
4396 Clouds 20 1013 87 10000 2.06 350 14:41 09.01.2022
4397 Clouds 20 1013 87 10000 0 0 13:51 09.01.2022
4398 Clouds 21 1013 85 10000 0 0 13:25 09.01.2022
4399 Clouds 21 1013 85 10000 1.34 10 11:55 09.01.2022
4400 Clouds 21 1014 84 10000 2.57 340 10:53 09.01.2022
4401 Clouds 21 1014 83 10000 0 0 09:50 09.01.2022
4402 Clouds 22 1015 80 10000 2.06 10 08:52 09.01.2022
4403 Clouds 24 1013 75 10000 2.06 170 05:38 09.01.2022
4404 Clouds 26 1012 67 10000 4.63 220 01:24 09.01.2022
4405 Clouds 26 1013 70 10000 4.12 220 00:37 09.01.2022
4406 Clouds 26 1014 66 10000 5.14 220 23:27 08.01.2022
4407 Clouds 26 1015 68 10000 3.6 310 22:30 08.01.2022
4408 Clouds 25 1015 67 10000 2.57 320 21:26 08.01.2022
4409 Clouds 23 1015 76 10000 4.12 340 20:42 08.01.2022
4410 Clouds 23 1015 79 10000 4.12 340 20:21 08.01.2022
4411 Clouds 19 1013 86 10000 1.54 330 18:45 08.01.2022
4412 Clear 18 1013 89 10000 2.06 340 17:22 08.01.2022
4413 Clear 19 1013 89 10000 1.47 327 15:56 08.01.2022
4414 Clear 18 1013 88 10000 0 0 14:46 08.01.2022
4415 Clear 18 1014 87 10000 1.54 340 13:28 08.01.2022
4416 Clouds 20 1015 77 10000 1.54 350 11:28 08.01.2022
4417 Clear 20 1015 82 10000 0 0 10:28 08.01.2022
4418 Clear 21 1015 81 10000 2.06 350 09:48 08.01.2022
4419 Clouds 22 1014 82 10000 0 0 08:22 08.01.2022
4420 Clouds 25 1011 68 10000 3.09 200 03:31 08.01.2022
4421 Clouds 26 1013 72 10000 6.17 220 00:42 08.01.2022
4422 Clouds 26 1014 66 10000 2.06 250 22:49 07.01.2022
4423 Clouds 25 1015 71 10000 3.09 320 21:18 07.01.2022
4424 Clouds 23 1015 80 10000 1.54 340 20:19 07.01.2022
4425 Clouds 21 1014 87 10000 1.54 340 19:23 07.01.2022
4426 Clouds 19 1014 92 10000 1.54 330 18:44 07.01.2022
4427 Clouds 19 1014 93 10000 2.06 330 17:28 07.01.2022
4428 Clouds 19 1014 90 10000 0 0 16:39 07.01.2022
4429 Clear 20 1015 92 10000 1.34 350 13:56 07.01.2022
4430 Clouds 20 1015 91 10000 1.54 350 13:38 07.01.2022
4431 Clouds 20 1015 90 10000 1.54 360 12:49 07.01.2022
4432 Clouds 21 1016 84 10000 1.54 350 09:42 07.01.2022
4433 Rain 25 1013 77 10000 3.09 50 02:56 07.01.2022
4434 Clear 26 1014 73 10000 4.02 220 01:55 07.01.2022
4435 Clouds 26 1014 70 10000 4.12 220 01:28 07.01.2022
4436 Clear 26 1014 72 10000 2.24 200 00:59 07.01.2022
4437 Clouds 26 1015 73 10000 3.09 170 23:53 06.01.2022
4438 Clouds 24 1016 78 10000 3.09 70 21:28 06.01.2022
4439 Clouds 23 1016 83 10000 1.54 320 20:22 06.01.2022
4440 Clouds 21 1016 87 10000 2.06 340 19:45 06.01.2022
4441 Clouds 19 1016 91 10000 2.06 350 18:29 06.01.2022
4442 Clear 19 1016 91 10000 2.06 340 17:40 06.01.2022
4443 Clear 19 1016 91 10000 1.54 340 16:44 06.01.2022
4444 Clear 20 1015 90 10000 2.06 340 15:47 06.01.2022
4445 Clear 20 1015 90 10000 2.06 340 15:26 06.01.2022
4446 Clear 20 1015 92 10000 2.57 320 14:45 06.01.2022
4447 Clear 20 1015 92 10000 2.57 320 14:18 06.01.2022
4448 Clear 21 1016 90 10000 2.06 350 12:50 06.01.2022
4449 Rain 21 1016 89 10000 2.57 340 11:43 06.01.2022
4450 Fog 20 1016 89 10000 2.57 340 11:22 06.01.2022
4451 Clouds 22 1017 84 10000 1.54 340 08:51 06.01.2022
4452 Rain 26 1014 72 10000 4.63 210 01:24 06.01.2022
4453 Clouds 26 1016 72 10000 4.12 210 23:38 05.01.2022
4454 Clouds 25 1016 76 10000 1.79 200 22:57 05.01.2022
4455 Clouds 25 1016 75 10000 2.06 200 22:32 05.01.2022
4456 Clouds 25 1017 74 10000 0 0 21:48 05.01.2022
4457 Clouds 24 1016 79 10000 0 0 20:57 05.01.2022
4458 Clouds 23 1016 81 10000 0 0 20:18 05.01.2022
4459 Clouds 21 1015 91 10000 0 0 18:42 05.01.2022
4460 Rain 21 1015 91 10000 0 0 17:23 05.01.2022
4461 Rain 21 1014 90 10000 1.54 70 16:50 05.01.2022
4462 Rain 21 1014 89 10000 2.06 360 15:26 05.01.2022
4463 Rain 21 1014 90 10000 0 0 13:51 05.01.2022
4464 Clear 21 1014 90 10000 1.34 360 12:59 05.01.2022
4465 Clouds 22 1015 87 10000 3.6 310 10:32 05.01.2022
4466 Clouds 23 1014 81 10000 2.57 220 07:45 05.01.2022
4467 Clouds 22 1013 80 10000 0 0 06:24 05.01.2022
4468 Rain 25 1013 75 10000 4.02 210 00:58 05.01.2022
4469 Clouds 23 1013 90 10000 0 0 23:27 04.01.2022
4470 Rain 23 1014 84 10000 4.63 290 22:42 04.01.2022
4471 Rain 25 1014 81 10000 3.6 160 21:21 04.01.2022
4472 Rain 21 1013 93 10000 2.06 20 19:20 04.01.2022
4473 Rain 21 1013 90 10000 2.57 40 17:44 04.01.2022
4474 Rain 20 1012 94 10000 2.57 40 16:42 04.01.2022
4475 Rain 20 1012 94 10000 2.57 40 16:23 04.01.2022
4476 Rain 19 1011 94 10000 0 0 14:53 04.01.2022
4477 Rain 19 1012 94 10000 0 0 14:34 04.01.2022
4478 Rain 20 1013 90 10000 0 0 13:27 04.01.2022
4479 Rain 20 1013 88 10000 0 0 10:41 04.01.2022
4480 Rain 21 1014 86 10000 0 0 09:20 04.01.2022
4481 Clouds 22 1012 82 10000 0 0 08:25 04.01.2022
4482 Clouds 24 1011 76 10000 0 0 01:51 04.01.2022
4483 Rain 24 1012 83 10000 3.09 110 00:40 04.01.2022
4484 Rain 21 1015 91 8047 3.09 170 22:51 03.01.2022
4485 Mist 21 1015 92 6437 3.6 160 21:42 03.01.2022
4486 Rain 21 1015 93 10000 2.57 160 21:24 03.01.2022
4487 Rain 21 1013 92 10000 0 0 19:47 03.01.2022
4488 Rain 21 1013 88 10000 0 0 18:33 03.01.2022
4489 Rain 20 1012 94 10000 0 0 17:40 03.01.2022
4490 Rain 20 1012 96 10000 3.21 129 16:58 03.01.2022
4491 Rain 20 1011 82 10000 1.62 150 14:55 03.01.2022
4492 Clear 19 1011 94 10000 2.06 0 14:29 03.01.2022
4493 Rain 19 1013 88 10000 2.57 0 12:35 03.01.2022
4494 Rain 19 1013 88 10000 2.06 0 11:33 03.01.2022
4495 Clear 19 1013 88 10000 2.06 0 09:49 03.01.2022
4496 Rain 19 1013 92 10000 0 0 08:46 03.01.2022
4497 Clouds 21 1012 88 10000 2.57 70 06:48 03.01.2022
4498 Rain 19 1013 94 10000 6.69 240 23:47 02.01.2022
4499 Rain 20 1013 93 1609 2.06 170 23:18 02.01.2022
4500 Rain 22 1013 87 10000 0 0 22:42 02.01.2022
4501 Rain 22 1013 91 10000 1.54 280 21:38 02.01.2022
4502 Rain 22 1013 94 10000 2.06 320 20:31 02.01.2022
4503 Rain 21 1012 93 10000 2.57 10 19:52 02.01.2022
4504 Rain 21 1012 93 10000 2.57 10 19:25 02.01.2022
4505 Rain 21 1012 93 10000 2.57 340 18:31 02.01.2022
4506 Rain 21 1011 93 10000 1.54 20 17:43 02.01.2022
4507 Rain 21 1011 93 10000 1.54 20 17:21 02.01.2022
4508 Rain 21 1010 93 10000 2.57 0 16:33 02.01.2022
4509 Rain 21 1011 93 9656 0 0 15:49 02.01.2022
4510 Rain 21 1011 95 10000 3.84 156 13:58 02.01.2022
4511 Rain 20 1012 92 10000 1.54 320 12:34 02.01.2022
4512 Rain 21 1011 89 10000 4.49 150 11:56 02.01.2022
4513 Rain 21 1011 89 10000 4.33 143 10:56 02.01.2022
4514 Rain 19 1012 93 10000 2.06 360 10:22 02.01.2022
4515 Rain 21 1011 89 10000 3.6 80 07:45 02.01.2022
4516 Rain 21 1012 85 10000 5.66 250 02:57 02.01.2022
4517 Rain 22 1012 89 10000 4.63 270 23:54 01.01.2022
4518 Rain 22 1012 88 10000 4.63 270 23:35 01.01.2022
4519 Rain 22 1012 87 6437 7.72 260 22:39 01.01.2022
4520 Rain 22 1011 74 4023 8.23 240 22:18 01.01.2022
4521 Rain 24 1011 74 10000 5.14 170 21:42 01.01.2022
4522 Rain 22 1011 76 10000 7.72 170 20:36 01.01.2022
4523 Rain 22 1010 78 2816 3.6 200 19:45 01.01.2022
4524 Rain 22 1010 78 10000 2.57 100 18:52 01.01.2022
4525 Rain 23 1009 80 10000 5.14 160 17:41 01.01.2022
4526 Rain 23 1008 77 10000 3.6 150 16:35 01.01.2022
4527 Rain 23 1008 80 10000 5.14 160 15:45 01.01.2022
4528 Rain 23 1010 82 10000 6.69 170 14:40 01.01.2022
4529 Rain 22 1010 80 10000 0.45 175 13:42 01.01.2022
4530 Rain 23 1009 81 4023 2.06 0 12:25 01.01.2022
4531 Rain 22 1009 81 10000 3.6 120 11:26 01.01.2022
4532 Rain 21 1009 78 9656 2.57 140 10:58 01.01.2022
4533 Rain 22 1010 80 10000 3.6 110 09:48 01.01.2022
4534 Rain 23 1009 76 10000 0.45 173 08:39 01.01.2022
4535 Rain 24 1009 76 10000 3.6 150 07:57 01.01.2022
4536 Rain 23 1009 78 10000 5.66 140 07:38 01.01.2022
4537 Rain 23 1009 79 10000 5.66 150 06:44 01.01.2022
4538 Rain 22 1007 82 9656 0.89 131 04:40 01.01.2022
4539 Rain 23 1007 80 9656 2.06 170 03:52 01.01.2022
4540 Rain 24 1010 76 10000 6.69 140 23:55 31.12.2021
4541 Rain 24 1010 76 10000 6.69 140 22:25 31.12.2021
4542 Rain 24 1011 79 10000 4.63 150 21:47 31.12.2021
4543 Rain 22 1011 95 10000 2.06 70 19:48 31.12.2021
4544 Rain 22 1011 94 10000 2.06 70 19:28 31.12.2021
4545 Rain 22 1008 80 10000 0 0 17:56 31.12.2021
4546 Rain 22 1010 83 10000 2.57 20 17:26 31.12.2021
4547 Rain 22 1010 82 10000 2.57 340 16:52 31.12.2021
4548 Rain 22 1010 82 10000 2.57 340 16:18 31.12.2021
4549 Rain 22 1008 81 10000 2.06 290 15:45 31.12.2021
4550 Rain 22 1009 81 10000 2.06 290 15:26 31.12.2021
4551 Rain 22 1009 81 10000 2.06 290 15:26 31.12.2021
4552 Rain 22 1009 83 10000 2.06 360 14:39 31.12.2021
4553 Rain 22 1009 84 10000 0 0 13:51 31.12.2021
4554 Rain 22 1010 80 10000 0 0 12:50 31.12.2021
4555 Rain 22 1010 79 10000 0 0 12:20 31.12.2021
4556 Rain 22 1011 81 10000 1.54 300 11:41 31.12.2021
4557 Rain 22 1011 82 10000 2.06 310 10:50 31.12.2021
4558 Rain 22 1011 83 10000 0.89 107 10:28 31.12.2021
4559 Rain 22 1012 80 10000 0.89 109 09:34 31.12.2021
4560 Rain 22 1012 80 10000 4.12 70 08:50 31.12.2021
4561 Rain 22 1012 80 10000 0.45 142 07:53 31.12.2021
4562 Rain 22 1010 80 9656 0.45 56 02:36 31.12.2021
4563 Rain 24 1012 74 10000 1.79 116 23:18 30.12.2021
4564 Rain 24 1013 81 10000 0.89 80 22:27 30.12.2021
4565 Rain 24 1014 81 10000 1.34 144 21:39 30.12.2021
4566 Rain 23 1013 79 10000 0.89 354 20:59 30.12.2021
4567 Rain 23 1013 80 10000 1.79 99 20:38 30.12.2021
4568 Rain 23 1013 77 10000 1.79 176 19:53 30.12.2021
4569 Rain 22 1013 77 10000 1.79 11 19:28 30.12.2021
4570 Rain 22 1012 81 10000 0.89 68 18:26 30.12.2021
4571 Rain 22 1012 80 10000 0.89 76 16:50 30.12.2021
4572 Rain 22 1012 79 10000 0.89 85 15:53 30.12.2021
4573 Rain 22 1012 80 10000 2.24 71 14:54 30.12.2021
4574 Rain 22 1012 78 10000 0.89 124 14:35 30.12.2021
4575 Rain 22 1013 87 10000 1.54 80 13:25 30.12.2021
4576 Clouds 22 1013 80 10000 1.34 58 11:53 30.12.2021
4577 Rain 22 1014 83 10000 2.24 109 10:28 30.12.2021
4578 Rain 22 1015 78 10000 1.34 71 09:44 30.12.2021
4579 Rain 22 1012 81 10000 1.79 109 06:56 30.12.2021
4580 Rain 22 1012 81 8047 2.24 76 04:56 30.12.2021
4581 Rain 24 1012 75 10000 2.24 1 03:40 30.12.2021
4582 Rain 24 1012 76 10000 5.66 60 02:19 30.12.2021
4583 Rain 26 1014 71 10000 0.89 104 23:37 29.12.2021
4584 Clouds 25 1015 69 10000 1.34 123 22:33 29.12.2021
4585 Clouds 25 1014 72 10000 1.79 82 21:55 29.12.2021
4586 Clouds 24 1014 75 10000 1.79 72 20:56 29.12.2021
4587 Clouds 24 1015 74 10000 1.79 79 20:26 29.12.2021
4588 Clouds 23 1014 77 10000 2.24 96 19:31 29.12.2021
4589 Clouds 22 1014 77 10000 2.24 49 18:35 29.12.2021
4590 Rain 22 1013 79 10000 1.79 66 17:41 29.12.2021
4591 Rain 22 1013 78 10000 1.79 100 17:20 29.12.2021
4592 Clouds 22 1013 80 10000 1.79 86 16:19 29.12.2021
4593 Clouds 22 1012 78 10000 1.34 61 14:59 29.12.2021
4594 Clouds 22 1014 77 10000 1.34 123 12:57 29.12.2021
4595 Clouds 22 1014 77 10000 1.34 78 12:32 29.12.2021
4596 Clouds 23 1014 77 10000 1.79 62 11:22 29.12.2021
4597 Clouds 23 1015 73 10000 1.34 27 09:24 29.12.2021
4598 Clouds 23 1015 73 10000 1.79 82 06:59 29.12.2021
4599 Clouds 23 1015 71 10000 1.79 75 06:30 29.12.2021
4600 Rain 23 1015 71 10000 1.79 72 05:52 29.12.2021
4601 Clouds 23 1014 73 10000 1.79 100 04:57 29.12.2021
4602 Clouds 26 1014 62 10000 0.45 25 00:32 29.12.2021
4603 Clouds 25 1015 65 10000 1.34 133 23:57 28.12.2021
4604 Clouds 25 1015 69 10000 1.79 47 22:56 28.12.2021
4605 Clouds 25 1015 67 10000 5.14 60 22:24 28.12.2021
4606 Clouds 24 1015 69 10000 1.79 164 21:54 28.12.2021
4607 Clouds 24 1015 69 10000 1.34 86 21:28 28.12.2021
4608 Clouds 23 1015 75 10000 0.89 109 19:53 28.12.2021
4609 Clouds 23 1014 76 10000 0.45 103 18:53 28.12.2021
4610 Clouds 23 1014 73 10000 2.68 96 18:25 28.12.2021
4611 Clouds 23 1013 73 10000 1.34 11 17:29 28.12.2021
4612 Clouds 23 1012 74 10000 0.89 288 15:53 28.12.2021
4613 Rain 22 1013 73 10000 1.79 66 15:29 28.12.2021
4614 Rain 23 1013 74 10000 0.89 85 14:55 28.12.2021
4615 Clouds 23 1013 73 10000 0.45 109 14:22 28.12.2021
4616 Clouds 23 1012 75 10000 3.58 80 13:58 28.12.2021
4617 Clouds 23 1013 73 10000 3.6 80 13:34 28.12.2021
4618 Clouds 23 1013 73 10000 0.45 78 12:55 28.12.2021
4619 Clouds 23 1013 71 10000 5.14 70 12:19 28.12.2021
4620 Clouds 23 1014 72 10000 0.89 104 09:32 28.12.2021
4621 Clouds 23 1013 72 10000 5.66 60 07:33 28.12.2021
4622 Clouds 25 1011 63 10000 6.69 70 03:31 28.12.2021
4623 Rain 26 1013 63 10000 5.66 120 23:37 27.12.2021
4624 Clouds 26 1013 62 10000 6.69 100 22:20 27.12.2021
4625 Clouds 25 1013 67 10000 6.17 70 21:30 27.12.2021
4626 Clouds 24 1013 70 10000 4.12 70 20:27 27.12.2021
4627 Clouds 23 1013 72 10000 0.89 89 19:47 27.12.2021
4628 Clouds 22 1012 76 10000 0.89 83 18:56 27.12.2021
4629 Clouds 22 1012 73 10000 2.57 60 17:50 27.12.2021
4630 Clouds 22 1012 73 10000 2.57 60 17:27 27.12.2021
4631 Clouds 22 1011 70 10000 1.79 87 15:53 27.12.2021
4632 Clouds 22 1011 72 10000 0.89 97 14:35 27.12.2021
4633 Clouds 22 1011 72 10000 1.79 113 13:59 27.12.2021
4634 Clouds 22 1012 72 10000 1.34 131 12:49 27.12.2021
4635 Clouds 23 1013 70 10000 1.79 82 10:37 27.12.2021
4636 Clouds 23 1013 68 10000 3.6 80 10:18 27.12.2021
4637 Clouds 23 1012 70 10000 1.79 92 08:42 27.12.2021
4638 Clouds 23 1013 70 10000 1.79 92 07:34 27.12.2021
4639 Clouds 24 1011 68 10000 1.34 93 02:29 27.12.2021
4640 Clouds 25 1013 63 10000 5.14 100 00:29 27.12.2021
4641 Clouds 25 1013 61 10000 0.45 193 23:42 26.12.2021
4642 Clouds 25 1013 62 10000 4.63 80 22:49 26.12.2021
4643 Clouds 24 1014 68 10000 5.14 100 21:33 26.12.2021
4644 Clouds 23 1013 75 10000 0.45 147 19:54 26.12.2021
4645 Clouds 21 1013 79 10000 1.34 113 18:29 26.12.2021
4646 Clouds 21 1012 79 10000 0.89 90 17:51 26.12.2021
4647 Clouds 21 1012 80 10000 1.34 107 15:31 26.12.2021
4648 Clouds 21 1012 76 10000 2.24 128 13:43 26.12.2021
4649 Clouds 21 1012 76 10000 2.68 90 13:21 26.12.2021
4650 Clouds 21 1013 74 10000 1.34 109 12:35 26.12.2021
4651 Clouds 21 1013 73 10000 1.79 97 11:18 26.12.2021
4652 Clouds 22 1014 72 10000 1.34 128 09:30 26.12.2021
4653 Clouds 22 1014 72 10000 0.89 111 08:44 26.12.2021
4654 Clouds 22 1014 72 10000 1.34 107 08:23 26.12.2021
4655 Clouds 25 1013 62 10000 6.69 70 01:45 26.12.2021
4656 Clouds 25 1014 62 10000 6.17 80 00:28 26.12.2021
4657 Clouds 25 1015 60 10000 8.75 70 23:35 25.12.2021
4658 Clouds 25 1016 61 10000 6.17 80 22:29 25.12.2021
4659 Clouds 24 1016 64 10000 1.79 80 21:29 25.12.2021
4660 Clouds 21 1016 77 10000 1.79 124 19:46 25.12.2021
4661 Clouds 21 1016 78 10000 2.24 344 19:18 25.12.2021
4662 Clouds 20 1015 75 10000 1.34 102 18:26 25.12.2021
4663 Clouds 21 1014 77 10000 0.89 145 16:49 25.12.2021
4664 Clouds 21 1014 79 10000 0.45 14 15:30 25.12.2021
4665 Rain 21 1015 78 10000 1.34 113 13:47 25.12.2021
4666 Rain 21 1015 79 10000 2.06 80 12:19 25.12.2021
4667 Rain 21 1015 78 10000 0.89 68 10:36 25.12.2021
4668 Rain 21 1017 77 10000 1.79 79 09:48 25.12.2021
4669 Rain 21 1017 79 10000 2.24 83 07:21 25.12.2021
4670 Clouds 25 1015 61 10000 1.34 106 01:34 25.12.2021
4671 Clouds 25 1016 58 10000 0.89 111 00:18 25.12.2021
4672 Clouds 24 1018 66 10000 6.69 70 21:46 24.12.2021
4673 Clouds 22 1018 71 10000 1.79 35 19:26 24.12.2021
4674 Rain 21 1017 74 10000 0.89 0 18:34 24.12.2021
4675 Rain 21 1016 78 10000 2.24 86 16:40 24.12.2021
4676 Rain 20 1016 79 10000 1.79 13 15:49 24.12.2021
4677 Rain 20 1016 78 10000 2.24 75 15:20 24.12.2021
4678 Rain 21 1016 77 10000 1.79 71 14:31 24.12.2021
4679 Clouds 21 1017 78 10000 1.34 123 13:45 24.12.2021
4680 Rain 21 1016 78 10000 0.89 76 12:55 24.12.2021
4681 Rain 21 1017 77 10000 6.69 70 12:35 24.12.2021
4682 Clouds 22 1017 74 10000 0.89 20 11:42 24.12.2021
4683 Clouds 22 1017 75 10000 1.79 80 11:24 24.12.2021
4684 Clouds 22 1018 72 10000 0.89 97 10:33 24.12.2021
4685 Clouds 22 1018 70 10000 0.45 80 08:40 24.12.2021
4686 Clouds 22 1017 72 10000 0.89 80 07:58 24.12.2021
4687 Clouds 22 1017 70 10000 0.89 106 06:44 24.12.2021
4688 Clear 26 1016 54 10000 1.34 90 00:21 24.12.2021
4689 Clouds 25 1017 55 10000 1.34 6 23:39 23.12.2021
4690 Clouds 25 1017 59 10000 1.79 85 22:50 23.12.2021
4691 Clouds 25 1018 60 10000 1.34 109 22:22 23.12.2021
4692 Clouds 24 1018 62 10000 1.34 96 21:39 23.12.2021
4693 Clouds 24 1017 66 10000 2.24 85 20:27 23.12.2021
4694 Clouds 23 1017 70 10000 0.89 66 19:28 23.12.2021
4695 Clouds 22 1016 72 10000 1.34 86 18:18 23.12.2021
4696 Clouds 22 1016 70 10000 2.24 83 17:29 23.12.2021
4697 Clouds 22 1016 68 10000 1.34 154 16:26 23.12.2021
4698 Clouds 22 1016 70 10000 1.79 100 15:33 23.12.2021
4699 Clouds 22 1014 72 10000 2.24 17 14:59 23.12.2021
4700 Clouds 22 1016 71 10000 1.34 86 14:39 23.12.2021
4701 Clouds 22 1016 70 10000 1.34 96 13:25 23.12.2021
4702 Clouds 23 1016 70 10000 0.45 358 11:27 23.12.2021
4703 Clouds 23 1016 69 10000 1.79 10 09:53 23.12.2021
4704 Clouds 23 1016 69 10000 0.89 85 09:33 23.12.2021
4705 Clouds 23 1016 68 10000 1.79 56 08:28 23.12.2021
4706 Clouds 23 1014 66 10000 2.24 99 05:30 23.12.2021
4707 Rain 25 1013 63 10000 10.8 70 00:40 23.12.2021
4708 Rain 25 1014 65 10000 2.24 86 22:51 22.12.2021
4709 Rain 24 1012 72 10000 1.79 20 21:59 22.12.2021
4710 Rain 24 1014 66 10000 0.89 66 21:30 22.12.2021
4711 Rain 23 1013 72 10000 1.79 1 20:59 22.12.2021
4712 Rain 23 1014 69 10000 1.34 65 20:40 22.12.2021
4713 Rain 23 1014 72 10000 1.79 30 19:50 22.12.2021
4714 Rain 22 1012 74 10000 2.24 27 18:55 22.12.2021
4715 Rain 21 1011 73 10000 1.79 80 17:38 22.12.2021
4716 Clouds 22 1010 74 10000 0.89 68 15:56 22.12.2021
4717 Rain 22 1011 71 10000 1.79 63 14:23 22.12.2021
4718 Clouds 22 1012 69 10000 0.89 78 12:53 22.12.2021
4719 Clouds 22 1011 69 10000 0.89 51 11:39 22.12.2021
4720 Clouds 22 1012 70 10000 1.79 27 09:52 22.12.2021
4721 Clouds 22 1011 74 10000 6.17 60 07:56 22.12.2021
4722 Clouds 22 1011 74 10000 2.24 54 05:51 22.12.2021
4723 Clouds 22 1011 72 10000 1.79 76 05:33 22.12.2021
4724 Mist 22 1010 74 10000 1.79 99 04:55 22.12.2021
4725 Mist 23 1010 74 10000 1.79 73 04:35 22.12.2021
4726 Mist 22 1010 73 10000 1.34 0 03:37 22.12.2021
4727 Mist 22 1010 72 10000 2.68 62 03:18 22.12.2021
4728 Rain 23 1012 68 10000 2.24 113 23:47 21.12.2021
4729 Rain 23 1012 71 10000 7.2 80 22:36 21.12.2021
4730 Rain 23 1011 79 9446 1.34 41 21:55 21.12.2021
4731 Rain 23 1013 72 10000 2.24 49 21:31 21.12.2021
4732 Rain 22 1013 72 10000 1.79 61 20:24 21.12.2021
4733 Rain 22 1013 71 10000 1.79 154 19:52 21.12.2021
4734 Rain 22 1013 71 10000 6.17 70 19:31 21.12.2021
4735 Rain 22 1012 73 10000 3.09 50 18:23 21.12.2021
4736 Rain 22 1012 75 10000 6.69 70 17:52 21.12.2021
4737 Rain 22 1011 69 10000 0.89 73 16:47 21.12.2021
4738 Rain 22 1011 73 10000 2.24 82 15:34 21.12.2021
4739 Rain 22 1011 71 10000 2.24 72 13:55 21.12.2021
4740 Rain 22 1011 71 10000 1.79 86 13:36 21.12.2021
4741 Rain 22 1013 70 10000 1.79 56 12:25 21.12.2021
4742 Rain 22 1013 74 10000 1.79 75 10:38 21.12.2021
4743 Rain 22 1013 74 10000 2.24 8 09:41 21.12.2021
4744 Clouds 23 1014 68 10000 4.12 60 08:39 21.12.2021
4745 Rain 22 1012 69 10000 2.68 102 07:35 21.12.2021
4746 Clouds 22 1012 73 10000 1.79 123 06:56 21.12.2021
4747 Clouds 25 1011 64 10000 5.14 60 03:22 21.12.2021
4748 Clouds 26 1012 56 10000 0.89 131 01:18 21.12.2021
4749 Clouds 26 1013 57 10000 0.45 128 23:54 20.12.2021
4750 Clouds 26 1014 62 10000 2.24 121 22:35 20.12.2021
4751 Clouds 25 1015 65 10000 3.13 65 21:48 20.12.2021
4752 Clouds 25 1015 65 10000 3.58 79 21:24 20.12.2021
4753 Clouds 25 1015 66 10000 4.12 40 20:48 20.12.2021
4754 Clouds 23 1014 73 10000 2.24 343 19:55 20.12.2021
4755 Clouds 23 1014 73 10000 1.79 158 19:55 20.12.2021
4756 Clouds 23 1014 73 10000 2.68 32 19:34 20.12.2021
4757 Clouds 23 1014 70 10000 3.13 6 18:55 20.12.2021
4758 Rain 23 1014 69 10000 2.68 94 18:25 20.12.2021
4759 Rain 22 1014 72 10000 1.79 73 17:46 20.12.2021
4760 Clouds 23 1013 71 10000 2.24 65 16:44 20.12.2021
4761 Clouds 23 1013 72 10000 2.24 63 15:52 20.12.2021
4762 Clouds 23 1012 73 10000 1.79 56 14:58 20.12.2021
4763 Clouds 23 1014 70 10000 2.24 89 13:24 20.12.2021
4764 Rain 23 1015 74 10000 1.79 85 11:27 20.12.2021
4765 Rain 23 1016 72 10000 1.34 37 09:51 20.12.2021
4766 Clouds 23 1016 71 10000 1.34 131 09:31 20.12.2021
4767 Clouds 23 1015 78 10000 4.12 60 08:42 20.12.2021
4768 Rain 22 1016 74 10000 1.79 0 07:55 20.12.2021
4769 Rain 22 1016 73 10000 1.79 123 07:30 20.12.2021
4770 Rain 24 1014 65 10000 2.68 44 04:36 20.12.2021
4771 Rain 26 1015 69 10000 1.79 11 00:18 20.12.2021
4772 Rain 25 1017 73 10000 1.34 96 22:53 19.12.2021
4773 Clouds 25 1017 77 10000 1.79 118 21:55 19.12.2021
4774 Clouds 24 1017 77 10000 1.79 76 21:30 19.12.2021
4775 Rain 23 1017 79 10000 2.24 73 20:34 19.12.2021
4776 Clouds 23 1017 80 10000 1.79 96 19:52 19.12.2021
4777 Rain 23 1017 77 10000 1.79 0 19:27 19.12.2021
4778 Clouds 23 1016 76 10000 1.34 83 18:30 19.12.2021
4779 Rain 22 1015 79 10000 1.79 114 17:53 19.12.2021
4780 Rain 22 1015 79 10000 1.34 80 17:20 19.12.2021
4781 Rain 22 1015 78 10000 1.79 80 16:26 19.12.2021
4782 Rain 22 1015 79 10000 2.24 80 15:43 19.12.2021
4783 Rain 22 1016 78 10000 2.24 73 15:20 19.12.2021
4784 Rain 22 1015 77 10000 1.34 25 14:42 19.12.2021
4785 Rain 23 1016 76 10000 1.79 54 13:22 19.12.2021
4786 Rain 23 1016 73 10000 2.24 63 12:42 19.12.2021
4787 Rain 23 1017 74 10000 1.79 133 12:18 19.12.2021
4788 Rain 23 1017 75 10000 2.68 7 11:19 19.12.2021
4789 Rain 23 1017 76 10000 2.68 89 10:25 19.12.2021
4790 Rain 23 1016 78 10000 2.68 71 09:41 19.12.2021
4791 Rain 23 1016 77 10000 1.79 79 08:25 19.12.2021
4792 Rain 25 1015 69 10000 2.68 87 04:45 19.12.2021
4793 Rain 25 1015 69 10000 2.68 87 04:45 19.12.2021
4794 Clouds 27 1015 63 10000 1.79 116 01:22 19.12.2021
4795 Clouds 27 1016 60 10000 1.79 128 00:52 19.12.2021
4796 Clouds 27 1018 65 10000 0.89 114 22:36 18.12.2021
4797 Clouds 26 1018 69 10000 1.34 96 21:57 18.12.2021
4798 Clouds 26 1018 68 10000 4.12 80 21:35 18.12.2021
4799 Clouds 25 1018 76 10000 0.45 133 20:44 18.12.2021
4800 Clouds 24 1017 75 10000 0.89 125 19:59 18.12.2021
4801 Clouds 22 1017 78 10000 0.89 107 19:20 18.12.2021
4802 Clouds 21 1016 82 10000 1.79 61 18:21 18.12.2021
4803 Clouds 21 1016 80 10000 0.89 113 17:48 18.12.2021
4804 Clouds 21 1016 80 10000 0.89 99 16:26 18.12.2021
4805 Clouds 22 1015 80 10000 0.89 79 15:26 18.12.2021
4806 Clouds 21 1016 80 10000 0.89 96 14:32 18.12.2021
4807 Clouds 22 1017 80 10000 0.89 97 13:21 18.12.2021
4808 Clouds 23 1017 78 10000 1.79 90 11:21 18.12.2021
4809 Clouds 23 1017 76 10000 0.45 125 09:39 18.12.2021
4810 Clouds 24 1016 76 10000 0.45 137 08:46 18.12.2021
4811 Clouds 24 1016 76 10000 4.12 80 08:19 18.12.2021
4812 Clouds 26 1013 71 10000 5.14 150 02:51 18.12.2021
4813 Clouds 27 1013 69 10000 6.17 140 00:27 18.12.2021
4814 Clouds 27 1014 69 10000 0.45 96 23:39 17.12.2021
4815 Clouds 26 1016 71 10000 3.6 80 21:56 17.12.2021
4816 Clouds 26 1015 73 10000 1.54 0 20:58 17.12.2021
4817 Clouds 26 1016 73 10000 0 0 20:38 17.12.2021
4818 Clouds 24 1015 77 10000 0 0 19:18 17.12.2021
4819 Clouds 21 1015 80 10000 1.54 350 18:38 17.12.2021
4820 Clouds 22 1014 77 10000 2.57 360 17:26 17.12.2021
4821 Clouds 22 1014 78 10000 0 0 16:44 17.12.2021
4822 Rain 22 1014 77 10000 0 0 16:21 17.12.2021
4823 Rain 23 1014 74 10000 0.45 92 15:20 17.12.2021
4824 Clouds 22 1014 80 10000 2.24 71 14:38 17.12.2021
4825 Clouds 23 1014 76 10000 1.34 0 12:46 17.12.2021
4826 Clouds 23 1014 72 10000 1.34 85 11:27 17.12.2021
4827 Rain 22 1016 72 10000 1.79 0 09:59 17.12.2021
4828 Rain 22 1016 75 10000 1.79 78 08:58 17.12.2021
4829 Rain 23 1016 76 10000 1.79 87 08:29 17.12.2021
4830 Clouds 24 1015 71 10000 3.6 40 05:41 17.12.2021
4831 Clouds 27 1014 67 10000 4.63 90 02:52 17.12.2021
4832 Clouds 27 1017 61 10000 4.63 70 23:20 16.12.2021
4833 Clouds 27 1018 62 10000 4.12 70 22:23 16.12.2021
4834 Clouds 27 1018 62 10000 4.12 70 22:23 16.12.2021
4835 Clouds 26 1017 65 10000 4.12 70 21:47 16.12.2021
4836 Clouds 26 1017 66 10000 0.45 159 21:20 16.12.2021
4837 Clouds 25 1017 71 10000 1.34 73 20:27 16.12.2021
4838 Clouds 23 1017 79 10000 0.89 120 19:35 16.12.2021
4839 Clouds 22 1017 80 10000 0.45 93 18:37 16.12.2021
4840 Clouds 21 1016 80 10000 1.54 330 17:49 16.12.2021
4841 Clouds 22 1015 80 10000 3.09 70 16:55 16.12.2021
4842 Clouds 21 1016 81 10000 0.89 66 16:20 16.12.2021
4843 Clouds 22 1016 79 10000 0.89 65 14:32 16.12.2021
4844 Clouds 22 1017 75 10000 1.54 350 12:34 16.12.2021
4845 Clouds 22 1018 78 10000 3.09 80 11:19 16.12.2021
4846 Clouds 22 1018 78 10000 3.09 80 11:19 16.12.2021
4847 Clouds 23 1018 75 10000 0.89 87 10:45 16.12.2021
4848 Clouds 23 1018 76 10000 4.63 80 09:51 16.12.2021
4849 Clouds 24 1017 73 10000 4.63 50 07:19 16.12.2021
4850 Rain 24 1016 71 10000 0.45 155 06:18 16.12.2021
4851 Clouds 27 1015 65 10000 1.34 96 00:35 16.12.2021
4852 Clouds 27 1016 66 10000 6.69 60 23:20 15.12.2021
4853 Clouds 26 1018 67 10000 3.6 40 22:22 15.12.2021
4854 Clouds 26 1017 72 10000 0.89 109 21:45 15.12.2021
4855 Rain 26 1017 72 10000 3.09 40 21:25 15.12.2021
4856 Clouds 24 1017 76 10000 4.63 50 19:54 15.12.2021
4857 Clouds 23 1017 76 10000 4.63 50 19:19 15.12.2021
4858 Clouds 22 1015 79 10000 0.89 94 18:24 15.12.2021
4859 Clouds 22 1014 80 10000 0 0 17:46 15.12.2021
4860 Clouds 22 1014 79 10000 0 0 17:21 15.12.2021
4861 Clear 21 1015 80 10000 0.89 104 15:49 15.12.2021
4862 Rain 21 1015 81 10000 0 0 15:31 15.12.2021
4863 Rain 22 1014 78 10000 0.45 83 14:59 15.12.2021
4864 Rain 23 1015 76 10000 0 0 13:45 15.12.2021
4865 Clouds 23 1017 73 10000 2.57 40 11:52 15.12.2021
4866 Clouds 23 1017 75 10000 5.66 50 10:22 15.12.2021
4867 Rain 23 1017 77 10000 2.24 18 08:26 15.12.2021
4868 Rain 23 1015 75 10000 1.34 47 05:54 15.12.2021
4869 Clouds 26 1016 70 10000 7.2 50 00:39 15.12.2021
4870 Rain 25 1017 75 10000 0.89 54 23:31 14.12.2021
4871 Rain 25 1018 71 10000 1.34 100 22:44 14.12.2021
4872 Rain 24 1018 72 10000 2.24 68 21:43 14.12.2021
4873 Rain 24 1018 72 10000 2.24 68 21:43 14.12.2021
4874 Rain 24 1018 75 10000 0.89 80 20:22 14.12.2021
4875 Rain 23 1015 75 10000 2.68 90 19:34 14.12.2021
4876 Rain 22 1014 74 10000 2.68 152 18:38 14.12.2021
4877 Rain 22 1016 73 10000 2.68 58 17:56 14.12.2021
4878 Rain 22 1016 73 10000 1.34 59 16:47 14.12.2021
4879 Rain 22 1016 73 10000 1.79 58 16:28 14.12.2021
4880 Rain 22 1016 76 10000 2.24 68 14:32 14.12.2021
4881 Rain 22 1015 67 10000 2.68 113 12:58 14.12.2021
4882 Rain 23 1017 75 10000 7.72 60 11:44 14.12.2021
4883 Rain 22 1017 74 10000 1.79 345 11:20 14.12.2021
4884 Rain 23 1018 74 10000 2.68 117 09:55 14.12.2021
4885 Clear 23 1017 79 10000 1.79 55 08:58 14.12.2021
4886 Clouds 23 1018 78 10000 2.24 69 08:21 14.12.2021
4887 Clouds 23 1017 72 10000 2.68 71 07:23 14.12.2021
4888 Clouds 27 1016 63 10000 9.77 80 23:52 13.12.2021
4889 Clouds 27 1017 62 10000 2.24 96 22:26 13.12.2021
4890 Clouds 26 1018 64 10000 1.34 99 21:39 13.12.2021
4891 Clouds 25 1018 67 10000 1.34 71 20:51 13.12.2021
4892 Clouds 25 1017 67 10000 1.79 337 20:51 13.12.2021
4893 Clouds 25 1017 67 10000 2.24 25 20:21 13.12.2021
4894 Clouds 24 1017 70 10000 2.68 59 19:49 13.12.2021
4895 Clouds 23 1014 69 10000 1.34 59 17:27 13.12.2021
4896 Clouds 23 1016 70 10000 3.6 80 16:32 13.12.2021
4897 Clouds 23 1014 69 10000 1.79 75 15:43 13.12.2021
4898 Clouds 24 1014 70 10000 4.12 40 14:30 13.12.2021
4899 Clouds 24 1016 71 10000 1.79 96 13:36 13.12.2021
4900 Clouds 24 1016 72 10000 1.79 93 12:39 13.12.2021
4901 Clouds 24 1016 73 10000 2.24 87 11:50 13.12.2021
4902 Clouds 23 1016 73 10000 1.79 78 11:29 13.12.2021
4903 Clear 23 1017 74 10000 2.24 87 10:21 13.12.2021
4904 Clouds 23 1016 71 10000 2.24 59 08:43 13.12.2021
4905 Rain 23 1015 71 10000 3.13 89 06:54 13.12.2021
4906 Rain 25 1013 69 10000 2.68 80 04:52 13.12.2021
4907 Clear 26 1015 72 10000 1.79 71 23:55 12.12.2021
4908 Clouds 26 1017 71 10000 1.79 320 21:57 12.12.2021
4909 Clouds 25 1017 71 10000 1.79 140 20:48 12.12.2021
4910 Clouds 23 1017 73 10000 1.79 62 19:34 12.12.2021
4911 Rain 23 1017 74 10000 0.89 109 17:54 12.12.2021
4912 Rain 22 1016 74 10000 1.79 0 16:29 12.12.2021
4913 Clouds 22 1016 73 10000 1.79 58 15:53 12.12.2021
4914 Clouds 23 1016 74 10000 2.24 52 15:28 12.12.2021
4915 Rain 23 1016 73 10000 1.79 96 14:38 12.12.2021
4916 Clouds 23 1017 68 10000 0.89 86 13:43 12.12.2021
4917 Rain 23 1017 74 10000 1.34 75 12:37 12.12.2021
4918 Rain 23 1018 73 10000 4.63 60 11:45 12.12.2021
4919 Rain 23 1018 75 10000 1.34 55 11:25 12.12.2021
4920 Rain 24 1018 76 10000 1.34 100 10:43 12.12.2021
4921 Clouds 24 1018 74 10000 1.34 137 09:45 12.12.2021
4922 Clouds 24 1018 72 10000 8.23 50 08:38 12.12.2021
4923 Clouds 24 1014 73 10000 4.63 70 06:34 12.12.2021
4924 Clouds 24 1016 70 10000 1.34 39 05:27 12.12.2021
4925 Clouds 25 1013 74 10000 0.89 30 03:58 12.12.2021
4926 Clouds 26 1015 69 10000 1.34 99 00:36 12.12.2021
4927 Clouds 27 1017 67 10000 0.89 42 22:24 11.12.2021
4928 Clouds 27 1017 68 10000 1.79 10 21:52 11.12.2021
4929 Clouds 26 1017 69 10000 8.23 50 21:21 11.12.2021
4930 Clouds 24 1016 75 10000 2.24 85 19:37 11.12.2021
4931 Clouds 24 1016 74 10000 1.79 93 18:53 11.12.2021
4932 Clouds 23 1017 74 10000 2.24 0 18:30 11.12.2021
4933 Clouds 23 1016 73 10000 1.79 61 17:37 11.12.2021
4934 Clouds 23 1015 74 10000 0.89 51 15:55 11.12.2021
4935 Clouds 23 1015 74 10000 0.45 86 15:35 11.12.2021
4936 Rain 23 1016 75 10000 1.79 123 13:21 11.12.2021
4937 Rain 22 1013 74 10000 0.89 37 11:55 11.12.2021
4938 Rain 23 1013 70 10000 1.79 92 09:57 11.12.2021
4939 Clouds 23 1015 72 10000 1.79 14 09:34 11.12.2021
4940 Clouds 26 1015 66 10000 0.89 83 02:40 11.12.2021
4941 Rain 26 1015 70 10000 0.89 79 00:42 11.12.2021
4942 Clouds 26 1017 73 10000 0.89 76 23:24 10.12.2021
4943 Rain 25 1016 80 4828 0.89 76 21:57 10.12.2021
4944 Clouds 27 1018 71 10000 0.45 73 21:37 10.12.2021
4945 Clouds 25 1018 71 10000 5.66 60 19:22 10.12.2021
4946 Clouds 24 1017 75 10000 0.89 61 18:39 10.12.2021
4947 Clouds 23 1015 79 10000 1.34 102 16:57 10.12.2021
4948 Clouds 23 1015 76 10000 1.34 59 16:29 10.12.2021
4949 Clouds 23 1016 76 10000 1.79 350 15:41 10.12.2021
4950 Clouds 23 1016 76 10000 0.45 76 15:21 10.12.2021
4951 Clouds 24 1017 75 10000 1.79 69 13:52 10.12.2021
4952 Clouds 24 1016 74 10000 1.34 63 13:26 10.12.2021
4953 Clouds 24 1017 74 10000 0.89 85 12:45 10.12.2021
4954 Clouds 24 1017 72 10000 2.68 69 11:30 10.12.2021
4955 Clouds 24 1015 73 10000 1.34 38 10:38 10.12.2021
4956 Clouds 24 1014 73 10000 3.13 80 08:58 10.12.2021
4957 Clouds 24 1017 70 10000 2.24 103 06:56 10.12.2021
4958 Clouds 27 1016 62 10000 1.34 85 02:48 10.12.2021
4959 Clouds 27 1017 63 10000 1.34 103 00:38 10.12.2021
4960 Clouds 27 1018 62 10000 0.45 58 23:23 09.12.2021
4961 Clouds 27 1019 63 10000 0.89 34 22:28 09.12.2021
4962 Clouds 26 1017 70 10000 6.32 80 21:59 09.12.2021
4963 Clouds 26 1019 69 10000 0.45 23 21:18 09.12.2021
4964 Clouds 25 1019 72 10000 0.45 172 20:28 09.12.2021
4965 Clouds 24 1018 76 10000 2.57 40 19:21 09.12.2021
4966 Clouds 23 1017 75 10000 2.06 80 18:48 09.12.2021
4967 Clouds 23 1017 75 10000 1.34 40 17:56 09.12.2021
4968 Clouds 23 1017 74 10000 0.45 66 17:26 09.12.2021
4969 Clouds 23 1015 74 10000 0 0 16:55 09.12.2021
4970 Clouds 23 1016 74 10000 0.45 76 15:46 09.12.2021
4971 Clouds 23 1016 72 10000 4.12 80 14:48 09.12.2021
4972 Clouds 24 1014 72 10000 1.34 73 13:23 09.12.2021
4973 Clouds 24 1015 70 10000 1.79 99 12:40 09.12.2021
4974 Clouds 24 1017 72 10000 0.45 100 11:24 09.12.2021
4975 Clouds 24 1017 69 10000 2.24 63 09:44 09.12.2021
4976 Clouds 25 1014 70 10000 2.24 76 06:50 09.12.2021
4977 Clouds 25 1014 71 10000 1.34 73 03:41 09.12.2021
4978 Rain 27 1014 76 10000 6.17 140 23:44 08.12.2021
4979 Rain 27 1014 77 10000 6.17 140 23:21 08.12.2021
4980 Clouds 27 1015 75 10000 5.14 140 22:48 08.12.2021
4981 Clouds 26 1015 69 10000 5.14 40 21:42 08.12.2021
4982 Clouds 27 1015 72 10000 5.14 40 21:24 08.12.2021
4983 Clouds 24 1014 85 10000 5.66 80 19:58 08.12.2021
4984 Clouds 24 1014 88 10000 4.12 40 19:34 08.12.2021
4985 Clouds 23 1014 89 10000 3.6 10 18:45 08.12.2021
4986 Clouds 23 1013 93 10000 2.57 30 17:36 08.12.2021
4987 Clouds 23 1013 93 10000 2.57 30 17:36 08.12.2021
4988 Clouds 22 1013 94 10000 2.57 90 15:51 08.12.2021
4989 Rain 23 1013 94 10000 2.57 90 15:28 08.12.2021
4990 Clouds 22 1014 87 10000 1.54 60 14:31 08.12.2021
4991 Clouds 24 1014 90 10000 3.09 100 11:19 08.12.2021
4992 Clouds 24 1014 93 10000 1.54 130 10:31 08.12.2021
4993 Rain 24 1014 91 10000 2.57 110 08:56 08.12.2021
4994 Rain 23 1013 95 10000 2.57 40 07:25 08.12.2021
4995 Clear 23 1011 83 10000 2.57 360 04:24 08.12.2021
4996 Rain 24 1013 84 10000 2.57 20 23:33 07.12.2021
4997 Rain 23 1016 87 10000 3.09 50 21:43 07.12.2021
4998 Rain 23 1016 87 10000 3.09 50 21:23 07.12.2021
4999 Rain 21 1018 92 10000 2.57 360 20:20 07.12.2021
5000 Rain 20 1016 92 10000 3.09 20 18:43 07.12.2021
5001 Rain 21 1015 86 10000 2.57 320 17:48 07.12.2021
5002 Rain 21 1015 86 10000 2.57 320 17:19 07.12.2021
5003 Rain 20 1014 89 10000 6.69 340 16:28 07.12.2021
5004 Rain 20 1015 89 10000 5.14 340 15:23 07.12.2021
5005 Rain 20 1016 86 10000 3.6 310 13:53 07.12.2021
5006 Rain 21 1016 85 10000 6.17 300 12:49 07.12.2021
5007 Rain 20 1016 86 10000 5.66 350 11:27 07.12.2021
5008 Rain 20 1016 85 10000 7.2 340 10:33 07.12.2021
5009 Rain 21 1015 83 10000 5.14 40 07:57 07.12.2021
5010 Rain 22 1011 82 3219 5.14 310 05:59 07.12.2021
5011 Rain 23 1011 80 10000 3.6 20 05:33 07.12.2021
5012 Mist 24 1013 74 10000 2.06 140 23:45 06.12.2021
5013 Rain 23 1014 74 10000 9.77 120 22:44 06.12.2021
5014 Rain 23 1014 74 10000 9.77 120 22:22 06.12.2021
5015 Rain 23 1013 77 10000 1.34 59 21:46 06.12.2021
5016 Rain 22 1013 77 10000 0.45 103 20:33 06.12.2021
5017 Rain 23 1012 72 10000 0.45 94 19:27 06.12.2021
5018 Rain 22 1014 97 10000 6.17 140 18:57 06.12.2021
5019 Rain 24 1014 91 9460 9.71 165 17:56 06.12.2021
5020 Rain 23 1012 90 10000 7.2 160 17:36 06.12.2021
5021 Rain 23 1011 75 10000 0.45 185 16:21 06.12.2021
5022 Rain 23 1010 67 5139 1.79 180 14:54 06.12.2021
5023 Rain 22 1011 78 10000 0.45 171 13:45 06.12.2021
5024 Rain 23 1010 65 8619 0.89 220 13:45 06.12.2021
5025 Rain 23 1010 69 10000 0.89 166 12:39 06.12.2021
5026 Rain 23 1010 73 10000 2.68 144 10:31 06.12.2021
5027 Rain 22 1009 70 10000 6.34 162 07:59 06.12.2021
5028 Rain 21 1006 84 10000 4.63 90 03:52 06.12.2021
5029 Rain 19 1009 93 10000 5.66 120 22:28 05.12.2021
5030 Rain 20 1009 93 10000 2.57 130 21:26 05.12.2021
5031 Rain 21 1008 90 3219 3.6 210 20:58 05.12.2021
5032 Rain 21 1007 80 10000 3.6 140 20:18 05.12.2021
5033 Rain 21 1005 75 10000 4.12 170 19:26 05.12.2021
5034 Rain 21 1005 79 10000 4.12 180 18:37 05.12.2021
5035 Rain 21 1005 80 10000 3.6 190 17:53 05.12.2021
5036 Rain 21 1005 80 10000 3.6 190 17:34 05.12.2021
5037 Rain 20 1004 83 10000 3.6 180 16:38 05.12.2021
5038 Rain 20 1004 83 10000 3.6 180 16:19 05.12.2021
5039 Rain 20 1004 82 10000 4.12 190 14:48 05.12.2021
5040 Rain 20 1004 82 10000 4.12 190 14:30 05.12.2021
5041 Rain 20 1004 83 10000 3.6 190 13:36 05.12.2021
5042 Rain 20 1004 81 10000 4.12 190 12:47 05.12.2021
5043 Rain 20 1004 82 10000 4.12 190 12:27 05.12.2021
5044 Rain 20 1004 80 10000 4.63 190 11:47 05.12.2021
5045 Rain 20 1005 83 10000 5.66 210 10:44 05.12.2021
5046 Rain 19 1004 81 10000 0 0 09:51 05.12.2021
5047 Rain 19 1003 80 10000 1.54 0 06:31 05.12.2021
5048 Rain 22 1002 70 10000 4.12 260 01:38 05.12.2021
5049 Clouds 22 1004 65 10000 0.45 264 23:22 04.12.2021
5050 Clouds 21 1005 68 10000 1.54 360 21:52 04.12.2021
5051 Clouds 19 1005 77 10000 2.57 350 20:47 04.12.2021
5052 Clouds 17 1006 80 10000 1.54 40 19:54 04.12.2021
5053 Clouds 19 1005 72 10000 1.54 120 19:30 04.12.2021
5054 Clouds 19 1004 73 10000 2.13 261 17:58 04.12.2021
5055 Clouds 17 1005 79 10000 0 0 17:36 04.12.2021
5056 Clouds 16 1005 81 10000 1.54 40 16:47 04.12.2021
5057 Clouds 16 1005 80 10000 1.54 40 16:28 04.12.2021
5058 Clouds 18 1005 73 10000 0 0 13:39 04.12.2021
5059 Clouds 19 1007 68 10000 2.06 310 11:44 04.12.2021
5060 Clouds 19 1008 69 10000 2.06 310 11:19 04.12.2021
5061 Clouds 19 1008 65 10000 0.45 247 09:57 04.12.2021
5062 Clouds 20 1007 65 10000 3.09 10 08:38 04.12.2021
5063 Clouds 21 1007 66 10000 6.69 360 05:18 04.12.2021
5064 Clouds 22 1007 63 10000 8.23 360 04:39 04.12.2021
5065 Rain 24 1009 77 10000 8.75 330 23:48 03.12.2021
5066 Rain 25 1010 74 10000 2.06 340 22:54 03.12.2021
5067 Rain 25 1010 79 10000 0.45 165 21:58 03.12.2021
5068 Rain 24 1011 81 10000 5.66 300 21:24 03.12.2021
5069 Rain 24 1011 81 10000 0.45 230 20:42 03.12.2021
5070 Rain 23 1010 74 10000 5.66 330 19:28 03.12.2021
5071 Rain 23 1009 73 10000 3.48 326 18:24 03.12.2021
5072 Rain 23 1009 74 10000 3.59 310 17:31 03.12.2021
5073 Rain 22 1012 79 10000 0 0 13:45 03.12.2021
5074 Rain 22 1013 80 10000 0 0 12:49 03.12.2021
5075 Clouds 22 1013 80 10000 1.54 300 11:23 03.12.2021
5076 Clouds 23 1014 76 10000 1.54 10 09:25 03.12.2021
5077 Rain 23 1014 77 10000 5.14 280 08:20 03.12.2021
5078 Clouds 25 1013 74 10000 2.06 270 06:44 03.12.2021
5079 Clouds 27 1015 66 10000 3.6 160 00:50 03.12.2021
5080 Clouds 28 1015 67 10000 3.6 160 00:21 03.12.2021
5081 Clouds 27 1016 64 10000 4.63 170 23:38 02.12.2021
5082 Clouds 26 1017 73 10000 0 0 21:41 02.12.2021
5083 Clouds 26 1015 74 10000 1.54 100 20:46 02.12.2021
5084 Clouds 26 1015 74 10000 1.54 100 20:26 02.12.2021
5085 Clouds 23 1015 79 10000 1.54 10 19:23 02.12.2021
5086 Clouds 22 1013 81 10000 1.54 30 17:21 02.12.2021
5087 Clouds 22 1013 84 10000 0 0 15:41 02.12.2021
5088 Clear 22 1012 80 10000 0.35 142 14:57 02.12.2021
5089 Rain 22 1013 82 10000 0 0 13:45 02.12.2021
5090 Clouds 23 1013 79 10000 3.09 60 12:50 02.12.2021
5091 Clouds 23 1015 78 10000 3.09 40 11:53 02.12.2021
5092 Clouds 24 1015 76 10000 6.17 70 09:28 02.12.2021
5093 Clear 24 1015 76 10000 1.54 80 08:20 02.12.2021
5094 Clouds 27 1011 69 10000 0.89 80 01:59 02.12.2021
5095 Clouds 28 1012 62 10000 6.69 60 00:50 02.12.2021
5096 Rain 28 1012 62 10000 1.34 80 22:34 01.12.2021
5097 Clouds 27 1015 70 10000 3.6 110 21:55 01.12.2021
5098 Clouds 27 1014 68 10000 0.45 157 20:35 01.12.2021
5099 Rain 25 1014 76 10000 0.89 79 19:47 01.12.2021
5100 Rain 24 1013 80 10000 0.45 11 18:57 01.12.2021
5101 Rain 23 1013 78 10000 0.45 31 17:39 01.12.2021
5102 Clouds 23 1012 78 10000 0.45 110 16:37 01.12.2021
5103 Clouds 23 1012 77 10000 0.89 76 14:48 01.12.2021
5104 Clouds 23 1013 80 10000 0.89 66 13:38 01.12.2021
5105 Rain 23 1014 77 10000 2.57 50 11:34 01.12.2021
5106 Rain 24 1014 73 10000 1.54 20 10:41 01.12.2021
5107 Rain 23 1014 74 10000 1.79 80 08:53 01.12.2021
5108 Clouds 24 1014 73 10000 2.06 80 08:26 01.12.2021
5109 Rain 25 1014 71 10000 4.63 70 07:32 01.12.2021
5110 Rain 27 1012 67 10000 4.63 70 04:18 01.12.2021
5111 Rain 27 1011 66 10000 5.66 60 03:32 01.12.2021
5112 Rain 28 1012 63 10000 0.45 41 00:45 01.12.2021
5113 Rain 27 1012 68 10000 1.79 93 23:35 30.11.2021
5114 Clouds 27 1013 67 10000 0.89 94 22:39 30.11.2021
5115 Clouds 25 1014 70 10000 0.89 82 20:48 30.11.2021
5116 Clouds 25 1014 69 10000 1.34 34 20:27 30.11.2021
5117 Clouds 24 1014 73 10000 2.24 48 19:47 30.11.2021
5118 Clouds 24 1014 73 10000 1.79 99 19:24 30.11.2021
5119 Rain 23 1012 75 10000 0.89 58 17:57 30.11.2021
5120 Rain 23 1012 70 10000 0.45 99 16:25 30.11.2021
5121 Clouds 22 1013 78 10000 0.89 80 14:35 30.11.2021
5122 Clouds 22 1013 78 10000 1.34 27 13:48 30.11.2021
5123 Rain 22 1013 78 10000 0.45 78 13:22 30.11.2021
5124 Rain 22 1013 78 10000 0 0 12:41 30.11.2021
5125 Rain 23 1014 73 10000 2.57 10 11:26 30.11.2021
5126 Rain 23 1014 77 10000 0.45 354 10:37 30.11.2021
5127 Clouds 23 1013 73 10000 0.45 59 08:59 30.11.2021
5128 Clouds 24 1014 71 10000 0.45 190 08:40 30.11.2021
5129 Clouds 24 1014 70 10000 2.06 70 08:19 30.11.2021
5130 Clouds 24 1013 69 10000 0.89 54 06:39 30.11.2021
5131 Clouds 26 1012 66 10000 1.34 125 01:52 30.11.2021
5132 Rain 26 1011 67 10000 1.79 20 01:28 30.11.2021
5133 Rain 23 1012 78 10000 1.79 144 23:54 29.11.2021
5134 Rain 24 1012 77 10000 0.89 0 23:20 29.11.2021
5135 Rain 25 1013 68 10000 1.79 85 22:42 29.11.2021
5136 Rain 26 1013 65 10000 6.69 10 22:24 29.11.2021
5137 Rain 24 1013 65 10000 1.79 34 21:21 29.11.2021
5138 Rain 24 1015 65 10000 1.34 0 20:54 29.11.2021
5139 Clouds 24 1015 61 10000 6.17 40 20:21 29.11.2021
5140 Clouds 24 1015 60 10000 1.79 89 19:42 29.11.2021
5141 Clouds 23 1015 61 10000 1.79 14 19:21 29.11.2021
5142 Clouds 23 1016 63 10000 8.42 40 18:42 29.11.2021
5143 Clouds 24 1015 60 10000 9.48 49 17:22 29.11.2021
5144 Clouds 24 1015 60 10000 9.48 49 16:50 29.11.2021
5145 Clouds 23 1015 66 10000 9.17 53 16:24 29.11.2021
5146 Clouds 24 1015 66 10000 9.89 54 14:47 29.11.2021
5147 Clouds 24 1015 66 10000 9.4 56 14:23 29.11.2021
5148 Clouds 24 1016 63 10000 9.59 57 12:59 29.11.2021
5149 Clouds 24 1016 60 10000 10.23 55 12:19 29.11.2021
5150 Clouds 24 1016 64 10000 10.17 54 11:30 29.11.2021
5151 Clouds 24 1017 68 10000 10.56 54 09:59 29.11.2021
5152 Clouds 24 1017 65 10000 4.63 60 07:47 29.11.2021
5153 Rain 24 1015 69 10000 7.72 40 05:51 29.11.2021
5154 Rain 27 1014 56 10000 5.66 60 01:24 29.11.2021
5155 Rain 26 1015 65 10000 5.14 60 23:54 28.11.2021
5156 Rain 26 1016 59 10000 3.6 20 23:36 28.11.2021
5157 Clouds 26 1016 59 10000 4.12 10 22:18 28.11.2021
5158 Clouds 24 1016 71 10000 5.66 60 21:39 28.11.2021
5159 Clouds 24 1016 71 10000 4.63 40 20:40 28.11.2021
5160 Clouds 22 1016 83 10000 3.09 360 19:44 28.11.2021
5161 Clouds 21 1016 88 10000 1.54 0 18:40 28.11.2021
5162 Clear 21 1015 76 10000 4.11 45 17:58 28.11.2021
5163 Clouds 20 1015 94 10000 0 0 17:34 28.11.2021
5164 Clouds 21 1015 88 10000 1.54 40 16:47 28.11.2021
5165 Clouds 21 1015 88 10000 1.54 40 16:27 28.11.2021
5166 Clouds 21 1015 88 10000 2.06 350 15:48 28.11.2021
5167 Clouds 22 1015 83 10000 1.54 340 14:55 28.11.2021
5168 Clear 21 1015 78 10000 3.48 42 13:53 28.11.2021
5169 Rain 22 1016 83 10000 3.09 340 12:54 28.11.2021
5170 Clouds 22 1016 83 10000 3.09 340 11:29 28.11.2021
5171 Rain 22 1017 83 10000 2.57 300 10:23 28.11.2021
5172 Rain 23 1017 78 10000 3.09 340 09:40 28.11.2021
5173 Clouds 24 1016 69 10000 3.09 340 08:28 28.11.2021
5174 Clouds 26 1014 63 10000 2.06 110 00:49 28.11.2021
5175 Clouds 23 1017 78 10000 0 0 21:49 27.11.2021
5176 Clouds 23 1016 78 10000 4.63 350 19:50 27.11.2021
5177 Clouds 21 1016 84 10000 2.57 340 18:26 27.11.2021
5178 Clouds 24 1014 69 10000 5.66 40 16:00 27.11.2021
5179 Clouds 21 1015 77 10000 2.57 310 14:35 27.11.2021
5180 Clouds 21 1016 77 10000 2.06 310 13:21 27.11.2021
5181 Clouds 21 1017 72 10000 1.54 290 11:23 27.11.2021
5182 Clouds 22 1017 68 10000 0 0 10:19 27.11.2021
5183 Clouds 24 1017 69 10000 4.63 60 08:53 27.11.2021
5184 Clouds 24 1017 61 10000 3.6 70 06:58 27.11.2021
5185 Clear 24 1016 64 10000 6.76 60 03:57 27.11.2021
5186 Clouds 29 1016 46 10000 6.17 30 00:23 27.11.2021
5187 Clouds 28 1018 48 10000 5.14 50 22:41 26.11.2021
5188 Clouds 28 1018 48 10000 5.14 50 22:20 26.11.2021
5189 Clouds 28 1019 45 10000 6.69 80 21:23 26.11.2021
5190 Clouds 26 1019 48 10000 6.17 50 20:40 26.11.2021
5191 Clouds 24 1018 53 10000 2.57 30 19:55 26.11.2021
5192 Clouds 23 1018 56 10000 2.06 360 18:45 26.11.2021
5193 Clouds 22 1018 60 10000 2.57 350 17:27 26.11.2021
5194 Clouds 22 1018 62 10000 1.54 330 16:50 26.11.2021
5195 Clouds 24 1017 60 10000 4.12 70 14:57 26.11.2021
5196 Clouds 24 1018 69 10000 1.34 83 13:35 26.11.2021
5197 Clouds 24 1019 70 10000 5.14 50 10:44 26.11.2021
5198 Clouds 24 1018 75 10000 1.34 90 09:53 26.11.2021
5199 Clouds 24 1016 70 10000 1.34 92 08:50 26.11.2021
5200 Clouds 25 1016 70 10000 1.34 82 08:20 26.11.2021
5201 Clouds 25 1018 71 10000 1.34 13 06:31 26.11.2021
5202 Clouds 25 1017 70 10000 0.89 114 05:35 26.11.2021
5203 Clouds 27 1016 65 10000 7.72 70 03:39 26.11.2021
5204 Clouds 29 1018 56 10000 7.72 70 23:49 25.11.2021
5205 Clouds 29 1019 58 10000 4.63 60 22:34 25.11.2021
5206 Clouds 27 1019 69 10000 0.89 344 20:45 25.11.2021
5207 Clouds 24 1019 76 10000 2.06 340 19:22 25.11.2021
5208 Clouds 22 1019 81 10000 2.06 320 18:31 25.11.2021
5209 Clouds 22 1018 80 10000 2.57 350 17:28 25.11.2021
5210 Clouds 22 1018 81 10000 3.09 340 16:45 25.11.2021
5211 Rain 22 1017 86 10000 3.09 90 16:00 25.11.2021
5212 Clouds 22 1018 79 10000 0 0 14:31 25.11.2021
5213 Clouds 22 1018 77 10000 2.24 340 12:57 25.11.2021
5214 Clear 23 1019 77 10000 2.24 360 11:57 25.11.2021
5215 Clouds 24 1018 73 10000 2.06 60 10:49 25.11.2021
5216 Clouds 25 1018 70 10000 1.34 89 08:28 25.11.2021
5217 Clouds 27 1015 62 10000 3.6 30 03:18 25.11.2021
5218 Clouds 28 1014 58 10000 5.66 90 01:26 25.11.2021
5219 Clouds 29 1018 49 10000 2.57 360 22:33 24.11.2021
5220 Clear 27 1018 56 10000 4.02 90 21:57 24.11.2021
5221 Clouds 27 1018 58 10000 4.12 90 21:22 24.11.2021
5222 Clouds 26 1018 64 10000 2.57 330 20:27 24.11.2021
5223 Clouds 24 1017 71 10000 3.09 340 19:40 24.11.2021
5224 Clouds 22 1017 79 10000 0.45 116 18:19 24.11.2021
5225 Clouds 22 1016 80 10000 2.06 340 16:47 24.11.2021
5226 Clouds 22 1015 77 10000 1.34 10 14:58 24.11.2021
5227 Clouds 22 1016 76 10000 0.89 56 14:22 24.11.2021
5228 Clear 22 1016 75 10000 0.89 97 13:35 24.11.2021
5229 Clouds 23 1017 75 10000 1.54 310 11:34 24.11.2021
5230 Clouds 23 1016 75 10000 0.45 92 10:58 24.11.2021
5231 Clouds 23 1018 73 10000 0.89 82 10:36 24.11.2021
5232 Clouds 24 1018 73 10000 0 0 09:33 24.11.2021
5233 Clouds 24 1017 69 10000 1.34 97 07:41 24.11.2021
5234 Clouds 25 1016 65 10000 5.14 70 05:38 24.11.2021
5235 Clouds 28 1015 57 10000 5.14 80 03:32 24.11.2021
5236 Clouds 30 1017 51 10000 4.63 80 23:33 23.11.2021
5237 Clouds 28 1016 55 10000 5.14 80 22:38 23.11.2021
5238 Clouds 28 1019 59 10000 2.57 80 21:45 23.11.2021
5239 Clouds 27 1018 65 10000 4.63 90 20:22 23.11.2021
5240 Clouds 25 1018 74 10000 0.89 159 19:29 23.11.2021
5241 Clouds 23 1018 77 10000 1.54 360 18:33 23.11.2021
5242 Clouds 23 1017 78 10000 1.54 0 17:31 23.11.2021
5243 Clouds 23 1017 79 10000 1.79 71 16:35 23.11.2021
5244 Clouds 23 1017 78 10000 1.34 80 15:27 23.11.2021
5245 Clouds 24 1017 78 10000 0.45 80 14:45 23.11.2021
5246 Rain 23 1015 75 10000 0.45 102 13:20 23.11.2021
5247 Rain 23 1018 80 10000 1.34 102 10:28 23.11.2021
5248 Clouds 24 1018 79 10000 1.34 121 09:46 23.11.2021
5249 Clouds 23 1016 77 10000 1.34 59 07:56 23.11.2021
5250 Clouds 25 1015 72 10000 1.79 92 04:53 23.11.2021
5251 Rain 26 1015 71 10000 1.34 80 03:29 23.11.2021
5252 Clouds 27 1017 70 10000 0.89 111 23:35 22.11.2021
5253 Rain 26 1016 72 10000 1.79 49 22:57 22.11.2021
5254 Rain 26 1018 68 10000 1.34 68 22:30 22.11.2021
5255 Rain 26 1018 68 10000 1.34 68 22:30 22.11.2021
5256 Rain 26 1018 68 10000 1.34 68 22:30 22.11.2021
5257 Clouds 26 1018 71 10000 6.17 50 21:44 22.11.2021
5258 Clouds 26 1018 72 10000 1.34 72 21:18 22.11.2021
5259 Clouds 26 1018 71 10000 5.66 60 20:23 22.11.2021
5260 Clouds 25 1018 74 10000 0.89 93 19:20 22.11.2021
5261 Clouds 24 1017 75 10000 0.45 56 18:40 22.11.2021
5262 Clouds 24 1017 75 10000 0.45 56 18:40 22.11.2021
5263 Clouds 23 1017 76 10000 4.12 70 17:46 22.11.2021
5264 Clouds 24 1016 73 10000 0.89 89 16:30 22.11.2021
5265 Clouds 24 1016 73 10000 0.89 111 14:41 22.11.2021
5266 Clouds 24 1017 73 10000 1.34 94 12:48 22.11.2021
5267 Clouds 24 1018 71 10000 4.12 60 11:27 22.11.2021
5268 Clouds 25 1017 73 10000 3.58 50 09:56 22.11.2021
5269 Clouds 25 1017 71 10000 0.45 66 08:42 22.11.2021
5270 Clouds 25 1017 70 10000 0.89 92 07:24 22.11.2021
5271 Clouds 29 1015 57 10000 0.89 11 00:21 22.11.2021
5272 Clouds 28 1017 59 10000 0.89 142 22:54 21.11.2021
5273 Clouds 29 1017 54 10000 1.79 7 22:26 21.11.2021
5274 Clouds 27 1018 66 10000 0.89 75 20:42 21.11.2021
5275 Clouds 27 1018 66 10000 0.89 75 20:42 21.11.2021
5276 Clouds 27 1018 66 10000 0.45 47 20:22 21.11.2021
5277 Clouds 23 1016 75 10000 0.45 52 18:30 21.11.2021
5278 Clouds 23 1016 76 10000 0 0 17:40 21.11.2021
5279 Clouds 23 1017 78 10000 2.06 330 16:52 21.11.2021
5280 Clear 24 1016 77 10000 3.6 70 14:47 21.11.2021
5281 Clear 24 1016 77 10000 4.02 70 13:54 21.11.2021
5282 Clouds 24 1016 80 10000 1.34 360 12:55 21.11.2021
5283 Clouds 24 1016 77 10000 5.36 66 11:57 21.11.2021
5284 Clouds 24 1017 78 10000 2.06 0 11:35 21.11.2021
5285 Clouds 24 1018 77 10000 2.06 50 10:19 21.11.2021
5286 Clouds 24 1018 77 10000 3.6 90 09:20 21.11.2021
5287 Clouds 25 1017 73 10000 2.06 40 08:30 21.11.2021
5288 Clouds 25 1017 73 10000 2.57 40 07:50 21.11.2021
5289 Clouds 26 1016 70 10000 4.63 310 06:20 21.11.2021
5290 Clouds 26 1016 69 10000 1.54 210 05:30 21.11.2021
5291 Clouds 28 1015 60 10000 2.57 200 03:20 21.11.2021
5292 Clouds 28 1014 61 10000 4.63 150 02:53 21.11.2021
5293 Clouds 28 1014 61 10000 5.66 150 01:23 21.11.2021
5294 Clouds 29 1015 59 10000 6.69 130 00:23 21.11.2021
5295 Clouds 28 1018 60 10000 4.12 70 21:50 20.11.2021
5296 Clouds 28 1018 60 10000 4.12 70 21:30 20.11.2021
5297 Clouds 25 1015 74 10000 2.57 10 19:23 20.11.2021
5298 Clouds 23 1015 77 10000 1.54 340 18:45 20.11.2021
5299 Clouds 23 1015 78 10000 1.54 340 18:19 20.11.2021
5300 Clouds 23 1014 79 10000 0 0 17:18 20.11.2021
5301 Clear 23 1014 77 10000 2.06 340 14:49 20.11.2021
5302 Clear 23 1014 77 10000 2.06 340 14:28 20.11.2021
5303 Clouds 24 1015 74 10000 3.09 70 13:32 20.11.2021
5304 Clouds 24 1016 75 10000 2.06 40 11:20 20.11.2021
5305 Clouds 24 1016 77 10000 1.34 75 09:53 20.11.2021
5306 Clouds 25 1016 72 10000 4.63 60 08:25 20.11.2021
5307 Clouds 26 1014 73 10000 4.12 40 05:29 20.11.2021
5308 Clouds 27 1013 67 10000 5.14 60 04:51 20.11.2021
5309 Clouds 28 1013 63 10000 6.17 40 03:24 20.11.2021
5310 Clouds 29 1013 59 10000 0.45 99 00:42 20.11.2021
5311 Clouds 29 1016 54 10000 5.66 70 23:43 19.11.2021
5312 Clouds 29 1014 54 10000 4.12 80 22:52 19.11.2021
5313 Clouds 28 1016 65 10000 4.63 70 21:21 19.11.2021
5314 Clouds 27 1016 67 10000 5.14 50 20:37 19.11.2021
5315 Clouds 27 1016 67 10000 5.14 50 20:37 19.11.2021
5316 Clouds 27 1015 72 10000 0.89 157 19:56 19.11.2021
5317 Clouds 26 1016 72 10000 0.89 113 19:27 19.11.2021
5318 Clouds 24 1015 78 10000 2.57 0 18:43 19.11.2021
5319 Clouds 23 1015 79 10000 0 0 17:37 19.11.2021
5320 Clear 23 1014 78 10000 1.34 310 15:58 19.11.2021
5321 Clouds 24 1014 80 10000 0 0 13:56 19.11.2021
5322 Clouds 25 1015 75 10000 0 0 10:34 19.11.2021
5323 Clouds 25 1015 77 10000 4.63 70 09:48 19.11.2021
5324 Clear 25 1015 75 10000 0.45 30 08:26 19.11.2021
5325 Clouds 27 1012 72 10000 0.45 76 04:54 19.11.2021
5326 Clouds 29 1012 62 10000 0.45 168 02:40 19.11.2021
5327 Clouds 28 1015 68 10000 2.06 0 23:52 18.11.2021
5328 Clouds 28 1015 69 10000 3.6 140 22:21 18.11.2021
5329 Clouds 28 1015 72 10000 2.06 350 20:50 18.11.2021
5330 Clouds 27 1015 72 10000 2.06 350 20:32 18.11.2021
5331 Clouds 25 1015 81 10000 2.06 330 19:55 18.11.2021
5332 Clouds 25 1015 81 10000 2.06 330 19:34 18.11.2021
5333 Rain 24 1014 78 10000 0 0 18:34 18.11.2021
5334 Clouds 23 1014 87 10000 1.54 330 17:51 18.11.2021
5335 Clouds 23 1013 83 10000 2.06 330 16:45 18.11.2021
5336 Clouds 23 1013 85 10000 1.54 330 15:49 18.11.2021
5337 Clouds 24 1013 82 10000 1.54 80 13:59 18.11.2021
5338 Clouds 24 1014 81 10000 2.06 330 12:34 18.11.2021
5339 Clouds 25 1015 79 10000 1.54 350 11:43 18.11.2021
5340 Clouds 25 1015 79 10000 1.54 350 11:24 18.11.2021
5341 Rain 25 1015 75 10000 0.45 69 09:59 18.11.2021
5342 Clouds 25 1014 77 10000 2.57 20 07:35 18.11.2021
5343 Clouds 26 1012 76 10000 3.58 60 05:57 18.11.2021
5344 Clouds 26 1012 74 10000 3.6 60 05:38 18.11.2021
5345 Clouds 28 1013 70 10000 4.63 200 01:24 18.11.2021
5346 Clouds 28 1013 71 10000 4.63 200 01:24 18.11.2021
5347 Clouds 28 1015 69 10000 3.6 150 23:19 17.11.2021
5348 Clouds 28 1016 70 10000 3.09 170 22:34 17.11.2021
5349 Clouds 28 1016 71 10000 2.06 0 21:53 17.11.2021
5350 Clouds 28 1015 72 10000 2.06 0 21:34 17.11.2021
5351 Clouds 23 1013 78 10000 1.54 320 18:47 17.11.2021
5352 Clouds 23 1012 82 10000 0 0 17:28 17.11.2021
5353 Clouds 23 1013 79 10000 2.06 330 14:52 17.11.2021
5354 Clouds 24 1013 80 10000 0 0 12:42 17.11.2021
5355 Clouds 24 1015 80 10000 2.06 120 11:49 17.11.2021
5356 Rain 24 1015 79 10000 2.57 90 10:49 17.11.2021
5357 Rain 25 1014 80 10000 2.06 80 09:26 17.11.2021
5358 Rain 26 1015 77 10000 0 0 07:45 17.11.2021
5359 Rain 26 1013 79 10000 2.57 180 04:47 17.11.2021
5360 Rain 27 1012 78 10000 4.12 180 02:37 17.11.2021
5361 Rain 28 1015 74 10000 4.63 140 23:27 16.11.2021
5362 Clouds 27 1016 73 10000 2.06 0 21:48 16.11.2021
5363 Rain 27 1015 74 10000 0 0 20:18 16.11.2021
5364 Rain 24 1014 76 10000 1.54 190 18:54 16.11.2021
5365 Rain 24 1014 78 10000 0 0 18:35 16.11.2021
5366 Rain 24 1013 79 10000 1.54 320 17:43 16.11.2021
5367 Clouds 24 1013 79 10000 1.54 80 16:52 16.11.2021
5368 Rain 24 1013 79 10000 1.54 80 16:18 16.11.2021
5369 Rain 23 1013 79 10000 0 0 15:40 16.11.2021
5370 Clouds 25 1014 75 10000 1.54 320 12:34 16.11.2021
5371 Rain 24 1014 75 10000 0 0 09:49 16.11.2021
5372 Clouds 24 1014 77 10000 2.06 350 08:48 16.11.2021
5373 Clouds 24 1014 76 10000 3.09 310 07:34 16.11.2021
5374 Mist 26 1012 75 10000 3.6 270 02:50 16.11.2021
5375 Rain 27 1013 68 10000 3.09 160 23:23 15.11.2021
5376 Rain 27 1013 67 10000 0 0 22:39 15.11.2021
5377 Rain 27 1014 70 10000 1.54 0 21:54 15.11.2021
5378 Clouds 26 1014 71 10000 1.54 0 21:29 15.11.2021
5379 Clouds 25 1013 76 10000 1.92 59 19:58 15.11.2021
5380 Clouds 23 1011 75 10000 2.06 320 18:48 15.11.2021
5381 Clouds 23 1010 75 10000 2.24 350 16:55 15.11.2021
5382 Clouds 22 1012 79 10000 0 0 15:42 15.11.2021
5383 Clouds 22 1012 79 10000 0 0 15:24 15.11.2021
5384 Clouds 23 1013 77 10000 1.54 320 13:35 15.11.2021
5385 Rain 23 1012 75 10000 0.8 99 11:54 15.11.2021
5386 Rain 23 1014 73 10000 2.57 80 09:29 15.11.2021
5387 Rain 23 1013 69 10000 1.28 86 07:57 15.11.2021
5388 Rain 25 1013 70 10000 0 0 05:24 15.11.2021
5389 Clouds 25 1013 79 10000 6.69 120 00:18 15.11.2021
5390 Rain 25 1014 73 10000 6.17 150 22:38 14.11.2021
5391 Clouds 24 1012 77 10000 1.75 125 19:59 14.11.2021
5392 Clouds 24 1012 75 10000 2.06 340 19:18 14.11.2021
5393 Clouds 24 1011 77 10000 1.82 55 18:54 14.11.2021
5394 Clouds 23 1012 78 10000 0 0 18:36 14.11.2021
5395 Clouds 23 1012 78 10000 0 0 18:18 14.11.2021
5396 Clouds 23 1011 78 10000 1.81 55 17:57 14.11.2021
5397 Clouds 23 1012 75 10000 2.06 320 17:39 14.11.2021
5398 Clouds 23 1012 75 10000 2.06 320 17:21 14.11.2021
5399 Clouds 23 1011 77 10000 2.06 340 16:47 14.11.2021
5400 Clouds 23 1011 77 10000 2.06 340 16:47 14.11.2021
5401 Clouds 23 1011 76 10000 2.06 340 16:20 14.11.2021
5402 Clouds 23 1011 76 10000 0 0 15:23 14.11.2021
5403 Clouds 23 1011 77 10000 2.06 340 14:49 14.11.2021
5404 Clouds 23 1012 78 10000 2.06 340 14:29 14.11.2021
5405 Clouds 23 1012 78 10000 0 0 13:54 14.11.2021
5406 Clouds 23 1012 79 10000 0 0 13:35 14.11.2021
5407 Clouds 23 1012 79 10000 2.57 340 12:27 14.11.2021
5408 Clouds 23 1013 76 10000 0 0 11:41 14.11.2021
5409 Clouds 24 1014 75 10000 0 0 10:42 14.11.2021
5410 Clouds 25 1014 71 10000 1.54 350 09:48 14.11.2021
5411 Clear 25 1013 71 10000 1.34 30 08:54 14.11.2021
5412 Clouds 25 1013 68 10000 2.06 30 07:19 14.11.2021
5413 Clouds 28 1012 56 10000 4.12 170 00:26 14.11.2021
5414 Clouds 28 1014 58 10000 3.09 200 22:26 13.11.2021
5415 Clear 27 1013 65 10000 1.54 150 21:56 13.11.2021
5416 Clouds 26 1014 65 10000 0 0 21:22 13.11.2021
5417 Clouds 24 1014 73 10000 0 0 19:38 13.11.2021
5418 Clouds 23 1014 74 10000 2.06 50 18:33 13.11.2021
5419 Clouds 23 1014 74 10000 2.06 50 18:33 13.11.2021
5420 Clouds 23 1012 76 10000 1.32 218 17:55 13.11.2021
5421 Clouds 23 1013 76 10000 1.54 350 16:37 13.11.2021
5422 Clouds 23 1013 75 10000 0 0 15:20 13.11.2021
5423 Clouds 23 1013 76 10000 0 0 14:20 13.11.2021
5424 Clouds 23 1013 76 10000 1.98 244 12:56 13.11.2021
5425 Clouds 23 1014 76 10000 0 0 12:20 13.11.2021
5426 Clouds 23 1015 76 10000 2.06 360 11:28 13.11.2021
5427 Clouds 23 1015 75 10000 2.06 10 10:44 13.11.2021
5428 Clouds 24 1015 73 10000 0 0 09:53 13.11.2021
5429 Clouds 24 1015 73 10000 0 0 09:33 13.11.2021
5430 Clear 24 1015 72 10000 1.54 10 08:56 13.11.2021
5431 Clear 24 1015 72 10000 1.54 10 08:22 13.11.2021
5432 Clouds 26 1012 67 10000 2.57 210 04:43 13.11.2021
5433 Clouds 27 1012 66 10000 2.57 210 04:25 13.11.2021
5434 Clouds 28 1013 58 10000 4.63 140 00:38 13.11.2021
5435 Clouds 28 1015 58 10000 5.14 140 22:44 12.11.2021
5436 Clouds 27 1015 60 10000 5.14 120 21:32 12.11.2021
5437 Clouds 25 1014 68 10000 0 0 19:45 12.11.2021
5438 Clouds 25 1014 68 10000 0 0 19:27 12.11.2021
5439 Clouds 23 1014 71 10000 1.54 330 18:21 12.11.2021
5440 Clouds 24 1014 69 10000 2.06 70 16:20 12.11.2021
5441 Clouds 24 1014 70 10000 0 0 15:31 12.11.2021
5442 Clouds 24 1016 72 10000 3.6 60 11:32 12.11.2021
5443 Clouds 25 1016 70 10000 2.57 40 10:50 12.11.2021
5444 Clouds 25 1016 70 10000 3.09 40 09:29 12.11.2021
5445 Clouds 24 1014 70 10000 4.12 70 08:38 12.11.2021
5446 Clouds 28 1014 60 10000 4.63 150 02:22 12.11.2021
5447 Clouds 29 1016 45 10000 6.17 130 23:33 11.11.2021
5448 Clouds 28 1017 55 10000 4.63 120 22:30 11.11.2021
5449 Clouds 28 1017 56 10000 3.09 140 21:27 11.11.2021
5450 Clouds 27 1017 61 10000 4.63 70 20:38 11.11.2021
5451 Clear 25 1015 71 10000 1.54 100 18:55 11.11.2021
5452 Clouds 22 1015 79 10000 2.06 350 17:42 11.11.2021
5453 Clouds 22 1015 79 10000 2.06 310 16:38 11.11.2021
5454 Clouds 23 1016 75 10000 2.06 40 14:44 11.11.2021
5455 Clouds 23 1016 75 10000 2.06 40 14:26 11.11.2021
5456 Clouds 23 1016 75 10000 0 0 13:36 11.11.2021
5457 Clouds 24 1016 73 10000 2.57 50 12:48 11.11.2021
5458 Clouds 24 1017 73 10000 4.12 70 10:35 11.11.2021
5459 Clouds 25 1017 71 10000 3.09 40 09:33 11.11.2021
5460 Clouds 25 1016 71 10000 1.54 30 07:36 11.11.2021
5461 Clouds 28 1015 56 10000 4.12 170 02:35 11.11.2021
5462 Clouds 28 1017 52 10000 3.09 210 22:49 10.11.2021
5463 Clouds 28 1018 48 10000 0.52 95 21:58 10.11.2021
5464 Clouds 28 1019 47 10000 0 0 21:18 10.11.2021
5465 Clouds 26 1018 66 10000 1.54 310 20:35 10.11.2021
5466 Clouds 24 1017 77 10000 0 0 19:46 10.11.2021
5467 Clouds 21 1016 78 10000 0 0 17:39 10.11.2021
5468 Clouds 21 1016 81 10000 1.54 350 16:25 10.11.2021
5469 Clouds 21 1016 78 10000 2.06 340 14:40 10.11.2021
5470 Clear 22 1016 79 10000 1.54 340 13:40 10.11.2021
5471 Clouds 22 1017 79 10000 1.54 350 12:40 10.11.2021
5472 Clouds 23 1017 76 10000 0 0 10:20 10.11.2021
5473 Clouds 24 1017 75 10000 0 0 08:45 10.11.2021
5474 Clouds 24 1017 72 10000 2.06 20 07:22 10.11.2021
5475 Clouds 25 1016 66 10000 1.54 110 05:59 10.11.2021
5476 Clouds 26 1015 67 10000 1.79 170 04:59 10.11.2021
5477 Clouds 27 1017 60 10000 4.12 160 22:45 09.11.2021
5478 Clouds 28 1017 58 10000 2.57 340 21:46 09.11.2021
5479 Clouds 26 1017 63 10000 1.54 290 20:20 09.11.2021
5480 Clouds 25 1016 72 10000 2.95 146 18:59 09.11.2021
5481 Clouds 23 1016 78 10000 2.06 0 17:24 09.11.2021
5482 Clouds 23 1015 74 10000 2.06 340 15:38 09.11.2021
5483 Clouds 23 1015 74 10000 2.57 0 13:55 09.11.2021
5484 Clouds 24 1016 72 10000 2.57 70 12:50 09.11.2021
5485 Clouds 24 1016 73 10000 2.06 60 11:34 09.11.2021
5486 Clouds 24 1016 70 10000 2.06 50 10:41 09.11.2021
5487 Clouds 24 1016 70 10000 3.6 60 09:22 09.11.2021
5488 Clouds 24 1015 69 10000 3.58 50 07:55 09.11.2021
5489 Clouds 27 1013 58 10000 0.45 69 03:45 09.11.2021
5490 Clouds 28 1014 60 10000 7.15 50 01:58 09.11.2021
5491 Clouds 28 1014 55 10000 7.2 50 01:36 09.11.2021
5492 Clouds 28 1016 62 10000 5.66 60 23:34 08.11.2021
5493 Clouds 28 1017 58 10000 5.66 40 22:47 08.11.2021
5494 Clouds 27 1018 56 10000 6.69 100 21:45 08.11.2021
5495 Clouds 27 1018 60 10000 0.45 97 20:36 08.11.2021
5496 Clouds 26 1018 66 10000 0.89 121 19:43 08.11.2021
5497 Clouds 23 1017 75 10000 2.57 90 17:48 08.11.2021
5498 Clouds 24 1016 74 10000 3.58 70 15:56 08.11.2021
5499 Clouds 23 1016 75 10000 3.58 70 14:57 08.11.2021
5500 Clouds 23 1016 73 10000 0.45 145 14:33 08.11.2021
5501 Clouds 23 1017 76 10000 2.06 60 13:18 08.11.2021
5502 Clouds 24 1017 71 10000 0.89 140 11:55 08.11.2021
5503 Clouds 24 1018 70 10000 2.57 20 10:50 08.11.2021
5504 Clouds 24 1018 68 10000 2.57 30 09:26 08.11.2021
5505 Clouds 24 1018 70 10000 5.14 40 08:42 08.11.2021
5506 Clear 25 1017 73 10000 0.89 52 06:56 08.11.2021
5507 Clouds 27 1017 63 10000 5.14 40 03:35 08.11.2021
5508 Clouds 29 1018 57 10000 7.2 70 01:35 08.11.2021
5509 Clouds 29 1018 58 10000 0.45 142 23:25 07.11.2021
5510 Clouds 28 1016 62 10000 0.45 116 21:26 07.11.2021
5511 Clouds 27 1020 63 10000 7.72 60 20:28 07.11.2021
5512 Clouds 25 1018 71 10000 1.34 102 18:47 07.11.2021
5513 Clouds 24 1018 71 10000 0.45 133 17:43 07.11.2021
5514 Clouds 24 1018 75 10000 0.45 66 16:26 07.11.2021
5515 Clouds 25 1018 71 10000 6.17 70 15:25 07.11.2021
5516 Clouds 25 1018 71 10000 0.89 117 14:27 07.11.2021
5517 Clouds 25 1019 71 10000 0.45 80 12:50 07.11.2021
5518 Clouds 25 1019 73 10000 2.24 78 11:41 07.11.2021
5519 Clear 25 1019 71 10000 5.81 60 08:59 07.11.2021
5520 Clear 26 1014 72 10000 10.41 69 02:58 07.11.2021
5521 Clouds 28 1016 64 10000 7.72 40 02:22 07.11.2021
5522 Clouds 27 1018 68 10000 1.34 110 22:56 06.11.2021
5523 Clouds 27 1018 71 10000 1.79 87 21:58 06.11.2021
5524 Clouds 27 1018 67 10000 0.89 79 20:59 06.11.2021
5525 Clouds 27 1019 66 10000 1.34 72 20:18 06.11.2021
5526 Clouds 24 1017 73 10000 1.79 92 17:31 06.11.2021
5527 Clouds 24 1017 73 10000 1.34 80 16:32 06.11.2021
5528 Clouds 25 1017 71 10000 1.34 130 13:41 06.11.2021
5529 Clouds 25 1017 73 10000 0.89 80 12:56 06.11.2021
5530 Clouds 25 1018 70 10000 2.24 86 11:18 06.11.2021
5531 Clouds 25 1018 72 10000 1.79 23 08:48 06.11.2021
5532 Clouds 27 1015 64 10000 6.17 70 04:50 06.11.2021
5533 Clouds 28 1016 63 10000 0.89 89 23:49 05.11.2021
5534 Clouds 28 1016 64 10000 1.34 62 23:28 05.11.2021
5535 Clouds 28 1017 62 10000 0.45 85 22:33 05.11.2021
5536 Clouds 27 1017 63 10000 1.34 18 20:32 05.11.2021
5537 Clouds 26 1016 70 10000 0.89 82 19:51 05.11.2021
5538 Clouds 25 1014 71 10000 2.68 89 18:43 05.11.2021
5539 Clouds 25 1016 71 10000 2.24 68 17:52 05.11.2021
5540 Clouds 25 1016 73 10000 1.34 109 16:37 05.11.2021
5541 Clouds 24 1016 75 10000 1.34 44 14:21 05.11.2021
5542 Clouds 25 1017 72 10000 2.68 75 12:26 05.11.2021
5543 Clouds 25 1017 72 10000 1.79 100 09:27 05.11.2021
5544 Clouds 25 1017 71 10000 1.79 123 08:28 05.11.2021
5545 Clouds 26 1015 71 10000 2.24 96 05:40 05.11.2021
5546 Clouds 28 1014 63 10000 0.89 86 02:37 05.11.2021
5547 Clouds 28 1014 63 10000 1.79 61 02:18 05.11.2021
5548 Clouds 28 1016 69 10000 0.89 102 23:56 04.11.2021
5549 Clouds 28 1017 65 10000 0.89 80 22:21 04.11.2021
5550 Clouds 27 1018 73 10000 0.45 86 21:54 04.11.2021
5551 Clouds 27 1018 70 10000 0.89 125 21:22 04.11.2021
5552 Clouds 26 1018 75 10000 5.14 40 20:25 04.11.2021
5553 Clouds 25 1017 75 10000 3.09 50 19:49 04.11.2021
5554 Rain 25 1017 75 10000 0.89 128 19:22 04.11.2021
5555 Rain 24 1017 78 10000 0.45 135 18:22 04.11.2021
5556 Clouds 24 1016 77 10000 3.6 40 17:26 04.11.2021
5557 Clouds 23 1016 80 10000 0.45 78 15:36 04.11.2021
5558 Clouds 24 1017 75 10000 2.06 60 13:45 04.11.2021
5559 Rain 24 1018 79 10000 3.6 40 10:22 04.11.2021
5560 Rain 25 1018 76 10000 3.6 50 08:31 04.11.2021
5561 Clouds 25 1017 69 10000 3.6 40 07:36 04.11.2021
5562 Clouds 25 1017 72 10000 4.63 50 06:38 04.11.2021
5563 Clouds 28 1016 69 10000 4.12 60 22:54 03.11.2021
5564 Clouds 29 1016 69 10000 5.26 70 21:57 03.11.2021
5565 Clouds 27 1018 68 10000 6.17 70 21:35 03.11.2021
5566 Clouds 27 1017 71 10000 2.57 70 20:39 03.11.2021
5567 Clouds 27 1017 71 10000 2.57 70 20:39 03.11.2021
5568 Rain 27 1017 71 10000 2.57 70 20:19 03.11.2021
5569 Clouds 26 1016 78 10000 0.45 96 19:19 03.11.2021
5570 Clouds 23 1016 79 10000 0 0 18:26 03.11.2021
5571 Clouds 23 1015 78 10000 0 0 17:41 03.11.2021
5572 Clouds 23 1015 77 10000 1.54 330 16:31 03.11.2021
5573 Rain 24 1015 77 10000 2.06 10 15:47 03.11.2021
5574 Rain 24 1015 76 10000 2.06 10 15:28 03.11.2021
5575 Rain 24 1015 76 10000 2.06 10 15:28 03.11.2021
5576 Rain 24 1015 76 10000 2.06 330 12:33 03.11.2021
5577 Rain 24 1016 76 10000 2.06 310 11:27 03.11.2021
5578 Rain 24 1016 76 10000 2.06 330 10:49 03.11.2021
5579 Rain 24 1017 74 10000 1.54 310 09:31 03.11.2021
5580 Rain 24 1017 74 10000 1.54 310 09:31 03.11.2021
5581 Rain 24 1017 72 10000 2.06 340 08:37 03.11.2021
5582 Clouds 25 1016 73 10000 3.09 50 07:39 03.11.2021
5583 Rain 26 1013 72 10000 2.57 330 05:44 03.11.2021
5584 Rain 26 1013 75 10000 4.12 320 03:19 03.11.2021
5585 Clear 28 1014 70 10000 4.02 180 23:57 02.11.2021
5586 Clouds 27 1016 68 10000 3.09 150 22:48 02.11.2021
5587 Clouds 28 1016 68 10000 2.06 0 21:45 02.11.2021
5588 Clouds 27 1016 71 10000 1.54 340 20:34 02.11.2021
5589 Clouds 27 1015 75 10000 1.54 290 19:54 02.11.2021
5590 Clouds 25 1015 78 10000 2.57 330 19:18 02.11.2021
5591 Clouds 24 1014 79 10000 1.54 360 18:26 02.11.2021
5592 Clouds 23 1014 77 10000 2.06 60 17:43 02.11.2021
5593 Clouds 23 1014 80 10000 4.63 330 16:31 02.11.2021
5594 Clouds 23 1014 79 10000 4.63 320 15:48 02.11.2021
5595 Clouds 23 1013 79 10000 1.54 40 14:30 02.11.2021
5596 Clouds 23 1013 77 10000 0 0 13:28 02.11.2021
5597 Clouds 23 1014 77 10000 0 0 12:41 02.11.2021
5598 Clouds 24 1014 74 10000 2.06 330 11:34 02.11.2021
5599 Clouds 23 1015 73 10000 1.54 330 10:53 02.11.2021
5600 Clouds 24 1015 73 10000 1.54 330 10:27 02.11.2021
5601 Clouds 25 1015 72 10000 3.09 310 08:43 02.11.2021
5602 Clouds 25 1014 72 10000 2.68 310 06:57 02.11.2021
5603 Clouds 27 1013 69 10000 6.17 220 03:49 02.11.2021
5604 Clouds 28 1012 66 10000 6.69 230 02:21 02.11.2021
5605 Clouds 27 1015 65 10000 4.63 210 22:55 01.11.2021
5606 Clouds 27 1016 61 10000 3.6 200 21:23 01.11.2021
5607 Clouds 26 1015 65 10000 1.54 300 20:38 01.11.2021
5608 Clouds 24 1015 75 10000 2.06 340 19:55 01.11.2021
5609 Clouds 24 1015 75 10000 2.06 340 19:29 01.11.2021
5610 Clouds 22 1014 78 10000 0 0 18:21 01.11.2021
5611 Clouds 22 1014 78 10000 2.06 330 17:21 01.11.2021
5612 Clouds 22 1013 79 10000 1.54 350 16:45 01.11.2021
5613 Clouds 22 1013 80 10000 1.54 20 15:47 01.11.2021
5614 Clouds 22 1013 80 10000 1.54 20 15:21 01.11.2021
5615 Clouds 22 1013 80 10000 2.06 350 14:42 01.11.2021
5616 Clouds 22 1013 80 10000 2.06 350 14:20 01.11.2021
5617 Clouds 23 1014 76 10000 1.54 350 13:19 01.11.2021
5618 Rain 23 1014 76 10000 0 0 12:24 01.11.2021
5619 Clouds 24 1015 77 10000 2.06 0 10:33 01.11.2021
5620 Clouds 24 1015 76 10000 2.06 330 08:53 01.11.2021
5621 Clouds 25 1014 73 10000 3.09 300 07:48 01.11.2021
5622 Clouds 26 1013 70 10000 4.12 260 05:56 01.11.2021
5623 Clouds 28 1012 63 10000 4.12 220 03:42 01.11.2021
5624 Clouds 28 1014 61 10000 3.6 180 00:23 01.11.2021
5625 Clouds 27 1015 61 10000 2.57 0 21:37 31.10.2021
5626 Clouds 26 1015 66 10000 2.06 160 20:25 31.10.2021
5627 Clear 22 1013 76 10000 2.06 340 18:51 31.10.2021
5628 Clear 22 1013 76 10000 2.06 340 18:25 31.10.2021
5629 Clear 21 1013 78 10000 0 0 16:49 31.10.2021
5630 Clear 21 1013 81 10000 1.54 360 15:18 31.10.2021
5631 Clear 22 1013 80 10000 0 0 13:27 31.10.2021
5632 Clear 22 1014 79 10000 1.54 340 12:30 31.10.2021
5633 Clouds 23 1014 79 10000 2.06 340 10:51 31.10.2021
5634 Clouds 23 1013 77 10000 1.79 340 09:54 31.10.2021
5635 Clouds 24 1014 76 10000 1.54 350 08:48 31.10.2021
5636 Clouds 26 1011 73 10000 3.58 170 04:55 31.10.2021
5637 Clouds 28 1014 61 10000 4.12 160 00:47 31.10.2021
5638 Clouds 27 1016 62 10000 2.57 180 22:28 30.10.2021
5639 Clouds 26 1016 67 10000 0 0 21:30 30.10.2021
5640 Clear 22 1015 77 10000 1.79 340 19:57 30.10.2021
5641 Clear 21 1014 80 10000 0 0 17:51 30.10.2021
5642 Clear 22 1014 75 10000 2.04 51 15:58 30.10.2021
5643 Clouds 22 1015 84 10000 1.54 340 14:23 30.10.2021
5644 Clouds 23 1015 78 10000 2.06 320 13:38 30.10.2021
5645 Clouds 23 1015 77 10000 2.06 320 13:20 30.10.2021
5646 Clouds 24 1016 75 10000 0 0 11:50 30.10.2021
5647 Clouds 23 1017 74 10000 2.57 20 10:58 30.10.2021
5648 Clouds 24 1016 74 10000 2.06 20 09:40 30.10.2021
5649 Clear 24 1015 71 10000 1.34 30 07:57 30.10.2021
5650 Clear 25 1014 71 10000 1.34 30 07:57 30.10.2021
5651 Clouds 27 1014 61 10000 5.14 40 05:48 30.10.2021
5652 Clouds 28 1014 59 10000 0.45 144 03:28 30.10.2021
5653 Clouds 28 1017 63 10000 5.14 70 23:22 29.10.2021
5654 Clouds 28 1017 65 10000 3.09 0 22:35 29.10.2021
5655 Clouds 27 1017 69 10000 2.06 50 21:19 29.10.2021
5656 Clouds 26 1017 72 10000 2.06 350 20:33 29.10.2021
5657 Clouds 24 1016 78 10000 1.54 260 19:30 29.10.2021
5658 Clouds 23 1016 82 10000 3.09 330 17:48 29.10.2021
5659 Clear 23 1016 79 10000 1.54 300 15:50 29.10.2021
5660 Clouds 24 1017 77 10000 3.09 60 13:19 29.10.2021
5661 Clouds 24 1018 74 10000 3.6 60 10:49 29.10.2021
5662 Clouds 24 1018 74 10000 3.6 60 10:30 29.10.2021
5663 Clouds 28 1016 64 10000 4.63 30 02:46 29.10.2021
5664 Rain 28 1018 65 10000 5.14 80 00:32 29.10.2021
5665 Clouds 27 1018 69 10000 0.45 142 22:32 28.10.2021
5666 Clouds 26 1017 75 10000 4.37 62 20:59 28.10.2021
5667 Clouds 24 1017 80 10000 0 0 19:57 28.10.2021
5668 Clouds 23 1017 81 10000 2.57 340 18:47 28.10.2021
5669 Clouds 23 1016 79 10000 2.06 330 17:42 28.10.2021
5670 Clouds 23 1016 78 10000 3.6 30 16:38 28.10.2021
5671 Clouds 23 1017 79 10000 2.57 20 14:42 28.10.2021
5672 Clouds 24 1017 78 10000 3.09 70 13:33 28.10.2021
5673 Clouds 24 1017 76 10000 3.6 340 12:50 28.10.2021
5674 Clouds 24 1018 73 10000 3.6 50 11:49 28.10.2021
5675 Clouds 24 1018 74 10000 5.66 60 10:24 28.10.2021
5676 Clouds 25 1016 74 10000 3.09 60 09:37 28.10.2021
5677 Clouds 24 1015 74 10000 2.06 30 08:36 28.10.2021
5678 Clouds 25 1015 73 10000 2.57 30 07:41 28.10.2021
5679 Clouds 28 1015 62 10000 0.89 142 02:33 28.10.2021
5680 Clouds 27 1018 68 10000 0.45 118 22:54 27.10.2021
5681 Rain 27 1017 72 10000 4.63 40 21:57 27.10.2021
5682 Rain 26 1018 69 10000 2.57 40 21:28 27.10.2021
5683 Haze 24 1018 74 10000 1.54 20 20:43 27.10.2021
5684 Clouds 24 1018 74 10000 1.54 330 19:47 27.10.2021
5685 Clouds 22 1015 79 10000 0 0 18:56 27.10.2021
5686 Clouds 22 1015 81 10000 2.57 310 17:49 27.10.2021
5687 Clouds 22 1016 81 10000 0 0 16:25 27.10.2021
5688 Rain 23 1017 79 10000 2.06 330 15:24 27.10.2021
5689 Rain 23 1017 78 10000 2.57 0 14:24 27.10.2021
5690 Clouds 24 1016 76 10000 0 0 11:18 27.10.2021
5691 Clouds 24 1016 75 10000 0 0 10:37 27.10.2021
5692 Clouds 24 1018 75 10000 3.09 30 09:23 27.10.2021
5693 Clouds 25 1016 69 10000 5.66 40 07:44 27.10.2021
5694 Clouds 27 1015 64 10000 4.63 30 05:49 27.10.2021
5695 Clouds 29 1017 56 10000 4.63 100 01:24 27.10.2021
5696 Clouds 28 1017 63 10000 5.14 40 00:54 27.10.2021
5697 Clouds 29 1017 57 10000 4.12 110 23:54 26.10.2021
5698 Clouds 28 1018 59 10000 5.14 90 22:44 26.10.2021
5699 Clouds 28 1018 60 10000 5.14 90 22:21 26.10.2021
5700 Clouds 26 1018 65 10000 5.14 80 21:32 26.10.2021
5701 Clouds 25 1017 71 10000 2.06 80 19:54 26.10.2021
5702 Clouds 24 1017 71 10000 3.6 60 19:18 26.10.2021
5703 Clear 23 1015 78 10000 5.89 73 17:58 26.10.2021
5704 Clouds 23 1017 74 10000 2.06 100 15:49 26.10.2021
5705 Clouds 23 1017 75 10000 5.9 76 12:55 26.10.2021
5706 Clouds 24 1015 71 10000 2.68 60 10:54 26.10.2021
5707 Clouds 25 1018 67 10000 0.45 89 08:41 26.10.2021
5708 Clouds 25 1016 69 10000 6.17 50 07:22 26.10.2021
5709 Clouds 28 1018 60 10000 0.89 158 00:19 26.10.2021
5710 Clouds 28 1017 57 10000 7.72 60 23:36 25.10.2021
5711 Clouds 28 1017 60 10000 1.34 45 22:29 25.10.2021
5712 Clouds 26 1017 65 10000 0.45 138 21:42 25.10.2021
5713 Clouds 25 1017 67 10000 6.69 40 20:28 25.10.2021
5714 Clouds 25 1018 71 10000 3.6 40 19:43 25.10.2021
5715 Clouds 24 1018 71 10000 3.6 40 19:22 25.10.2021
5716 Clouds 24 1016 70 10000 0.45 110 18:35 25.10.2021
5717 Clouds 24 1016 70 10000 0.45 94 17:26 25.10.2021
5718 Clouds 24 1016 75 10000 0.89 102 14:48 25.10.2021
5719 Clouds 25 1018 72 10000 6.69 60 12:31 25.10.2021
5720 Clouds 25 1016 71 10000 1.79 89 10:46 25.10.2021
5721 Rain 24 1013 70 10000 2.68 96 08:58 25.10.2021
5722 Clouds 25 1016 71 10000 1.34 55 06:27 25.10.2021
5723 Clouds 27 1016 65 10000 1.34 96 03:18 25.10.2021
5724 Clouds 29 1015 56 10000 8.23 70 00:49 25.10.2021
5725 Clouds 29 1015 57 10000 0.89 23 00:31 25.10.2021
5726 Rain 28 1018 64 10000 0.89 123 23:33 24.10.2021
5727 Clouds 26 1019 73 10000 0.89 100 22:37 24.10.2021
5728 Clouds 26 1019 73 10000 1.79 37 22:19 24.10.2021
5729 Rain 24 1019 73 10000 2.24 62 20:54 24.10.2021
5730 Rain 24 1019 73 10000 0.89 100 20:28 24.10.2021
5731 Rain 23 1018 74 10000 0.89 62 19:29 24.10.2021
5732 Clouds 23 1017 80 10000 1.34 34 18:28 24.10.2021
5733 Rain 23 1017 73 10000 1.34 107 17:35 24.10.2021
5734 Rain 25 1017 71 10000 0.89 169 15:49 24.10.2021
5735 Clouds 24 1017 72 10000 1.79 80 13:58 24.10.2021
5736 Clouds 25 1018 69 10000 1.34 0 12:41 24.10.2021
5737 Clouds 25 1018 68 10000 0.89 358 11:43 24.10.2021
5738 Clouds 24 1018 68 10000 1.34 100 10:47 24.10.2021
5739 Clouds 24 1018 68 10000 0.89 97 09:59 24.10.2021
5740 Clouds 26 1016 63 10000 0.45 134 05:35 24.10.2021
5741 Clouds 29 1018 51 10000 8.23 40 00:53 24.10.2021
5742 Clouds 28 1018 56 10000 1.34 31 23:34 23.10.2021
5743 Clouds 28 1020 60 10000 3.6 80 21:56 23.10.2021
5744 Clouds 25 1018 71 10000 0.89 109 19:53 23.10.2021
5745 Clouds 24 1016 75 10000 1.34 120 18:59 23.10.2021
5746 Clouds 24 1017 74 10000 0.45 144 18:21 23.10.2021
5747 Clouds 24 1017 73 10000 4.12 70 17:43 23.10.2021
5748 Clouds 24 1016 72 10000 1.34 66 16:21 23.10.2021
5749 Clouds 25 1017 73 10000 0.89 80 13:58 23.10.2021
5750 Clouds 28 1016 58 10000 0.89 78 03:33 23.10.2021
5751 Clouds 28 1018 62 10000 0.45 124 23:45 22.10.2021
5752 Clouds 27 1018 66 10000 7.2 50 22:44 22.10.2021
5753 Clouds 24 1017 75 10000 1.34 128 19:51 22.10.2021
5754 Clouds 23 1016 79 10000 3.09 10 18:40 22.10.2021
5755 Clouds 23 1016 77 10000 2.06 30 17:25 22.10.2021
5756 Clouds 23 1016 78 10000 1.34 10 14:58 22.10.2021
5757 Clouds 23 1017 79 10000 2.57 30 13:35 22.10.2021
5758 Clouds 23 1017 79 10000 3.6 70 10:58 22.10.2021
5759 Clouds 24 1017 79 10000 0 0 10:37 22.10.2021
5760 Rain 24 1017 74 10000 2.06 30 09:41 22.10.2021
5761 Clouds 24 1016 74 10000 3.6 80 07:53 22.10.2021
5762 Rain 24 1016 74 10000 3.6 80 07:21 22.10.2021
5763 Rain 26 1014 73 10000 5.14 40 02:56 22.10.2021
5764 Clouds 27 1014 71 10000 4.47 10 23:53 21.10.2021
5765 Rain 28 1018 62 10000 0 0 22:47 21.10.2021
5766 Rain 28 1018 62 10000 0 0 22:47 21.10.2021
5767 Rain 26 1017 70 10000 1.54 0 21:39 21.10.2021
5768 Rain 24 1017 73 10000 1.54 320 20:27 21.10.2021
5769 Rain 24 1016 76 10000 1.54 230 19:57 21.10.2021
5770 Rain 23 1016 75 10000 0 0 19:26 21.10.2021
5771 Rain 23 1015 74 10000 1.54 70 18:38 21.10.2021
5772 Rain 23 1015 78 10000 1.34 70 17:53 21.10.2021
5773 Clouds 23 1015 76 10000 1.54 70 17:18 21.10.2021
5774 Clouds 23 1015 76 10000 0 0 15:33 21.10.2021
5775 Clouds 23 1016 76 10000 1.54 280 14:57 21.10.2021
5776 Clouds 23 1016 77 10000 1.54 280 14:37 21.10.2021
5777 Clouds 24 1016 76 10000 1.79 340 11:59 21.10.2021
5778 Clouds 24 1017 68 10000 2.06 340 09:42 21.10.2021
5779 Clouds 24 1017 70 10000 2.57 350 08:20 21.10.2021
5780 Clear 24 1015 67 10000 3.58 30 06:54 21.10.2021
5781 Clouds 29 1018 41 10000 4.12 50 00:51 21.10.2021
5782 Clouds 27 1018 54 10000 3.6 60 22:36 20.10.2021
5783 Clouds 27 1018 59 10000 4.63 360 21:50 20.10.2021
5784 Clouds 25 1017 66 10000 0.45 69 20:59 20.10.2021
5785 Clouds 25 1018 67 10000 3.09 30 20:39 20.10.2021
5786 Clouds 25 1018 68 10000 3.09 30 20:19 20.10.2021
5787 Clouds 22 1017 75 10000 2.06 0 19:23 20.10.2021
5788 Clouds 22 1017 78 10000 2.57 10 18:45 20.10.2021
5789 Clouds 22 1016 77 10000 3.09 340 17:33 20.10.2021
5790 Clouds 22 1017 73 10000 0 0 14:33 20.10.2021
5791 Clouds 24 1017 68 10000 1.54 20 09:54 20.10.2021
5792 Clouds 27 1016 60 10000 5.14 30 05:34 20.10.2021
5793 Clouds 28 1016 53 10000 6.17 60 02:35 20.10.2021
5794 Clouds 28 1018 56 10000 6.69 60 00:33 20.10.2021
5795 Clouds 27 1019 55 10000 0.45 124 22:37 19.10.2021
5796 Clouds 26 1019 61 10000 5.14 40 21:37 19.10.2021
5797 Clouds 25 1018 66 10000 0.89 109 20:26 19.10.2021
5798 Clouds 23 1016 74 10000 2.68 30 19:58 19.10.2021
5799 Clouds 23 1017 75 10000 3.09 30 19:34 19.10.2021
5800 Clouds 22 1017 74 10000 2.06 340 18:40 19.10.2021
5801 Clouds 23 1016 73 10000 2.06 320 17:47 19.10.2021
5802 Clouds 23 1017 75 10000 0.45 331 15:29 19.10.2021
5803 Clouds 24 1017 73 10000 2.57 70 14:37 19.10.2021
5804 Clouds 24 1017 73 10000 0.45 137 13:52 19.10.2021
5805 Clouds 24 1018 73 10000 0.45 133 12:20 19.10.2021
5806 Clouds 24 1018 70 10000 0.89 107 11:23 19.10.2021
5807 Clouds 25 1018 70 10000 4.12 60 09:43 19.10.2021
5808 Clouds 24 1017 71 10000 2.68 50 08:56 19.10.2021
5809 Clouds 28 1016 55 10000 0.45 89 00:39 19.10.2021
5810 Clouds 28 1016 59 10000 1.79 69 23:57 18.10.2021
5811 Clouds 28 1017 56 10000 0.89 127 23:36 18.10.2021
5812 Clouds 28 1018 60 10000 5.81 80 22:55 18.10.2021
5813 Clouds 28 1018 59 10000 0.45 111 22:18 18.10.2021
5814 Clouds 26 1018 65 10000 5.14 70 20:46 18.10.2021
5815 Clouds 25 1018 67 10000 0.45 111 20:21 18.10.2021
5816 Clouds 24 1017 72 10000 0.45 123 19:31 18.10.2021
5817 Clouds 24 1016 72 10000 5.81 70 18:58 18.10.2021
5818 Rain 24 1016 72 10000 0.45 78 16:33 18.10.2021
5819 Clouds 24 1017 71 10000 0.89 127 14:42 18.10.2021
5820 Clouds 24 1017 70 10000 0.45 121 11:59 18.10.2021
5821 Clouds 25 1018 69 10000 1.34 86 09:48 18.10.2021
5822 Clouds 25 1017 68 10000 0.89 96 07:46 18.10.2021
5823 Clouds 28 1017 60 10000 1.34 56 00:29 18.10.2021
5824 Clouds 27 1016 60 10000 0.89 99 22:30 17.10.2021
5825 Clouds 27 1016 62 10000 0.89 102 21:44 17.10.2021
5826 Clouds 26 1015 69 10000 0.45 111 20:56 17.10.2021
5827 Clouds 25 1015 73 10000 8.74 81 19:59 17.10.2021
5828 Clouds 24 1016 70 10000 0.45 109 19:38 17.10.2021
5829 Clouds 24 1015 71 10000 2.24 107 18:28 17.10.2021
5830 Clouds 24 1015 69 10000 0.89 63 16:40 17.10.2021
5831 Clouds 24 1017 70 10000 0.45 90 14:40 17.10.2021
5832 Clouds 24 1017 70 10000 0.45 140 14:20 17.10.2021
5833 Clouds 24 1017 69 10000 5.14 70 13:33 17.10.2021
5834 Clouds 24 1018 69 10000 1.34 96 11:31 17.10.2021
5835 Clouds 24 1018 71 10000 1.79 69 10:19 17.10.2021
5836 Clouds 24 1017 70 10000 0.89 106 08:47 17.10.2021
5837 Clouds 27 1015 62 10000 0.89 125 03:21 17.10.2021
5838 Rain 27 1015 59 10000 7.2 80 00:31 17.10.2021
5839 Clouds 27 1017 65 10000 0.89 125 22:54 16.10.2021
5840 Clouds 26 1016 67 10000 1.34 147 20:45 16.10.2021
5841 Clouds 25 1016 67 10000 4.63 90 20:27 16.10.2021
5842 Clear 23 1016 71 10000 1.34 83 19:40 16.10.2021
5843 Clear 23 1016 72 10000 0.89 97 19:19 16.10.2021
5844 Clear 23 1016 72 10000 0.89 97 19:19 16.10.2021
5845 Clouds 23 1015 72 10000 1.34 118 18:44 16.10.2021
5846 Clouds 23 1015 72 10000 1.34 78 18:23 16.10.2021
5847 Clouds 23 1015 74 10000 0.89 69 17:33 16.10.2021
5848 Clouds 24 1015 70 10000 2.06 0 16:20 16.10.2021
5849 Clouds 24 1016 69 10000 4.12 90 13:26 16.10.2021
5850 Clouds 24 1016 69 10000 0.45 127 11:24 16.10.2021
5851 Clouds 24 1015 70 10000 0.45 142 08:58 16.10.2021
5852 Clouds 27 1014 64 10000 0.45 87 04:26 16.10.2021
5853 Clouds 28 1016 60 10000 1.34 85 00:51 16.10.2021
5854 Clouds 28 1017 61 10000 0.45 128 23:26 15.10.2021
5855 Clouds 27 1017 67 10000 1.34 168 22:21 15.10.2021
5856 Clouds 26 1016 71 10000 1.79 111 21:40 15.10.2021
5857 Rain 25 1016 73 10000 5.66 40 20:54 15.10.2021
5858 Rain 24 1015 72 10000 1.79 8 20:22 15.10.2021
5859 Clouds 23 1015 77 10000 1.79 107 19:19 15.10.2021
5860 Rain 23 1015 77 10000 1.79 113 18:21 15.10.2021
5861 Clouds 23 1015 76 10000 1.79 113 15:46 15.10.2021
5862 Clouds 24 1016 74 10000 4.63 60 14:18 15.10.2021
5863 Rain 24 1015 74 10000 1.34 124 11:54 15.10.2021
5864 Clouds 24 1017 74 10000 1.79 97 10:58 15.10.2021
5865 Rain 24 1017 72 10000 1.79 89 10:28 15.10.2021
5866 Rain 24 1016 73 10000 0.45 147 07:35 15.10.2021
5867 Rain 26 1015 66 10000 1.34 89 04:26 15.10.2021
5868 Clouds 28 1015 62 10000 1.34 113 00:22 15.10.2021
5869 Rain 26 1015 69 10000 8.23 60 22:54 14.10.2021
5870 Rain 26 1015 70 10000 0.89 93 22:19 14.10.2021
5871 Rain 25 1015 69 10000 0.89 90 21:37 14.10.2021
5872 Clouds 25 1015 70 10000 1.34 83 20:20 14.10.2021
5873 Clouds 24 1014 72 10000 5.66 40 19:43 14.10.2021
5874 Clouds 24 1017 72 10000 2.24 7 18:26 14.10.2021
5875 Clouds 24 1016 73 10000 3.58 70 16:58 14.10.2021
5876 Clouds 24 1016 73 10000 1.34 89 16:31 14.10.2021
5877 Clouds 24 1017 73 10000 3.09 20 14:44 14.10.2021
5878 Clouds 24 1017 73 10000 3.09 20 14:26 14.10.2021
5879 Clouds 24 1019 68 10000 3.09 50 12:35 14.10.2021
5880 Clouds 25 1019 68 10000 6.17 70 10:46 14.10.2021
5881 Clouds 25 1017 69 10000 1.34 152 07:45 14.10.2021
5882 Rain 24 1015 71 10000 0.89 93 04:23 14.10.2021
5883 Clouds 28 1015 69 10000 1.34 140 00:34 14.10.2021
5884 Clouds 27 1019 67 10000 2.68 80 22:32 13.10.2021
5885 Rain 26 1015 70 10000 0.89 127 21:35 13.10.2021
5886 Clouds 26 1018 71 10000 2.24 100 20:41 13.10.2021
5887 Clouds 25 1018 71 10000 3.13 25 19:20 13.10.2021
5888 Clouds 25 1017 71 10000 1.34 94 18:37 13.10.2021
5889 Rain 24 1017 75 10000 3.13 0 15:54 13.10.2021
5890 Clouds 24 1015 74 10000 2.24 20 14:46 13.10.2021
5891 Clouds 25 1015 75 10000 2.68 83 14:23 13.10.2021
5892 Clouds 25 1018 72 10000 1.79 148 12:24 13.10.2021
5893 Clouds 25 1019 75 10000 2.24 87 11:35 13.10.2021
5894 Clouds 25 1019 75 10000 2.24 87 11:35 13.10.2021
5895 Clouds 26 1019 70 10000 1.79 89 08:57 13.10.2021
5896 Clouds 26 1018 69 10000 2.24 134 07:43 13.10.2021
5897 Clouds 28 1016 67 10000 2.24 87 02:30 13.10.2021
5898 Clouds 28 1017 69 10000 1.79 52 01:47 13.10.2021
5899 Clouds 28 1019 67 10000 1.34 47 23:31 12.10.2021
5900 Rain 28 1019 66 10000 1.34 0 22:47 12.10.2021
5901 Clouds 28 1019 69 10000 2.68 137 22:23 12.10.2021
5902 Clouds 27 1018 72 10000 2.68 68 20:46 12.10.2021
5903 Rain 26 1018 71 10000 2.24 83 20:18 12.10.2021
5904 Clouds 26 1017 70 10000 1.79 49 18:45 12.10.2021
5905 Clouds 25 1016 72 10000 1.79 92 17:57 12.10.2021
5906 Clouds 25 1016 74 10000 1.34 85 16:39 12.10.2021
5907 Clouds 25 1015 74 10000 1.34 120 15:58 12.10.2021
5908 Clouds 25 1016 73 10000 2.24 130 14:46 12.10.2021
5909 Clear 25 1017 74 10000 2.68 14 13:44 12.10.2021
5910 Clouds 25 1017 73 10000 1.79 4 12:40 12.10.2021
5911 Rain 25 1017 73 10000 1.79 140 09:59 12.10.2021
5912 Rain 25 1017 73 10000 2.68 93 08:44 12.10.2021
5913 Clouds 25 1016 75 10000 1.34 94 07:36 12.10.2021
5914 Rain 27 1013 67 10000 4.63 40 05:31 12.10.2021
5915 Rain 27 1015 71 10000 0.45 109 04:33 12.10.2021
5916 Clouds 29 1017 60 10000 1.34 107 00:28 12.10.2021
5917 Clouds 28 1017 59 10000 1.34 37 23:41 11.10.2021
5918 Clouds 28 1017 63 10000 0.89 131 22:57 11.10.2021
5919 Clouds 27 1015 62 10000 0.45 17 21:46 11.10.2021
5920 Clouds 26 1014 65 10000 0.45 59 20:47 11.10.2021
5921 Clouds 25 1017 68 10000 0.89 80 19:45 11.10.2021
5922 Clouds 24 1017 72 10000 2.24 75 18:42 11.10.2021
5923 Clouds 24 1016 68 10000 1.79 128 17:49 11.10.2021
5924 Clouds 24 1014 68 10000 0.89 51 16:39 11.10.2021
5925 Clouds 25 1016 68 10000 0.45 113 15:50 11.10.2021
5926 Clouds 25 1014 67 10000 0.45 104 14:55 11.10.2021
5927 Clouds 25 1014 67 10000 0.45 100 14:33 11.10.2021
5928 Clouds 25 1015 70 10000 0.89 100 13:36 11.10.2021
5929 Rain 25 1015 67 10000 0.45 80 11:39 11.10.2021
5930 Rain 25 1018 68 10000 0.89 107 10:31 11.10.2021
5931 Rain 25 1018 68 10000 0.89 107 10:31 11.10.2021
5932 Rain 25 1018 68 10000 0.89 123 09:22 11.10.2021
5933 Clouds 26 1013 64 10000 1.34 99 06:30 11.10.2021
5934 Clouds 28 1016 59 10000 1.34 82 01:38 11.10.2021
5935 Clouds 28 1016 57 10000 1.34 117 00:46 11.10.2021
5936 Clouds 28 1016 62 10000 1.79 87 23:57 10.10.2021
5937 Clear 28 1016 62 10000 1.79 87 23:57 10.10.2021
5938 Rain 24 1014 71 10000 0.89 17 21:51 10.10.2021
5939 Rain 25 1014 72 10000 1.79 80 21:29 10.10.2021
5940 Clouds 24 1016 72 10000 2.68 100 20:42 10.10.2021
5941 Clouds 24 1016 73 10000 2.24 121 20:21 10.10.2021
5942 Rain 24 1016 75 10000 1.79 319 19:53 10.10.2021
5943 Rain 23 1016 75 10000 3.13 76 19:34 10.10.2021
5944 Rain 24 1015 71 10000 1.34 80 18:32 10.10.2021
5945 Clouds 23 1013 75 10000 1.34 125 15:59 10.10.2021
5946 Rain 23 1015 79 10000 2.24 97 15:40 10.10.2021
5947 Clouds 24 1014 69 10000 1.34 82 13:42 10.10.2021
5948 Rain 25 1014 68 10000 2.68 113 12:48 10.10.2021
5949 Clouds 25 1014 68 10000 2.24 90 12:30 10.10.2021
5950 Clouds 25 1016 65 10000 2.24 13 10:42 10.10.2021
5951 Clouds 25 1016 65 10000 0.89 135 09:29 10.10.2021
5952 Clouds 25 1016 65 10000 2.24 79 08:52 10.10.2021
5953 Clouds 25 1015 65 10000 1.79 41 06:37 10.10.2021
5954 Rain 26 1014 63 10000 1.79 86 02:29 10.10.2021
5955 Clouds 26 1013 65 10000 2.24 11 00:55 10.10.2021
5956 Rain 26 1014 69 10000 3.13 89 23:52 09.10.2021
5957 Rain 26 1017 68 10000 2.24 73 22:39 09.10.2021
5958 Clouds 26 1014 62 10000 7.72 60 21:31 09.10.2021
5959 Clouds 26 1013 66 10000 1.79 121 20:59 09.10.2021
5960 Clouds 26 1013 66 10000 1.79 94 20:59 09.10.2021
5961 Clouds 25 1014 68 10000 1.34 75 19:43 09.10.2021
5962 Clouds 24 1012 71 10000 1.34 96 18:57 09.10.2021
5963 Clouds 25 1013 70 10000 2.68 134 18:32 09.10.2021
5964 Rain 24 1013 70 10000 3.58 83 16:28 09.10.2021
5965 Clouds 24 1015 74 10000 1.79 25 14:57 09.10.2021
5966 Clouds 25 1016 71 10000 1.34 97 13:40 09.10.2021
5967 Clouds 24 1017 71 10000 1.34 340 12:37 09.10.2021
5968 Clouds 24 1017 70 10000 2.24 61 11:33 09.10.2021
5969 Clouds 25 1017 72 10000 7.72 60 10:22 09.10.2021
5970 Clouds 25 1017 68 10000 1.34 75 09:30 09.10.2021
5971 Clouds 25 1017 68 10000 0.89 97 08:28 09.10.2021
5972 Clouds 26 1015 66 10000 1.34 56 06:54 09.10.2021
5973 Clouds 27 1015 58 10000 8.23 50 05:27 09.10.2021
5974 Clouds 28 1015 54 10000 0.45 73 02:48 09.10.2021
5975 Clouds 28 1017 53 10000 1.79 99 00:45 09.10.2021
5976 Clouds 28 1018 55 10000 2.24 0 23:35 08.10.2021
5977 Clouds 28 1018 57 10000 0.89 124 22:49 08.10.2021
5978 Clouds 28 1018 59 10000 0.89 56 21:47 08.10.2021
5979 Clouds 26 1018 63 10000 7.2 60 20:31 08.10.2021
5980 Clouds 25 1017 67 10000 1.79 89 18:23 08.10.2021
5981 Clouds 25 1016 67 10000 1.34 32 17:26 08.10.2021
5982 Clouds 24 1016 70 10000 1.34 149 16:44 08.10.2021
5983 Clouds 24 1016 70 10000 0.45 87 16:22 08.10.2021
5984 Clouds 25 1017 65 10000 0.89 130 13:48 08.10.2021
5985 Clouds 25 1014 67 10000 1.34 89 11:57 08.10.2021
5986 Clouds 25 1016 65 10000 0.45 161 10:50 08.10.2021
5987 Clouds 25 1016 65 10000 2.24 82 10:25 08.10.2021
5988 Clouds 25 1017 67 10000 1.79 78 06:49 08.10.2021
5989 Clouds 28 1016 56 10000 0.89 75 23:28 07.10.2021
5990 Clouds 27 1018 61 10000 1.79 90 22:55 07.10.2021
5991 Clouds 27 1018 62 10000 1.34 90 21:30 07.10.2021
5992 Clouds 26 1018 69 10000 0.45 142 20:42 07.10.2021
5993 Clouds 24 1017 70 10000 1.34 141 19:38 07.10.2021
5994 Rain 24 1016 72 10000 0.89 32 18:54 07.10.2021
5995 Clouds 24 1017 72 10000 0.89 107 17:34 07.10.2021
5996 Clouds 24 1017 73 10000 0.89 35 16:42 07.10.2021
5997 Clouds 25 1013 67 10000 5.36 70 14:56 07.10.2021
5998 Clouds 25 1017 64 10000 0.89 87 13:44 07.10.2021
5999 Clouds 25 1017 64 10000 1.79 173 13:19 07.10.2021
6000 Clouds 25 1018 64 10000 2.24 123 11:21 07.10.2021
6001 Clouds 25 1018 65 10000 2.68 16 10:46 07.10.2021
6002 Clouds 25 1018 65 10000 2.24 54 09:47 07.10.2021
6003 Clouds 25 1017 66 10000 0.89 97 08:54 07.10.2021
6004 Clouds 25 1017 66 10000 2.24 107 08:19 07.10.2021
6005 Clear 25 1016 66 10000 2.68 228 07:38 07.10.2021
6006 Clouds 26 1016 63 10000 2.24 32 06:41 07.10.2021
6007 Clouds 29 1017 55 10000 1.34 79 00:52 07.10.2021
6008 Clouds 28 1017 58 10000 2.24 121 23:20 06.10.2021
6009 Clouds 28 1017 60 10000 0.89 118 22:31 06.10.2021
6010 Clouds 27 1017 63 10000 0.89 147 21:26 06.10.2021
6011 Clouds 26 1016 67 10000 1.34 103 20:28 06.10.2021
6012 Clouds 25 1016 71 10000 0.89 106 19:21 06.10.2021
6013 Clouds 25 1015 72 10000 1.79 159 17:27 06.10.2021
6014 Clouds 25 1014 75 10000 1.34 0 15:43 06.10.2021
6015 Clouds 25 1013 69 10000 1.34 92 14:43 06.10.2021
6016 Clouds 25 1016 71 10000 1.34 94 13:24 06.10.2021
6017 Clouds 25 1016 71 10000 0.89 141 12:47 06.10.2021
6018 Clouds 25 1016 71 10000 0.45 155 12:25 06.10.2021
6019 Clouds 25 1016 72 10000 0.89 166 11:23 06.10.2021
6020 Clouds 26 1013 67 10000 1.79 80 09:40 06.10.2021
6021 Clouds 26 1012 68 10000 1.34 113 08:58 06.10.2021
6022 Clouds 26 1012 65 10000 0.89 124 08:30 06.10.2021
6023 Clouds 27 1013 62 10000 0.45 116 05:38 06.10.2021
6024 Clouds 28 1013 66 10000 0.45 158 01:56 06.10.2021
6025 Clouds 29 1014 58 10000 0.45 42 00:20 06.10.2021
6026 Clouds 29 1015 58 10000 0.89 72 23:51 05.10.2021
6027 Clouds 28 1015 58 10000 0.45 25 23:29 05.10.2021
6028 Clouds 28 1015 61 10000 0.89 103 22:30 05.10.2021
6029 Clouds 28 1015 61 10000 0.89 103 22:30 05.10.2021
6030 Clouds 27 1015 61 10000 0.89 127 21:51 05.10.2021
6031 Clouds 28 1015 60 10000 0.89 336 21:19 05.10.2021
6032 Clouds 27 1014 65 10000 0.89 71 20:26 05.10.2021
6033 Clouds 25 1013 71 10000 1.79 25 19:50 05.10.2021
6034 Clouds 25 1013 71 10000 1.34 100 19:22 05.10.2021
6035 Clouds 24 1012 72 10000 1.79 121 17:40 05.10.2021
6036 Clouds 25 1012 72 10000 1.34 125 15:27 05.10.2021
6037 Clouds 25 1011 70 10000 0.89 109 13:44 05.10.2021
6038 Clear 25 1009 71 10000 1.79 90 12:57 05.10.2021
6039 Rain 25 1012 72 10000 1.79 141 12:32 05.10.2021
6040 Clouds 25 1013 72 10000 0.45 147 11:22 05.10.2021
6041 Clouds 25 1013 69 10000 5.66 70 10:21 05.10.2021
6042 Clear 26 1009 73 10000 8.9 65 05:56 05.10.2021
6043 Clouds 29 1012 56 10000 5.66 50 00:37 05.10.2021
6044 Clouds 28 1013 61 10000 0.89 106 22:49 04.10.2021
6045 Clouds 26 1013 70 10000 0.89 85 20:45 04.10.2021
6046 Clouds 24 1011 73 10000 0.45 107 18:47 04.10.2021
6047 Clouds 24 1011 71 10000 1.79 114 16:39 04.10.2021
6048 Rain 24 1011 74 10000 0.89 135 15:32 04.10.2021
6049 Clouds 24 1011 74 10000 0.89 135 15:32 04.10.2021
6050 Rain 24 1012 75 10000 0.45 109 14:43 04.10.2021
6051 Rain 24 1011 74 10000 1.34 138 13:57 04.10.2021
6052 Rain 25 1013 72 10000 0.45 133 13:27 04.10.2021
6053 Rain 25 1013 71 10000 0.89 120 12:29 04.10.2021
6054 Rain 25 1011 75 10000 4.63 50 11:31 04.10.2021
6055 Clouds 25 1011 72 10000 0.45 45 10:34 04.10.2021
6056 Clouds 25 1012 71 10000 7.2 60 08:45 04.10.2021
6057 Clouds 25 1012 71 10000 0.89 134 07:43 04.10.2021
6058 Clouds 28 1011 67 10000 0.89 127 01:56 04.10.2021
6059 Clouds 27 1014 73 10000 0.45 149 22:41 03.10.2021
6060 Rain 26 1014 76 10000 3.6 50 21:42 03.10.2021
6061 Rain 27 1014 76 10000 3.6 50 21:23 03.10.2021
6062 Clouds 26 1013 75 10000 1.34 141 20:21 03.10.2021
6063 Clouds 24 1012 78 10000 0.89 135 19:30 03.10.2021
6064 Clouds 24 1012 79 10000 0.89 137 18:28 03.10.2021
6065 Clouds 24 1012 77 10000 1.54 20 17:28 03.10.2021
6066 Rain 24 1013 73 10000 3.09 90 14:48 03.10.2021
6067 Rain 24 1013 73 10000 0.45 130 14:24 03.10.2021
6068 Rain 25 1013 72 10000 4.12 50 13:34 03.10.2021
6069 Clouds 25 1013 76 10000 6.68 63 12:29 03.10.2021
6070 Clouds 26 1012 68 10000 0.89 133 10:43 03.10.2021
6071 Clouds 26 1011 67 10000 0.45 134 08:43 03.10.2021
6072 Clouds 29 1012 59 10000 0.89 63 03:29 03.10.2021
6073 Clouds 28 1015 64 10000 5.14 50 22:43 02.10.2021
6074 Rain 28 1015 67 10000 0.89 113 21:21 02.10.2021
6075 Rain 25 1014 75 10000 3.09 40 19:50 02.10.2021
6076 Rain 24 1013 75 10000 0.89 56 18:54 02.10.2021
6077 Clouds 24 1012 79 10000 0.89 18 17:57 02.10.2021
6078 Clouds 24 1013 75 10000 4.12 60 17:21 02.10.2021
6079 Rain 24 1013 72 10000 1.34 93 15:29 02.10.2021
6080 Clouds 24 1015 75 10000 0.45 114 16:35 30.09.2021
6081 Clear 25 1014 74 10000 0.45 97 14:57 30.09.2021
6082 Clouds 25 1016 71 10000 1.34 100 12:56 30.09.2021
6083 Clouds 25 1016 70 10000 5.14 70 11:35 30.09.2021
6084 Clouds 25 1016 71 10000 1.34 106 10:42 30.09.2021
6085 Clouds 25 1016 72 10000 4.63 60 09:31 30.09.2021
6086 Rain 25 1016 70 10000 0.89 123 08:28 30.09.2021
6087 Clear 25 1014 71 10000 0.45 148 06:59 30.09.2021
6088 Clouds 28 1014 59 10000 7.2 50 04:42 30.09.2021
6089 Clouds 28 1015 63 10000 4.63 40 00:46 30.09.2021
6090 Clouds 28 1015 63 10000 4.12 50 23:30 29.09.2021
6091 Rain 27 1016 70 10000 4.12 60 21:55 29.09.2021
6092 Clouds 27 1016 68 10000 0.45 0 20:57 29.09.2021
6093 Clouds 26 1016 67 10000 3.09 60 20:24 29.09.2021
6094 Clouds 24 1016 72 10000 2.06 30 19:43 29.09.2021
6095 Clouds 24 1015 72 10000 0.45 87 18:25 29.09.2021
6096 Clouds 24 1015 71 10000 5.66 70 17:26 29.09.2021
6097 Clouds 24 1015 70 10000 0.45 90 16:43 29.09.2021
6098 Clouds 25 1015 69 10000 4.63 50 15:45 29.09.2021
6099 Clouds 25 1015 69 10000 4.63 50 15:45 29.09.2021
6100 Clouds 24 1015 72 10000 0.45 71 14:38 29.09.2021
6101 Clouds 25 1016 70 10000 1.34 90 13:36 29.09.2021
6102 Clouds 25 1016 68 10000 0.89 125 12:46 29.09.2021
6103 Clouds 25 1017 68 10000 0.89 121 11:26 29.09.2021
6104 Clouds 25 1017 68 10000 1.34 120 10:38 29.09.2021
6105 Clouds 25 1017 69 10000 0.89 113 09:47 29.09.2021
6106 Clouds 25 1016 68 10000 1.79 90 08:44 29.09.2021
6107 Clouds 26 1013 70 10000 1.79 172 06:53 29.09.2021
6108 Clouds 28 1015 63 10000 6.69 80 00:51 29.09.2021
6109 Clouds 28 1017 66 10000 8.23 70 23:20 28.09.2021
6110 Clouds 28 1018 64 10000 0.45 305 22:22 28.09.2021
6111 Clouds 27 1017 65 10000 0.89 147 21:24 28.09.2021
6112 Clouds 26 1017 66 10000 0.45 87 20:24 28.09.2021
6113 Clouds 24 1017 72 10000 0.45 118 19:40 28.09.2021
6114 Clouds 24 1016 73 10000 0.45 154 18:42 28.09.2021
6115 Clouds 24 1016 74 10000 3.6 50 17:30 28.09.2021
6116 Clouds 24 1016 71 10000 1.34 30 15:21 28.09.2021
6117 Clouds 24 1017 68 10000 2.24 56 13:28 28.09.2021
6118 Clouds 25 1018 68 10000 0.45 121 12:27 28.09.2021
6119 Clouds 24 1018 72 10000 5.14 70 11:52 28.09.2021
6120 Clouds 24 1018 73 10000 0.45 110 11:34 28.09.2021
6121 Clouds 25 1018 71 10000 1.79 14 10:30 28.09.2021
6122 Clouds 25 1018 73 10000 2.24 104 09:29 28.09.2021
6123 Rain 25 1018 69 10000 1.34 145 08:44 28.09.2021
6124 Rain 25 1018 73 10000 1.34 117 08:25 28.09.2021
6125 Rain 25 1017 69 10000 2.68 18 06:46 28.09.2021
6126 Clouds 28 1016 70 10000 5.66 60 02:56 28.09.2021
6127 Clouds 29 1018 61 10000 1.79 92 00:34 28.09.2021
6128 Clouds 29 1019 62 10000 1.34 59 23:52 27.09.2021
6129 Clouds 29 1019 62 10000 0.89 75 23:27 27.09.2021
6130 Clouds 29 1019 63 10000 5.66 80 22:44 27.09.2021
6131 Clouds 28 1019 62 10000 5.14 70 21:38 27.09.2021
6132 Clouds 27 1019 67 10000 0.89 138 20:29 27.09.2021
6133 Clouds 25 1018 72 10000 0 0 19:40 27.09.2021
6134 Clouds 25 1018 72 10000 0.89 148 18:54 27.09.2021
6135 Clouds 25 1017 73 10000 3.09 30 17:41 27.09.2021
6136 Clouds 25 1017 73 10000 0.45 140 17:21 27.09.2021
6137 Clouds 25 1017 75 10000 2.06 10 16:35 27.09.2021
6138 Clouds 25 1017 73 10000 0.45 97 15:39 27.09.2021
6139 Clouds 25 1018 71 10000 1.79 134 13:50 27.09.2021
6140 Clouds 25 1018 71 10000 1.34 69 12:25 27.09.2021
6141 Clouds 25 1019 71 10000 0.89 109 10:51 27.09.2021
6142 Clouds 26 1019 69 10000 0.89 76 09:42 27.09.2021
6143 Clouds 26 1018 74 10000 1.34 142 07:57 27.09.2021
6144 Rain 29 1016 66 10000 5.66 40 03:40 27.09.2021
6145 Clouds 30 1018 65 10000 0.89 189 23:53 26.09.2021
6146 Clouds 27 1018 70 10000 2.24 87 21:59 26.09.2021
6147 Rain 28 1018 67 10000 1.34 127 21:27 26.09.2021
6148 Clouds 27 1018 69 10000 0.45 130 20:30 26.09.2021
6149 Clouds 26 1017 73 10000 1.34 103 19:54 26.09.2021
6150 Clouds 26 1017 74 10000 1.79 79 19:26 26.09.2021
6151 Clouds 26 1017 74 10000 1.79 79 19:26 26.09.2021
6152 Clouds 26 1017 74 10000 1.79 79 19:26 26.09.2021
6153 Clouds 26 1017 74 10000 1.79 79 19:26 26.09.2021
6154 Clouds 26 1017 74 10000 1.79 79 19:26 26.09.2021
6155 Clouds 26 1017 74 10000 1.79 79 19:26 26.09.2021
6156 Clouds 26 1017 74 10000 1.79 79 19:26 26.09.2021
6157 Clouds 25 1017 77 10000 2.24 0 18:41 26.09.2021
6158 Clouds 25 1016 75 10000 1.79 58 17:48 26.09.2021
6159 Clouds 25 1016 76 10000 1.79 116 17:20 26.09.2021
6160 Clouds 25 1016 75 10000 1.34 4 16:23 26.09.2021
6161 Rain 25 1016 74 10000 1.34 38 15:27 26.09.2021
6162 Rain 25 1017 74 10000 0.45 130 14:22 26.09.2021
6163 Clouds 26 1017 76 10000 0.89 97 13:42 26.09.2021
6164 Rain 25 1017 72 10000 0.89 121 12:31 26.09.2021
6165 Clouds 25 1017 74 10000 1.34 118 11:56 26.09.2021
6166 Clouds 25 1017 77 10000 0.89 75 11:26 26.09.2021
6167 Clouds 25 1017 74 10000 1.34 94 09:51 26.09.2021
6168 Clouds 25 1016 76 10000 5.14 80 08:41 26.09.2021
6169 Clouds 29 1016 65 10000 0.45 80 00:30 26.09.2021
6170 Rain 28 1014 65 10000 0.89 171 23:46 25.09.2021
6171 Clouds 28 1016 65 10000 6.69 60 22:39 25.09.2021
6172 Clouds 28 1016 65 10000 0.45 62 22:19 25.09.2021
6173 Clouds 28 1016 65 10000 0.45 62 22:19 25.09.2021
6174 Clouds 28 1016 64 10000 1.34 121 21:45 25.09.2021
6175 Clouds 27 1016 66 10000 0.45 159 20:52 25.09.2021
6176 Clouds 27 1016 66 10000 1.34 93 20:52 25.09.2021
6177 Clouds 23 1015 76 10000 1.79 190 19:40 25.09.2021
6178 Clouds 23 1015 75 10000 0.89 4 18:28 25.09.2021
6179 Rain 23 1015 75 10000 0.89 125 17:23 25.09.2021
6180 Clouds 24 1015 75 10000 0.45 134 14:38 25.09.2021
6181 Clouds 24 1015 73 10000 0.89 134 13:55 25.09.2021
6182 Clouds 24 1015 72 10000 5.66 50 12:45 25.09.2021
6183 Clouds 24 1015 73 10000 0.45 125 11:27 25.09.2021
6184 Rain 24 1015 74 10000 1.79 89 10:18 25.09.2021
6185 Rain 24 1014 78 10000 1.34 135 08:55 25.09.2021
6186 Rain 24 1012 78 10000 0.89 130 07:47 25.09.2021
6187 Clouds 29 1013 62 10000 6.69 30 00:52 25.09.2021
6188 Rain 28 1015 64 10000 6.17 50 22:18 24.09.2021
6189 Rain 25 1014 84 10000 0.45 92 21:32 24.09.2021
6190 Rain 24 1014 81 10000 2.57 330 20:32 24.09.2021
6191 Rain 24 1014 79 10000 3.09 350 19:29 24.09.2021
6192 Rain 24 1014 76 10000 2.06 10 18:18 24.09.2021
6193 Rain 24 1013 76 10000 5.14 40 17:42 24.09.2021
6194 Rain 24 1013 76 10000 0.45 72 17:23 24.09.2021
6195 Clouds 24 1013 76 10000 0.89 121 15:38 24.09.2021
6196 Clouds 25 1014 74 10000 5.14 60 13:20 24.09.2021
6197 Clouds 24 1015 75 10000 0.89 123 12:42 24.09.2021
6198 Clouds 24 1015 75 10000 0.45 93 12:24 24.09.2021
6199 Rain 24 1015 75 10000 1.34 66 10:38 24.09.2021
6200 Clouds 24 1013 74 10000 1.34 145 08:59 24.09.2021
6201 Rain 25 1014 73 10000 0.45 49 07:55 24.09.2021
6202 Rain 24 1013 81 10000 0.45 78 06:57 24.09.2021
6203 Clouds 25 1013 74 10000 1.34 94 05:22 24.09.2021
6204 Clouds 29 1014 63 10000 0.45 358 01:24 24.09.2021
6205 Clouds 27 1015 68 10000 0.89 118 22:37 23.09.2021
6206 Clouds 27 1015 72 10000 5.66 80 21:58 23.09.2021
6207 Clouds 26 1015 73 10000 0.89 142 20:51 23.09.2021
6208 Clouds 25 1015 74 10000 0.45 97 20:26 23.09.2021
6209 Clouds 24 1015 74 10000 0.45 102 18:27 23.09.2021
6210 Clouds 24 1015 73 10000 0.45 128 15:37 23.09.2021
6211 Clouds 24 1015 73 10000 0.45 125 15:18 23.09.2021
6212 Rain 23 1014 77 10000 0.89 121 13:57 23.09.2021
6213 Rain 24 1016 74 10000 4.12 50 13:23 23.09.2021
6214 Clouds 24 1015 75 10000 0.45 131 12:53 23.09.2021
6215 Clouds 25 1016 71 10000 0.89 121 12:23 23.09.2021
6216 Clouds 25 1015 75 10000 5.66 70 11:56 23.09.2021
6217 Clouds 25 1017 70 10000 0.89 114 10:28 23.09.2021
6218 Clouds 25 1016 70 10000 0.89 147 09:53 23.09.2021
6219 Rain 25 1016 72 10000 0.89 117 08:38 23.09.2021
6220 Clouds 27 1014 62 10000 0.89 94 05:27 23.09.2021
6221 Clouds 29 1017 56 10000 0.89 79 23:45 22.09.2021
6222 Clouds 28 1017 58 10000 0.89 27 22:44 22.09.2021
6223 Clouds 27 1017 65 10000 0.89 66 21:57 22.09.2021
6224 Clouds 27 1017 63 10000 0.89 99 21:34 22.09.2021
6225 Clouds 27 1017 68 10000 0.45 89 20:57 22.09.2021
6226 Rain 24 1016 72 10000 0.45 100 19:33 22.09.2021
6227 Clouds 25 1016 70 10000 0.45 142 18:40 22.09.2021
6228 Clouds 24 1014 76 10000 9.01 69 17:48 22.09.2021
6229 Clouds 24 1014 75 10000 0.89 166 16:41 22.09.2021
6230 Clouds 24 1015 70 10000 0.89 72 15:38 22.09.2021
6231 Clouds 25 1016 68 10000 0.89 35 14:25 22.09.2021
6232 Clouds 25 1017 67 10000 0.89 38 12:19 22.09.2021
6233 Clouds 24 1016 75 10000 1.79 80 10:57 22.09.2021
6234 Clouds 25 1017 69 10000 0.89 144 09:28 22.09.2021
6235 Clouds 25 1016 69 10000 0.89 123 08:30 22.09.2021
6236 Clouds 25 1016 69 10000 0.89 99 08:30 22.09.2021
6237 Clouds 26 1016 68 10000 0.89 102 07:21 22.09.2021
6238 Clouds 26 1015 67 10000 8.75 60 06:18 22.09.2021
6239 Clouds 27 1015 69 10000 0.45 96 05:36 22.09.2021
6240 Clouds 28 1014 67 10000 1.34 85 03:52 22.09.2021
6241 Clouds 29 1016 63 10000 0.45 169 00:37 22.09.2021
6242 Clouds 28 1017 68 10000 0.89 17 23:24 21.09.2021
6243 Clouds 27 1016 66 10000 5.66 60 21:37 21.09.2021
6244 Clouds 25 1015 74 10000 0.45 128 20:27 21.09.2021
6245 Clouds 25 1014 75 10000 0.45 106 19:22 21.09.2021
6246 Clouds 24 1014 77 10000 0.45 142 17:39 21.09.2021
6247 Rain 25 1015 71 10000 0.45 8 16:38 21.09.2021
6248 Rain 25 1015 70 10000 4.63 70 15:52 21.09.2021
6249 Clouds 25 1014 76 10000 0.89 137 14:58 21.09.2021
6250 Clouds 25 1015 74 10000 4.63 80 13:57 21.09.2021
6251 Clear 25 1016 71 10000 5.66 60 13:36 21.09.2021
6252 Clouds 25 1016 71 10000 0.45 113 12:36 21.09.2021
6253 Clouds 26 1017 63 10000 5.66 50 10:32 21.09.2021
6254 Clouds 27 1016 62 10000 4.63 50 08:29 21.09.2021
6255 Clouds 27 1015 61 10000 5.66 70 07:18 21.09.2021
6256 Clouds 31 1017 47 10000 8.75 40 00:48 21.09.2021
6257 Clouds 29 1017 54 10000 6.69 60 22:37 20.09.2021
6258 Clouds 28 1017 60 10000 4.63 80 21:41 20.09.2021
6259 Clouds 26 1016 69 10000 5.14 80 20:55 20.09.2021
6260 Clouds 25 1015 75 10000 1.34 79 19:33 20.09.2021
6261 Rain 24 1015 77 10000 0.89 130 17:52 20.09.2021
6262 Clouds 24 1015 74 10000 0.89 76 16:49 20.09.2021
6263 Clouds 24 1014 74 10000 1.79 124 15:56 20.09.2021
6264 Clouds 24 1015 71 10000 0.89 141 15:32 20.09.2021
6265 Clouds 24 1015 73 10000 0.45 147 14:25 20.09.2021
6266 Clouds 25 1016 69 10000 0.89 149 12:35 20.09.2021
6267 Clouds 25 1016 70 10000 1.34 147 11:44 20.09.2021
6268 Clouds 25 1016 69 10000 1.34 107 10:24 20.09.2021
6269 Clouds 25 1016 69 10000 1.79 28 09:37 20.09.2021
6270 Clouds 25 1016 70 10000 0.89 144 09:18 20.09.2021
6271 Rain 25 1015 71 10000 0.89 56 07:50 20.09.2021
6272 Clouds 29 1015 60 10000 0.89 49 01:43 20.09.2021
6273 Clouds 26 1017 72 10000 1.34 149 22:26 19.09.2021
6274 Rain 25 1017 71 10000 0.45 107 21:43 19.09.2021
6275 Rain 24 1016 73 10000 0.89 152 20:51 19.09.2021
6276 Rain 24 1016 77 10000 1.34 82 19:32 19.09.2021
6277 Rain 23 1015 77 10000 0.89 90 18:30 19.09.2021
6278 Rain 24 1015 73 10000 1.79 109 17:23 19.09.2021
6279 Rain 23 1014 76 10000 0.89 137 15:59 19.09.2021
6280 Rain 23 1015 79 9656 4.63 70 15:30 19.09.2021
6281 Rain 23 1015 79 9656 4.63 70 15:30 19.09.2021
6282 Rain 23 1016 76 10000 0.89 27 14:48 19.09.2021
6283 Rain 24 1016 80 10000 1.34 65 13:24 19.09.2021
6284 Rain 24 1016 77 10000 0.89 152 12:50 19.09.2021
6285 Clouds 25 1016 75 10000 0.89 145 11:28 19.09.2021
6286 Clouds 25 1017 72 10000 1.79 116 10:47 19.09.2021
6287 Clouds 25 1016 72 10000 2.24 83 09:40 19.09.2021
6288 Clouds 26 1016 68 10000 0.89 140 08:35 19.09.2021
6289 Clouds 26 1015 65 10000 1.34 120 06:42 19.09.2021
6290 Clouds 28 1017 59 10000 0.45 23 23:43 18.09.2021
6291 Clouds 27 1018 64 10000 2.68 87 22:23 18.09.2021
6292 Rain 26 1018 67 10000 1.79 68 20:52 18.09.2021
6293 Rain 26 1018 67 10000 1.79 68 20:52 18.09.2021
6294 Rain 26 1018 67 10000 2.24 96 20:32 18.09.2021
6295 Rain 24 1017 71 10000 1.79 72 19:39 18.09.2021
6296 Rain 25 1017 71 10000 1.79 61 19:20 18.09.2021
6297 Clouds 24 1017 73 10000 1.79 90 18:32 18.09.2021
6298 Clouds 24 1017 75 10000 1.34 333 17:31 18.09.2021
6299 Rain 24 1017 78 10000 2.06 360 16:18 18.09.2021
6300 Clouds 24 1017 75 10000 1.34 76 13:49 18.09.2021
6301 Clouds 25 1017 75 10000 0.89 135 13:29 18.09.2021
6302 Clouds 25 1018 72 10000 5.14 70 12:49 18.09.2021
6303 Clouds 25 1018 72 10000 5.14 70 12:49 18.09.2021
6304 Clouds 25 1018 73 10000 1.34 73 11:40 18.09.2021
6305 Clouds 25 1019 72 10000 1.79 99 10:31 18.09.2021
6306 Clouds 25 1018 69 10000 1.34 52 09:27 18.09.2021
6307 Clouds 25 1018 73 10000 1.34 87 08:55 18.09.2021
6308 Clouds 26 1015 70 10000 1.79 102 02:50 18.09.2021
6309 Clouds 27 1016 69 10000 0.89 82 00:41 18.09.2021
6310 Clouds 27 1016 68 10000 0.45 79 23:47 17.09.2021
6311 Clouds 26 1017 73 10000 1.79 104 22:33 17.09.2021
6312 Clouds 26 1018 72 10000 4.63 80 21:55 17.09.2021
6313 Clouds 26 1018 68 10000 2.68 78 20:45 17.09.2021
6314 Rain 24 1017 72 10000 2.24 358 18:54 17.09.2021
6315 Clouds 25 1017 73 10000 1.79 0 16:51 17.09.2021
6316 Clouds 25 1017 73 10000 1.79 144 16:18 17.09.2021
6317 Clouds 26 1018 72 10000 0.89 172 12:36 17.09.2021
6318 Clouds 26 1018 72 10000 1.34 113 10:41 17.09.2021
6319 Clouds 26 1018 70 10000 1.79 96 08:19 17.09.2021
6320 Clouds 27 1016 68 10000 1.79 87 06:43 17.09.2021
6321 Clouds 29 1017 64 10000 0.45 137 00:39 17.09.2021
6322 Clouds 30 1018 63 10000 7.2 80 22:46 16.09.2021
6323 Rain 30 1018 64 10000 7.2 80 22:24 16.09.2021
6324 Rain 28 1017 69 10000 6.17 60 21:39 16.09.2021
6325 Rain 28 1016 71 10000 0.89 172 20:43 16.09.2021
6326 Rain 26 1016 74 10000 1.34 145 19:36 16.09.2021
6327 Clouds 25 1015 76 10000 2.06 340 18:19 16.09.2021
6328 Rain 24 1015 78 10000 3.09 360 17:22 16.09.2021
6329 Rain 24 1015 76 10000 1.54 30 14:51 16.09.2021
6330 Clouds 25 1015 74 10000 0 0 13:47 16.09.2021
6331 Clouds 25 1015 75 10000 2.57 70 12:47 16.09.2021
6332 Clouds 24 1015 75 10000 2.65 91 11:55 16.09.2021
6333 Clouds 25 1016 73 10000 3.09 60 11:24 16.09.2021
6334 Clouds 25 1016 73 10000 1.54 90 10:29 16.09.2021
6335 Clouds 25 1015 73 10000 4.63 70 09:32 16.09.2021
6336 Rain 25 1013 74 10000 2.57 80 07:59 16.09.2021
6337 Rain 26 1013 69 10000 4.12 60 06:58 16.09.2021
6338 Rain 26 1013 69 10000 4.12 60 06:38 16.09.2021
6339 Rain 27 1012 70 10000 5.14 40 03:54 16.09.2021
6340 Clouds 29 1013 70 10000 0.45 20 00:58 16.09.2021
6341 Clouds 29 1015 64 10000 0.45 141 23:30 15.09.2021
6342 Rain 28 1014 64 10000 0.45 117 22:39 15.09.2021
6343 Clouds 27 1014 67 10000 0.45 142 21:31 15.09.2021
6344 Clouds 26 1014 71 10000 2.57 10 20:49 15.09.2021
6345 Clouds 23 1014 77 10000 2.06 360 19:33 15.09.2021
6346 Clouds 23 1013 77 10000 3.09 20 18:45 15.09.2021
6347 Rain 23 1013 77 10000 2.06 360 17:39 15.09.2021
6348 Rain 23 1013 78 10000 3.09 60 16:30 15.09.2021
6349 Rain 23 1013 77 10000 3.09 50 15:22 15.09.2021
6350 Rain 23 1013 75 10000 5.14 60 14:41 15.09.2021
6351 Rain 23 1015 75 10000 5.14 70 13:45 15.09.2021
6352 Rain 23 1015 75 10000 5.14 70 13:27 15.09.2021
6353 Rain 24 1015 73 10000 3.6 30 12:33 15.09.2021
6354 Rain 25 1015 71 10000 1.54 0 11:50 15.09.2021
6355 Clouds 25 1014 73 10000 1.79 137 10:57 15.09.2021
6356 Clouds 25 1014 73 10000 2.24 76 10:30 15.09.2021
6357 Clouds 24 1014 73 10000 1.34 292 08:47 15.09.2021
6358 Clouds 26 1015 72 10000 4.63 40 07:25 15.09.2021
6359 Rain 29 1015 59 10000 1.79 111 00:41 15.09.2021
6360 Rain 28 1016 63 10000 1.34 173 22:24 14.09.2021
6361 Clouds 27 1016 66 10000 1.79 56 21:21 14.09.2021
6362 Clouds 27 1016 66 10000 1.79 56 21:21 14.09.2021
6363 Rain 25 1016 66 10000 0.89 8 20:18 14.09.2021
6364 Rain 24 1015 73 10000 0.89 128 18:44 14.09.2021
6365 Rain 23 1014 74 10000 1.54 360 17:32 14.09.2021
6366 Rain 23 1013 70 10000 0.89 131 15:59 14.09.2021
6367 Rain 24 1015 73 10000 1.34 16 14:32 14.09.2021
6368 Rain 24 1015 75 10000 1.34 13 13:33 14.09.2021
6369 Rain 24 1016 78 10000 1.79 104 10:57 14.09.2021
6370 Rain 25 1016 74 10000 1.79 13 09:52 14.09.2021
6371 Rain 25 1016 74 10000 0.45 154 09:18 14.09.2021
6372 Clouds 25 1015 73 10000 0.45 290 07:28 14.09.2021
6373 Clear 29 1014 64 10000 0.89 52 00:57 14.09.2021
6374 Clear 29 1015 64 10000 7.71 64 22:58 13.09.2021
6375 Clouds 28 1017 63 10000 0.45 104 22:27 13.09.2021
6376 Clouds 27 1016 68 10000 0.89 102 21:54 13.09.2021
6377 Clouds 27 1017 64 10000 0.89 158 21:19 13.09.2021
6378 Clouds 27 1017 64 10000 0.89 158 21:19 13.09.2021
6379 Clouds 24 1016 75 10000 0.45 80 19:34 13.09.2021
6380 Clouds 24 1016 75 10000 0.45 106 18:43 13.09.2021
6381 Clouds 24 1015 75 10000 0.89 141 17:18 13.09.2021
6382 Clouds 23 1015 76 10000 0.89 107 15:50 13.09.2021
6383 Clouds 24 1015 76 10000 3.6 70 14:19 13.09.2021
6384 Clouds 25 1017 71 10000 0.89 18 11:21 13.09.2021
6385 Clouds 25 1017 74 10000 1.79 93 09:54 13.09.2021
6386 Clouds 26 1016 68 10000 0.89 17 07:30 13.09.2021
6387 Clouds 28 1017 62 10000 1.34 107 23:50 12.09.2021
6388 Clouds 27 1017 66 10000 0.45 106 22:26 12.09.2021
6389 Clouds 27 1017 68 10000 0.45 142 21:43 12.09.2021
6390 Clouds 25 1019 69 10000 4.63 40 20:40 12.09.2021
6391 Rain 24 1017 73 10000 1.34 140 19:54 12.09.2021
6392 Rain 24 1017 73 10000 1.34 140 19:54 12.09.2021
6393 Rain 24 1017 73 10000 1.79 68 19:28 12.09.2021
6394 Clouds 24 1016 74 10000 1.34 333 18:31 12.09.2021
6395 Rain 24 1016 75 10000 0.89 110 16:33 12.09.2021
6396 Rain 23 1015 74 10000 0.89 148 14:59 12.09.2021
6397 Rain 24 1016 71 10000 1.34 114 13:51 12.09.2021
6398 Rain 24 1016 70 10000 0.89 80 11:47 12.09.2021
6399 Rain 25 1017 71 10000 0.45 73 09:41 12.09.2021
6400 Clouds 25 1016 72 10000 0.45 106 08:38 12.09.2021
6401 Clouds 30 1016 59 10000 0.89 133 02:39 12.09.2021
6402 Clouds 29 1017 61 10000 8.23 70 23:38 11.09.2021
6403 Clouds 27 1018 68 10000 3.6 40 21:56 11.09.2021
6404 Clouds 27 1018 68 10000 3.6 40 21:36 11.09.2021
6405 Rain 24 1016 73 10000 2.06 360 19:25 11.09.2021
6406 Rain 23 1016 78 10000 3.09 340 17:38 11.09.2021
6407 Haze 23 1016 76 10000 3.09 360 15:52 11.09.2021
6408 Rain 23 1016 74 10000 2.06 350 13:52 11.09.2021
6409 Rain 23 1016 74 10000 2.06 350 13:18 11.09.2021
6410 Clouds 25 1017 72 10000 2.06 20 11:19 11.09.2021
6411 Clouds 25 1017 69 10000 2.57 30 09:38 11.09.2021
6412 Clouds 25 1016 68 10000 2.06 30 07:45 11.09.2021
6413 Clouds 26 1015 67 10000 2.06 360 06:52 11.09.2021
6414 Clouds 28 1016 63 10000 2.57 50 23:38 10.09.2021
6415 Clouds 27 1018 70 10000 3.09 330 22:25 10.09.2021
6416 Rain 25 1018 80 10000 3.09 300 21:54 10.09.2021
6417 Rain 25 1017 78 10000 1.54 40 20:24 10.09.2021
6418 Rain 23 1016 80 10000 1.54 270 18:27 10.09.2021
6419 Rain 24 1016 78 10000 1.54 0 16:51 10.09.2021
6420 Clouds 23 1017 78 10000 2.57 340 14:41 10.09.2021
6421 Clouds 25 1017 78 10000 4.12 50 11:56 10.09.2021
6422 Clouds 25 1017 69 10000 2.06 30 08:36 10.09.2021
6423 Clouds 26 1016 66 10000 4.12 40 07:49 10.09.2021
6424 Clouds 28 1018 63 10000 6.17 30 00:42 10.09.2021
6425 Clouds 29 1018 55 10000 6.69 70 22:31 09.09.2021
6426 Clouds 28 1018 58 10000 7.72 70 21:45 09.09.2021
6427 Clouds 27 1018 66 10000 5.14 60 20:46 09.09.2021
6428 Clouds 26 1017 68 10000 3.09 60 19:33 09.09.2021
6429 Clouds 24 1017 73 10000 2.57 20 18:26 09.09.2021
6430 Clouds 25 1016 71 10000 2.57 30 16:40 09.09.2021
6431 Clouds 25 1017 71 10000 3.6 40 15:27 09.09.2021
6432 Clouds 25 1018 66 10000 5.66 60 12:48 09.09.2021
6433 Clouds 26 1019 65 10000 5.66 50 11:33 09.09.2021
6434 Clouds 26 1019 65 10000 5.66 50 09:50 09.09.2021
6435 Clouds 26 1017 68 10000 7.2 50 08:32 09.09.2021
6436 Clouds 27 1016 65 10000 0.45 357 06:24 09.09.2021
6437 Clouds 30 1016 56 10000 0.89 97 01:31 09.09.2021
6438 Clouds 29 1017 61 10000 0.89 62 22:39 08.09.2021
6439 Clouds 28 1017 64 10000 5.66 60 21:22 08.09.2021
6440 Rain 25 1017 73 10000 4.12 70 19:56 08.09.2021
6441 Clouds 24 1016 74 10000 0.45 104 18:50 08.09.2021
6442 Clouds 24 1016 73 10000 3.6 60 18:27 08.09.2021
6443 Clouds 24 1016 75 10000 0.45 20 17:54 08.09.2021
6444 Clouds 24 1016 75 10000 0.89 99 16:27 08.09.2021
6445 Clouds 24 1016 76 10000 4.63 70 13:56 08.09.2021
6446 Clouds 25 1017 72 10000 2.06 0 12:42 08.09.2021
6447 Clouds 25 1017 72 10000 2.06 0 12:24 08.09.2021
6448 Clouds 25 1017 71 10000 6.17 60 11:26 08.09.2021
6449 Clouds 25 1017 71 10000 5.14 80 10:32 08.09.2021
6450 Clouds 25 1017 76 10000 4.63 70 09:57 08.09.2021
6451 Clouds 25 1015 75 10000 5.14 60 07:55 08.09.2021
6452 Clouds 26 1016 69 10000 4.12 30 07:29 08.09.2021
6453 Clouds 29 1016 60 10000 5.66 30 23:41 07.09.2021
6454 Clouds 29 1016 60 10000 5.66 30 23:41 07.09.2021
6455 Clouds 28 1017 63 10000 0.45 72 22:19 07.09.2021
6456 Rain 26 1017 70 10000 2.06 340 20:50 07.09.2021
6457 Clouds 24 1016 74 10000 2.06 340 19:40 07.09.2021
6458 Clouds 23 1016 80 10000 1.54 320 18:37 07.09.2021
6459 Clouds 24 1015 78 10000 0 0 17:38 07.09.2021
6460 Clouds 24 1015 79 10000 3.09 80 15:57 07.09.2021
6461 Clouds 24 1015 78 10000 3.09 80 14:54 07.09.2021
6462 Clouds 24 1016 75 10000 2.06 0 13:52 07.09.2021
6463 Clouds 25 1016 73 10000 4.12 70 12:20 07.09.2021
6464 Clouds 24 1016 79 10000 3.09 80 10:59 07.09.2021
6465 Clouds 24 1016 79 10000 3.09 80 10:59 07.09.2021
6466 Clouds 25 1017 74 10000 4.12 80 10:20 07.09.2021
6467 Clouds 26 1015 69 10000 3.09 30 07:48 07.09.2021
6468 Clouds 27 1014 65 10000 6.69 30 06:31 07.09.2021
6469 Clouds 30 1014 54 10000 0.45 336 02:39 07.09.2021
6470 Clouds 30 1014 54 10000 0.45 16 02:20 07.09.2021
6471 Clouds 30 1016 55 10000 4.12 60 23:52 06.09.2021
6472 Clouds 30 1016 53 10000 4.12 60 23:31 06.09.2021
6473 Clouds 29 1017 55 10000 2.57 0 22:51 06.09.2021
6474 Clouds 29 1017 55 10000 2.57 0 22:21 06.09.2021
6475 Clouds 27 1016 69 10000 2.06 330 20:35 06.09.2021
6476 Clouds 24 1015 77 10000 1.54 320 19:19 06.09.2021
6477 Clouds 23 1015 79 10000 2.06 330 18:35 06.09.2021
6478 Clouds 23 1014 78 10000 3.09 340 17:52 06.09.2021
6479 Clouds 23 1014 79 10000 2.06 360 16:20 06.09.2021
6480 Clear 23 1013 82 10000 5.19 58 14:59 06.09.2021
6481 Clouds 23 1014 76 10000 0 0 12:59 06.09.2021
6482 Clouds 24 1015 72 10000 0.45 93 12:41 06.09.2021
6483 Clouds 25 1015 72 10000 0 0 10:27 06.09.2021
6484 Clouds 25 1014 69 10000 3.09 0 07:39 06.09.2021
6485 Clouds 29 1013 58 10000 6.17 40 03:34 06.09.2021
6486 Clouds 29 1015 59 10000 0.89 120 23:22 05.09.2021
6487 Clouds 28 1015 62 10000 1.34 24 22:32 05.09.2021
6488 Clouds 27 1015 64 10000 0.45 292 21:55 05.09.2021
6489 Clouds 27 1014 64 10000 1.34 341 21:20 05.09.2021
6490 Clouds 24 1014 74 10000 0.45 73 19:30 05.09.2021
6491 Rain 23 1014 78 10000 0.45 113 17:51 05.09.2021
6492 Rain 23 1014 78 10000 0.45 96 15:43 05.09.2021
6493 Clouds 23 1014 79 10000 3.09 30 15:19 05.09.2021
6494 Rain 24 1015 77 10000 5.66 70 12:44 05.09.2021
6495 Clouds 25 1016 72 10000 1.79 348 11:31 05.09.2021
6496 Clouds 25 1015 70 10000 6.69 60 10:36 05.09.2021
6497 Clouds 25 1015 70 10000 1.34 99 09:33 05.09.2021
6498 Clouds 25 1014 69 10000 1.79 38 08:28 05.09.2021
6499 Clouds 29 1014 60 10000 0.45 82 03:22 05.09.2021
6500 Clouds 28 1016 67 10000 1.79 158 00:37 05.09.2021
6501 Clouds 28 1016 60 10000 1.79 56 23:54 04.09.2021
6502 Clouds 28 1017 59 10000 8.75 50 23:21 04.09.2021
6503 Clouds 28 1017 61 10000 0.89 0 22:34 04.09.2021
6504 Clouds 25 1015 72 10000 0.89 100 19:59 04.09.2021
6505 Clouds 25 1016 66 10000 2.24 124 19:32 04.09.2021
6506 Clouds 25 1016 69 10000 2.06 0 16:48 04.09.2021
6507 Clouds 25 1017 67 10000 1.34 114 14:28 04.09.2021
6508 Clouds 25 1018 66 10000 2.24 96 11:22 04.09.2021
6509 Clouds 26 1018 66 10000 1.34 79 09:39 04.09.2021
6510 Clouds 26 1017 65 10000 2.24 90 07:28 04.09.2021
6511 Clouds 29 1018 60 10000 1.79 127 00:30 04.09.2021
6512 Clouds 28 1018 61 10000 1.34 69 23:32 03.09.2021
6513 Clouds 28 1018 61 10000 1.34 69 23:32 03.09.2021
6514 Clouds 28 1018 64 10000 2.24 102 22:45 03.09.2021
6515 Clouds 27 1018 63 10000 1.79 133 21:36 03.09.2021
6516 Clouds 27 1018 65 10000 1.79 27 20:52 03.09.2021
6517 Clouds 25 1016 74 10000 1.79 79 19:57 03.09.2021
6518 Clouds 26 1018 66 10000 2.68 38 19:29 03.09.2021
6519 Clouds 25 1015 75 10000 1.79 80 17:57 03.09.2021
6520 Clouds 25 1017 70 10000 2.24 51 16:40 03.09.2021
6521 Clouds 25 1018 72 10000 1.79 32 15:20 03.09.2021
6522 Clouds 25 1018 78 10000 1.34 110 12:59 03.09.2021
6523 Clouds 25 1018 75 10000 0.89 121 10:43 03.09.2021
6524 Clouds 26 1018 75 10000 1.34 71 09:19 03.09.2021
6525 Clouds 26 1017 70 10000 0.89 1 07:51 03.09.2021
6526 Clouds 28 1015 64 10000 0.45 142 05:30 03.09.2021
6527 Clouds 28 1015 64 10000 0.45 142 05:30 03.09.2021
6528 Clouds 30 1017 61 10000 0.89 93 23:21 02.09.2021
6529 Clouds 28 1017 68 10000 1.34 73 21:41 02.09.2021
6530 Clouds 27 1016 67 10000 1.79 32 20:18 02.09.2021
6531 Clouds 25 1014 72 10000 0.89 128 17:33 02.09.2021
6532 Clouds 25 1014 72 10000 4.63 70 15:54 02.09.2021
6533 Clouds 25 1014 76 10000 3.6 80 13:59 02.09.2021
6534 Clouds 25 1014 76 10000 0.45 21 12:56 02.09.2021
6535 Clouds 26 1015 71 10000 7.2 60 11:36 02.09.2021
6536 Clouds 26 1014 71 10000 3.6 90 09:47 02.09.2021
6537 Clouds 26 1014 71 10000 5.66 90 08:20 02.09.2021
6538 Clouds 26 1013 69 10000 5.66 80 07:18 02.09.2021
6539 Clouds 29 1011 63 10000 5.45 78 02:57 02.09.2021
6540 Clouds 30 1013 56 10000 6.69 140 02:33 02.09.2021
6541 Clouds 30 1014 58 10000 6.17 140 01:29 02.09.2021
6542 Clouds 29 1015 60 10000 6.17 150 23:40 01.09.2021
6543 Clouds 29 1015 55 10000 3.6 150 22:41 01.09.2021
6544 Clouds 28 1014 63 10000 4.12 90 21:40 01.09.2021
6545 Clouds 26 1014 71 10000 2.06 360 20:39 01.09.2021
6546 Clouds 23 1012 81 10000 2.57 330 18:43 01.09.2021
6547 Clouds 23 1012 79 10000 1.54 360 17:40 01.09.2021
6548 Clouds 22 1012 81 10000 0 0 16:47 01.09.2021
6549 Clouds 23 1012 81 10000 2.06 340 15:29 01.09.2021
6550 Rain 23 1014 78 10000 1.54 360 12:19 01.09.2021
6551 Rain 23 1014 77 10000 2.57 360 11:44 01.09.2021
6552 Clouds 24 1013 75 10000 2.06 320 08:47 01.09.2021
6553 Rain 24 1012 77 10000 4.12 290 07:52 01.09.2021
6554 Clouds 28 1011 63 10000 5.66 160 03:27 01.09.2021
6555 Clouds 28 1014 63 10000 4.12 180 22:39 31.08.2021
6556 Clouds 28 1015 63 10000 0 0 21:24 31.08.2021
6557 Clouds 23 1014 77 10000 2.06 350 19:45 31.08.2021
6558 Clouds 23 1013 76 10000 1.54 350 18:28 31.08.2021
6559 Clouds 23 1013 76 10000 0 0 17:36 31.08.2021
6560 Clouds 23 1012 77 10000 0 0 16:53 31.08.2021
6561 Clouds 22 1013 78 10000 0 0 16:24 31.08.2021
6562 Clouds 23 1014 77 10000 3.6 340 13:20 31.08.2021
6563 Clouds 24 1015 72 10000 4.12 320 11:27 31.08.2021
6564 Clouds 24 1015 72 10000 2.06 330 10:52 31.08.2021
6565 Clouds 24 1015 71 10000 1.54 10 09:44 31.08.2021
6566 Clouds 25 1015 70 10000 2.57 20 08:38 31.08.2021
6567 Clouds 27 1013 66 10000 4.12 40 05:58 31.08.2021
6568 Rain 28 1015 55 10000 4.12 50 01:36 31.08.2021
6569 Clouds 29 1017 54 10000 4.12 200 23:35 30.08.2021
6570 Clouds 28 1017 59 10000 4.12 90 21:43 30.08.2021
6571 Clouds 26 1016 67 10000 2.57 340 20:42 30.08.2021
6572 Clouds 26 1016 68 10000 2.57 340 20:18 30.08.2021
6573 Clouds 24 1016 75 10000 2.57 320 19:29 30.08.2021
6574 Clouds 23 1015 76 10000 1.54 320 18:30 30.08.2021
6575 Clouds 23 1014 75 10000 0 0 17:44 30.08.2021
6576 Clouds 23 1014 74 10000 0 0 16:19 30.08.2021
6577 Clouds 24 1015 73 10000 2.57 60 14:51 30.08.2021
6578 Clouds 24 1016 72 10000 1.54 50 13:27 30.08.2021
6579 Clouds 23 1016 73 10000 2.57 90 11:57 30.08.2021
6580 Rain 25 1015 68 10000 0.45 31 08:27 30.08.2021
6581 Clouds 29 1016 60 10000 4.63 90 22:26 29.08.2021
6582 Rain 27 1017 65 10000 4.63 50 21:31 29.08.2021
6583 Rain 24 1016 77 10000 0.45 76 19:33 29.08.2021
6584 Rain 23 1015 76 10000 2.57 340 18:47 29.08.2021
6585 Clouds 23 1014 75 10000 2.57 20 17:41 29.08.2021
6586 Clouds 24 1014 76 10000 3.6 60 15:25 29.08.2021
6587 Clear 24 1013 76 10000 5.57 63 13:57 29.08.2021
6588 Clear 24 1013 77 10000 5.76 63 12:58 29.08.2021
6589 Clouds 25 1015 72 10000 3.6 60 12:21 29.08.2021
6590 Clouds 25 1015 70 10000 0.45 31 11:41 29.08.2021
6591 Clouds 25 1015 72 10000 0.45 121 10:49 29.08.2021
6592 Rain 25 1015 72 10000 4.63 40 10:30 29.08.2021
6593 Rain 25 1015 73 10000 3.6 40 09:44 29.08.2021
6594 Clouds 28 1013 60 10000 5.66 20 04:39 29.08.2021
6595 Clouds 28 1014 65 10000 4.63 70 22:58 28.08.2021
6596 Clouds 27 1014 66 10000 1.34 175 20:34 28.08.2021
6597 Clouds 24 1014 71 10000 1.79 0 19:30 28.08.2021
6598 Clouds 24 1014 73 10000 1.34 92 18:26 28.08.2021
6599 Clouds 24 1013 73 10000 1.34 141 17:46 28.08.2021
6600 Clouds 23 1013 72 10000 0.45 110 16:44 28.08.2021
6601 Clouds 24 1013 74 10000 0.45 94 15:20 28.08.2021
6602 Clear 24 1012 77 10000 0.45 148 13:58 28.08.2021
6603 Clouds 24 1014 72 10000 0.45 80 13:39 28.08.2021
6604 Clear 24 1014 72 10000 0 0 12:30 28.08.2021
6605 Clouds 25 1014 70 10000 0.89 79 11:34 28.08.2021
6606 Clouds 25 1014 70 10000 0.45 68 09:48 28.08.2021
6607 Clouds 26 1013 67 10000 5.14 30 07:56 28.08.2021
6608 Clouds 29 1014 53 10000 8.75 40 23:49 27.08.2021
6609 Clouds 28 1015 61 10000 4.12 50 21:29 27.08.2021
6610 Clouds 26 1014 66 10000 2.06 110 20:52 27.08.2021
6611 Rain 24 1014 72 10000 0.89 148 19:32 27.08.2021
6612 Clouds 24 1014 72 10000 0.45 138 18:39 27.08.2021
6613 Clouds 24 1013 73 10000 0 0 17:45 27.08.2021
6614 Clouds 24 1013 74 10000 0.89 134 16:31 27.08.2021
6615 Rain 24 1014 73 10000 5.66 60 14:44 27.08.2021
6616 Clouds 24 1014 74 10000 1.34 134 12:57 27.08.2021
6617 Rain 24 1015 73 10000 0.89 92 11:43 27.08.2021
6618 Rain 25 1015 70 10000 6.69 70 10:49 27.08.2021
6619 Clouds 24 1014 75 10000 0.45 80 09:58 27.08.2021
6620 Clouds 25 1014 71 10000 1.34 89 08:56 27.08.2021
6621 Clouds 25 1014 70 10000 0.89 20 08:35 27.08.2021
6622 Rain 26 1013 65 10000 0.45 71 05:35 27.08.2021
6623 Clouds 29 1014 56 10000 7.2 40 00:40 27.08.2021
6624 Clouds 29 1015 58 10000 0.89 142 23:52 26.08.2021
6625 Rain 27 1015 64 10000 0.45 99 22:23 26.08.2021
6626 Rain 27 1015 65 10000 6.17 60 21:32 26.08.2021
6627 Clouds 24 1015 71 10000 3.6 70 19:30 26.08.2021
6628 Rain 24 1014 69 10000 0.45 135 17:47 26.08.2021
6629 Clouds 24 1014 71 10000 0.89 103 17:24 26.08.2021
6630 Clouds 24 1014 71 10000 1.34 97 16:26 26.08.2021
6631 Clear 24 1013 74 10000 7.91 65 13:59 26.08.2021
6632 Clear 24 1014 74 10000 0.89 24 12:58 26.08.2021
6633 Rain 25 1016 69 10000 1.79 109 12:32 26.08.2021
6634 Clouds 25 1016 68 10000 0.89 69 10:33 26.08.2021
6635 Clouds 25 1015 68 10000 2.24 107 08:35 26.08.2021
6636 Clouds 26 1014 66 10000 1.34 102 07:47 26.08.2021
6637 Clouds 28 1015 67 10000 1.79 103 22:55 25.08.2021
6638 Clouds 28 1016 62 10000 1.79 63 22:36 25.08.2021
6639 Clouds 26 1015 69 10000 0.89 145 21:54 25.08.2021
6640 Clouds 26 1016 72 10000 1.79 109 20:49 25.08.2021
6641 Clouds 25 1016 73 10000 2.24 121 20:28 25.08.2021
6642 Clouds 24 1015 74 10000 0.89 130 18:45 25.08.2021
6643 Clouds 24 1015 73 10000 0.89 142 17:43 25.08.2021
6644 Clouds 25 1015 69 10000 1.34 69 15:46 25.08.2021
6645 Clouds 25 1015 69 10000 1.79 51 14:48 25.08.2021
6646 Clouds 25 1015 69 10000 1.79 78 14:30 25.08.2021
6647 Clouds 25 1015 69 10000 2.24 145 14:30 25.08.2021
6648 Clouds 25 1015 69 10000 1.79 151 13:30 25.08.2021
6649 Clouds 25 1016 68